<?xml version="1.0" encoding="UTF-8" standalone="no" ?>
<gpx xmlns="http://www.topografix.com/GPX/1/1" xmlns:xsi="http://www.w3.org/2001/XMLSchema-instance" xsi:schemaLocation="http://www.topografix.com/GPX/1/1 http://www.topografix.com/GPX/1/1/gpx.xsd" version="1.1" creator="VisuGPX - https://www.visugpx.com">
  <metadata>
    <name>Un p'tit tour dans les monts d'Ambazac 1</name>
    <desc><![CDATA[Été 2021 ]]></desc>
  </metadata>
  <trk>
    <name><![CDATA[Un p'tit tour dans les monts d'Ambazac]]></name>
    <extensions>
      <line xmlns="http://www.topografix.com/GPX/gpx_style/0/2">
        <color>0000FF</color>
        <width>4</width>
      </line>
    </extensions>
    <trkseg>
      <trkpt lat="45.95224" lon="1.38935">
        <ele>391.168678</ele>
        <time>2021-07-06T16:21:49.874Z</time>
      </trkpt>
      <trkpt lat="45.95209" lon="1.38921">
        <ele>391.168678</ele>
        <time>2021-07-06T16:21:52.805Z</time>
      </trkpt>
      <trkpt lat="45.95194" lon="1.38912">
        <ele>391.168678</ele>
        <time>2021-07-06T16:21:55.691Z</time>
      </trkpt>
      <trkpt lat="45.95189" lon="1.38909">
        <ele>391.168678</ele>
        <time>2021-07-06T16:21:56.450Z</time>
      </trkpt>
      <trkpt lat="45.9517" lon="1.38898">
        <ele>391.168678</ele>
        <time>2021-07-06T16:22:00.104Z</time>
      </trkpt>
      <trkpt lat="45.95137" lon="1.38859">
        <ele>391.46005</ele>
        <time>2021-07-06T16:22:07.977Z</time>
      </trkpt>
      <trkpt lat="45.95123" lon="1.3882">
        <ele>392.149725</ele>
        <time>2021-07-06T16:22:13.995Z</time>
      </trkpt>
      <trkpt lat="45.95117" lon="1.38806">
        <ele>392.417969</ele>
        <time>2021-07-06T16:22:16.925Z</time>
      </trkpt>
      <trkpt lat="45.95117" lon="1.38806">
        <ele>392.417969</ele>
        <time>2021-07-06T16:22:16.935Z</time>
      </trkpt>
      <trkpt lat="45.95108" lon="1.38785">
        <ele>392.794114</ele>
        <time>2021-07-06T16:22:23.961Z</time>
      </trkpt>
      <trkpt lat="45.95079" lon="1.3875">
        <ele>393.652287</ele>
        <time>2021-07-06T16:22:40.331Z</time>
      </trkpt>
      <trkpt lat="45.95152" lon="1.38686">
        <ele>396.09137</ele>
        <time>2021-07-06T16:23:25.849Z</time>
      </trkpt>
      <trkpt lat="45.95171" lon="1.38656">
        <ele>397.654002</ele>
        <time>2021-07-06T16:23:43.336Z</time>
      </trkpt>
      <trkpt lat="45.95184" lon="1.38598">
        <ele>400.030423</ele>
        <time>2021-07-06T16:24:10.598Z</time>
      </trkpt>
      <trkpt lat="45.95186" lon="1.38569">
        <ele>401.144325</ele>
        <time>2021-07-06T16:24:23.801Z</time>
      </trkpt>
      <trkpt lat="45.95171" lon="1.3846">
        <ele>405.284361</ele>
        <time>2021-07-06T16:25:10.904Z</time>
      </trkpt>
      <trkpt lat="45.9517" lon="1.38406">
        <ele>406.158832</ele>
        <time>2021-07-06T16:25:30.103Z</time>
      </trkpt>
      <trkpt lat="45.95165" lon="1.38371">
        <ele>406.735636</ele>
        <time>2021-07-06T16:25:41.926Z</time>
      </trkpt>
      <trkpt lat="45.95179" lon="1.38287">
        <ele>408.150321</ele>
        <time>2021-07-06T16:26:08.195Z</time>
      </trkpt>
      <trkpt lat="45.9519" lon="1.38264">
        <ele>408.606606</ele>
        <time>2021-07-06T16:26:15.861Z</time>
      </trkpt>
      <trkpt lat="45.95215" lon="1.38233">
        <ele>409.382328</ele>
        <time>2021-07-06T16:26:26.204Z</time>
      </trkpt>
      <trkpt lat="45.95259" lon="1.38192">
        <ele>408.720012</ele>
        <time>2021-07-06T16:26:41.625Z</time>
      </trkpt>
      <trkpt lat="45.95318" lon="1.38152">
        <ele>407.881892</ele>
        <time>2021-07-06T16:26:59.763Z</time>
      </trkpt>
      <trkpt lat="45.95328" lon="1.38143">
        <ele>407.726321</ele>
        <time>2021-07-06T16:27:03.034Z</time>
      </trkpt>
      <trkpt lat="45.95327" lon="1.38124">
        <ele>407.554824</ele>
        <time>2021-07-06T16:27:06.562Z</time>
      </trkpt>
      <trkpt lat="45.9531" lon="1.37949">
        <ele>406.692094</ele>
        <time>2021-07-06T16:27:41.124Z</time>
      </trkpt>
      <trkpt lat="45.95295" lon="1.37866">
        <ele>406.426373</ele>
        <time>2021-07-06T16:27:59.802Z</time>
      </trkpt>
      <trkpt lat="45.95289" lon="1.37832">
        <ele>406.316573</ele>
        <time>2021-07-06T16:28:06.121Z</time>
      </trkpt>
      <trkpt lat="45.95284" lon="1.37774">
        <ele>406.932559</ele>
        <time>2021-07-06T16:28:17.184Z</time>
      </trkpt>
      <trkpt lat="45.95286" lon="1.37725">
        <ele>407.713309</ele>
        <time>2021-07-06T16:28:27.535Z</time>
      </trkpt>
      <trkpt lat="45.95289" lon="1.37707">
        <ele>408.004139</ele>
        <time>2021-07-06T16:28:31.684Z</time>
      </trkpt>
      <trkpt lat="45.9529" lon="1.37701">
        <ele>408.107935</ele>
        <time>2021-07-06T16:28:33.193Z</time>
      </trkpt>
      <trkpt lat="45.95288" lon="1.37692">
        <ele>408.256488</ele>
        <time>2021-07-06T16:28:35.247Z</time>
      </trkpt>
      <trkpt lat="45.95315" lon="1.37606">
        <ele>409.742605</ele>
        <time>2021-07-06T16:28:57.503Z</time>
      </trkpt>
      <trkpt lat="45.9533" lon="1.37561">
        <ele>410.503461</ele>
        <time>2021-07-06T16:29:10.096Z</time>
      </trkpt>
      <trkpt lat="45.95348" lon="1.37541">
        <ele>410.900808</ele>
        <time>2021-07-06T16:29:17.917Z</time>
      </trkpt>
      <trkpt lat="45.95376" lon="1.37536">
        <ele>411.415736</ele>
        <time>2021-07-06T16:29:28.079Z</time>
      </trkpt>
      <trkpt lat="45.95404" lon="1.37545">
        <ele>411.92636</ele>
        <time>2021-07-06T16:29:36.714Z</time>
      </trkpt>
      <trkpt lat="45.95449" lon="1.37585">
        <ele>412.890706</ele>
        <time>2021-07-06T16:29:51.292Z</time>
      </trkpt>
      <trkpt lat="45.95472" lon="1.37609">
        <ele>413.39693</ele>
        <time>2021-07-06T16:29:58.828Z</time>
      </trkpt>
      <trkpt lat="45.95483" lon="1.37614">
        <ele>413.60582</ele>
        <time>2021-07-06T16:30:02.287Z</time>
      </trkpt>
      <trkpt lat="45.95512" lon="1.37639">
        <ele>413.351507</ele>
        <time>2021-07-06T16:30:13.551Z</time>
      </trkpt>
      <trkpt lat="45.95527" lon="1.37639">
        <ele>413.242652</ele>
        <time>2021-07-06T16:30:18.349Z</time>
      </trkpt>
      <trkpt lat="45.95542" lon="1.37627">
        <ele>413.116853</ele>
        <time>2021-07-06T16:30:23.546Z</time>
      </trkpt>
      <trkpt lat="45.95546" lon="1.37609">
        <ele>413.020218</ele>
        <time>2021-07-06T16:30:27.384Z</time>
      </trkpt>
      <trkpt lat="45.9555" lon="1.3744">
        <ele>411.850759</ele>
        <time>2021-07-06T16:31:01.195Z</time>
      </trkpt>
      <trkpt lat="45.95547" lon="1.37426">
        <ele>411.593478</ele>
        <time>2021-07-06T16:31:03.918Z</time>
      </trkpt>
      <trkpt lat="45.95523" lon="1.37372">
        <ele>410.496862</ele>
        <time>2021-07-06T16:31:16.326Z</time>
      </trkpt>
      <trkpt lat="45.95517" lon="1.37333">
        <ele>409.801421</ele>
        <time>2021-07-06T16:31:23.755Z</time>
      </trkpt>
      <trkpt lat="45.95512" lon="1.37309">
        <ele>409.358605</ele>
        <time>2021-07-06T16:31:28.778Z</time>
      </trkpt>
      <trkpt lat="45.95498" lon="1.37307">
        <ele>409.009401</ele>
        <time>2021-07-06T16:31:32.182Z</time>
      </trkpt>
      <trkpt lat="45.95408" lon="1.37243">
        <ele>405.6483</ele>
        <time>2021-07-06T16:31:57.731Z</time>
      </trkpt>
      <trkpt lat="45.95389" lon="1.37231">
        <ele>404.762828</ele>
        <time>2021-07-06T16:32:02.955Z</time>
      </trkpt>
      <trkpt lat="45.95386" lon="1.37209">
        <ele>404.110739</ele>
        <time>2021-07-06T16:32:06.867Z</time>
      </trkpt>
      <trkpt lat="45.95377" lon="1.37149">
        <ele>402.313653</ele>
        <time>2021-07-06T16:32:17.279Z</time>
      </trkpt>
      <trkpt lat="45.95355" lon="1.37015">
        <ele>397.988416</ele>
        <time>2021-07-06T16:32:40.508Z</time>
      </trkpt>
      <trkpt lat="45.95348" lon="1.36951">
        <ele>395.772135</ele>
        <time>2021-07-06T16:32:51.415Z</time>
      </trkpt>
      <trkpt lat="45.95346" lon="1.36919">
        <ele>394.685763</ele>
        <time>2021-07-06T16:32:56.955Z</time>
      </trkpt>
      <trkpt lat="45.95352" lon="1.36866">
        <ele>392.862061</ele>
        <time>2021-07-06T16:33:05.981Z</time>
      </trkpt>
      <trkpt lat="45.95362" lon="1.36829">
        <ele>391.498446</ele>
        <time>2021-07-06T16:33:12.660Z</time>
      </trkpt>
      <trkpt lat="45.95356" lon="1.36799">
        <ele>390.559491</ele>
        <time>2021-07-06T16:33:17.700Z</time>
      </trkpt>
      <trkpt lat="45.95348" lon="1.36756">
        <ele>389.188759</ele>
        <time>2021-07-06T16:33:25.439Z</time>
      </trkpt>
      <trkpt lat="45.95347" lon="1.36752">
        <ele>389.050261</ele>
        <time>2021-07-06T16:33:26.085Z</time>
      </trkpt>
      <trkpt lat="45.9534" lon="1.3672">
        <ele>388.031809</ele>
        <time>2021-07-06T16:33:31.885Z</time>
      </trkpt>
      <trkpt lat="45.95313" lon="1.36668">
        <ele>386.054781</ele>
        <time>2021-07-06T16:33:42.992Z</time>
      </trkpt>
      <trkpt lat="45.95285" lon="1.36638">
        <ele>384.523648</ele>
        <time>2021-07-06T16:33:51.663Z</time>
      </trkpt>
      <trkpt lat="45.95275" lon="1.36593">
        <ele>383.382272</ele>
        <time>2021-07-06T16:33:59.817Z</time>
      </trkpt>
      <trkpt lat="45.95302" lon="1.36503">
        <ele>382.270351</ele>
        <time>2021-07-06T16:34:18.182Z</time>
      </trkpt>
      <trkpt lat="45.95316" lon="1.36417">
        <ele>381.271717</ele>
        <time>2021-07-06T16:34:36.141Z</time>
      </trkpt>
      <trkpt lat="45.95333" lon="1.36375">
        <ele>380.716405</ele>
        <time>2021-07-06T16:34:46.613Z</time>
      </trkpt>
      <trkpt lat="45.95372" lon="1.36322">
        <ele>381.061696</ele>
        <time>2021-07-06T16:35:04.216Z</time>
      </trkpt>
      <trkpt lat="45.95383" lon="1.36308">
        <ele>381.194533</ele>
        <time>2021-07-06T16:35:09.232Z</time>
      </trkpt>
      <trkpt lat="45.95423" lon="1.36264">
        <ele>381.660131</ele>
        <time>2021-07-06T16:35:27.753Z</time>
      </trkpt>
      <trkpt lat="45.95451" lon="1.36233">
        <ele>381.988387</ele>
        <time>2021-07-06T16:35:41.617Z</time>
      </trkpt>
      <trkpt lat="45.95514" lon="1.36178">
        <ele>383.448573</ele>
        <time>2021-07-06T16:36:10.979Z</time>
      </trkpt>
      <trkpt lat="45.95607" lon="1.36046">
        <ele>387.11635</ele>
        <time>2021-07-06T16:37:12.388Z</time>
      </trkpt>
      <trkpt lat="45.95663" lon="1.36012">
        <ele>389.958981</ele>
        <time>2021-07-06T16:37:43.470Z</time>
      </trkpt>
      <trkpt lat="45.95668" lon="1.36012">
        <ele>390.218964</ele>
        <time>2021-07-06T16:37:47.222Z</time>
      </trkpt>
      <trkpt lat="45.95682" lon="1.36015">
        <ele>390.936309</ele>
        <time>2021-07-06T16:37:52.753Z</time>
      </trkpt>
      <trkpt lat="45.95688" lon="1.36015">
        <ele>391.225225</ele>
        <time>2021-07-06T16:37:55.698Z</time>
      </trkpt>
      <trkpt lat="45.9571" lon="1.36015">
        <ele>392.327292</ele>
        <time>2021-07-06T16:38:05.930Z</time>
      </trkpt>
      <trkpt lat="45.95763" lon="1.36022">
        <ele>394.97018</ele>
        <time>2021-07-06T16:38:30.762Z</time>
      </trkpt>
      <trkpt lat="45.95804" lon="1.36021">
        <ele>397.339694</ele>
        <time>2021-07-06T16:38:51.645Z</time>
      </trkpt>
      <trkpt lat="45.95802" lon="1.36004">
        <ele>398.256884</ele>
        <time>2021-07-06T16:38:59.067Z</time>
      </trkpt>
      <trkpt lat="45.95801" lon="1.35991">
        <ele>398.929496</ele>
        <time>2021-07-06T16:39:03.406Z</time>
      </trkpt>
      <trkpt lat="45.95805" lon="1.3599">
        <ele>399.182971</ele>
        <time>2021-07-06T16:39:05.935Z</time>
      </trkpt>
      <trkpt lat="45.95815" lon="1.35981">
        <ele>400.034968</ele>
        <time>2021-07-06T16:39:11.915Z</time>
      </trkpt>
      <trkpt lat="45.95846" lon="1.3595">
        <ele>402.872352</ele>
        <time>2021-07-06T16:39:32.453Z</time>
      </trkpt>
      <trkpt lat="45.95985" lon="1.35975">
        <ele>413.896017</ele>
        <time>2021-07-06T16:40:58.676Z</time>
      </trkpt>
      <trkpt lat="45.96049" lon="1.35965">
        <ele>419.556994</ele>
        <time>2021-07-06T16:41:38.328Z</time>
      </trkpt>
      <trkpt lat="45.9606" lon="1.35959">
        <ele>420.537651</ele>
        <time>2021-07-06T16:41:47.351Z</time>
      </trkpt>
      <trkpt lat="45.96068" lon="1.35947">
        <ele>421.60476</ele>
        <time>2021-07-06T16:41:55.289Z</time>
      </trkpt>
      <trkpt lat="45.96105" lon="1.35843">
        <ele>429.024639</ele>
        <time>2021-07-06T16:42:48.714Z</time>
      </trkpt>
      <trkpt lat="45.96125" lon="1.35792">
        <ele>432.991426</ele>
        <time>2021-07-06T16:43:17.501Z</time>
      </trkpt>
      <trkpt lat="45.96135" lon="1.35764">
        <ele>435.118861</ele>
        <time>2021-07-06T16:43:34.506Z</time>
      </trkpt>
      <trkpt lat="45.96176" lon="1.35719">
        <ele>440.079557</ele>
        <time>2021-07-06T16:44:05.161Z</time>
      </trkpt>
      <trkpt lat="45.96189" lon="1.35708">
        <ele>441.574653</ele>
        <time>2021-07-06T16:44:18.075Z</time>
      </trkpt>
      <trkpt lat="45.96219" lon="1.35659">
        <ele>445.86821</ele>
        <time>2021-07-06T16:44:56.212Z</time>
      </trkpt>
      <trkpt lat="45.9624" lon="1.35642">
        <ele>448.101112</ele>
        <time>2021-07-06T16:45:15.950Z</time>
      </trkpt>
      <trkpt lat="45.96297" lon="1.35628">
        <ele>453.575156</ele>
        <time>2021-07-06T16:46:00.840Z</time>
      </trkpt>
      <trkpt lat="45.96319" lon="1.3561">
        <ele>455.920362</ele>
        <time>2021-07-06T16:46:22.110Z</time>
      </trkpt>
      <trkpt lat="45.96332" lon="1.35595">
        <ele>457.521118</ele>
        <time>2021-07-06T16:46:34.728Z</time>
      </trkpt>
      <trkpt lat="45.96368" lon="1.35551">
        <ele>461.617793</ele>
        <time>2021-07-06T16:47:08.785Z</time>
      </trkpt>
      <trkpt lat="45.96385" lon="1.35539">
        <ele>463.191565</ele>
        <time>2021-07-06T16:47:22.562Z</time>
      </trkpt>
      <trkpt lat="45.96431" lon="1.35547">
        <ele>466.901064</ele>
        <time>2021-07-06T16:47:58.317Z</time>
      </trkpt>
      <trkpt lat="45.9651" lon="1.35576">
        <ele>473.527532</ele>
        <time>2021-07-06T16:48:56.212Z</time>
      </trkpt>
      <trkpt lat="45.96517" lon="1.35582">
        <ele>474.205926</ele>
        <time>2021-07-06T16:49:02.416Z</time>
      </trkpt>
      <trkpt lat="45.96532" lon="1.35595">
        <ele>475.220224</ele>
        <time>2021-07-06T16:49:12.714Z</time>
      </trkpt>
      <trkpt lat="45.96551" lon="1.35613">
        <ele>476.54818</ele>
        <time>2021-07-06T16:49:28.803Z</time>
      </trkpt>
      <trkpt lat="45.96553" lon="1.35615">
        <ele>476.670826</ele>
        <time>2021-07-06T16:49:29.778Z</time>
      </trkpt>
      <trkpt lat="45.96576" lon="1.35612">
        <ele>478.027553</ele>
        <time>2021-07-06T16:49:44.067Z</time>
      </trkpt>
      <trkpt lat="45.96653" lon="1.35545">
        <ele>483.221297</ele>
        <time>2021-07-06T16:50:37.696Z</time>
      </trkpt>
      <trkpt lat="45.96685" lon="1.35499">
        <ele>485.269404</ele>
        <time>2021-07-06T16:51:02.698Z</time>
      </trkpt>
      <trkpt lat="45.96702" lon="1.35461">
        <ele>486.256643</ele>
        <time>2021-07-06T16:51:18.447Z</time>
      </trkpt>
      <trkpt lat="45.96784" lon="1.35402">
        <ele>489.077557</ele>
        <time>2021-07-06T16:52:01.518Z</time>
      </trkpt>
      <trkpt lat="45.96854" lon="1.3538">
        <ele>490.016938</ele>
        <time>2021-07-06T16:52:29.964Z</time>
      </trkpt>
      <trkpt lat="45.96869" lon="1.35382">
        <ele>489.957402</ele>
        <time>2021-07-06T16:52:36.876Z</time>
      </trkpt>
      <trkpt lat="45.96887" lon="1.35377">
        <ele>489.887054</ele>
        <time>2021-07-06T16:52:42.024Z</time>
      </trkpt>
      <trkpt lat="45.96918" lon="1.35358">
        <ele>489.757188</ele>
        <time>2021-07-06T16:52:52.436Z</time>
      </trkpt>
      <trkpt lat="45.96943" lon="1.35312">
        <ele>489.601418</ele>
        <time>2021-07-06T16:53:03.924Z</time>
      </trkpt>
      <trkpt lat="45.96976" lon="1.35283">
        <ele>489.394685</ele>
        <time>2021-07-06T16:53:14.544Z</time>
      </trkpt>
      <trkpt lat="45.97004" lon="1.3517">
        <ele>487.21779</ele>
        <time>2021-07-06T16:53:36.361Z</time>
      </trkpt>
      <trkpt lat="45.97014" lon="1.35164">
        <ele>486.913614</ele>
        <time>2021-07-06T16:53:39.429Z</time>
      </trkpt>
      <trkpt lat="45.97057" lon="1.35185">
        <ele>485.743416</ele>
        <time>2021-07-06T16:53:51.207Z</time>
      </trkpt>
      <trkpt lat="45.97122" lon="1.35229">
        <ele>484.353638</ele>
        <time>2021-07-06T16:54:10.457Z</time>
      </trkpt>
      <trkpt lat="45.9721" lon="1.35219">
        <ele>483.318056</ele>
        <time>2021-07-06T16:54:35.045Z</time>
      </trkpt>
      <trkpt lat="45.97229" lon="1.35214">
        <ele>483.092619</ele>
        <time>2021-07-06T16:54:41.105Z</time>
      </trkpt>
      <trkpt lat="45.97251" lon="1.35197">
        <ele>482.797911</ele>
        <time>2021-07-06T16:54:49.345Z</time>
      </trkpt>
      <trkpt lat="45.97316" lon="1.35125">
        <ele>483.665631</ele>
        <time>2021-07-06T16:55:19.151Z</time>
      </trkpt>
      <trkpt lat="45.97322" lon="1.35109">
        <ele>483.855433</ele>
        <time>2021-07-06T16:55:24.125Z</time>
      </trkpt>
      <trkpt lat="45.97327" lon="1.3508">
        <ele>484.166608</ele>
        <time>2021-07-06T16:55:32.660Z</time>
      </trkpt>
      <trkpt lat="45.97333" lon="1.35097">
        <ele>484.36599</ele>
        <time>2021-07-06T16:55:36.661Z</time>
      </trkpt>
      <trkpt lat="45.97437" lon="1.35156">
        <ele>486.722967</ele>
        <time>2021-07-06T16:56:11.517Z</time>
      </trkpt>
      <trkpt lat="45.97479" lon="1.35166">
        <ele>487.964299</ele>
        <time>2021-07-06T16:56:25.695Z</time>
      </trkpt>
      <trkpt lat="45.97494" lon="1.3518">
        <ele>488.491359</ele>
        <time>2021-07-06T16:56:32.566Z</time>
      </trkpt>
      <trkpt lat="45.97527" lon="1.35247">
        <ele>490.15983</ele>
        <time>2021-07-06T16:56:50.363Z</time>
      </trkpt>
      <trkpt lat="45.97531" lon="1.35255">
        <ele>490.345258</ele>
        <time>2021-07-06T16:56:53.791Z</time>
      </trkpt>
      <trkpt lat="45.97545" lon="1.35288">
        <ele>491.427959</ele>
        <time>2021-07-06T16:57:06.004Z</time>
      </trkpt>
      <trkpt lat="45.97547" lon="1.35312">
        <ele>492.183953</ele>
        <time>2021-07-06T16:57:15.798Z</time>
      </trkpt>
      <trkpt lat="45.97524" lon="1.35378">
        <ele>494.440063</ele>
        <time>2021-07-06T16:57:34.878Z</time>
      </trkpt>
      <trkpt lat="45.97525" lon="1.35401">
        <ele>495.150114</ele>
        <time>2021-07-06T16:57:42.588Z</time>
      </trkpt>
      <trkpt lat="45.97544" lon="1.35438">
        <ele>496.575488</ele>
        <time>2021-07-06T16:57:55.509Z</time>
      </trkpt>
      <trkpt lat="45.97545" lon="1.35454">
        <ele>497.054086</ele>
        <time>2021-07-06T16:58:02.065Z</time>
      </trkpt>
      <trkpt lat="45.97566" lon="1.35483">
        <ele>498.334277</ele>
        <time>2021-07-06T16:58:17.342Z</time>
      </trkpt>
      <trkpt lat="45.97545" lon="1.35454">
        <ele>499.693203</ele>
        <time>2021-07-06T16:58:32.069Z</time>
      </trkpt>
      <trkpt lat="45.97543" lon="1.35466">
        <ele>500.098503</ele>
        <time>2021-07-06T16:58:37.251Z</time>
      </trkpt>
      <trkpt lat="45.9752" lon="1.3549">
        <ele>501.440328</ele>
        <time>2021-07-06T16:58:48.527Z</time>
      </trkpt>
      <trkpt lat="45.97463" lon="1.35581">
        <ele>505.492861</ele>
        <time>2021-07-06T16:59:27.388Z</time>
      </trkpt>
      <trkpt lat="45.97459" lon="1.35601">
        <ele>506.163335</ele>
        <time>2021-07-06T16:59:31.994Z</time>
      </trkpt>
      <trkpt lat="45.97464" lon="1.35626">
        <ele>507.035976</ele>
        <time>2021-07-06T16:59:39.547Z</time>
      </trkpt>
      <trkpt lat="45.97496" lon="1.35691">
        <ele>510.466938</ele>
        <time>2021-07-06T17:00:05.810Z</time>
      </trkpt>
      <trkpt lat="45.97583" lon="1.3578">
        <ele>517.046836</ele>
        <time>2021-07-06T17:01:02.937Z</time>
      </trkpt>
      <trkpt lat="45.97632" lon="1.35869">
        <ele>521.724376</ele>
        <time>2021-07-06T17:01:46.809Z</time>
      </trkpt>
      <trkpt lat="45.97634" lon="1.35889">
        <ele>522.588218</ele>
        <time>2021-07-06T17:01:56.741Z</time>
      </trkpt>
      <trkpt lat="45.97644" lon="1.35916">
        <ele>523.840131</ele>
        <time>2021-07-06T17:02:09.711Z</time>
      </trkpt>
      <trkpt lat="45.97647" lon="1.3595">
        <ele>525.250023</ele>
        <time>2021-07-06T17:02:24.087Z</time>
      </trkpt>
      <trkpt lat="45.97662" lon="1.35957">
        <ele>526.20513</ele>
        <time>2021-07-06T17:02:33.954Z</time>
      </trkpt>
      <trkpt lat="45.97706" lon="1.36013">
        <ele>529.299823</ele>
        <time>2021-07-06T17:03:05.821Z</time>
      </trkpt>
      <trkpt lat="45.97715" lon="1.36014">
        <ele>529.59957</ele>
        <time>2021-07-06T17:03:10.919Z</time>
      </trkpt>
      <trkpt lat="45.97717" lon="1.36018">
        <ele>529.721096</ele>
        <time>2021-07-06T17:03:12.378Z</time>
      </trkpt>
      <trkpt lat="45.97782" lon="1.36043">
        <ele>531.979418</ele>
        <time>2021-07-06T17:03:36.643Z</time>
      </trkpt>
      <trkpt lat="45.97807" lon="1.36064">
        <ele>532.938639</ele>
        <time>2021-07-06T17:03:44.513Z</time>
      </trkpt>
      <trkpt lat="45.97844" lon="1.36124">
        <ele>534.821598</ele>
        <time>2021-07-06T17:04:04.773Z</time>
      </trkpt>
      <trkpt lat="45.97892" lon="1.36153">
        <ele>537.207906</ele>
        <time>2021-07-06T17:04:24.970Z</time>
      </trkpt>
      <trkpt lat="45.97902" lon="1.36164">
        <ele>537.794662</ele>
        <time>2021-07-06T17:04:30.378Z</time>
      </trkpt>
      <trkpt lat="45.97905" lon="1.36173">
        <ele>538.120159</ele>
        <time>2021-07-06T17:04:33.128Z</time>
      </trkpt>
      <trkpt lat="45.97909" lon="1.36209">
        <ele>539.286303</ele>
        <time>2021-07-06T17:04:43.936Z</time>
      </trkpt>
      <trkpt lat="45.97912" lon="1.36227">
        <ele>539.896137</ele>
        <time>2021-07-06T17:04:49.446Z</time>
      </trkpt>
      <trkpt lat="45.97917" lon="1.36237">
        <ele>540.311649</ele>
        <time>2021-07-06T17:04:53.497Z</time>
      </trkpt>
      <trkpt lat="45.97927" lon="1.363">
        <ele>542.390131</ele>
        <time>2021-07-06T17:05:15.057Z</time>
      </trkpt>
      <trkpt lat="45.97914" lon="1.36359">
        <ele>544.46463</ele>
        <time>2021-07-06T17:05:36.347Z</time>
      </trkpt>
      <trkpt lat="45.97916" lon="1.36387">
        <ele>545.456516</ele>
        <time>2021-07-06T17:05:45.916Z</time>
      </trkpt>
      <trkpt lat="45.97937" lon="1.36443">
        <ele>547.675384</ele>
        <time>2021-07-06T17:06:08.810Z</time>
      </trkpt>
      <trkpt lat="45.9796" lon="1.36461">
        <ele>549.024436</ele>
        <time>2021-07-06T17:06:20.546Z</time>
      </trkpt>
      <trkpt lat="45.97968" lon="1.36464">
        <ele>549.427393</ele>
        <time>2021-07-06T17:06:25.180Z</time>
      </trkpt>
      <trkpt lat="45.98057" lon="1.36476">
        <ele>552.844127</ele>
        <time>2021-07-06T17:06:59.843Z</time>
      </trkpt>
      <trkpt lat="45.98087" lon="1.36481">
        <ele>553.347003</ele>
        <time>2021-07-06T17:07:09.608Z</time>
      </trkpt>
      <trkpt lat="45.98071" lon="1.36448">
        <ele>553.807131</ele>
        <time>2021-07-06T17:07:21.233Z</time>
      </trkpt>
      <trkpt lat="45.98071" lon="1.36428">
        <ele>554.03651</ele>
        <time>2021-07-06T17:07:26.686Z</time>
      </trkpt>
      <trkpt lat="45.98078" lon="1.36402">
        <ele>554.357313</ele>
        <time>2021-07-06T17:07:33.213Z</time>
      </trkpt>
      <trkpt lat="45.98117" lon="1.36341">
        <ele>555.279899</ele>
        <time>2021-07-06T17:07:52.733Z</time>
      </trkpt>
      <trkpt lat="45.98136" lon="1.36347">
        <ele>555.267501</ele>
        <time>2021-07-06T17:07:58.406Z</time>
      </trkpt>
      <trkpt lat="45.982" lon="1.36353">
        <ele>555.225527</ele>
        <time>2021-07-06T17:08:18.050Z</time>
      </trkpt>
      <trkpt lat="45.98261" lon="1.36382">
        <ele>555.183417</ele>
        <time>2021-07-06T17:08:37.896Z</time>
      </trkpt>
      <trkpt lat="45.98297" lon="1.36407">
        <ele>555.219223</ele>
        <time>2021-07-06T17:08:51.118Z</time>
      </trkpt>
      <trkpt lat="45.98326" lon="1.36448">
        <ele>555.495663</ele>
        <time>2021-07-06T17:09:06.289Z</time>
      </trkpt>
      <trkpt lat="45.98391" lon="1.36508">
        <ele>556.00849</ele>
        <time>2021-07-06T17:09:33.990Z</time>
      </trkpt>
      <trkpt lat="45.98422" lon="1.36534">
        <ele>556.250156</ele>
        <time>2021-07-06T17:09:46.689Z</time>
      </trkpt>
      <trkpt lat="45.98442" lon="1.36538">
        <ele>556.364695</ele>
        <time>2021-07-06T17:09:51.244Z</time>
      </trkpt>
      <trkpt lat="45.98466" lon="1.36535">
        <ele>556.324686</ele>
        <time>2021-07-06T17:09:56.953Z</time>
      </trkpt>
      <trkpt lat="45.98499" lon="1.36516">
        <ele>556.266439</ele>
        <time>2021-07-06T17:10:04.717Z</time>
      </trkpt>
      <trkpt lat="45.98526" lon="1.36491">
        <ele>556.213925</ele>
        <time>2021-07-06T17:10:11.223Z</time>
      </trkpt>
      <trkpt lat="45.98543" lon="1.3647">
        <ele>556.178014</ele>
        <time>2021-07-06T17:10:15.525Z</time>
      </trkpt>
      <trkpt lat="45.98583" lon="1.36444">
        <ele>556.106808</ele>
        <time>2021-07-06T17:10:23.470Z</time>
      </trkpt>
      <trkpt lat="45.98727" lon="1.36399">
        <ele>554.226895</ele>
        <time>2021-07-06T17:10:49.952Z</time>
      </trkpt>
      <trkpt lat="45.9878" lon="1.36301">
        <ele>552.071608</ele>
        <time>2021-07-06T17:11:03.725Z</time>
      </trkpt>
      <trkpt lat="45.98801" lon="1.36222">
        <ele>549.708072</ele>
        <time>2021-07-06T17:11:13.150Z</time>
      </trkpt>
      <trkpt lat="45.98804" lon="1.36209">
        <ele>549.320165</ele>
        <time>2021-07-06T17:11:14.372Z</time>
      </trkpt>
      <trkpt lat="45.98807" lon="1.36198">
        <ele>548.976089</ele>
        <time>2021-07-06T17:11:15.618Z</time>
      </trkpt>
      <trkpt lat="45.98813" lon="1.3618">
        <ele>548.422005</ele>
        <time>2021-07-06T17:11:17.873Z</time>
      </trkpt>
      <trkpt lat="45.98819" lon="1.36124">
        <ele>546.839451</ele>
        <time>2021-07-06T17:11:23.435Z</time>
      </trkpt>
      <trkpt lat="45.98819" lon="1.36121">
        <ele>546.753036</ele>
        <time>2021-07-06T17:11:23.724Z</time>
      </trkpt>
      <trkpt lat="45.98821" lon="1.36107">
        <ele>546.365535</ele>
        <time>2021-07-06T17:11:24.926Z</time>
      </trkpt>
      <trkpt lat="45.98824" lon="1.36096">
        <ele>545.907079</ele>
        <time>2021-07-06T17:11:26.154Z</time>
      </trkpt>
      <trkpt lat="45.98827" lon="1.36083">
        <ele>545.332947</ele>
        <time>2021-07-06T17:11:27.547Z</time>
      </trkpt>
      <trkpt lat="45.98831" lon="1.36069">
        <ele>544.680526</ele>
        <time>2021-07-06T17:11:29.038Z</time>
      </trkpt>
      <trkpt lat="45.98832" lon="1.3606">
        <ele>544.254577</ele>
        <time>2021-07-06T17:11:29.873Z</time>
      </trkpt>
      <trkpt lat="45.98831" lon="1.36052">
        <ele>543.926936</ele>
        <time>2021-07-06T17:11:30.601Z</time>
      </trkpt>
      <trkpt lat="45.9883" lon="1.36032">
        <ele>543.054752</ele>
        <time>2021-07-06T17:11:32.633Z</time>
      </trkpt>
      <trkpt lat="45.98829" lon="1.36021">
        <ele>542.568915</ele>
        <time>2021-07-06T17:11:33.755Z</time>
      </trkpt>
      <trkpt lat="45.9883" lon="1.36015">
        <ele>542.272987</ele>
        <time>2021-07-06T17:11:34.376Z</time>
      </trkpt>
      <trkpt lat="45.98826" lon="1.36012">
        <ele>542.008489</ele>
        <time>2021-07-06T17:11:35.193Z</time>
      </trkpt>
      <trkpt lat="45.98812" lon="1.35971">
        <ele>540.006852</ele>
        <time>2021-07-06T17:11:42.845Z</time>
      </trkpt>
      <trkpt lat="45.98734" lon="1.35959">
        <ele>535.056403</ele>
        <time>2021-07-06T17:12:00.813Z</time>
      </trkpt>
      <trkpt lat="45.98682" lon="1.35927">
        <ele>532.648713</ele>
        <time>2021-07-06T17:12:14.237Z</time>
      </trkpt>
      <trkpt lat="45.9865" lon="1.35881">
        <ele>530.793951</ele>
        <time>2021-07-06T17:12:25.398Z</time>
      </trkpt>
      <trkpt lat="45.98632" lon="1.35842">
        <ele>529.433824</ele>
        <time>2021-07-06T17:12:33.750Z</time>
      </trkpt>
      <trkpt lat="45.98618" lon="1.35771">
        <ele>527.432587</ele>
        <time>2021-07-06T17:12:46.990Z</time>
      </trkpt>
      <trkpt lat="45.98618" lon="1.35734">
        <ele>527.225443</ele>
        <time>2021-07-06T17:12:54.252Z</time>
      </trkpt>
      <trkpt lat="45.98641" lon="1.35705">
        <ele>526.984724</ele>
        <time>2021-07-06T17:13:02.977Z</time>
      </trkpt>
      <trkpt lat="45.98669" lon="1.35685">
        <ele>526.740861</ele>
        <time>2021-07-06T17:13:12.314Z</time>
      </trkpt>
      <trkpt lat="45.98719" lon="1.35674">
        <ele>526.338002</ele>
        <time>2021-07-06T17:13:28.399Z</time>
      </trkpt>
      <trkpt lat="45.9877" lon="1.35576">
        <ele>525.138536</ele>
        <time>2021-07-06T17:13:57.495Z</time>
      </trkpt>
      <trkpt lat="45.98771" lon="1.3555">
        <ele>524.798387</ele>
        <time>2021-07-06T17:14:02.839Z</time>
      </trkpt>
      <trkpt lat="45.98762" lon="1.35529">
        <ele>524.470998</ele>
        <time>2021-07-06T17:14:07.332Z</time>
      </trkpt>
      <trkpt lat="45.98724" lon="1.35471">
        <ele>523.402023</ele>
        <time>2021-07-06T17:14:22.743Z</time>
      </trkpt>
      <trkpt lat="45.98697" lon="1.35417">
        <ele>522.317307</ele>
        <time>2021-07-06T17:14:34.229Z</time>
      </trkpt>
      <trkpt lat="45.98701" lon="1.35389">
        <ele>520.801018</ele>
        <time>2021-07-06T17:14:39.792Z</time>
      </trkpt>
      <trkpt lat="45.9871" lon="1.35405">
        <ele>519.699452</ele>
        <time>2021-07-06T17:14:43.100Z</time>
      </trkpt>
      <trkpt lat="45.98725" lon="1.35418">
        <ele>518.408558</ele>
        <time>2021-07-06T17:14:47.422Z</time>
      </trkpt>
      <trkpt lat="45.9874" lon="1.35416">
        <ele>517.279758</ele>
        <time>2021-07-06T17:14:50.688Z</time>
      </trkpt>
      <trkpt lat="45.98784" lon="1.35387">
        <ele>513.719907</ele>
        <time>2021-07-06T17:15:01.380Z</time>
      </trkpt>
      <trkpt lat="45.98805" lon="1.35386">
        <ele>512.166196</ele>
        <time>2021-07-06T17:15:05.943Z</time>
      </trkpt>
      <trkpt lat="45.98821" lon="1.35412">
        <ele>510.4026</ele>
        <time>2021-07-06T17:15:11.223Z</time>
      </trkpt>
      <trkpt lat="45.98834" lon="1.3542">
        <ele>509.376941</ele>
        <time>2021-07-06T17:15:14.105Z</time>
      </trkpt>
      <trkpt lat="45.98848" lon="1.35419">
        <ele>508.364155</ele>
        <time>2021-07-06T17:15:17.274Z</time>
      </trkpt>
      <trkpt lat="45.9886" lon="1.35403">
        <ele>507.253507</ele>
        <time>2021-07-06T17:15:20.742Z</time>
      </trkpt>
      <trkpt lat="45.98861" lon="1.35384">
        <ele>506.329898</ele>
        <time>2021-07-06T17:15:22.442Z</time>
      </trkpt>
      <trkpt lat="45.98843" lon="1.3534">
        <ele>503.904085</ele>
        <time>2021-07-06T17:15:27.068Z</time>
      </trkpt>
      <trkpt lat="45.9884" lon="1.35288">
        <ele>501.377616</ele>
        <time>2021-07-06T17:15:31.977Z</time>
      </trkpt>
      <trkpt lat="45.98821" lon="1.35263">
        <ele>499.591897</ele>
        <time>2021-07-06T17:15:35.547Z</time>
      </trkpt>
      <trkpt lat="45.98808" lon="1.35229">
        <ele>497.69419</ele>
        <time>2021-07-06T17:15:39.406Z</time>
      </trkpt>
      <trkpt lat="45.98809" lon="1.35212">
        <ele>496.862935</ele>
        <time>2021-07-06T17:15:41.000Z</time>
      </trkpt>
      <trkpt lat="45.98806" lon="1.35203">
        <ele>496.666189</ele>
        <time>2021-07-06T17:15:41.954Z</time>
      </trkpt>
      <trkpt lat="45.9881" lon="1.35182">
        <ele>496.32858</ele>
        <time>2021-07-06T17:15:44.435Z</time>
      </trkpt>
      <trkpt lat="45.9881" lon="1.35171">
        <ele>496.163932</ele>
        <time>2021-07-06T17:15:46.428Z</time>
      </trkpt>
      <trkpt lat="45.98825" lon="1.35096">
        <ele>494.955384</ele>
        <time>2021-07-06T17:16:01.036Z</time>
      </trkpt>
      <trkpt lat="45.98844" lon="1.35054">
        <ele>494.179419</ele>
        <time>2021-07-06T17:16:10.740Z</time>
      </trkpt>
      <trkpt lat="45.98869" lon="1.35016">
        <ele>493.363968</ele>
        <time>2021-07-06T17:16:21.110Z</time>
      </trkpt>
      <trkpt lat="45.98873" lon="1.35002">
        <ele>493.124819</ele>
        <time>2021-07-06T17:16:24.354Z</time>
      </trkpt>
      <trkpt lat="45.98866" lon="1.3499">
        <ele>492.886717</ele>
        <time>2021-07-06T17:16:28.151Z</time>
      </trkpt>
      <trkpt lat="45.98831" lon="1.34981">
        <ele>492.107833</ele>
        <time>2021-07-06T17:16:38.552Z</time>
      </trkpt>
      <trkpt lat="45.9881" lon="1.34951">
        <ele>491.44817</ele>
        <time>2021-07-06T17:16:47.141Z</time>
      </trkpt>
      <trkpt lat="45.98783" lon="1.34835">
        <ele>489.583675</ele>
        <time>2021-07-06T17:17:10.251Z</time>
      </trkpt>
      <trkpt lat="45.98788" lon="1.34806">
        <ele>489.118912</ele>
        <time>2021-07-06T17:17:15.708Z</time>
      </trkpt>
      <trkpt lat="45.98819" lon="1.34693">
        <ele>484.144781</ele>
        <time>2021-07-06T17:17:36.467Z</time>
      </trkpt>
      <trkpt lat="45.98866" lon="1.34605">
        <ele>478.980262</ele>
        <time>2021-07-06T17:17:53.975Z</time>
      </trkpt>
      <trkpt lat="45.98899" lon="1.34584">
        <ele>476.475658</ele>
        <time>2021-07-06T17:18:01.749Z</time>
      </trkpt>
      <trkpt lat="45.98927" lon="1.34556">
        <ele>473.263173</ele>
        <time>2021-07-06T17:18:09.079Z</time>
      </trkpt>
      <trkpt lat="45.98937" lon="1.34529">
        <ele>471.221211</ele>
        <time>2021-07-06T17:18:13.574Z</time>
      </trkpt>
      <trkpt lat="45.98949" lon="1.34517">
        <ele>469.84158</ele>
        <time>2021-07-06T17:18:16.953Z</time>
      </trkpt>
      <trkpt lat="45.98961" lon="1.34505">
        <ele>468.526376</ele>
        <time>2021-07-06T17:18:19.883Z</time>
      </trkpt>
      <trkpt lat="45.98964" lon="1.345">
        <ele>468.043438</ele>
        <time>2021-07-06T17:18:20.901Z</time>
      </trkpt>
      <trkpt lat="45.98964" lon="1.34475">
        <ele>466.389352</ele>
        <time>2021-07-06T17:18:24.952Z</time>
      </trkpt>
      <trkpt lat="45.98947" lon="1.34452">
        <ele>464.231927</ele>
        <time>2021-07-06T17:18:29.768Z</time>
      </trkpt>
      <trkpt lat="45.9894" lon="1.34432">
        <ele>462.791298</ele>
        <time>2021-07-06T17:18:33.269Z</time>
      </trkpt>
      <trkpt lat="45.98966" lon="1.34361">
        <ele>458.353006</ele>
        <time>2021-07-06T17:18:45.364Z</time>
      </trkpt>
      <trkpt lat="45.98962" lon="1.34331">
        <ele>457.039209</ele>
        <time>2021-07-06T17:18:50.360Z</time>
      </trkpt>
      <trkpt lat="45.98909" lon="1.34288">
        <ele>453.317793</ele>
        <time>2021-07-06T17:19:04.677Z</time>
      </trkpt>
      <trkpt lat="45.98893" lon="1.34237">
        <ele>450.956936</ele>
        <time>2021-07-06T17:19:14.111Z</time>
      </trkpt>
      <trkpt lat="45.98897" lon="1.34196">
        <ele>449.199179</ele>
        <time>2021-07-06T17:19:21.059Z</time>
      </trkpt>
      <trkpt lat="45.98896" lon="1.34163">
        <ele>447.887598</ele>
        <time>2021-07-06T17:19:24.200Z</time>
      </trkpt>
      <trkpt lat="45.98899" lon="1.34118">
        <ele>446.186629</ele>
        <time>2021-07-06T17:19:28.401Z</time>
      </trkpt>
      <trkpt lat="45.98906" lon="1.34102">
        <ele>445.491918</ele>
        <time>2021-07-06T17:19:30.113Z</time>
      </trkpt>
      <trkpt lat="45.98912" lon="1.34079">
        <ele>444.586994</ele>
        <time>2021-07-06T17:19:32.331Z</time>
      </trkpt>
      <trkpt lat="45.98912" lon="1.34078">
        <ele>444.560756</ele>
        <time>2021-07-06T17:19:32.391Z</time>
      </trkpt>
      <trkpt lat="45.9891" lon="1.34059">
        <ele>443.847101</ele>
        <time>2021-07-06T17:19:34.209Z</time>
      </trkpt>
      <trkpt lat="45.98903" lon="1.34049">
        <ele>443.292982</ele>
        <time>2021-07-06T17:19:35.542Z</time>
      </trkpt>
      <trkpt lat="45.98894" lon="1.34032">
        <ele>442.492605</ele>
        <time>2021-07-06T17:19:37.472Z</time>
      </trkpt>
      <trkpt lat="45.9887" lon="1.3399">
        <ele>440.487174</ele>
        <time>2021-07-06T17:19:42.347Z</time>
      </trkpt>
      <trkpt lat="45.98826" lon="1.33977">
        <ele>438.349779</ele>
        <time>2021-07-06T17:19:48.312Z</time>
      </trkpt>
      <trkpt lat="45.98778" lon="1.33927">
        <ele>436.127037</ele>
        <time>2021-07-06T17:19:55.921Z</time>
      </trkpt>
      <trkpt lat="45.98695" lon="1.33889">
        <ele>432.828517</ele>
        <time>2021-07-06T17:20:09.040Z</time>
      </trkpt>
      <trkpt lat="45.98683" lon="1.33882">
        <ele>432.344168</ele>
        <time>2021-07-06T17:20:10.913Z</time>
      </trkpt>
      <trkpt lat="45.986" lon="1.33761">
        <ele>432.262688</ele>
        <time>2021-07-06T17:20:32.648Z</time>
      </trkpt>
      <trkpt lat="45.98595" lon="1.33752">
        <ele>432.256814</ele>
        <time>2021-07-06T17:20:34.950Z</time>
      </trkpt>
      <trkpt lat="45.98592" lon="1.33748">
        <ele>432.25422</ele>
        <time>2021-07-06T17:20:36.203Z</time>
      </trkpt>
      <trkpt lat="45.98648" lon="1.33679">
        <ele>432.347232</ele>
        <time>2021-07-06T17:20:54.222Z</time>
      </trkpt>
      <trkpt lat="45.98662" lon="1.33653">
        <ele>432.465221</ele>
        <time>2021-07-06T17:20:59.068Z</time>
      </trkpt>
      <trkpt lat="45.98666" lon="1.33626">
        <ele>432.566783</ele>
        <time>2021-07-06T17:21:03.695Z</time>
      </trkpt>
      <trkpt lat="45.98668" lon="1.33384">
        <ele>433.524955</ele>
        <time>2021-07-06T17:21:38.452Z</time>
      </trkpt>
      <trkpt lat="45.9867" lon="1.33314">
        <ele>433.845445</ele>
        <time>2021-07-06T17:21:50.428Z</time>
      </trkpt>
      <trkpt lat="45.98676" lon="1.33259">
        <ele>434.102806</ele>
        <time>2021-07-06T17:22:00.427Z</time>
      </trkpt>
      <trkpt lat="45.98684" lon="1.33219">
        <ele>434.292406</ele>
        <time>2021-07-06T17:22:08.313Z</time>
      </trkpt>
      <trkpt lat="45.98711" lon="1.33132">
        <ele>433.534318</ele>
        <time>2021-07-06T17:22:20.323Z</time>
      </trkpt>
      <trkpt lat="45.98739" lon="1.33076">
        <ele>432.84655</ele>
        <time>2021-07-06T17:22:27.783Z</time>
      </trkpt>
      <trkpt lat="45.98768" lon="1.33038">
        <ele>432.278824</ele>
        <time>2021-07-06T17:22:33.842Z</time>
      </trkpt>
      <trkpt lat="45.98784" lon="1.33025">
        <ele>432.018903</ele>
        <time>2021-07-06T17:22:36.400Z</time>
      </trkpt>
      <trkpt lat="45.98825" lon="1.32994">
        <ele>431.375168</ele>
        <time>2021-07-06T17:22:43.426Z</time>
      </trkpt>
      <trkpt lat="45.9886" lon="1.32968">
        <ele>430.849435</ele>
        <time>2021-07-06T17:22:49.460Z</time>
      </trkpt>
      <trkpt lat="45.98865" lon="1.32964">
        <ele>430.771149</ele>
        <time>2021-07-06T17:22:50.295Z</time>
      </trkpt>
      <trkpt lat="45.98887" lon="1.32968">
        <ele>430.466403</ele>
        <time>2021-07-06T17:22:56.608Z</time>
      </trkpt>
      <trkpt lat="45.98927" lon="1.3296">
        <ele>429.91897</ele>
        <time>2021-07-06T17:23:07.783Z</time>
      </trkpt>
      <trkpt lat="45.98959" lon="1.32942">
        <ele>429.452763</ele>
        <time>2021-07-06T17:23:18.601Z</time>
      </trkpt>
      <trkpt lat="45.98966" lon="1.32947">
        <ele>429.340719</ele>
        <time>2021-07-06T17:23:20.937Z</time>
      </trkpt>
      <trkpt lat="45.98964" lon="1.32958">
        <ele>429.520972</ele>
        <time>2021-07-06T17:23:23.485Z</time>
      </trkpt>
      <trkpt lat="45.98959" lon="1.32976">
        <ele>429.84233</ele>
        <time>2021-07-06T17:23:28.999Z</time>
      </trkpt>
      <trkpt lat="45.98971" lon="1.32954">
        <ele>430.295657</ele>
        <time>2021-07-06T17:23:35.439Z</time>
      </trkpt>
      <trkpt lat="45.98997" lon="1.32926">
        <ele>431.091667</ele>
        <time>2021-07-06T17:23:51.953Z</time>
      </trkpt>
      <trkpt lat="45.99079" lon="1.32895">
        <ele>433.135973</ele>
        <time>2021-07-06T17:24:33.587Z</time>
      </trkpt>
      <trkpt lat="45.99096" lon="1.32875">
        <ele>433.660409</ele>
        <time>2021-07-06T17:24:43.699Z</time>
      </trkpt>
      <trkpt lat="45.99117" lon="1.32902">
        <ele>434.206231</ele>
        <time>2021-07-06T17:24:52.583Z</time>
      </trkpt>
      <trkpt lat="45.99129" lon="1.32915">
        <ele>434.491683</ele>
        <time>2021-07-06T17:24:57.277Z</time>
      </trkpt>
      <trkpt lat="45.99157" lon="1.32936">
        <ele>435.095576</ele>
        <time>2021-07-06T17:25:06.626Z</time>
      </trkpt>
      <trkpt lat="45.99174" lon="1.32946">
        <ele>435.452945</ele>
        <time>2021-07-06T17:25:12.770Z</time>
      </trkpt>
      <trkpt lat="45.99218" lon="1.32964">
        <ele>436.326962</ele>
        <time>2021-07-06T17:25:24.575Z</time>
      </trkpt>
      <trkpt lat="45.99257" lon="1.3298">
        <ele>437.083831</ele>
        <time>2021-07-06T17:25:34.924Z</time>
      </trkpt>
      <trkpt lat="45.99315" lon="1.33003">
        <ele>438.221818</ele>
        <time>2021-07-06T17:25:49.280Z</time>
      </trkpt>
      <trkpt lat="45.99316" lon="1.32996">
        <ele>438.305218</ele>
        <time>2021-07-06T17:25:49.952Z</time>
      </trkpt>
      <trkpt lat="45.9933" lon="1.32956">
        <ele>438.898511</ele>
        <time>2021-07-06T17:25:58.982Z</time>
      </trkpt>
      <trkpt lat="45.99363" lon="1.32908">
        <ele>439.772407</ele>
        <time>2021-07-06T17:26:11.466Z</time>
      </trkpt>
      <trkpt lat="45.99379" lon="1.32891">
        <ele>440.149623</ele>
        <time>2021-07-06T17:26:19.959Z</time>
      </trkpt>
      <trkpt lat="45.99396" lon="1.32872">
        <ele>440.703629</ele>
        <time>2021-07-06T17:26:26.419Z</time>
      </trkpt>
      <trkpt lat="45.99401" lon="1.3289">
        <ele>441.502064</ele>
        <time>2021-07-06T17:26:34.975Z</time>
      </trkpt>
      <trkpt lat="45.99408" lon="1.32909">
        <ele>442.450761</ele>
        <time>2021-07-06T17:26:42.080Z</time>
      </trkpt>
      <trkpt lat="45.99439" lon="1.3296">
        <ele>445.303251</ele>
        <time>2021-07-06T17:27:10.239Z</time>
      </trkpt>
      <trkpt lat="45.99473" lon="1.32975">
        <ele>447.447536</ele>
        <time>2021-07-06T17:27:33.555Z</time>
      </trkpt>
      <trkpt lat="45.99524" lon="1.32979">
        <ele>450.578959</ele>
        <time>2021-07-06T17:28:11.173Z</time>
      </trkpt>
      <trkpt lat="45.99554" lon="1.33008">
        <ele>452.686372</ele>
        <time>2021-07-06T17:28:35.572Z</time>
      </trkpt>
      <trkpt lat="45.99578" lon="1.33067">
        <ele>455.399359</ele>
        <time>2021-07-06T17:29:07.080Z</time>
      </trkpt>
      <trkpt lat="45.99744" lon="1.33204">
        <ele>464.720814</ele>
        <time>2021-07-06T17:30:53.254Z</time>
      </trkpt>
      <trkpt lat="45.99766" lon="1.33213">
        <ele>465.571441</ele>
        <time>2021-07-06T17:31:03.844Z</time>
      </trkpt>
      <trkpt lat="45.99823" lon="1.3321">
        <ele>467.683425</ele>
        <time>2021-07-06T17:31:29.871Z</time>
      </trkpt>
      <trkpt lat="45.99925" lon="1.33265">
        <ele>471.388877</ele>
        <time>2021-07-06T17:32:20.596Z</time>
      </trkpt>
      <trkpt lat="45.99984" lon="1.33275">
        <ele>473.366251</ele>
        <time>2021-07-06T17:32:50.015Z</time>
      </trkpt>
      <trkpt lat="46.00069" lon="1.33271">
        <ele>476.710794</ele>
        <time>2021-07-06T17:33:34.113Z</time>
      </trkpt>
      <trkpt lat="46.00097" lon="1.33262">
        <ele>477.943481</ele>
        <time>2021-07-06T17:33:49.685Z</time>
      </trkpt>
      <trkpt lat="46.00106" lon="1.33259">
        <ele>478.329886</ele>
        <time>2021-07-06T17:33:54.664Z</time>
      </trkpt>
      <trkpt lat="46.00121" lon="1.3321">
        <ele>479.917273</ele>
        <time>2021-07-06T17:34:15.036Z</time>
      </trkpt>
      <trkpt lat="46.00149" lon="1.33163">
        <ele>481.761585</ele>
        <time>2021-07-06T17:34:38.484Z</time>
      </trkpt>
      <trkpt lat="46.00167" lon="1.33113">
        <ele>483.088943</ele>
        <time>2021-07-06T17:34:59.073Z</time>
      </trkpt>
      <trkpt lat="46.00161" lon="1.33057">
        <ele>484.371532</ele>
        <time>2021-07-06T17:35:19.169Z</time>
      </trkpt>
      <trkpt lat="46.00161" lon="1.33007">
        <ele>485.517496</ele>
        <time>2021-07-06T17:35:36.435Z</time>
      </trkpt>
      <trkpt lat="46.00141" lon="1.3294">
        <ele>487.161156</ele>
        <time>2021-07-06T17:35:59.837Z</time>
      </trkpt>
      <trkpt lat="46.00139" lon="1.32915">
        <ele>487.732754</ele>
        <time>2021-07-06T17:36:07.604Z</time>
      </trkpt>
      <trkpt lat="46.00118" lon="1.3283">
        <ele>487.361893</ele>
        <time>2021-07-06T17:36:32.306Z</time>
      </trkpt>
      <trkpt lat="46.00124" lon="1.32778">
        <ele>487.026178</ele>
        <time>2021-07-06T17:36:43.560Z</time>
      </trkpt>
      <trkpt lat="46.00119" lon="1.32701">
        <ele>486.523999</ele>
        <time>2021-07-06T17:36:58.334Z</time>
      </trkpt>
      <trkpt lat="46.00153" lon="1.32618">
        <ele>484.444946</ele>
        <time>2021-07-06T17:37:14.887Z</time>
      </trkpt>
      <trkpt lat="46.00152" lon="1.32496">
        <ele>480.120257</ele>
        <time>2021-07-06T17:37:35.049Z</time>
      </trkpt>
      <trkpt lat="46.00149" lon="1.32488">
        <ele>479.801266</ele>
        <time>2021-07-06T17:37:36.432Z</time>
      </trkpt>
      <trkpt lat="46.00157" lon="1.32441">
        <ele>478.061375</ele>
        <time>2021-07-06T17:37:44.435Z</time>
      </trkpt>
      <trkpt lat="46.00166" lon="1.32417">
        <ele>477.09923</ele>
        <time>2021-07-06T17:37:48.900Z</time>
      </trkpt>
      <trkpt lat="46.00216" lon="1.3234">
        <ele>474.334578</ele>
        <time>2021-07-06T17:38:06.356Z</time>
      </trkpt>
      <trkpt lat="46.00229" lon="1.32305">
        <ele>473.301136</ele>
        <time>2021-07-06T17:38:13.157Z</time>
      </trkpt>
      <trkpt lat="46.00228" lon="1.32232">
        <ele>471.416917</ele>
        <time>2021-07-06T17:38:26.729Z</time>
      </trkpt>
      <trkpt lat="46.00235" lon="1.32155">
        <ele>470.181301</ele>
        <time>2021-07-06T17:38:42.018Z</time>
      </trkpt>
      <trkpt lat="46.00234" lon="1.3213">
        <ele>470.092262</ele>
        <time>2021-07-06T17:38:47.215Z</time>
      </trkpt>
      <trkpt lat="46.00227" lon="1.32096">
        <ele>469.967686</ele>
        <time>2021-07-06T17:38:54.864Z</time>
      </trkpt>
      <trkpt lat="46.00212" lon="1.32069">
        <ele>469.843975</ele>
        <time>2021-07-06T17:39:02.214Z</time>
      </trkpt>
      <trkpt lat="46.00214" lon="1.32052">
        <ele>469.784308</ele>
        <time>2021-07-06T17:39:06.642Z</time>
      </trkpt>
      <trkpt lat="46.00217" lon="1.32003">
        <ele>469.608222</ele>
        <time>2021-07-06T17:39:17.644Z</time>
      </trkpt>
      <trkpt lat="46.00267" lon="1.31931">
        <ele>468.688303</ele>
        <time>2021-07-06T17:39:39.824Z</time>
      </trkpt>
      <trkpt lat="46.00284" lon="1.31915">
        <ele>468.169796</ele>
        <time>2021-07-06T17:39:45.695Z</time>
      </trkpt>
      <trkpt lat="46.00293" lon="1.31906">
        <ele>467.876787</ele>
        <time>2021-07-06T17:39:49.101Z</time>
      </trkpt>
      <trkpt lat="46.00295" lon="1.3178">
        <ele>465.610158</ele>
        <time>2021-07-06T17:40:12.255Z</time>
      </trkpt>
      <trkpt lat="46.00304" lon="1.31728">
        <ele>464.544208</ele>
        <time>2021-07-06T17:40:21.257Z</time>
      </trkpt>
      <trkpt lat="46.00303" lon="1.31704">
        <ele>463.662157</ele>
        <time>2021-07-06T17:40:25.108Z</time>
      </trkpt>
      <trkpt lat="46.00273" lon="1.31631">
        <ele>460.561479</ele>
        <time>2021-07-06T17:40:39.163Z</time>
      </trkpt>
      <trkpt lat="46.0025" lon="1.31515">
        <ele>456.129277</ele>
        <time>2021-07-06T17:40:59.079Z</time>
      </trkpt>
      <trkpt lat="46.0028" lon="1.31526">
        <ele>454.515509</ele>
        <time>2021-07-06T17:41:06.605Z</time>
      </trkpt>
      <trkpt lat="46.00303" lon="1.31543">
        <ele>453.229809</ele>
        <time>2021-07-06T17:41:12.772Z</time>
      </trkpt>
      <trkpt lat="46.00314" lon="1.31578">
        <ele>451.910302</ele>
        <time>2021-07-06T17:41:19.053Z</time>
      </trkpt>
      <trkpt lat="46.00329" lon="1.31603">
        <ele>450.758168</ele>
        <time>2021-07-06T17:41:24.576Z</time>
      </trkpt>
      <trkpt lat="46.00351" lon="1.31612">
        <ele>449.604962</ele>
        <time>2021-07-06T17:41:30.239Z</time>
      </trkpt>
      <trkpt lat="46.00377" lon="1.31608">
        <ele>448.268356</ele>
        <time>2021-07-06T17:41:36.796Z</time>
      </trkpt>
      <trkpt lat="46.00399" lon="1.31592">
        <ele>447.017997</ele>
        <time>2021-07-06T17:41:42.979Z</time>
      </trkpt>
      <trkpt lat="46.00451" lon="1.31539">
        <ele>443.583463</ele>
        <time>2021-07-06T17:41:57.799Z</time>
      </trkpt>
      <trkpt lat="46.00483" lon="1.31521">
        <ele>441.608348</ele>
        <time>2021-07-06T17:42:06.026Z</time>
      </trkpt>
      <trkpt lat="46.00507" lon="1.31494">
        <ele>439.938962</ele>
        <time>2021-07-06T17:42:12.967Z</time>
      </trkpt>
      <trkpt lat="46.0052" lon="1.31444">
        <ele>437.84071</ele>
        <time>2021-07-06T17:42:21.751Z</time>
      </trkpt>
      <trkpt lat="46.00521" lon="1.31394">
        <ele>435.941358</ele>
        <time>2021-07-06T17:42:29.965Z</time>
      </trkpt>
      <trkpt lat="46.00501" lon="1.31335">
        <ele>434.034032</ele>
        <time>2021-07-06T17:42:40.848Z</time>
      </trkpt>
      <trkpt lat="46.00416" lon="1.3115">
        <ele>427.922738</ele>
        <time>2021-07-06T17:43:19.877Z</time>
      </trkpt>
      <trkpt lat="46.00369" lon="1.31085">
        <ele>426.196266</ele>
        <time>2021-07-06T17:43:37.285Z</time>
      </trkpt>
      <trkpt lat="46.00363" lon="1.31068">
        <ele>425.847762</ele>
        <time>2021-07-06T17:43:40.851Z</time>
      </trkpt>
      <trkpt lat="46.00368" lon="1.31042">
        <ele>425.367657</ele>
        <time>2021-07-06T17:43:45.795Z</time>
      </trkpt>
      <trkpt lat="46.00397" lon="1.31014">
        <ele>424.45298</ele>
        <time>2021-07-06T17:43:55.220Z</time>
      </trkpt>
      <trkpt lat="46.00401" lon="1.30992">
        <ele>424.024139</ele>
        <time>2021-07-06T17:43:59.626Z</time>
      </trkpt>
      <trkpt lat="46.00397" lon="1.30941">
        <ele>422.951279</ele>
        <time>2021-07-06T17:44:09.228Z</time>
      </trkpt>
      <trkpt lat="46.00408" lon="1.30915">
        <ele>422.297628</ele>
        <time>2021-07-06T17:44:14.795Z</time>
      </trkpt>
      <trkpt lat="46.00423" lon="1.30896">
        <ele>421.675179</ele>
        <time>2021-07-06T17:44:20.014Z</time>
      </trkpt>
      <trkpt lat="46.00434" lon="1.30894">
        <ele>421.3259</ele>
        <time>2021-07-06T17:44:22.983Z</time>
      </trkpt>
      <trkpt lat="46.00462" lon="1.3087">
        <ele>420.302756</ele>
        <time>2021-07-06T17:44:31.456Z</time>
      </trkpt>
      <trkpt lat="46.00497" lon="1.30899">
        <ele>419.026738</ele>
        <time>2021-07-06T17:44:41.902Z</time>
      </trkpt>
      <trkpt lat="46.00507" lon="1.30933">
        <ele>418.227277</ele>
        <time>2021-07-06T17:44:48.116Z</time>
      </trkpt>
      <trkpt lat="46.00521" lon="1.30917">
        <ele>417.712438</ele>
        <time>2021-07-06T17:44:52.650Z</time>
      </trkpt>
      <trkpt lat="46.0053" lon="1.30924">
        <ele>417.412229</ele>
        <time>2021-07-06T17:44:54.973Z</time>
      </trkpt>
      <trkpt lat="46.00533" lon="1.30952">
        <ele>416.832743</ele>
        <time>2021-07-06T17:45:00.422Z</time>
      </trkpt>
      <trkpt lat="46.00546" lon="1.30961">
        <ele>416.401239</ele>
        <time>2021-07-06T17:45:03.856Z</time>
      </trkpt>
      <trkpt lat="46.0058" lon="1.30973">
        <ele>415.380722</ele>
        <time>2021-07-06T17:45:12.761Z</time>
      </trkpt>
      <trkpt lat="46.00613" lon="1.30969">
        <ele>414.436358</ele>
        <time>2021-07-06T17:45:21.541Z</time>
      </trkpt>
      <trkpt lat="46.00615" lon="1.30967">
        <ele>414.352425</ele>
        <time>2021-07-06T17:45:22.090Z</time>
      </trkpt>
      <trkpt lat="46.0061" lon="1.30965">
        <ele>414.197936</ele>
        <time>2021-07-06T17:45:23.451Z</time>
      </trkpt>
      <trkpt lat="46.00606" lon="1.30962">
        <ele>414.069155</ele>
        <time>2021-07-06T17:45:24.385Z</time>
      </trkpt>
      <trkpt lat="46.00604" lon="1.30959">
        <ele>413.996314</ele>
        <time>2021-07-06T17:45:25.105Z</time>
      </trkpt>
      <trkpt lat="46.00606" lon="1.30949">
        <ele>413.774622</ele>
        <time>2021-07-06T17:45:26.770Z</time>
      </trkpt>
      <trkpt lat="46.00609" lon="1.30932">
        <ele>413.434185</ele>
        <time>2021-07-06T17:45:30.027Z</time>
      </trkpt>
      <trkpt lat="46.0061" lon="1.30927">
        <ele>413.331655</ele>
        <time>2021-07-06T17:45:30.596Z</time>
      </trkpt>
      <trkpt lat="46.00613" lon="1.30917">
        <ele>413.098401</ele>
        <time>2021-07-06T17:45:32.391Z</time>
      </trkpt>
      <trkpt lat="46.00622" lon="1.30886">
        <ele>413.239885</ele>
        <time>2021-07-06T17:45:39.206Z</time>
      </trkpt>
      <trkpt lat="46.00638" lon="1.30879">
        <ele>413.553583</ele>
        <time>2021-07-06T17:45:42.770Z</time>
      </trkpt>
      <trkpt lat="46.00652" lon="1.30872">
        <ele>413.828465</ele>
        <time>2021-07-06T17:45:47.923Z</time>
      </trkpt>
      <trkpt lat="46.00657" lon="1.30872">
        <ele>413.912312</ele>
        <time>2021-07-06T17:45:49.628Z</time>
      </trkpt>
      <trkpt lat="46.00649" lon="1.30903">
        <ele>414.338954</ele>
        <time>2021-07-06T17:45:53.861Z</time>
      </trkpt>
      <trkpt lat="46.00648" lon="1.30911">
        <ele>414.443859</ele>
        <time>2021-07-06T17:45:56.314Z</time>
      </trkpt>
      <trkpt lat="46.00647" lon="1.30914">
        <ele>414.488996</ele>
        <time>2021-07-06T17:45:57.225Z</time>
      </trkpt>
      <trkpt lat="46.00647" lon="1.3094">
        <ele>414.814533</ele>
        <time>2021-07-06T17:46:00.929Z</time>
      </trkpt>
      <trkpt lat="46.00648" lon="1.30953">
        <ele>414.988592</ele>
        <time>2021-07-06T17:46:03.901Z</time>
      </trkpt>
      <trkpt lat="46.00657" lon="1.30952">
        <ele>415.152904</ele>
        <time>2021-07-06T17:46:09.260Z</time>
      </trkpt>
      <trkpt lat="46.0073" lon="1.30942">
        <ele>416.818318</ele>
        <time>2021-07-06T17:46:47.903Z</time>
      </trkpt>
      <trkpt lat="46.00806" lon="1.30885">
        <ele>420.119145</ele>
        <time>2021-07-06T17:47:35.816Z</time>
      </trkpt>
      <trkpt lat="46.00866" lon="1.30837">
        <ele>422.784157</ele>
        <time>2021-07-06T17:48:10.085Z</time>
      </trkpt>
      <trkpt lat="46.00928" lon="1.30774">
        <ele>423.401107</ele>
        <time>2021-07-06T17:48:41.500Z</time>
      </trkpt>
      <trkpt lat="46.01101" lon="1.3063">
        <ele>423.623695</ele>
        <time>2021-07-06T17:49:40.295Z</time>
      </trkpt>
      <trkpt lat="46.01126" lon="1.30594">
        <ele>423.564861</ele>
        <time>2021-07-06T17:49:51.335Z</time>
      </trkpt>
      <trkpt lat="46.01161" lon="1.30561">
        <ele>423.495928</ele>
        <time>2021-07-06T17:50:04.642Z</time>
      </trkpt>
      <trkpt lat="46.01194" lon="1.30546">
        <ele>423.98911</ele>
        <time>2021-07-06T17:50:17.245Z</time>
      </trkpt>
      <trkpt lat="46.01224" lon="1.30493">
        <ele>425.514642</ele>
        <time>2021-07-06T17:50:37.817Z</time>
      </trkpt>
      <trkpt lat="46.0123" lon="1.30491">
        <ele>425.719193</ele>
        <time>2021-07-06T17:50:41.440Z</time>
      </trkpt>
      <trkpt lat="46.0126" lon="1.30482">
        <ele>426.704851</ele>
        <time>2021-07-06T17:50:55.706Z</time>
      </trkpt>
      <trkpt lat="46.01274" lon="1.30487">
        <ele>427.147466</ele>
        <time>2021-07-06T17:51:03.174Z</time>
      </trkpt>
      <trkpt lat="46.01307" lon="1.30476">
        <ele>428.239889</ele>
        <time>2021-07-06T17:51:22.039Z</time>
      </trkpt>
      <trkpt lat="46.01327" lon="1.30477">
        <ele>428.879447</ele>
        <time>2021-07-06T17:51:32.939Z</time>
      </trkpt>
      <trkpt lat="46.01349" lon="1.30477">
        <ele>429.615418</ele>
        <time>2021-07-06T17:51:45.956Z</time>
      </trkpt>
      <trkpt lat="46.01369" lon="1.30454">
        <ele>430.466019</ele>
        <time>2021-07-06T17:51:59.942Z</time>
      </trkpt>
      <trkpt lat="46.01368" lon="1.30416">
        <ele>431.356572</ele>
        <time>2021-07-06T17:52:13.761Z</time>
      </trkpt>
      <trkpt lat="46.01355" lon="1.30324">
        <ele>433.558037</ele>
        <time>2021-07-06T17:52:47.187Z</time>
      </trkpt>
      <trkpt lat="46.01398" lon="1.30217">
        <ele>434.660723</ele>
        <time>2021-07-06T17:53:22.346Z</time>
      </trkpt>
      <trkpt lat="46.01405" lon="1.30215">
        <ele>434.539711</ele>
        <time>2021-07-06T17:53:24.734Z</time>
      </trkpt>
      <trkpt lat="46.01428" lon="1.30151">
        <ele>433.687806</ele>
        <time>2021-07-06T17:53:39.725Z</time>
      </trkpt>
      <trkpt lat="46.01437" lon="1.30104">
        <ele>433.106833</ele>
        <time>2021-07-06T17:53:48.657Z</time>
      </trkpt>
      <trkpt lat="46.01472" lon="1.3001">
        <ele>430.815136</ele>
        <time>2021-07-06T17:54:06.930Z</time>
      </trkpt>
      <trkpt lat="46.01479" lon="1.29977">
        <ele>429.227796</ele>
        <time>2021-07-06T17:54:12.439Z</time>
      </trkpt>
      <trkpt lat="46.0148" lon="1.29918">
        <ele>426.501028</ele>
        <time>2021-07-06T17:54:21.689Z</time>
      </trkpt>
      <trkpt lat="46.01486" lon="1.29883">
        <ele>424.796214</ele>
        <time>2021-07-06T17:54:27.384Z</time>
      </trkpt>
      <trkpt lat="46.01488" lon="1.29849">
        <ele>423.211193</ele>
        <time>2021-07-06T17:54:32.733Z</time>
      </trkpt>
      <trkpt lat="46.01483" lon="1.29816">
        <ele>421.63707</ele>
        <time>2021-07-06T17:54:37.999Z</time>
      </trkpt>
      <trkpt lat="46.0152" lon="1.29729">
        <ele>417.930403</ele>
        <time>2021-07-06T17:54:47.491Z</time>
      </trkpt>
      <trkpt lat="46.01527" lon="1.29715">
        <ele>417.374448</ele>
        <time>2021-07-06T17:54:49.204Z</time>
      </trkpt>
      <trkpt lat="46.01535" lon="1.297">
        <ele>416.779429</ele>
        <time>2021-07-06T17:54:51.004Z</time>
      </trkpt>
      <trkpt lat="46.01576" lon="1.29629">
        <ele>413.849248</ele>
        <time>2021-07-06T17:55:00.436Z</time>
      </trkpt>
      <trkpt lat="46.01582" lon="1.29606">
        <ele>413.089188</ele>
        <time>2021-07-06T17:55:03.028Z</time>
      </trkpt>
      <trkpt lat="46.01584" lon="1.29565">
        <ele>411.901585</ele>
        <time>2021-07-06T17:55:07.656Z</time>
      </trkpt>
      <trkpt lat="46.01592" lon="1.29546">
        <ele>411.810131</ele>
        <time>2021-07-06T17:55:10.371Z</time>
      </trkpt>
      <trkpt lat="46.01675" lon="1.29398">
        <ele>411.034925</ele>
        <time>2021-07-06T17:55:36.648Z</time>
      </trkpt>
      <trkpt lat="46.01698" lon="1.29371">
        <ele>410.862568</ele>
        <time>2021-07-06T17:55:42.478Z</time>
      </trkpt>
      <trkpt lat="46.01766" lon="1.29343">
        <ele>411.190803</ele>
        <time>2021-07-06T17:55:55.979Z</time>
      </trkpt>
      <trkpt lat="46.01777" lon="1.29306">
        <ele>411.322543</ele>
        <time>2021-07-06T17:56:02.180Z</time>
      </trkpt>
      <trkpt lat="46.0178" lon="1.29291">
        <ele>411.370811</ele>
        <time>2021-07-06T17:56:04.165Z</time>
      </trkpt>
      <trkpt lat="46.01791" lon="1.2929">
        <ele>411.420294</ele>
        <time>2021-07-06T17:56:06.729Z</time>
      </trkpt>
      <trkpt lat="46.01791" lon="1.2929">
        <ele>411.420294</ele>
        <time>2021-07-06T17:56:06.732Z</time>
      </trkpt>
      <trkpt lat="46.0181" lon="1.29279">
        <ele>411.516393</ele>
        <time>2021-07-06T17:56:11.062Z</time>
      </trkpt>
      <trkpt lat="46.01813" lon="1.29277">
        <ele>411.530416</ele>
        <time>2021-07-06T17:56:11.769Z</time>
      </trkpt>
      <trkpt lat="46.01768" lon="1.29218">
        <ele>412.358148</ele>
        <time>2021-07-06T17:56:29.455Z</time>
      </trkpt>
      <trkpt lat="46.01755" lon="1.29187">
        <ele>413.020065</ele>
        <time>2021-07-06T17:56:37.375Z</time>
      </trkpt>
      <trkpt lat="46.01749" lon="1.29157">
        <ele>413.589154</ele>
        <time>2021-07-06T17:56:43.496Z</time>
      </trkpt>
      <trkpt lat="46.0175" lon="1.29111">
        <ele>414.423653</ele>
        <time>2021-07-06T17:56:53.803Z</time>
      </trkpt>
      <trkpt lat="46.0176" lon="1.29071">
        <ele>415.208727</ele>
        <time>2021-07-06T17:57:04.072Z</time>
      </trkpt>
      <trkpt lat="46.01772" lon="1.2905">
        <ele>415.695988</ele>
        <time>2021-07-06T17:57:11.274Z</time>
      </trkpt>
      <trkpt lat="46.01813" lon="1.29013">
        <ele>417.054045</ele>
        <time>2021-07-06T17:57:28.872Z</time>
      </trkpt>
      <trkpt lat="46.01897" lon="1.28973">
        <ele>419.771553</ele>
        <time>2021-07-06T17:57:59.307Z</time>
      </trkpt>
      <trkpt lat="46.01924" lon="1.28939">
        <ele>420.87613</ele>
        <time>2021-07-06T17:58:10.907Z</time>
      </trkpt>
      <trkpt lat="46.01942" lon="1.28895">
        <ele>421.962658</ele>
        <time>2021-07-06T17:58:22.658Z</time>
      </trkpt>
      <trkpt lat="46.01947" lon="1.28839">
        <ele>423.579301</ele>
        <time>2021-07-06T17:58:36.447Z</time>
      </trkpt>
      <trkpt lat="46.01957" lon="1.28801">
        <ele>424.734569</ele>
        <time>2021-07-06T17:58:51.082Z</time>
      </trkpt>
      <trkpt lat="46.01966" lon="1.28767">
        <ele>425.787991</ele>
        <time>2021-07-06T17:59:04.414Z</time>
      </trkpt>
      <trkpt lat="46.01973" lon="1.28685">
        <ele>428.123031</ele>
        <time>2021-07-06T17:59:35.309Z</time>
      </trkpt>
      <trkpt lat="46.02003" lon="1.28553">
        <ele>432.106722</ele>
        <time>2021-07-06T18:00:30.529Z</time>
      </trkpt>
      <trkpt lat="46.02021" lon="1.28505">
        <ele>433.684365</ele>
        <time>2021-07-06T18:00:51.156Z</time>
      </trkpt>
      <trkpt lat="46.02106" lon="1.2832">
        <ele>437.640326</ele>
        <time>2021-07-06T18:02:04.900Z</time>
      </trkpt>
      <trkpt lat="46.02117" lon="1.28248">
        <ele>438.216537</ele>
        <time>2021-07-06T18:02:22.817Z</time>
      </trkpt>
      <trkpt lat="46.0216" lon="1.2812">
        <ele>437.27746</ele>
        <time>2021-07-06T18:02:51.048Z</time>
      </trkpt>
      <trkpt lat="46.02172" lon="1.28087">
        <ele>436.527936</ele>
        <time>2021-07-06T18:02:57.949Z</time>
      </trkpt>
      <trkpt lat="46.02174" lon="1.28076">
        <ele>436.293037</ele>
        <time>2021-07-06T18:02:59.812Z</time>
      </trkpt>
      <trkpt lat="46.0218" lon="1.28029">
        <ele>435.285364</ele>
        <time>2021-07-06T18:03:08.527Z</time>
      </trkpt>
      <trkpt lat="46.02179" lon="1.27948">
        <ele>433.626456</ele>
        <time>2021-07-06T18:03:22.485Z</time>
      </trkpt>
      <trkpt lat="46.02189" lon="1.27724">
        <ele>426.639427</ele>
        <time>2021-07-06T18:04:00.613Z</time>
      </trkpt>
      <trkpt lat="46.02184" lon="1.27685">
        <ele>425.406514</ele>
        <time>2021-07-06T18:04:07.256Z</time>
      </trkpt>
      <trkpt lat="46.02194" lon="1.27688">
        <ele>424.935183</ele>
        <time>2021-07-06T18:04:08.884Z</time>
      </trkpt>
      <trkpt lat="46.02196" lon="1.27684">
        <ele>424.764872</ele>
        <time>2021-07-06T18:04:09.379Z</time>
      </trkpt>
      <trkpt lat="46.02206" lon="1.27662">
        <ele>423.952348</ele>
        <time>2021-07-06T18:04:11.897Z</time>
      </trkpt>
      <trkpt lat="46.02226" lon="1.27612">
        <ele>422.095113</ele>
        <time>2021-07-06T18:04:17.820Z</time>
      </trkpt>
      <trkpt lat="46.02289" lon="1.27538">
        <ele>418.380258</ele>
        <time>2021-07-06T18:04:29.675Z</time>
      </trkpt>
      <trkpt lat="46.02294" lon="1.27544">
        <ele>418.080624</ele>
        <time>2021-07-06T18:04:31.160Z</time>
      </trkpt>
      <trkpt lat="46.02322" lon="1.2758">
        <ele>416.167686</ele>
        <time>2021-07-06T18:04:40.121Z</time>
      </trkpt>
      <trkpt lat="46.02376" lon="1.27619">
        <ele>412.493611</ele>
        <time>2021-07-06T18:04:54.496Z</time>
      </trkpt>
      <trkpt lat="46.02393" lon="1.27633">
        <ele>411.257324</ele>
        <time>2021-07-06T18:04:59.108Z</time>
      </trkpt>
      <trkpt lat="46.025" lon="1.27713">
        <ele>403.973339</ele>
        <time>2021-07-06T18:05:26.808Z</time>
      </trkpt>
      <trkpt lat="46.0254" lon="1.27726">
        <ele>401.445315</ele>
        <time>2021-07-06T18:05:36.300Z</time>
      </trkpt>
      <trkpt lat="46.02671" lon="1.27751">
        <ele>393.737041</ele>
        <time>2021-07-06T18:06:07.317Z</time>
      </trkpt>
      <trkpt lat="46.02727" lon="1.2776">
        <ele>390.946291</ele>
        <time>2021-07-06T18:06:20.984Z</time>
      </trkpt>
      <trkpt lat="46.02802" lon="1.27755">
        <ele>387.266505</ele>
        <time>2021-07-06T18:06:39.121Z</time>
      </trkpt>
      <trkpt lat="46.02879" lon="1.2773">
        <ele>383.914281</ele>
        <time>2021-07-06T18:06:58.458Z</time>
      </trkpt>
      <trkpt lat="46.02978" lon="1.27732">
        <ele>379.944789</ele>
        <time>2021-07-06T18:07:23.114Z</time>
      </trkpt>
      <trkpt lat="46.03018" lon="1.27773">
        <ele>378.436419</ele>
        <time>2021-07-06T18:07:35.867Z</time>
      </trkpt>
      <trkpt lat="46.03058" lon="1.27792">
        <ele>377.436541</ele>
        <time>2021-07-06T18:07:47.263Z</time>
      </trkpt>
      <trkpt lat="46.03079" lon="1.27766">
        <ele>376.783328</ele>
        <time>2021-07-06T18:07:54.776Z</time>
      </trkpt>
      <trkpt lat="46.0309" lon="1.27762">
        <ele>376.517893</ele>
        <time>2021-07-06T18:07:57.868Z</time>
      </trkpt>
      <trkpt lat="46.03108" lon="1.27756">
        <ele>376.076141</ele>
        <time>2021-07-06T18:08:02.918Z</time>
      </trkpt>
      <trkpt lat="46.03086" lon="1.27745">
        <ele>375.523822</ele>
        <time>2021-07-06T18:08:09.605Z</time>
      </trkpt>
      <trkpt lat="46.03065" lon="1.27749">
        <ele>375.027725</ele>
        <time>2021-07-06T18:08:15.354Z</time>
      </trkpt>
      <trkpt lat="46.03047" lon="1.27739">
        <ele>374.694035</ele>
        <time>2021-07-06T18:08:20.755Z</time>
      </trkpt>
      <trkpt lat="46.03028" lon="1.27631">
        <ele>373.73158</ele>
        <time>2021-07-06T18:08:42.247Z</time>
      </trkpt>
      <trkpt lat="46.03028" lon="1.27595">
        <ele>373.414474</ele>
        <time>2021-07-06T18:08:49.987Z</time>
      </trkpt>
      <trkpt lat="46.03034" lon="1.27573">
        <ele>373.213624</ele>
        <time>2021-07-06T18:08:54.562Z</time>
      </trkpt>
      <trkpt lat="46.03046" lon="1.27567">
        <ele>373.054671</ele>
        <time>2021-07-06T18:08:58.206Z</time>
      </trkpt>
      <trkpt lat="46.03071" lon="1.27567">
        <ele>372.736828</ele>
        <time>2021-07-06T18:09:05.480Z</time>
      </trkpt>
      <trkpt lat="46.03087" lon="1.27554">
        <ele>372.665742</ele>
        <time>2021-07-06T18:09:10.964Z</time>
      </trkpt>
      <trkpt lat="46.03132" lon="1.27546">
        <ele>373.291016</ele>
        <time>2021-07-06T18:09:25.134Z</time>
      </trkpt>
      <trkpt lat="46.03143" lon="1.27533">
        <ele>373.480684</ele>
        <time>2021-07-06T18:09:29.906Z</time>
      </trkpt>
      <trkpt lat="46.03175" lon="1.27426">
        <ele>374.597414</ele>
        <time>2021-07-06T18:10:02.977Z</time>
      </trkpt>
      <trkpt lat="46.03168" lon="1.27402">
        <ele>374.852292</ele>
        <time>2021-07-06T18:10:11.631Z</time>
      </trkpt>
      <trkpt lat="46.03151" lon="1.27393">
        <ele>375.11234</ele>
        <time>2021-07-06T18:10:19.895Z</time>
      </trkpt>
      <trkpt lat="46.03146" lon="1.27307">
        <ele>376.716937</ele>
        <time>2021-07-06T18:10:49.987Z</time>
      </trkpt>
      <trkpt lat="46.0313" lon="1.27256">
        <ele>377.745747</ele>
        <time>2021-07-06T18:11:08.867Z</time>
      </trkpt>
      <trkpt lat="46.03121" lon="1.27201">
        <ele>378.796672</ele>
        <time>2021-07-06T18:11:26.729Z</time>
      </trkpt>
      <trkpt lat="46.03097" lon="1.2715">
        <ele>379.895138</ele>
        <time>2021-07-06T18:11:43.780Z</time>
      </trkpt>
      <trkpt lat="46.03082" lon="1.27135">
        <ele>380.077068</ele>
        <time>2021-07-06T18:11:50.826Z</time>
      </trkpt>
      <trkpt lat="46.03088" lon="1.27074">
        <ele>380.49055</ele>
        <time>2021-07-06T18:12:06.101Z</time>
      </trkpt>
      <trkpt lat="46.0307" lon="1.27046">
        <ele>380.750383</ele>
        <time>2021-07-06T18:12:15.706Z</time>
      </trkpt>
      <trkpt lat="46.03054" lon="1.27004">
        <ele>381.070114</ele>
        <time>2021-07-06T18:12:27.041Z</time>
      </trkpt>
      <trkpt lat="46.03045" lon="1.26994">
        <ele>381.180869</ele>
        <time>2021-07-06T18:12:29.866Z</time>
      </trkpt>
      <trkpt lat="46.03046" lon="1.26961">
        <ele>381.400255</ele>
        <time>2021-07-06T18:12:35.608Z</time>
      </trkpt>
      <trkpt lat="46.03052" lon="1.26895">
        <ele>381.770836</ele>
        <time>2021-07-06T18:12:47.361Z</time>
      </trkpt>
      <trkpt lat="46.0306" lon="1.26894">
        <ele>381.817202</ele>
        <time>2021-07-06T18:12:49.072Z</time>
      </trkpt>
      <trkpt lat="46.03076" lon="1.26896">
        <ele>381.920182</ele>
        <time>2021-07-06T18:12:53.176Z</time>
      </trkpt>
      <trkpt lat="46.03103" lon="1.26904">
        <ele>382.091572</ele>
        <time>2021-07-06T18:12:59.232Z</time>
      </trkpt>
      <trkpt lat="46.0312" lon="1.269">
        <ele>382.197279</ele>
        <time>2021-07-06T18:13:03.093Z</time>
      </trkpt>
      <trkpt lat="46.03145" lon="1.26891">
        <ele>382.361123</ele>
        <time>2021-07-06T18:13:10.324Z</time>
      </trkpt>
      <trkpt lat="46.03158" lon="1.26887">
        <ele>382.439548</ele>
        <time>2021-07-06T18:13:13.034Z</time>
      </trkpt>
      <trkpt lat="46.03178" lon="1.26902">
        <ele>382.58479</ele>
        <time>2021-07-06T18:13:19.196Z</time>
      </trkpt>
      <trkpt lat="46.0318" lon="1.26905">
        <ele>382.600141</ele>
        <time>2021-07-06T18:13:20.077Z</time>
      </trkpt>
      <trkpt lat="46.0323" lon="1.26876">
        <ele>382.246549</ele>
        <time>2021-07-06T18:13:37.516Z</time>
      </trkpt>
      <trkpt lat="46.03318" lon="1.26835">
        <ele>380.793211</ele>
        <time>2021-07-06T18:14:03.724Z</time>
      </trkpt>
      <trkpt lat="46.03345" lon="1.2681">
        <ele>380.285819</ele>
        <time>2021-07-06T18:14:12.173Z</time>
      </trkpt>
      <trkpt lat="46.03363" lon="1.26762">
        <ele>379.390782</ele>
        <time>2021-07-06T18:14:22.057Z</time>
      </trkpt>
      <trkpt lat="46.0339" lon="1.2664">
        <ele>375.972833</ele>
        <time>2021-07-06T18:14:44.357Z</time>
      </trkpt>
      <trkpt lat="46.03407" lon="1.26617">
        <ele>375.073687</ele>
        <time>2021-07-06T18:14:50.132Z</time>
      </trkpt>
      <trkpt lat="46.03427" lon="1.26614">
        <ele>374.320553</ele>
        <time>2021-07-06T18:14:54.964Z</time>
      </trkpt>
      <trkpt lat="46.03438" lon="1.26587">
        <ele>373.491143</ele>
        <time>2021-07-06T18:15:00.347Z</time>
      </trkpt>
      <trkpt lat="46.03473" lon="1.26591">
        <ele>372.367937</ele>
        <time>2021-07-06T18:15:09.085Z</time>
      </trkpt>
      <trkpt lat="46.03496" lon="1.26619">
        <ele>371.521579</ele>
        <time>2021-07-06T18:15:16.549Z</time>
      </trkpt>
      <trkpt lat="46.03528" lon="1.26644">
        <ele>370.467267</ele>
        <time>2021-07-06T18:15:26.086Z</time>
      </trkpt>
      <trkpt lat="46.0354" lon="1.26664">
        <ele>369.960073</ele>
        <time>2021-07-06T18:15:30.740Z</time>
      </trkpt>
      <trkpt lat="46.03543" lon="1.26713">
        <ele>368.99057</ele>
        <time>2021-07-06T18:15:39.768Z</time>
      </trkpt>
      <trkpt lat="46.03523" lon="1.26802">
        <ele>368.491314</ele>
        <time>2021-07-06T18:15:58.158Z</time>
      </trkpt>
      <trkpt lat="46.0348" lon="1.2688">
        <ele>369.971557</ele>
        <time>2021-07-06T18:16:24.722Z</time>
      </trkpt>
      <trkpt lat="46.03495" lon="1.26903">
        <ele>370.454489</ele>
        <time>2021-07-06T18:16:35.200Z</time>
      </trkpt>
      <trkpt lat="46.03561" lon="1.26883">
        <ele>372.175451</ele>
        <time>2021-07-06T18:17:12.065Z</time>
      </trkpt>
      <trkpt lat="46.03581" lon="1.26882">
        <ele>373.414419</ele>
        <time>2021-07-06T18:17:24.145Z</time>
      </trkpt>
      <trkpt lat="46.03595" lon="1.2688">
        <ele>374.348394</ele>
        <time>2021-07-06T18:17:32.932Z</time>
      </trkpt>
      <trkpt lat="46.03671" lon="1.26891">
        <ele>379.186464</ele>
        <time>2021-07-06T18:18:23.061Z</time>
      </trkpt>
      <trkpt lat="46.03697" lon="1.26889">
        <ele>380.832799</ele>
        <time>2021-07-06T18:18:41.011Z</time>
      </trkpt>
      <trkpt lat="46.03778" lon="1.26924">
        <ele>385.221596</ele>
        <time>2021-07-06T18:19:36.272Z</time>
      </trkpt>
      <trkpt lat="46.03793" lon="1.2692">
        <ele>385.90653</ele>
        <time>2021-07-06T18:19:45.504Z</time>
      </trkpt>
      <trkpt lat="46.03821" lon="1.26905">
        <ele>387.171108</ele>
        <time>2021-07-06T18:20:01.588Z</time>
      </trkpt>
      <trkpt lat="46.03828" lon="1.26892">
        <ele>387.682933</ele>
        <time>2021-07-06T18:20:07.798Z</time>
      </trkpt>
      <trkpt lat="46.03824" lon="1.26851">
        <ele>388.918823</ele>
        <time>2021-07-06T18:20:21.815Z</time>
      </trkpt>
      <trkpt lat="46.03832" lon="1.26832">
        <ele>389.579393</ele>
        <time>2021-07-06T18:20:28.863Z</time>
      </trkpt>
      <trkpt lat="46.03852" lon="1.26825">
        <ele>390.480819</ele>
        <time>2021-07-06T18:20:38.078Z</time>
      </trkpt>
      <trkpt lat="46.03874" lon="1.26835">
        <ele>390.940764</ele>
        <time>2021-07-06T18:20:47.200Z</time>
      </trkpt>
      <trkpt lat="46.03928" lon="1.268">
        <ele>390.822788</ele>
        <time>2021-07-06T18:21:08.553Z</time>
      </trkpt>
      <trkpt lat="46.04048" lon="1.2684">
        <ele>390.25439</ele>
        <time>2021-07-06T18:21:44.086Z</time>
      </trkpt>
      <trkpt lat="46.04058" lon="1.26841">
        <ele>389.966689</ele>
        <time>2021-07-06T18:21:46.986Z</time>
      </trkpt>
      <trkpt lat="46.04074" lon="1.26861">
        <ele>389.409042</ele>
        <time>2021-07-06T18:21:52.749Z</time>
      </trkpt>
      <trkpt lat="46.04096" lon="1.2687">
        <ele>388.816961</ele>
        <time>2021-07-06T18:21:58.659Z</time>
      </trkpt>
      <trkpt lat="46.04143" lon="1.26832">
        <ele>387.385922</ele>
        <time>2021-07-06T18:22:12.936Z</time>
      </trkpt>
      <trkpt lat="46.04202" lon="1.26826">
        <ele>385.78921</ele>
        <time>2021-07-06T18:22:28.345Z</time>
      </trkpt>
      <trkpt lat="46.04322" lon="1.26951">
        <ele>380.55155</ele>
        <time>2021-07-06T18:23:05.655Z</time>
      </trkpt>
      <trkpt lat="46.04361" lon="1.26966">
        <ele>379.146896</ele>
        <time>2021-07-06T18:23:15.875Z</time>
      </trkpt>
      <trkpt lat="46.04378" lon="1.26961">
        <ele>378.55289</ele>
        <time>2021-07-06T18:23:20.380Z</time>
      </trkpt>
      <trkpt lat="46.04438" lon="1.27001">
        <ele>376.379847</ele>
        <time>2021-07-06T18:23:37.211Z</time>
      </trkpt>
      <trkpt lat="46.04471" lon="1.27">
        <ele>375.31763</ele>
        <time>2021-07-06T18:23:45.490Z</time>
      </trkpt>
      <trkpt lat="46.0451" lon="1.26973">
        <ele>373.88456</ele>
        <time>2021-07-06T18:23:56.705Z</time>
      </trkpt>
      <trkpt lat="46.04543" lon="1.26994">
        <ele>373.269904</ele>
        <time>2021-07-06T18:24:06.270Z</time>
      </trkpt>
      <trkpt lat="46.04599" lon="1.27016">
        <ele>372.63466</ele>
        <time>2021-07-06T18:24:22.452Z</time>
      </trkpt>
      <trkpt lat="46.04668" lon="1.27058">
        <ele>371.821481</ele>
        <time>2021-07-06T18:24:45.175Z</time>
      </trkpt>
      <trkpt lat="46.0471" lon="1.27058">
        <ele>371.956649</ele>
        <time>2021-07-06T18:24:59.455Z</time>
      </trkpt>
      <trkpt lat="46.04734" lon="1.27057">
        <ele>372.375782</ele>
        <time>2021-07-06T18:25:09.267Z</time>
      </trkpt>
      <trkpt lat="46.04769" lon="1.2703">
        <ele>373.059277</ele>
        <time>2021-07-06T18:25:25.415Z</time>
      </trkpt>
      <trkpt lat="46.04819" lon="1.26939">
        <ele>374.449968</ele>
        <time>2021-07-06T18:26:00.910Z</time>
      </trkpt>
      <trkpt lat="46.0485" lon="1.26916">
        <ele>374.789102</ele>
        <time>2021-07-06T18:26:16.411Z</time>
      </trkpt>
      <trkpt lat="46.04896" lon="1.26859">
        <ele>375.073038</ele>
        <time>2021-07-06T18:26:39.276Z</time>
      </trkpt>
      <trkpt lat="46.04924" lon="1.26816">
        <ele>375.262716</ele>
        <time>2021-07-06T18:26:52.801Z</time>
      </trkpt>
      <trkpt lat="46.04962" lon="1.26744">
        <ele>375.419204</ele>
        <time>2021-07-06T18:27:11.611Z</time>
      </trkpt>
      <trkpt lat="46.04992" lon="1.26726">
        <ele>374.576973</ele>
        <time>2021-07-06T18:27:20.663Z</time>
      </trkpt>
      <trkpt lat="46.04995" lon="1.26683">
        <ele>373.804181</ele>
        <time>2021-07-06T18:27:28.720Z</time>
      </trkpt>
      <trkpt lat="46.05004" lon="1.26646">
        <ele>373.091088</ele>
        <time>2021-07-06T18:27:35.876Z</time>
      </trkpt>
      <trkpt lat="46.05017" lon="1.2664">
        <ele>372.729123</ele>
        <time>2021-07-06T18:27:39.529Z</time>
      </trkpt>
      <trkpt lat="46.05044" lon="1.26657">
        <ele>371.965332</ele>
        <time>2021-07-06T18:27:47.149Z</time>
      </trkpt>
      <trkpt lat="46.05079" lon="1.26648">
        <ele>371.048123</ele>
        <time>2021-07-06T18:27:56.324Z</time>
      </trkpt>
      <trkpt lat="46.05123" lon="1.26627">
        <ele>369.726773</ele>
        <time>2021-07-06T18:28:08.132Z</time>
      </trkpt>
      <trkpt lat="46.05141" lon="1.26629">
        <ele>369.183688</ele>
        <time>2021-07-06T18:28:12.758Z</time>
      </trkpt>
      <trkpt lat="46.05204" lon="1.26642">
        <ele>367.335421</ele>
        <time>2021-07-06T18:28:28.734Z</time>
      </trkpt>
      <trkpt lat="46.05269" lon="1.26668">
        <ele>365.690127</ele>
        <time>2021-07-06T18:28:47.150Z</time>
      </trkpt>
      <trkpt lat="46.05295" lon="1.26702">
        <ele>365.899426</ele>
        <time>2021-07-06T18:28:57.484Z</time>
      </trkpt>
      <trkpt lat="46.05297" lon="1.26719">
        <ele>365.97103</ele>
        <time>2021-07-06T18:29:01.160Z</time>
      </trkpt>
      <trkpt lat="46.05337" lon="1.26792">
        <ele>366.35718</ele>
        <time>2021-07-06T18:29:24.082Z</time>
      </trkpt>
      <trkpt lat="46.05371" lon="1.26856">
        <ele>366.688296</ele>
        <time>2021-07-06T18:29:47.875Z</time>
      </trkpt>
      <trkpt lat="46.05406" lon="1.26917">
        <ele>367.887059</ele>
        <time>2021-07-06T18:30:13.715Z</time>
      </trkpt>
      <trkpt lat="46.05398" lon="1.26931">
        <ele>368.184008</ele>
        <time>2021-07-06T18:30:20.855Z</time>
      </trkpt>
      <trkpt lat="46.05378" lon="1.2695">
        <ele>368.719671</ele>
        <time>2021-07-06T18:30:31.344Z</time>
      </trkpt>
      <trkpt lat="46.05302" lon="1.26978">
        <ele>370.478674</ele>
        <time>2021-07-06T18:31:05.052Z</time>
      </trkpt>
      <trkpt lat="46.05282" lon="1.26976">
        <ele>370.698787</ele>
        <time>2021-07-06T18:31:12.579Z</time>
      </trkpt>
      <trkpt lat="46.05252" lon="1.26957">
        <ele>370.46846</ele>
        <time>2021-07-06T18:31:24.056Z</time>
      </trkpt>
      <trkpt lat="46.05228" lon="1.26949">
        <ele>370.294771</ele>
        <time>2021-07-06T18:31:31.506Z</time>
      </trkpt>
      <trkpt lat="46.05203" lon="1.26955">
        <ele>370.113368</ele>
        <time>2021-07-06T18:31:39.102Z</time>
      </trkpt>
      <trkpt lat="46.05194" lon="1.26947">
        <ele>370.038077</ele>
        <time>2021-07-06T18:31:42.208Z</time>
      </trkpt>
      <trkpt lat="46.05176" lon="1.2695">
        <ele>369.916138</ele>
        <time>2021-07-06T18:31:47.185Z</time>
      </trkpt>
      <trkpt lat="46.05153" lon="1.26966">
        <ele>369.735612</ele>
        <time>2021-07-06T18:31:54.375Z</time>
      </trkpt>
      <trkpt lat="46.05136" lon="1.26993">
        <ele>369.556747</ele>
        <time>2021-07-06T18:32:01.386Z</time>
      </trkpt>
      <trkpt lat="46.05116" lon="1.27004">
        <ele>369.242715</ele>
        <time>2021-07-06T18:32:07.228Z</time>
      </trkpt>
      <trkpt lat="46.05075" lon="1.2705">
        <ele>368.136391</ele>
        <time>2021-07-06T18:32:21.260Z</time>
      </trkpt>
      <trkpt lat="46.05057" lon="1.2706">
        <ele>367.724754</ele>
        <time>2021-07-06T18:32:26.456Z</time>
      </trkpt>
      <trkpt lat="46.05012" lon="1.27066">
        <ele>366.77993</ele>
        <time>2021-07-06T18:32:38.459Z</time>
      </trkpt>
      <trkpt lat="46.0498" lon="1.27094">
        <ele>365.993747</ele>
        <time>2021-07-06T18:32:48.678Z</time>
      </trkpt>
      <trkpt lat="46.04964" lon="1.27087">
        <ele>365.661362</ele>
        <time>2021-07-06T18:32:53.438Z</time>
      </trkpt>
      <trkpt lat="46.04947" lon="1.27091">
        <ele>365.4952</ele>
        <time>2021-07-06T18:32:58.369Z</time>
      </trkpt>
      <trkpt lat="46.04918" lon="1.27109">
        <ele>365.20241</ele>
        <time>2021-07-06T18:33:07.177Z</time>
      </trkpt>
      <trkpt lat="46.04896" lon="1.27132">
        <ele>364.944165</ele>
        <time>2021-07-06T18:33:15.093Z</time>
      </trkpt>
      <trkpt lat="46.04883" lon="1.27149">
        <ele>364.779369</ele>
        <time>2021-07-06T18:33:20.232Z</time>
      </trkpt>
      <trkpt lat="46.0487" lon="1.27185">
        <ele>364.512445</ele>
        <time>2021-07-06T18:33:28.683Z</time>
      </trkpt>
      <trkpt lat="46.04866" lon="1.27219">
        <ele>364.285771</ele>
        <time>2021-07-06T18:33:36.057Z</time>
      </trkpt>
      <trkpt lat="46.04868" lon="1.27233">
        <ele>364.192651</ele>
        <time>2021-07-06T18:33:39.107Z</time>
      </trkpt>
      <trkpt lat="46.04879" lon="1.27259">
        <ele>363.989463</ele>
        <time>2021-07-06T18:33:45.920Z</time>
      </trkpt>
      <trkpt lat="46.04893" lon="1.27274">
        <ele>364.026731</ele>
        <time>2021-07-06T18:33:51.202Z</time>
      </trkpt>
      <trkpt lat="46.04893" lon="1.27274">
        <ele>364.026731</ele>
        <time>2021-07-06T18:33:51.211Z</time>
      </trkpt>
      <trkpt lat="46.04899" lon="1.27306">
        <ele>364.077868</ele>
        <time>2021-07-06T18:33:58.532Z</time>
      </trkpt>
      <trkpt lat="46.04912" lon="1.2733">
        <ele>364.125407</ele>
        <time>2021-07-06T18:34:05.404Z</time>
      </trkpt>
      <trkpt lat="46.04955" lon="1.27374">
        <ele>364.243528</ele>
        <time>2021-07-06T18:34:22.507Z</time>
      </trkpt>
      <trkpt lat="46.04963" lon="1.27436">
        <ele>364.340178</ele>
        <time>2021-07-06T18:34:36.518Z</time>
      </trkpt>
      <trkpt lat="46.05006" lon="1.27507">
        <ele>365.458436</ele>
        <time>2021-07-06T18:35:00.598Z</time>
      </trkpt>
      <trkpt lat="46.05015" lon="1.27513">
        <ele>365.705321</ele>
        <time>2021-07-06T18:35:04.447Z</time>
      </trkpt>
      <trkpt lat="46.05052" lon="1.27552">
        <ele>366.826585</ele>
        <time>2021-07-06T18:35:23.774Z</time>
      </trkpt>
      <trkpt lat="46.05056" lon="1.27579">
        <ele>367.299443</ele>
        <time>2021-07-06T18:35:32.915Z</time>
      </trkpt>
      <trkpt lat="46.05058" lon="1.27591">
        <ele>367.515112</ele>
        <time>2021-07-06T18:35:37.355Z</time>
      </trkpt>
      <trkpt lat="46.05063" lon="1.27589">
        <ele>367.628853</ele>
        <time>2021-07-06T18:35:39.020Z</time>
      </trkpt>
      <trkpt lat="46.05066" lon="1.27588">
        <ele>367.71416</ele>
        <time>2021-07-06T18:35:40.172Z</time>
      </trkpt>
      <trkpt lat="46.05069" lon="1.27602">
        <ele>367.973321</ele>
        <time>2021-07-06T18:35:44.506Z</time>
      </trkpt>
      <trkpt lat="46.05148" lon="1.27584">
        <ele>370.871223</ele>
        <time>2021-07-06T18:36:21.458Z</time>
      </trkpt>
      <trkpt lat="46.05147" lon="1.27605">
        <ele>371.518026</ele>
        <time>2021-07-06T18:36:28.752Z</time>
      </trkpt>
      <trkpt lat="46.05155" lon="1.27602">
        <ele>371.848383</ele>
        <time>2021-07-06T18:36:31.995Z</time>
      </trkpt>
      <trkpt lat="46.05162" lon="1.2763">
        <ele>372.766268</ele>
        <time>2021-07-06T18:36:44.203Z</time>
      </trkpt>
      <trkpt lat="46.05164" lon="1.27667">
        <ele>373.896996</ele>
        <time>2021-07-06T18:36:58.421Z</time>
      </trkpt>
      <trkpt lat="46.05145" lon="1.27688">
        <ele>374.990052</ele>
        <time>2021-07-06T18:37:12.262Z</time>
      </trkpt>
      <trkpt lat="46.05102" lon="1.27701">
        <ele>376.877047</ele>
        <time>2021-07-06T18:37:36.498Z</time>
      </trkpt>
      <trkpt lat="46.05104" lon="1.2771">
        <ele>376.983524</ele>
        <time>2021-07-06T18:37:40.137Z</time>
      </trkpt>
      <trkpt lat="46.05122" lon="1.27721">
        <ele>377.308464</ele>
        <time>2021-07-06T18:37:50.552Z</time>
      </trkpt>
      <trkpt lat="46.05127" lon="1.27732">
        <ele>377.45103</ele>
        <time>2021-07-06T18:37:55.045Z</time>
      </trkpt>
      <trkpt lat="46.05126" lon="1.27758">
        <ele>377.749373</ele>
        <time>2021-07-06T18:38:04.618Z</time>
      </trkpt>
      <trkpt lat="46.05086" lon="1.27891">
        <ele>379.387198</ele>
        <time>2021-07-06T18:38:41.057Z</time>
      </trkpt>
      <trkpt lat="46.05083" lon="1.27941">
        <ele>379.348296</ele>
        <time>2021-07-06T18:38:51.703Z</time>
      </trkpt>
      <trkpt lat="46.05078" lon="1.27967">
        <ele>378.687888</ele>
        <time>2021-07-06T18:38:57.456Z</time>
      </trkpt>
      <trkpt lat="46.05076" lon="1.27975">
        <ele>378.487529</ele>
        <time>2021-07-06T18:38:58.798Z</time>
      </trkpt>
      <trkpt lat="46.05076" lon="1.27999">
        <ele>377.906326</ele>
        <time>2021-07-06T18:39:03.628Z</time>
      </trkpt>
      <trkpt lat="46.05089" lon="1.28033">
        <ele>376.955004</ele>
        <time>2021-07-06T18:39:10.349Z</time>
      </trkpt>
      <trkpt lat="46.05095" lon="1.28093">
        <ele>375.454137</ele>
        <time>2021-07-06T18:39:20.860Z</time>
      </trkpt>
      <trkpt lat="46.05093" lon="1.28137">
        <ele>374.378638</ele>
        <time>2021-07-06T18:39:28.033Z</time>
      </trkpt>
      <trkpt lat="46.05101" lon="1.28155">
        <ele>373.851146</ele>
        <time>2021-07-06T18:39:31.857Z</time>
      </trkpt>
      <trkpt lat="46.05138" lon="1.28168">
        <ele>372.326021</ele>
        <time>2021-07-06T18:39:40.700Z</time>
      </trkpt>
      <trkpt lat="46.05143" lon="1.28171">
        <ele>372.069622</ele>
        <time>2021-07-06T18:39:41.998Z</time>
      </trkpt>
      <trkpt lat="46.05131" lon="1.28183">
        <ele>371.423659</ele>
        <time>2021-07-06T18:39:43.983Z</time>
      </trkpt>
      <trkpt lat="46.05106" lon="1.28218">
        <ele>369.920544</ele>
        <time>2021-07-06T18:39:48.658Z</time>
      </trkpt>
      <trkpt lat="46.05114" lon="1.28226">
        <ele>369.498506</ele>
        <time>2021-07-06T18:39:50.153Z</time>
      </trkpt>
      <trkpt lat="46.05108" lon="1.28255">
        <ele>368.580473</ele>
        <time>2021-07-06T18:39:52.962Z</time>
      </trkpt>
      <trkpt lat="46.05109" lon="1.2828">
        <ele>367.835426</ele>
        <time>2021-07-06T18:39:55.575Z</time>
      </trkpt>
      <trkpt lat="46.05116" lon="1.28311">
        <ele>366.875913</ele>
        <time>2021-07-06T18:39:58.583Z</time>
      </trkpt>
      <trkpt lat="46.05115" lon="1.28322">
        <ele>366.528267</ele>
        <time>2021-07-06T18:39:59.937Z</time>
      </trkpt>
      <trkpt lat="46.051" lon="1.28352">
        <ele>365.670737</ele>
        <time>2021-07-06T18:40:03.524Z</time>
      </trkpt>
      <trkpt lat="46.051" lon="1.28366">
        <ele>365.634708</ele>
        <time>2021-07-06T18:40:05.146Z</time>
      </trkpt>
      <trkpt lat="46.05111" lon="1.28387">
        <ele>365.563946</ele>
        <time>2021-07-06T18:40:07.988Z</time>
      </trkpt>
      <trkpt lat="46.05118" lon="1.28413">
        <ele>365.492422</ele>
        <time>2021-07-06T18:40:11.566Z</time>
      </trkpt>
      <trkpt lat="46.05119" lon="1.28435">
        <ele>365.433174</ele>
        <time>2021-07-06T18:40:14.146Z</time>
      </trkpt>
      <trkpt lat="46.05099" lon="1.28484">
        <ele>365.284707</ele>
        <time>2021-07-06T18:40:22.024Z</time>
      </trkpt>
      <trkpt lat="46.05101" lon="1.28513">
        <ele>365.207153</ele>
        <time>2021-07-06T18:40:26.897Z</time>
      </trkpt>
      <trkpt lat="46.0511" lon="1.28547">
        <ele>365.112614</ele>
        <time>2021-07-06T18:40:32.468Z</time>
      </trkpt>
      <trkpt lat="46.05108" lon="1.28576">
        <ele>365.034411</ele>
        <time>2021-07-06T18:40:37.147Z</time>
      </trkpt>
      <trkpt lat="46.05089" lon="1.28609">
        <ele>365.514183</ele>
        <time>2021-07-06T18:40:44.972Z</time>
      </trkpt>
      <trkpt lat="46.05061" lon="1.28695">
        <ele>366.876736</ele>
        <time>2021-07-06T18:41:02.747Z</time>
      </trkpt>
      <trkpt lat="46.05054" lon="1.28728">
        <ele>367.366946</ele>
        <time>2021-07-06T18:41:09.717Z</time>
      </trkpt>
      <trkpt lat="46.05057" lon="1.28762">
        <ele>367.860945</ele>
        <time>2021-07-06T18:41:17.298Z</time>
      </trkpt>
      <trkpt lat="46.05049" lon="1.28777">
        <ele>368.125083</ele>
        <time>2021-07-06T18:41:21.519Z</time>
      </trkpt>
      <trkpt lat="46.05031" lon="1.28769">
        <ele>368.516852</ele>
        <time>2021-07-06T18:41:28.082Z</time>
      </trkpt>
      <trkpt lat="46.04999" lon="1.28733">
        <ele>369.933642</ele>
        <time>2021-07-06T18:41:42.940Z</time>
      </trkpt>
      <trkpt lat="46.04978" lon="1.28695">
        <ele>371.247508</ele>
        <time>2021-07-06T18:41:55.879Z</time>
      </trkpt>
      <trkpt lat="46.04974" lon="1.28676">
        <ele>371.800084</ele>
        <time>2021-07-06T18:42:01.415Z</time>
      </trkpt>
      <trkpt lat="46.04962" lon="1.28664">
        <ele>372.348433</ele>
        <time>2021-07-06T18:42:07.077Z</time>
      </trkpt>
      <trkpt lat="46.0493" lon="1.28676">
        <ele>373.669301</ele>
        <time>2021-07-06T18:42:21.024Z</time>
      </trkpt>
      <trkpt lat="46.04905" lon="1.28749">
        <ele>375.842701</ele>
        <time>2021-07-06T18:42:44.242Z</time>
      </trkpt>
      <trkpt lat="46.04885" lon="1.28767">
        <ele>376.319382</ele>
        <time>2021-07-06T18:42:53.175Z</time>
      </trkpt>
      <trkpt lat="46.04868" lon="1.28768">
        <ele>376.676095</ele>
        <time>2021-07-06T18:42:59.657Z</time>
      </trkpt>
      <trkpt lat="46.0485" lon="1.28756">
        <ele>377.08986</ele>
        <time>2021-07-06T18:43:06.702Z</time>
      </trkpt>
      <trkpt lat="46.04833" lon="1.28725">
        <ele>377.679646</ele>
        <time>2021-07-06T18:43:15.981Z</time>
      </trkpt>
      <trkpt lat="46.04827" lon="1.28686">
        <ele>378.252571</ele>
        <time>2021-07-06T18:43:23.733Z</time>
      </trkpt>
      <trkpt lat="46.04836" lon="1.28589">
        <ele>379.439145</ele>
        <time>2021-07-06T18:43:38.348Z</time>
      </trkpt>
      <trkpt lat="46.04832" lon="1.28571">
        <ele>379.205229</ele>
        <time>2021-07-06T18:43:41.060Z</time>
      </trkpt>
      <trkpt lat="46.04786" lon="1.28536">
        <ele>378.278313</ele>
        <time>2021-07-06T18:43:49.826Z</time>
      </trkpt>
      <trkpt lat="46.04765" lon="1.28528">
        <ele>377.885276</ele>
        <time>2021-07-06T18:43:53.148Z</time>
      </trkpt>
      <trkpt lat="46.04725" lon="1.28551">
        <ele>377.117842</ele>
        <time>2021-07-06T18:43:59.590Z</time>
      </trkpt>
      <trkpt lat="46.0471" lon="1.28559">
        <ele>376.838233</ele>
        <time>2021-07-06T18:44:01.931Z</time>
      </trkpt>
      <trkpt lat="46.04683" lon="1.28589">
        <ele>376.131607</ele>
        <time>2021-07-06T18:44:07.192Z</time>
      </trkpt>
      <trkpt lat="46.04666" lon="1.28582">
        <ele>375.523631</ele>
        <time>2021-07-06T18:44:11.580Z</time>
      </trkpt>
      <trkpt lat="46.04634" lon="1.28586">
        <ele>374.389977</ele>
        <time>2021-07-06T18:44:19.971Z</time>
      </trkpt>
      <trkpt lat="46.04574" lon="1.28567">
        <ele>372.28734</ele>
        <time>2021-07-06T18:44:35.545Z</time>
      </trkpt>
      <trkpt lat="46.04552" lon="1.2847">
        <ele>369.920736</ele>
        <time>2021-07-06T18:44:53.408Z</time>
      </trkpt>
      <trkpt lat="46.04558" lon="1.28447">
        <ele>369.457295</ele>
        <time>2021-07-06T18:44:57.896Z</time>
      </trkpt>
      <trkpt lat="46.04579" lon="1.2842">
        <ele>368.704814</ele>
        <time>2021-07-06T18:45:05.252Z</time>
      </trkpt>
      <trkpt lat="46.04591" lon="1.28392">
        <ele>368.100989</ele>
        <time>2021-07-06T18:45:11.200Z</time>
      </trkpt>
      <trkpt lat="46.04584" lon="1.28361">
        <ele>367.504625</ele>
        <time>2021-07-06T18:45:17.115Z</time>
      </trkpt>
      <trkpt lat="46.04535" lon="1.28314">
        <ele>365.934314</ele>
        <time>2021-07-06T18:45:33.001Z</time>
      </trkpt>
      <trkpt lat="46.04507" lon="1.28256">
        <ele>365.273867</ele>
        <time>2021-07-06T18:45:46.767Z</time>
      </trkpt>
      <trkpt lat="46.04482" lon="1.28243">
        <ele>365.186413</ele>
        <time>2021-07-06T18:45:54.583Z</time>
      </trkpt>
      <trkpt lat="46.04404" lon="1.28226">
        <ele>364.93121</ele>
        <time>2021-07-06T18:46:18.901Z</time>
      </trkpt>
      <trkpt lat="46.04391" lon="1.28249">
        <ele>364.862039</ele>
        <time>2021-07-06T18:46:26.209Z</time>
      </trkpt>
      <trkpt lat="46.04391" lon="1.2828">
        <ele>364.791894</ele>
        <time>2021-07-06T18:46:33.933Z</time>
      </trkpt>
      <trkpt lat="46.04397" lon="1.28315">
        <ele>365.15515</ele>
        <time>2021-07-06T18:46:43.205Z</time>
      </trkpt>
      <trkpt lat="46.04409" lon="1.28349">
        <ele>365.64907</ele>
        <time>2021-07-06T18:46:53.751Z</time>
      </trkpt>
      <trkpt lat="46.04403" lon="1.28376">
        <ele>366.015348</ele>
        <time>2021-07-06T18:47:01.844Z</time>
      </trkpt>
      <trkpt lat="46.04406" lon="1.28425">
        <ele>366.653921</ele>
        <time>2021-07-06T18:47:16.438Z</time>
      </trkpt>
      <trkpt lat="46.04411" lon="1.28456">
        <ele>367.063857</ele>
        <time>2021-07-06T18:47:26.079Z</time>
      </trkpt>
      <trkpt lat="46.04427" lon="1.28496">
        <ele>367.655351</ele>
        <time>2021-07-06T18:47:40.094Z</time>
      </trkpt>
      <trkpt lat="46.04422" lon="1.28524">
        <ele>368.024293</ele>
        <time>2021-07-06T18:47:48.878Z</time>
      </trkpt>
      <trkpt lat="46.04349" lon="1.28561">
        <ele>368.99601</ele>
        <time>2021-07-06T18:48:21.443Z</time>
      </trkpt>
      <trkpt lat="46.0433" lon="1.28544">
        <ele>369.262563</ele>
        <time>2021-07-06T18:48:30.024Z</time>
      </trkpt>
      <trkpt lat="46.0433" lon="1.28503">
        <ele>369.615655</ele>
        <time>2021-07-06T18:48:40.796Z</time>
      </trkpt>
      <trkpt lat="46.04321" lon="1.28481">
        <ele>369.826986</ele>
        <time>2021-07-06T18:48:46.989Z</time>
      </trkpt>
      <trkpt lat="46.04295" lon="1.28462">
        <ele>370.175327</ele>
        <time>2021-07-06T18:48:56.590Z</time>
      </trkpt>
      <trkpt lat="46.04291" lon="1.28436">
        <ele>370.237374</ele>
        <time>2021-07-06T18:49:02.426Z</time>
      </trkpt>
      <trkpt lat="46.04301" lon="1.28427">
        <ele>370.134989</ele>
        <time>2021-07-06T18:49:06.155Z</time>
      </trkpt>
      <trkpt lat="46.04292" lon="1.28286">
        <ele>369.292284</ele>
        <time>2021-07-06T18:49:35.092Z</time>
      </trkpt>
      <trkpt lat="46.04285" lon="1.28254">
        <ele>369.091262</ele>
        <time>2021-07-06T18:49:41.805Z</time>
      </trkpt>
      <trkpt lat="46.04266" lon="1.28221">
        <ele>368.838568</ele>
        <time>2021-07-06T18:49:50.300Z</time>
      </trkpt>
      <trkpt lat="46.0427" lon="1.28155">
        <ele>368.496637</ele>
        <time>2021-07-06T18:50:03.823Z</time>
      </trkpt>
      <trkpt lat="46.04265" lon="1.28143">
        <ele>368.428656</ele>
        <time>2021-07-06T18:50:06.637Z</time>
      </trkpt>
      <trkpt lat="46.04223" lon="1.28094">
        <ele>368.039085</ele>
        <time>2021-07-06T18:50:23.002Z</time>
      </trkpt>
      <trkpt lat="46.04181" lon="1.28134">
        <ele>367.680479</ele>
        <time>2021-07-06T18:50:38.328Z</time>
      </trkpt>
      <trkpt lat="46.04157" lon="1.28091">
        <ele>367.439589</ele>
        <time>2021-07-06T18:50:49.948Z</time>
      </trkpt>
      <trkpt lat="46.04136" lon="1.28057">
        <ele>367.294178</ele>
        <time>2021-07-06T18:50:59.918Z</time>
      </trkpt>
      <trkpt lat="46.04126" lon="1.28041">
        <ele>367.227951</ele>
        <time>2021-07-06T18:51:04.486Z</time>
      </trkpt>
      <trkpt lat="46.04086" lon="1.28014">
        <ele>367.028835</ele>
        <time>2021-07-06T18:51:18.025Z</time>
      </trkpt>
      <trkpt lat="46.03943" lon="1.27982">
        <ele>366.734388</ele>
        <time>2021-07-06T18:52:01.706Z</time>
      </trkpt>
      <trkpt lat="46.03917" lon="1.2795">
        <ele>366.764536</ele>
        <time>2021-07-06T18:52:12.598Z</time>
      </trkpt>
      <trkpt lat="46.03903" lon="1.27927">
        <ele>366.783415</ele>
        <time>2021-07-06T18:52:19.187Z</time>
      </trkpt>
      <trkpt lat="46.03902" lon="1.2794">
        <ele>366.791657</ele>
        <time>2021-07-06T18:52:23.050Z</time>
      </trkpt>
      <trkpt lat="46.03916" lon="1.28028">
        <ele>367.032528</ele>
        <time>2021-07-06T18:52:44.879Z</time>
      </trkpt>
      <trkpt lat="46.03932" lon="1.28069">
        <ele>367.495272</ele>
        <time>2021-07-06T18:52:57.489Z</time>
      </trkpt>
      <trkpt lat="46.03922" lon="1.28108">
        <ele>367.901667</ele>
        <time>2021-07-06T18:53:09.097Z</time>
      </trkpt>
      <trkpt lat="46.03904" lon="1.28129">
        <ele>368.231192</ele>
        <time>2021-07-06T18:53:18.872Z</time>
      </trkpt>
      <trkpt lat="46.03886" lon="1.28129">
        <ele>368.484285</ele>
        <time>2021-07-06T18:53:26.253Z</time>
      </trkpt>
      <trkpt lat="46.03844" lon="1.28082">
        <ele>369.234124</ele>
        <time>2021-07-06T18:53:47.443Z</time>
      </trkpt>
      <trkpt lat="46.03823" lon="1.2805">
        <ele>369.440562</ele>
        <time>2021-07-06T18:53:59.109Z</time>
      </trkpt>
      <trkpt lat="46.03755" lon="1.28007">
        <ele>369.671277</ele>
        <time>2021-07-06T18:54:25.619Z</time>
      </trkpt>
      <trkpt lat="46.03738" lon="1.27975">
        <ele>369.757592</ele>
        <time>2021-07-06T18:54:34.656Z</time>
      </trkpt>
      <trkpt lat="46.03719" lon="1.2794">
        <ele>369.851481</ele>
        <time>2021-07-06T18:54:44.099Z</time>
      </trkpt>
      <trkpt lat="46.03706" lon="1.2791">
        <ele>369.92788</ele>
        <time>2021-07-06T18:54:51.584Z</time>
      </trkpt>
      <trkpt lat="46.03716" lon="1.27809">
        <ele>369.04594</ele>
        <time>2021-07-06T18:55:12.165Z</time>
      </trkpt>
      <trkpt lat="46.03698" lon="1.2776">
        <ele>368.55172</ele>
        <time>2021-07-06T18:55:23.054Z</time>
      </trkpt>
      <trkpt lat="46.03671" lon="1.27728">
        <ele>368.105149</ele>
        <time>2021-07-06T18:55:32.786Z</time>
      </trkpt>
      <trkpt lat="46.03633" lon="1.27724">
        <ele>367.620908</ele>
        <time>2021-07-06T18:55:43.586Z</time>
      </trkpt>
      <trkpt lat="46.03569" lon="1.2776">
        <ele>367.226374</ele>
        <time>2021-07-06T18:56:03.933Z</time>
      </trkpt>
      <trkpt lat="46.03533" lon="1.27833">
        <ele>366.871871</ele>
        <time>2021-07-06T18:56:23.086Z</time>
      </trkpt>
      <trkpt lat="46.03525" lon="1.27858">
        <ele>366.76368</ele>
        <time>2021-07-06T18:56:28.766Z</time>
      </trkpt>
      <trkpt lat="46.03519" lon="1.27874">
        <ele>366.692516</ele>
        <time>2021-07-06T18:56:33.271Z</time>
      </trkpt>
      <trkpt lat="46.03525" lon="1.27904">
        <ele>366.588457</ele>
        <time>2021-07-06T18:56:39.863Z</time>
      </trkpt>
      <trkpt lat="46.03536" lon="1.27928">
        <ele>366.544911</ele>
        <time>2021-07-06T18:56:46.468Z</time>
      </trkpt>
      <trkpt lat="46.03555" lon="1.27947">
        <ele>366.492335</ele>
        <time>2021-07-06T18:56:53.921Z</time>
      </trkpt>
      <trkpt lat="46.03564" lon="1.27977">
        <ele>366.441565</ele>
        <time>2021-07-06T18:57:01.222Z</time>
      </trkpt>
      <trkpt lat="46.03549" lon="1.27992">
        <ele>366.400886</ele>
        <time>2021-07-06T18:57:07.380Z</time>
      </trkpt>
      <trkpt lat="46.0349" lon="1.27998">
        <ele>366.267133</ele>
        <time>2021-07-06T18:57:26.070Z</time>
      </trkpt>
      <trkpt lat="46.03466" lon="1.28022">
        <ele>366.20229</ele>
        <time>2021-07-06T18:57:34.669Z</time>
      </trkpt>
      <trkpt lat="46.03454" lon="1.28063">
        <ele>365.943784</ele>
        <time>2021-07-06T18:57:43.675Z</time>
      </trkpt>
      <trkpt lat="46.03446" lon="1.28114">
        <ele>365.623745</ele>
        <time>2021-07-06T18:57:54.273Z</time>
      </trkpt>
      <trkpt lat="46.03429" lon="1.28155">
        <ele>365.331096</ele>
        <time>2021-07-06T18:58:03.994Z</time>
      </trkpt>
      <trkpt lat="46.03408" lon="1.2823">
        <ele>364.839968</ele>
        <time>2021-07-06T18:58:20.571Z</time>
      </trkpt>
      <trkpt lat="46.03421" lon="1.28312">
        <ele>364.615848</ele>
        <time>2021-07-06T18:58:38.199Z</time>
      </trkpt>
      <trkpt lat="46.03402" lon="1.28363">
        <ele>364.604509</ele>
        <time>2021-07-06T18:58:50.729Z</time>
      </trkpt>
      <trkpt lat="46.03384" lon="1.28462">
        <ele>364.584767</ele>
        <time>2021-07-06T18:59:13.597Z</time>
      </trkpt>
      <trkpt lat="46.03393" lon="1.28492">
        <ele>364.578442</ele>
        <time>2021-07-06T18:59:21.502Z</time>
      </trkpt>
      <trkpt lat="46.03421" lon="1.28496">
        <ele>364.661297</ele>
        <time>2021-07-06T18:59:31.560Z</time>
      </trkpt>
      <trkpt lat="46.03443" lon="1.28492">
        <ele>364.779211</ele>
        <time>2021-07-06T18:59:39.532Z</time>
      </trkpt>
      <trkpt lat="46.03479" lon="1.2847">
        <ele>364.982488</ele>
        <time>2021-07-06T18:59:53.389Z</time>
      </trkpt>
      <trkpt lat="46.03497" lon="1.2847">
        <ele>365.075776</ele>
        <time>2021-07-06T18:59:59.773Z</time>
      </trkpt>
      <trkpt lat="46.03551" lon="1.2853">
        <ele>365.432173</ele>
        <time>2021-07-06T19:00:22.627Z</time>
      </trkpt>
      <trkpt lat="46.03564" lon="1.28539">
        <ele>365.509056</ele>
        <time>2021-07-06T19:00:27.396Z</time>
      </trkpt>
      <trkpt lat="46.03589" lon="1.28526">
        <ele>365.441318</ele>
        <time>2021-07-06T19:00:36.450Z</time>
      </trkpt>
      <trkpt lat="46.03598" lon="1.28479">
        <ele>365.338269</ele>
        <time>2021-07-06T19:00:47.632Z</time>
      </trkpt>
      <trkpt lat="46.0367" lon="1.28462">
        <ele>365.118298</ele>
        <time>2021-07-06T19:01:10.031Z</time>
      </trkpt>
      <trkpt lat="46.03686" lon="1.28473">
        <ele>365.063657</ele>
        <time>2021-07-06T19:01:15.348Z</time>
      </trkpt>
      <trkpt lat="46.03695" lon="1.28498">
        <ele>365.003147</ele>
        <time>2021-07-06T19:01:21.268Z</time>
      </trkpt>
      <trkpt lat="46.03691" lon="1.28533">
        <ele>364.828829</ele>
        <time>2021-07-06T19:01:28.344Z</time>
      </trkpt>
      <trkpt lat="46.0367" lon="1.28558">
        <ele>364.547543</ele>
        <time>2021-07-06T19:01:36.237Z</time>
      </trkpt>
      <trkpt lat="46.03655" lon="1.28595">
        <ele>364.246652</ele>
        <time>2021-07-06T19:01:44.749Z</time>
      </trkpt>
      <trkpt lat="46.03653" lon="1.28636">
        <ele>363.956319</ele>
        <time>2021-07-06T19:01:52.941Z</time>
      </trkpt>
      <trkpt lat="46.03664" lon="1.28681">
        <ele>363.618966</ele>
        <time>2021-07-06T19:02:02.543Z</time>
      </trkpt>
      <trkpt lat="46.03677" lon="1.28704">
        <ele>363.402313</ele>
        <time>2021-07-06T19:02:08.690Z</time>
      </trkpt>
      <trkpt lat="46.03703" lon="1.28719">
        <ele>363.129719</ele>
        <time>2021-07-06T19:02:16.808Z</time>
      </trkpt>
      <trkpt lat="46.03708" lon="1.28731">
        <ele>363.118149</ele>
        <time>2021-07-06T19:02:19.644Z</time>
      </trkpt>
      <trkpt lat="46.03718" lon="1.28749">
        <ele>363.100034</ele>
        <time>2021-07-06T19:02:24.398Z</time>
      </trkpt>
      <trkpt lat="46.03743" lon="1.2879">
        <ele>363.05624</ele>
        <time>2021-07-06T19:02:36.016Z</time>
      </trkpt>
      <trkpt lat="46.03765" lon="1.28829">
        <ele>363.015726</ele>
        <time>2021-07-06T19:02:47.040Z</time>
      </trkpt>
      <trkpt lat="46.03779" lon="1.28862">
        <ele>362.984405</ele>
        <time>2021-07-06T19:02:55.782Z</time>
      </trkpt>
      <trkpt lat="46.038" lon="1.28886">
        <ele>362.952982</ele>
        <time>2021-07-06T19:03:04.747Z</time>
      </trkpt>
      <trkpt lat="46.03814" lon="1.28908">
        <ele>362.928804</ele>
        <time>2021-07-06T19:03:11.774Z</time>
      </trkpt>
      <trkpt lat="46.03825" lon="1.28908">
        <ele>362.938207</ele>
        <time>2021-07-06T19:03:15.614Z</time>
      </trkpt>
      <trkpt lat="46.03846" lon="1.2888">
        <ele>363.035212</ele>
        <time>2021-07-06T19:03:25.332Z</time>
      </trkpt>
      <trkpt lat="46.03862" lon="1.28869">
        <ele>363.096602</ele>
        <time>2021-07-06T19:03:31.628Z</time>
      </trkpt>
      <trkpt lat="46.0388" lon="1.28882">
        <ele>363.164742</ele>
        <time>2021-07-06T19:03:38.490Z</time>
      </trkpt>
      <trkpt lat="46.03886" lon="1.28962">
        <ele>363.353456</ele>
        <time>2021-07-06T19:03:57.214Z</time>
      </trkpt>
      <trkpt lat="46.03874" lon="1.29007">
        <ele>363.467478</ele>
        <time>2021-07-06T19:04:08.348Z</time>
      </trkpt>
      <trkpt lat="46.03868" lon="1.29048">
        <ele>363.526151</ele>
        <time>2021-07-06T19:04:17.545Z</time>
      </trkpt>
      <trkpt lat="46.03868" lon="1.29082">
        <ele>363.504586</ele>
        <time>2021-07-06T19:04:25.092Z</time>
      </trkpt>
      <trkpt lat="46.03853" lon="1.29126">
        <ele>363.473659</ele>
        <time>2021-07-06T19:04:35.797Z</time>
      </trkpt>
      <trkpt lat="46.03834" lon="1.29129">
        <ele>363.455807</ele>
        <time>2021-07-06T19:04:41.922Z</time>
      </trkpt>
      <trkpt lat="46.0381" lon="1.29163">
        <ele>363.425469</ele>
        <time>2021-07-06T19:04:52.427Z</time>
      </trkpt>
      <trkpt lat="46.03808" lon="1.29198">
        <ele>363.403798</ele>
        <time>2021-07-06T19:04:59.944Z</time>
      </trkpt>
      <trkpt lat="46.03808" lon="1.29198">
        <ele>363.403798</ele>
        <time>2021-07-06T19:04:59.946Z</time>
      </trkpt>
      <trkpt lat="46.03795" lon="1.29243">
        <ele>363.373013</ele>
        <time>2021-07-06T19:05:10.671Z</time>
      </trkpt>
      <trkpt lat="46.03783" lon="1.29315">
        <ele>363.482297</ele>
        <time>2021-07-06T19:05:27.123Z</time>
      </trkpt>
      <trkpt lat="46.03788" lon="1.29333">
        <ele>363.511237</ele>
        <time>2021-07-06T19:05:31.471Z</time>
      </trkpt>
      <trkpt lat="46.03819" lon="1.29357">
        <ele>363.589455</ele>
        <time>2021-07-06T19:05:43.254Z</time>
      </trkpt>
      <trkpt lat="46.03846" lon="1.29357">
        <ele>363.648737</ele>
        <time>2021-07-06T19:05:52.331Z</time>
      </trkpt>
      <trkpt lat="46.0388" lon="1.29342">
        <ele>363.728073</ele>
        <time>2021-07-06T19:06:04.335Z</time>
      </trkpt>
      <trkpt lat="46.0392" lon="1.29342">
        <ele>363.794227</ele>
        <time>2021-07-06T19:06:17.765Z</time>
      </trkpt>
      <trkpt lat="46.03961" lon="1.29331">
        <ele>363.841581</ele>
        <time>2021-07-06T19:06:31.471Z</time>
      </trkpt>
      <trkpt lat="46.03981" lon="1.2933">
        <ele>363.865232</ele>
        <time>2021-07-06T19:06:38.476Z</time>
      </trkpt>
      <trkpt lat="46.03986" lon="1.29331">
        <ele>363.870818</ele>
        <time>2021-07-06T19:06:39.998Z</time>
      </trkpt>
      <trkpt lat="46.03994" lon="1.29337">
        <ele>363.881142</ele>
        <time>2021-07-06T19:06:42.799Z</time>
      </trkpt>
      <trkpt lat="46.03998" lon="1.29344">
        <ele>363.889128</ele>
        <time>2021-07-06T19:06:45.012Z</time>
      </trkpt>
      <trkpt lat="46.03998" lon="1.29367">
        <ele>363.906881</ele>
        <time>2021-07-06T19:06:50.206Z</time>
      </trkpt>
      <trkpt lat="46.04059" lon="1.29477">
        <ele>364.065956</ele>
        <time>2021-07-06T19:07:20.943Z</time>
      </trkpt>
      <trkpt lat="46.04079" lon="1.29525">
        <ele>364.159245</ele>
        <time>2021-07-06T19:07:33.331Z</time>
      </trkpt>
      <trkpt lat="46.0407" lon="1.29533">
        <ele>364.185731</ele>
        <time>2021-07-06T19:07:35.439Z</time>
      </trkpt>
      <trkpt lat="46.04044" lon="1.29587">
        <ele>364.293743</ele>
        <time>2021-07-06T19:07:44.992Z</time>
      </trkpt>
      <trkpt lat="46.04007" lon="1.29629">
        <ele>364.405384</ele>
        <time>2021-07-06T19:07:55.205Z</time>
      </trkpt>
      <trkpt lat="46.03995" lon="1.29634">
        <ele>364.528711</ele>
        <time>2021-07-06T19:07:57.803Z</time>
      </trkpt>
      <trkpt lat="46.03974" lon="1.29645">
        <ele>364.733161</ele>
        <time>2021-07-06T19:08:02.907Z</time>
      </trkpt>
      <trkpt lat="46.03935" lon="1.29658">
        <ele>365.116635</ele>
        <time>2021-07-06T19:08:12.177Z</time>
      </trkpt>
      <trkpt lat="46.03902" lon="1.29654">
        <ele>365.43921</ele>
        <time>2021-07-06T19:08:20.310Z</time>
      </trkpt>
      <trkpt lat="46.03821" lon="1.29595">
        <ele>366.59963</ele>
        <time>2021-07-06T19:08:42.497Z</time>
      </trkpt>
      <trkpt lat="46.03809" lon="1.29569">
        <ele>367.135601</ele>
        <time>2021-07-06T19:08:48.695Z</time>
      </trkpt>
      <trkpt lat="46.0376" lon="1.29555">
        <ele>368.381229</ele>
        <time>2021-07-06T19:09:03.727Z</time>
      </trkpt>
      <trkpt lat="46.0375" lon="1.2956">
        <ele>368.656565</ele>
        <time>2021-07-06T19:09:07.869Z</time>
      </trkpt>
      <trkpt lat="46.03734" lon="1.29581">
        <ele>369.199551</ele>
        <time>2021-07-06T19:09:14.974Z</time>
      </trkpt>
      <trkpt lat="46.0373" lon="1.29583">
        <ele>369.294573</ele>
        <time>2021-07-06T19:09:16.197Z</time>
      </trkpt>
      <trkpt lat="46.03705" lon="1.29578">
        <ele>369.922919</ele>
        <time>2021-07-06T19:09:25.508Z</time>
      </trkpt>
      <trkpt lat="46.03653" lon="1.2958">
        <ele>371.476809</ele>
        <time>2021-07-06T19:09:44.983Z</time>
      </trkpt>
      <trkpt lat="46.03632" lon="1.29588">
        <ele>372.197133</ele>
        <time>2021-07-06T19:09:52.988Z</time>
      </trkpt>
      <trkpt lat="46.03628" lon="1.29589">
        <ele>372.334934</ele>
        <time>2021-07-06T19:09:54.418Z</time>
      </trkpt>
      <trkpt lat="46.03622" lon="1.29592">
        <ele>372.543884</ele>
        <time>2021-07-06T19:09:56.591Z</time>
      </trkpt>
      <trkpt lat="46.03609" lon="1.29585">
        <ele>373.032664</ele>
        <time>2021-07-06T19:10:02.523Z</time>
      </trkpt>
      <trkpt lat="46.03549" lon="1.29593">
        <ele>375.108811</ele>
        <time>2021-07-06T19:10:26.553Z</time>
      </trkpt>
      <trkpt lat="46.03543" lon="1.29599">
        <ele>375.340244</ele>
        <time>2021-07-06T19:10:29.177Z</time>
      </trkpt>
      <trkpt lat="46.03536" lon="1.29638">
        <ele>376.290629</ele>
        <time>2021-07-06T19:10:39.055Z</time>
      </trkpt>
      <trkpt lat="46.03521" lon="1.29655">
        <ele>376.808803</ele>
        <time>2021-07-06T19:10:44.908Z</time>
      </trkpt>
      <trkpt lat="46.03469" lon="1.29649">
        <ele>376.956079</ele>
        <time>2021-07-06T19:11:00.336Z</time>
      </trkpt>
      <trkpt lat="46.03448" lon="1.29653">
        <ele>377.014669</ele>
        <time>2021-07-06T19:11:04.187Z</time>
      </trkpt>
      <trkpt lat="46.03443" lon="1.29656">
        <ele>377.0312</ele>
        <time>2021-07-06T19:11:06.710Z</time>
      </trkpt>
      <trkpt lat="46.0344" lon="1.29661">
        <ele>377.044325</ele>
        <time>2021-07-06T19:11:07.482Z</time>
      </trkpt>
      <trkpt lat="46.03434" lon="1.2968">
        <ele>377.085654</ele>
        <time>2021-07-06T19:11:10.291Z</time>
      </trkpt>
      <trkpt lat="46.03421" lon="1.29719">
        <ele>377.168434</ele>
        <time>2021-07-06T19:11:16.228Z</time>
      </trkpt>
      <trkpt lat="46.03418" lon="1.2973">
        <ele>377.193028</ele>
        <time>2021-07-06T19:11:17.577Z</time>
      </trkpt>
      <trkpt lat="46.03412" lon="1.2973">
        <ele>377.207617</ele>
        <time>2021-07-06T19:11:18.937Z</time>
      </trkpt>
      <trkpt lat="46.0341" lon="1.29725">
        <ele>377.219439</ele>
        <time>2021-07-06T19:11:19.835Z</time>
      </trkpt>
      <trkpt lat="46.03399" lon="1.29701">
        <ele>377.275202</ele>
        <time>2021-07-06T19:11:23.363Z</time>
      </trkpt>
      <trkpt lat="46.03392" lon="1.29687">
        <ele>377.20972</ele>
        <time>2021-07-06T19:11:24.975Z</time>
      </trkpt>
      <trkpt lat="46.0338" lon="1.29674">
        <ele>376.623315</ele>
        <time>2021-07-06T19:11:27.586Z</time>
      </trkpt>
      <trkpt lat="46.0332" lon="1.29654">
        <ele>374.234593</ele>
        <time>2021-07-06T19:11:36.216Z</time>
      </trkpt>
      <trkpt lat="46.03302" lon="1.29627">
        <ele>373.220313</ele>
        <time>2021-07-06T19:11:39.802Z</time>
      </trkpt>
      <trkpt lat="46.03265" lon="1.29597">
        <ele>371.580198</ele>
        <time>2021-07-06T19:11:45.499Z</time>
      </trkpt>
      <trkpt lat="46.03245" lon="1.2957">
        <ele>370.529326</ele>
        <time>2021-07-06T19:11:49.400Z</time>
      </trkpt>
      <trkpt lat="46.03221" lon="1.2957">
        <ele>369.627896</ele>
        <time>2021-07-06T19:11:53.803Z</time>
      </trkpt>
      <trkpt lat="46.03196" lon="1.29571">
        <ele>368.707481</ele>
        <time>2021-07-06T19:11:58.439Z</time>
      </trkpt>
      <trkpt lat="46.03184" lon="1.29572">
        <ele>368.247159</ele>
        <time>2021-07-06T19:12:00.733Z</time>
      </trkpt>
      <trkpt lat="46.03182" lon="1.29565">
        <ele>368.052464</ele>
        <time>2021-07-06T19:12:01.758Z</time>
      </trkpt>
      <trkpt lat="46.03174" lon="1.29568">
        <ele>367.760744</ele>
        <time>2021-07-06T19:12:03.260Z</time>
      </trkpt>
      <trkpt lat="46.03173" lon="1.29562">
        <ele>367.586751</ele>
        <time>2021-07-06T19:12:04.134Z</time>
      </trkpt>
      <trkpt lat="46.03164" lon="1.29567">
        <ele>367.224581</ele>
        <time>2021-07-06T19:12:05.937Z</time>
      </trkpt>
      <trkpt lat="46.03163" lon="1.29562">
        <ele>367.102875</ele>
        <time>2021-07-06T19:12:06.555Z</time>
      </trkpt>
      <trkpt lat="46.03156" lon="1.29561">
        <ele>366.851309</ele>
        <time>2021-07-06T19:12:11.278Z</time>
      </trkpt>
      <trkpt lat="46.03141" lon="1.29539">
        <ele>366.065154</ele>
        <time>2021-07-06T19:12:26.028Z</time>
      </trkpt>
      <trkpt lat="46.0312" lon="1.29509">
        <ele>364.959862</ele>
        <time>2021-07-06T19:12:46.749Z</time>
      </trkpt>
      <trkpt lat="46.03101" lon="1.2949">
        <ele>364.091069</ele>
        <time>2021-07-06T19:13:03.046Z</time>
      </trkpt>
      <trkpt lat="46.03097" lon="1.29487">
        <ele>363.929293</ele>
        <time>2021-07-06T19:13:04.265Z</time>
      </trkpt>
      <trkpt lat="46.03081" lon="1.29485">
        <ele>363.610812</ele>
        <time>2021-07-06T19:13:08.545Z</time>
      </trkpt>
      <trkpt lat="46.03073" lon="1.29474">
        <ele>363.527947</ele>
        <time>2021-07-06T19:13:11.539Z</time>
      </trkpt>
      <trkpt lat="46.03066" lon="1.29428">
        <ele>363.279791</ele>
        <time>2021-07-06T19:13:21.054Z</time>
      </trkpt>
      <trkpt lat="46.03056" lon="1.29401">
        <ele>363.117765</ele>
        <time>2021-07-06T19:13:27.371Z</time>
      </trkpt>
      <trkpt lat="46.03055" lon="1.29335">
        <ele>362.776713</ele>
        <time>2021-07-06T19:13:40.991Z</time>
      </trkpt>
      <trkpt lat="46.03043" lon="1.29325">
        <ele>362.675137</ele>
        <time>2021-07-06T19:13:45.082Z</time>
      </trkpt>
      <trkpt lat="46.03034" lon="1.29316">
        <ele>362.593155</ele>
        <time>2021-07-06T19:13:48.829Z</time>
      </trkpt>
      <trkpt lat="46.02921" lon="1.29227">
        <ele>363.633319</ele>
        <time>2021-07-06T19:15:18.890Z</time>
      </trkpt>
      <trkpt lat="46.02912" lon="1.29219">
        <ele>363.772877</ele>
        <time>2021-07-06T19:15:22.240Z</time>
      </trkpt>
      <trkpt lat="46.02904" lon="1.29226">
        <ele>363.906979</ele>
        <time>2021-07-06T19:15:24.906Z</time>
      </trkpt>
      <trkpt lat="46.02872" lon="1.2922">
        <ele>364.364966</ele>
        <time>2021-07-06T19:15:35.235Z</time>
      </trkpt>
      <trkpt lat="46.02856" lon="1.29222">
        <ele>364.579288</ele>
        <time>2021-07-06T19:15:40.321Z</time>
      </trkpt>
      <trkpt lat="46.02847" lon="1.29224">
        <ele>364.71742</ele>
        <time>2021-07-06T19:15:43.426Z</time>
      </trkpt>
      <trkpt lat="46.02842" lon="1.29228">
        <ele>364.789167</ele>
        <time>2021-07-06T19:15:45.157Z</time>
      </trkpt>
      <trkpt lat="46.02832" lon="1.29241">
        <ele>365.123848</ele>
        <time>2021-07-06T19:15:50.124Z</time>
      </trkpt>
      <trkpt lat="46.0283" lon="1.29235">
        <ele>365.245643</ele>
        <time>2021-07-06T19:15:51.781Z</time>
      </trkpt>
      <trkpt lat="46.02817" lon="1.29228">
        <ele>365.621197</ele>
        <time>2021-07-06T19:15:56.012Z</time>
      </trkpt>
      <trkpt lat="46.02808" lon="1.29241">
        <ele>365.998828</ele>
        <time>2021-07-06T19:16:00.901Z</time>
      </trkpt>
      <trkpt lat="46.02807" lon="1.29247">
        <ele>366.108581</ele>
        <time>2021-07-06T19:16:02.244Z</time>
      </trkpt>
      <trkpt lat="46.02802" lon="1.29247">
        <ele>366.244026</ele>
        <time>2021-07-06T19:16:04.199Z</time>
      </trkpt>
      <trkpt lat="46.02784" lon="1.29268">
        <ele>366.89189</ele>
        <time>2021-07-06T19:16:12.322Z</time>
      </trkpt>
      <trkpt lat="46.0277" lon="1.29281">
        <ele>367.374979</ele>
        <time>2021-07-06T19:16:18.803Z</time>
      </trkpt>
      <trkpt lat="46.0275" lon="1.29287">
        <ele>367.94193</ele>
        <time>2021-07-06T19:16:26.223Z</time>
      </trkpt>
      <trkpt lat="46.02599" lon="1.29275">
        <ele>370.517327</ele>
        <time>2021-07-06T19:17:11.922Z</time>
      </trkpt>
      <trkpt lat="46.02589" lon="1.29278">
        <ele>370.596258</ele>
        <time>2021-07-06T19:17:15.564Z</time>
      </trkpt>
      <trkpt lat="46.02602" lon="1.29299">
        <ele>370.743155</ele>
        <time>2021-07-06T19:17:19.848Z</time>
      </trkpt>
      <trkpt lat="46.02598" lon="1.29322">
        <ele>370.866724</ele>
        <time>2021-07-06T19:17:25.557Z</time>
      </trkpt>
      <trkpt lat="46.02586" lon="1.29335">
        <ele>370.981871</ele>
        <time>2021-07-06T19:17:28.804Z</time>
      </trkpt>
      <trkpt lat="46.02525" lon="1.29353">
        <ele>370.894075</ele>
        <time>2021-07-06T19:17:43.113Z</time>
      </trkpt>
      <trkpt lat="46.02405" lon="1.29371">
        <ele>369.158657</ele>
        <time>2021-07-06T19:18:08.896Z</time>
      </trkpt>
      <trkpt lat="46.02427" lon="1.29445">
        <ele>368.806525</ele>
        <time>2021-07-06T19:18:25.202Z</time>
      </trkpt>
      <trkpt lat="46.02405" lon="1.29371">
        <ele>369.131579</ele>
        <time>2021-07-06T19:18:42.692Z</time>
      </trkpt>
      <trkpt lat="46.02381" lon="1.29413">
        <ele>369.350041</ele>
        <time>2021-07-06T19:18:55.335Z</time>
      </trkpt>
      <trkpt lat="46.02349" lon="1.29448">
        <ele>369.580385</ele>
        <time>2021-07-06T19:19:10.620Z</time>
      </trkpt>
      <trkpt lat="46.02319" lon="1.29526">
        <ele>370.804643</ele>
        <time>2021-07-06T19:19:40.786Z</time>
      </trkpt>
      <trkpt lat="46.02306" lon="1.29552">
        <ele>371.423833</ele>
        <time>2021-07-06T19:19:50.966Z</time>
      </trkpt>
      <trkpt lat="46.02317" lon="1.29593">
        <ele>372.277055</ele>
        <time>2021-07-06T19:20:04.917Z</time>
      </trkpt>
      <trkpt lat="46.02318" lon="1.29626">
        <ele>372.922396</ele>
        <time>2021-07-06T19:20:15.190Z</time>
      </trkpt>
      <trkpt lat="46.02327" lon="1.29677">
        <ele>373.942957</ele>
        <time>2021-07-06T19:20:32.328Z</time>
      </trkpt>
      <trkpt lat="46.02328" lon="1.29689">
        <ele>374.174617</ele>
        <time>2021-07-06T19:20:36.623Z</time>
      </trkpt>
      <trkpt lat="46.02333" lon="1.29706">
        <ele>374.528419</ele>
        <time>2021-07-06T19:20:42.265Z</time>
      </trkpt>
      <trkpt lat="46.02324" lon="1.29762">
        <ele>375.515148</ele>
        <time>2021-07-06T19:21:01.395Z</time>
      </trkpt>
      <trkpt lat="46.02309" lon="1.29871">
        <ele>377.36265</ele>
        <time>2021-07-06T19:21:35.403Z</time>
      </trkpt>
      <trkpt lat="46.02295" lon="1.2992">
        <ele>378.228775</ele>
        <time>2021-07-06T19:21:50.309Z</time>
      </trkpt>
      <trkpt lat="46.02294" lon="1.29932">
        <ele>378.430423</ele>
        <time>2021-07-06T19:21:53.976Z</time>
      </trkpt>
      <trkpt lat="46.02297" lon="1.29955">
        <ele>378.829771</ele>
        <time>2021-07-06T19:21:58.661Z</time>
      </trkpt>
      <trkpt lat="46.023" lon="1.29997">
        <ele>379.502613</ele>
        <time>2021-07-06T19:22:07.311Z</time>
      </trkpt>
      <trkpt lat="46.02297" lon="1.30011">
        <ele>379.718678</ele>
        <time>2021-07-06T19:22:10.016Z</time>
      </trkpt>
      <trkpt lat="46.02291" lon="1.30033">
        <ele>380.105749</ele>
        <time>2021-07-06T19:22:15.442Z</time>
      </trkpt>
      <trkpt lat="46.02268" lon="1.30072">
        <ele>380.901179</ele>
        <time>2021-07-06T19:22:28.130Z</time>
      </trkpt>
      <trkpt lat="46.02261" lon="1.30118">
        <ele>381.635157</ele>
        <time>2021-07-06T19:22:39.412Z</time>
      </trkpt>
      <trkpt lat="46.02255" lon="1.30129">
        <ele>381.864934</ele>
        <time>2021-07-06T19:22:42.905Z</time>
      </trkpt>
      <trkpt lat="46.02242" lon="1.30139">
        <ele>382.19556</ele>
        <time>2021-07-06T19:22:47.197Z</time>
      </trkpt>
      <trkpt lat="46.0219" lon="1.30144">
        <ele>383.122651</ele>
        <time>2021-07-06T19:23:02.621Z</time>
      </trkpt>
      <trkpt lat="46.02143" lon="1.30149">
        <ele>383.236171</ele>
        <time>2021-07-06T19:23:15.738Z</time>
      </trkpt>
      <trkpt lat="46.02171" lon="1.30196">
        <ele>383.339168</ele>
        <time>2021-07-06T19:23:24.830Z</time>
      </trkpt>
      <trkpt lat="46.02354" lon="1.30476">
        <ele>381.939169</ele>
        <time>2021-07-06T19:24:09.539Z</time>
      </trkpt>
      <trkpt lat="46.02397" lon="1.30541">
        <ele>382.736781</ele>
        <time>2021-07-06T19:24:23.197Z</time>
      </trkpt>
      <trkpt lat="46.02436" lon="1.30544">
        <ele>383.238644</ele>
        <time>2021-07-06T19:24:38.541Z</time>
      </trkpt>
      <trkpt lat="46.02512" lon="1.30542">
        <ele>384.378181</ele>
        <time>2021-07-06T19:25:11.602Z</time>
      </trkpt>
      <trkpt lat="46.02622" lon="1.30596">
        <ele>388.500934</ele>
        <time>2021-07-06T19:26:08.578Z</time>
      </trkpt>
      <trkpt lat="46.02683" lon="1.30644">
        <ele>390.978255</ele>
        <time>2021-07-06T19:26:45.602Z</time>
      </trkpt>
      <trkpt lat="46.02723" lon="1.30692">
        <ele>393.045918</ele>
        <time>2021-07-06T19:27:13.112Z</time>
      </trkpt>
      <trkpt lat="46.02741" lon="1.30747">
        <ele>394.707964</ele>
        <time>2021-07-06T19:27:34.984Z</time>
      </trkpt>
      <trkpt lat="46.02751" lon="1.30759">
        <ele>395.203152</ele>
        <time>2021-07-06T19:27:42.452Z</time>
      </trkpt>
      <trkpt lat="46.02754" lon="1.30765">
        <ele>395.42561</ele>
        <time>2021-07-06T19:27:45.252Z</time>
      </trkpt>
      <trkpt lat="46.0277" lon="1.30806">
        <ele>396.709522</ele>
        <time>2021-07-06T19:28:01.982Z</time>
      </trkpt>
      <trkpt lat="46.02783" lon="1.30818">
        <ele>397.333026</ele>
        <time>2021-07-06T19:28:09.216Z</time>
      </trkpt>
      <trkpt lat="46.0281" lon="1.30871">
        <ele>398.273951</ele>
        <time>2021-07-06T19:28:30.962Z</time>
      </trkpt>
      <trkpt lat="46.0285" lon="1.30995">
        <ele>400.057077</ele>
        <time>2021-07-06T19:29:11.254Z</time>
      </trkpt>
      <trkpt lat="46.02898" lon="1.31094">
        <ele>400.829599</ele>
        <time>2021-07-06T19:29:38.499Z</time>
      </trkpt>
      <trkpt lat="46.02966" lon="1.31135">
        <ele>400.711277</ele>
        <time>2021-07-06T19:30:01.029Z</time>
      </trkpt>
      <trkpt lat="46.02976" lon="1.31157">
        <ele>400.682476</ele>
        <time>2021-07-06T19:30:06.466Z</time>
      </trkpt>
      <trkpt lat="46.02969" lon="1.31216">
        <ele>400.616564</ele>
        <time>2021-07-06T19:30:19.184Z</time>
      </trkpt>
      <trkpt lat="46.02958" lon="1.31232">
        <ele>400.725952</ele>
        <time>2021-07-06T19:30:24.252Z</time>
      </trkpt>
      <trkpt lat="46.02932" lon="1.3125">
        <ele>401.115692</ele>
        <time>2021-07-06T19:30:33.491Z</time>
      </trkpt>
      <trkpt lat="46.02882" lon="1.31261">
        <ele>401.807579</ele>
        <time>2021-07-06T19:30:51.454Z</time>
      </trkpt>
      <trkpt lat="46.02877" lon="1.31277">
        <ele>401.972472</ele>
        <time>2021-07-06T19:30:55.914Z</time>
      </trkpt>
      <trkpt lat="46.02898" lon="1.31339">
        <ele>402.618825</ele>
        <time>2021-07-06T19:31:17.301Z</time>
      </trkpt>
      <trkpt lat="46.02906" lon="1.31389">
        <ele>403.108978</ele>
        <time>2021-07-06T19:31:33.539Z</time>
      </trkpt>
      <trkpt lat="46.02904" lon="1.31456">
        <ele>403.835781</ele>
        <time>2021-07-06T19:31:55.623Z</time>
      </trkpt>
      <trkpt lat="46.02895" lon="1.31485">
        <ele>404.175524</ele>
        <time>2021-07-06T19:32:04.007Z</time>
      </trkpt>
      <trkpt lat="46.0289" lon="1.31498">
        <ele>404.33392</ele>
        <time>2021-07-06T19:32:09.730Z</time>
      </trkpt>
      <trkpt lat="46.02873" lon="1.31514">
        <ele>404.649593</ele>
        <time>2021-07-06T19:32:17.074Z</time>
      </trkpt>
      <trkpt lat="46.02846" lon="1.31532">
        <ele>405.111492</ele>
        <time>2021-07-06T19:32:28.920Z</time>
      </trkpt>
      <trkpt lat="46.02806" lon="1.31585">
        <ele>405.620362</ele>
        <time>2021-07-06T19:32:47.477Z</time>
      </trkpt>
      <trkpt lat="46.02795" lon="1.31628">
        <ele>404.830675</ele>
        <time>2021-07-06T19:32:56.864Z</time>
      </trkpt>
      <trkpt lat="46.02772" lon="1.31667">
        <ele>403.960478</ele>
        <time>2021-07-06T19:33:06.660Z</time>
      </trkpt>
      <trkpt lat="46.0275" lon="1.3168">
        <ele>403.371503</ele>
        <time>2021-07-06T19:33:12.804Z</time>
      </trkpt>
      <trkpt lat="46.02736" lon="1.31724">
        <ele>402.535744</ele>
        <time>2021-07-06T19:33:21.165Z</time>
      </trkpt>
      <trkpt lat="46.02684" lon="1.31808">
        <ele>400.878113</ele>
        <time>2021-07-06T19:33:40.832Z</time>
      </trkpt>
      <trkpt lat="46.02668" lon="1.3182">
        <ele>400.57835</ele>
        <time>2021-07-06T19:33:45.424Z</time>
      </trkpt>
      <trkpt lat="46.02655" lon="1.31822">
        <ele>400.364249</ele>
        <time>2021-07-06T19:33:49.163Z</time>
      </trkpt>
      <trkpt lat="46.02635" lon="1.31822">
        <ele>400.039014</ele>
        <time>2021-07-06T19:33:54.210Z</time>
      </trkpt>
      <trkpt lat="46.02638" lon="1.31894">
        <ele>399.230156</ele>
        <time>2021-07-06T19:34:08.142Z</time>
      </trkpt>
      <trkpt lat="46.02627" lon="1.31896">
        <ele>399.044248</ele>
        <time>2021-07-06T19:34:11.562Z</time>
      </trkpt>
      <trkpt lat="46.02614" lon="1.31911">
        <ele>398.771244</ele>
        <time>2021-07-06T19:34:16.826Z</time>
      </trkpt>
      <trkpt lat="46.0261" lon="1.31926">
        <ele>398.59403</ele>
        <time>2021-07-06T19:34:21.539Z</time>
      </trkpt>
      <trkpt lat="46.02606" lon="1.31927">
        <ele>398.525996</ele>
        <time>2021-07-06T19:34:23.369Z</time>
      </trkpt>
      <trkpt lat="46.02583" lon="1.31964">
        <ele>399.573563</ele>
        <time>2021-07-06T19:34:37.194Z</time>
      </trkpt>
      <trkpt lat="46.02562" lon="1.32003">
        <ele>400.823759</ele>
        <time>2021-07-06T19:34:53.227Z</time>
      </trkpt>
      <trkpt lat="46.0256" lon="1.32007">
        <ele>400.979723</ele>
        <time>2021-07-06T19:34:56.788Z</time>
      </trkpt>
      <trkpt lat="46.02543" lon="1.32028">
        <ele>401.798779</ele>
        <time>2021-07-06T19:35:07.952Z</time>
      </trkpt>
      <trkpt lat="46.02538" lon="1.32037">
        <ele>402.095892</ele>
        <time>2021-07-06T19:35:11.849Z</time>
      </trkpt>
      <trkpt lat="46.02533" lon="1.32039">
        <ele>402.277677</ele>
        <time>2021-07-06T19:35:15.185Z</time>
      </trkpt>
      <trkpt lat="46.0253" lon="1.32042">
        <ele>402.430956</ele>
        <time>2021-07-06T19:35:17.390Z</time>
      </trkpt>
      <trkpt lat="46.02526" lon="1.32046">
        <ele>402.616888</ele>
        <time>2021-07-06T19:35:19.736Z</time>
      </trkpt>
      <trkpt lat="46.02508" lon="1.32078">
        <ele>403.661687</ele>
        <time>2021-07-06T19:35:34.962Z</time>
      </trkpt>
      <trkpt lat="46.02492" lon="1.3209">
        <ele>404.321536</ele>
        <time>2021-07-06T19:35:44.307Z</time>
      </trkpt>
      <trkpt lat="46.02497" lon="1.32108">
        <ele>404.796516</ele>
        <time>2021-07-06T19:35:50.315Z</time>
      </trkpt>
      <trkpt lat="46.02491" lon="1.32114">
        <ele>405.067101</ele>
        <time>2021-07-06T19:35:55.970Z</time>
      </trkpt>
      <trkpt lat="46.02489" lon="1.32118">
        <ele>405.226285</ele>
        <time>2021-07-06T19:35:58.360Z</time>
      </trkpt>
      <trkpt lat="46.02484" lon="1.32143">
        <ele>406.058756</ele>
        <time>2021-07-06T19:36:07.053Z</time>
      </trkpt>
      <trkpt lat="46.02504" lon="1.32193">
        <ele>407.92276</ele>
        <time>2021-07-06T19:36:29.911Z</time>
      </trkpt>
      <trkpt lat="46.02506" lon="1.32208">
        <ele>408.396513</ele>
        <time>2021-07-06T19:36:37.515Z</time>
      </trkpt>
      <trkpt lat="46.02502" lon="1.32221">
        <ele>408.840834</ele>
        <time>2021-07-06T19:36:43.255Z</time>
      </trkpt>
      <trkpt lat="46.02487" lon="1.32237">
        <ele>409.722902</ele>
        <time>2021-07-06T19:36:53.363Z</time>
      </trkpt>
      <trkpt lat="46.02458" lon="1.32292">
        <ele>411.935048</ele>
        <time>2021-07-06T19:37:20.547Z</time>
      </trkpt>
      <trkpt lat="46.02473" lon="1.32312">
        <ele>412.84837</ele>
        <time>2021-07-06T19:37:29.657Z</time>
      </trkpt>
      <trkpt lat="46.02466" lon="1.32346">
        <ele>413.961977</ele>
        <time>2021-07-06T19:37:41.391Z</time>
      </trkpt>
      <trkpt lat="46.02461" lon="1.32353">
        <ele>414.277923</ele>
        <time>2021-07-06T19:37:44.740Z</time>
      </trkpt>
      <trkpt lat="46.02436" lon="1.32379">
        <ele>415.657511</ele>
        <time>2021-07-06T19:37:59.967Z</time>
      </trkpt>
      <trkpt lat="46.02416" lon="1.32379">
        <ele>416.549897</ele>
        <time>2021-07-06T19:38:11.427Z</time>
      </trkpt>
      <trkpt lat="46.02405" lon="1.32365">
        <ele>417.195745</ele>
        <time>2021-07-06T19:38:18.845Z</time>
      </trkpt>
      <trkpt lat="46.02387" lon="1.32293">
        <ele>419.548331</ele>
        <time>2021-07-06T19:38:49.072Z</time>
      </trkpt>
      <trkpt lat="46.02335" lon="1.32325">
        <ele>422.098006</ele>
        <time>2021-07-06T19:39:19.794Z</time>
      </trkpt>
      <trkpt lat="46.02331" lon="1.32325">
        <ele>422.314007</ele>
        <time>2021-07-06T19:39:23.525Z</time>
      </trkpt>
      <trkpt lat="46.02257" lon="1.3235">
        <ele>425.874726</ele>
        <time>2021-07-06T19:40:06.691Z</time>
      </trkpt>
      <trkpt lat="46.02137" lon="1.32342">
        <ele>430.70966</ele>
        <time>2021-07-06T19:41:11.228Z</time>
      </trkpt>
      <trkpt lat="46.02117" lon="1.32334">
        <ele>431.218902</ele>
        <time>2021-07-06T19:41:21.868Z</time>
      </trkpt>
      <trkpt lat="46.0211" lon="1.32376">
        <ele>431.963725</ele>
        <time>2021-07-06T19:41:31.476Z</time>
      </trkpt>
      <trkpt lat="46.02095" lon="1.32426">
        <ele>432.890513</ele>
        <time>2021-07-06T19:41:42.898Z</time>
      </trkpt>
      <trkpt lat="46.02071" lon="1.32477">
        <ele>433.943538</ele>
        <time>2021-07-06T19:41:54.639Z</time>
      </trkpt>
      <trkpt lat="46.02053" lon="1.32504">
        <ele>433.981389</ele>
        <time>2021-07-06T19:42:00.707Z</time>
      </trkpt>
      <trkpt lat="46.02006" lon="1.32546">
        <ele>432.809043</ele>
        <time>2021-07-06T19:42:10.297Z</time>
      </trkpt>
      <trkpt lat="46.0199" lon="1.32575">
        <ele>432.256891</ele>
        <time>2021-07-06T19:42:14.218Z</time>
      </trkpt>
      <trkpt lat="46.01973" lon="1.32621">
        <ele>431.479339</ele>
        <time>2021-07-06T19:42:19.445Z</time>
      </trkpt>
      <trkpt lat="46.01962" lon="1.32668">
        <ele>430.741702</ele>
        <time>2021-07-06T19:42:24.301Z</time>
      </trkpt>
      <trkpt lat="46.01956" lon="1.327">
        <ele>430.114578</ele>
        <time>2021-07-06T19:42:27.261Z</time>
      </trkpt>
      <trkpt lat="46.01955" lon="1.32709">
        <ele>429.828062</ele>
        <time>2021-07-06T19:42:28.218Z</time>
      </trkpt>
      <trkpt lat="46.01954" lon="1.32715">
        <ele>429.665791</ele>
        <time>2021-07-06T19:42:28.779Z</time>
      </trkpt>
      <trkpt lat="46.01952" lon="1.32739">
        <ele>428.964432</ele>
        <time>2021-07-06T19:42:31.084Z</time>
      </trkpt>
      <trkpt lat="46.01958" lon="1.32807">
        <ele>426.99038</ele>
        <time>2021-07-06T19:42:37.473Z</time>
      </trkpt>
      <trkpt lat="46.01965" lon="1.32873">
        <ele>425.08789</ele>
        <time>2021-07-06T19:42:43.844Z</time>
      </trkpt>
      <trkpt lat="46.01967" lon="1.32909">
        <ele>424.03541</ele>
        <time>2021-07-06T19:42:47.256Z</time>
      </trkpt>
      <trkpt lat="46.0195" lon="1.32908">
        <ele>423.310885</ele>
        <time>2021-07-06T19:42:49.977Z</time>
      </trkpt>
      <trkpt lat="46.01923" lon="1.32915">
        <ele>422.798962</ele>
        <time>2021-07-06T19:42:54.003Z</time>
      </trkpt>
      <trkpt lat="46.01906" lon="1.33001">
        <ele>422.204401</ele>
        <time>2021-07-06T19:43:04.398Z</time>
      </trkpt>
      <trkpt lat="46.01897" lon="1.33022">
        <ele>422.037234</ele>
        <time>2021-07-06T19:43:07.667Z</time>
      </trkpt>
      <trkpt lat="46.01879" lon="1.33041">
        <ele>421.82074</ele>
        <time>2021-07-06T19:43:11.919Z</time>
      </trkpt>
      <trkpt lat="46.01869" lon="1.33048">
        <ele>421.714321</ele>
        <time>2021-07-06T19:43:14.179Z</time>
      </trkpt>
      <trkpt lat="46.01847" lon="1.33057">
        <ele>421.494487</ele>
        <time>2021-07-06T19:43:20.638Z</time>
      </trkpt>
      <trkpt lat="46.01824" lon="1.33072">
        <ele>421.255712</ele>
        <time>2021-07-06T19:43:26.291Z</time>
      </trkpt>
      <trkpt lat="46.01812" lon="1.33088">
        <ele>421.32818</ele>
        <time>2021-07-06T19:43:30.468Z</time>
      </trkpt>
      <trkpt lat="46.0181" lon="1.33101">
        <ele>421.371841</ele>
        <time>2021-07-06T19:43:32.274Z</time>
      </trkpt>
      <trkpt lat="46.01818" lon="1.3313">
        <ele>421.478599</ele>
        <time>2021-07-06T19:43:38.533Z</time>
      </trkpt>
      <trkpt lat="46.01822" lon="1.33146">
        <ele>421.535041</ele>
        <time>2021-07-06T19:43:42.235Z</time>
      </trkpt>
      <trkpt lat="46.01811" lon="1.33164">
        <ele>421.61783</ele>
        <time>2021-07-06T19:43:49.106Z</time>
      </trkpt>
      <trkpt lat="46.01807" lon="1.3319">
        <ele>421.703544</ele>
        <time>2021-07-06T19:43:54.724Z</time>
      </trkpt>
      <trkpt lat="46.01818" lon="1.33216">
        <ele>421.807413</ele>
        <time>2021-07-06T19:44:02.704Z</time>
      </trkpt>
      <trkpt lat="46.0182" lon="1.33252">
        <ele>421.9257</ele>
        <time>2021-07-06T19:44:10.690Z</time>
      </trkpt>
      <trkpt lat="46.0184" lon="1.33311">
        <ele>422.13372</ele>
        <time>2021-07-06T19:44:25.039Z</time>
      </trkpt>
      <trkpt lat="46.01862" lon="1.33335">
        <ele>422.210525</ele>
        <time>2021-07-06T19:44:33.733Z</time>
      </trkpt>
      <trkpt lat="46.01846" lon="1.33388">
        <ele>422.322192</ele>
        <time>2021-07-06T19:44:46.376Z</time>
      </trkpt>
      <trkpt lat="46.0184" lon="1.33399">
        <ele>422.349257</ele>
        <time>2021-07-06T19:44:49.462Z</time>
      </trkpt>
      <trkpt lat="46.01813" lon="1.33413">
        <ele>422.428293</ele>
        <time>2021-07-06T19:44:58.788Z</time>
      </trkpt>
      <trkpt lat="46.01794" lon="1.33475">
        <ele>422.560517</ele>
        <time>2021-07-06T19:45:14.946Z</time>
      </trkpt>
      <trkpt lat="46.01777" lon="1.33476">
        <ele>422.607842</ele>
        <time>2021-07-06T19:45:21.061Z</time>
      </trkpt>
      <trkpt lat="46.01754" lon="1.33486">
        <ele>422.784423</ele>
        <time>2021-07-06T19:45:29.254Z</time>
      </trkpt>
      <trkpt lat="46.01725" lon="1.33536">
        <ele>423.161493</ele>
        <time>2021-07-06T19:45:46.643Z</time>
      </trkpt>
      <trkpt lat="46.01713" lon="1.33544">
        <ele>423.26999</ele>
        <time>2021-07-06T19:45:52.067Z</time>
      </trkpt>
      <trkpt lat="46.0168" lon="1.33539">
        <ele>423.547557</ele>
        <time>2021-07-06T19:46:04.770Z</time>
      </trkpt>
      <trkpt lat="46.01617" lon="1.33606">
        <ele>424.043043</ele>
        <time>2021-07-06T19:46:31.519Z</time>
      </trkpt>
      <trkpt lat="46.01585" lon="1.33619">
        <ele>423.821973</ele>
        <time>2021-07-06T19:46:42.140Z</time>
      </trkpt>
      <trkpt lat="46.01551" lon="1.33628">
        <ele>423.593189</ele>
        <time>2021-07-06T19:46:50.373Z</time>
      </trkpt>
      <trkpt lat="46.01535" lon="1.33637">
        <ele>423.475719</ele>
        <time>2021-07-06T19:46:54.308Z</time>
      </trkpt>
      <trkpt lat="46.0145" lon="1.33692">
        <ele>422.916425</ele>
        <time>2021-07-06T19:47:15.194Z</time>
      </trkpt>
      <trkpt lat="46.0144" lon="1.33709">
        <ele>422.915692</ele>
        <time>2021-07-06T19:47:18.500Z</time>
      </trkpt>
      <trkpt lat="46.01437" lon="1.33726">
        <ele>422.915113</ele>
        <time>2021-07-06T19:47:21.536Z</time>
      </trkpt>
      <trkpt lat="46.01464" lon="1.33774">
        <ele>422.913131</ele>
        <time>2021-07-06T19:47:31.816Z</time>
      </trkpt>
      <trkpt lat="46.01466" lon="1.33783">
        <ele>422.912804</ele>
        <time>2021-07-06T19:47:33.343Z</time>
      </trkpt>
      <trkpt lat="46.01571" lon="1.33771">
        <ele>423.056899</ele>
        <time>2021-07-06T19:47:57.608Z</time>
      </trkpt>
      <trkpt lat="46.01631" lon="1.33773">
        <ele>423.817791</ele>
        <time>2021-07-06T19:48:13.166Z</time>
      </trkpt>
      <trkpt lat="46.01686" lon="1.33788">
        <ele>424.519028</ele>
        <time>2021-07-06T19:48:27.999Z</time>
      </trkpt>
      <trkpt lat="46.01703" lon="1.33796">
        <ele>424.751426</ele>
        <time>2021-07-06T19:48:33.045Z</time>
      </trkpt>
      <trkpt lat="46.01701" lon="1.33803">
        <ele>424.813114</ele>
        <time>2021-07-06T19:48:34.167Z</time>
      </trkpt>
      <trkpt lat="46.0168" lon="1.33893">
        <ele>425.659085</ele>
        <time>2021-07-06T19:48:51.624Z</time>
      </trkpt>
      <trkpt lat="46.01661" lon="1.33971">
        <ele>426.395169</ele>
        <time>2021-07-06T19:49:05.748Z</time>
      </trkpt>
      <trkpt lat="46.01651" lon="1.34014">
        <ele>426.795979</ele>
        <time>2021-07-06T19:49:13.724Z</time>
      </trkpt>
      <trkpt lat="46.01638" lon="1.34124">
        <ele>428.259445</ele>
        <time>2021-07-06T19:49:35.527Z</time>
      </trkpt>
      <trkpt lat="46.01641" lon="1.3417">
        <ele>429.315974</ele>
        <time>2021-07-06T19:49:45.403Z</time>
      </trkpt>
      <trkpt lat="46.01695" lon="1.3436">
        <ele>434.36986</ele>
        <time>2021-07-06T19:50:41.028Z</time>
      </trkpt>
      <trkpt lat="46.01705" lon="1.34415">
        <ele>436.568444</ele>
        <time>2021-07-06T19:51:00.521Z</time>
      </trkpt>
      <trkpt lat="46.01702" lon="1.345">
        <ele>439.791981</ele>
        <time>2021-07-06T19:51:30.889Z</time>
      </trkpt>
      <trkpt lat="46.01693" lon="1.34614">
        <ele>443.74872</ele>
        <time>2021-07-06T19:52:11.736Z</time>
      </trkpt>
      <trkpt lat="46.01667" lon="1.34699">
        <ele>445.509799</ele>
        <time>2021-07-06T19:52:38.310Z</time>
      </trkpt>
      <trkpt lat="46.01635" lon="1.34759">
        <ele>446.935497</ele>
        <time>2021-07-06T19:52:55.117Z</time>
      </trkpt>
      <trkpt lat="46.01623" lon="1.34768">
        <ele>447.320803</ele>
        <time>2021-07-06T19:52:58.084Z</time>
      </trkpt>
      <trkpt lat="46.01629" lon="1.34779">
        <ele>447.600959</ele>
        <time>2021-07-06T19:53:01.302Z</time>
      </trkpt>
      <trkpt lat="46.01636" lon="1.34795">
        <ele>447.959669</ele>
        <time>2021-07-06T19:53:05.168Z</time>
      </trkpt>
      <trkpt lat="46.0164" lon="1.34817">
        <ele>448.076162</ele>
        <time>2021-07-06T19:53:08.890Z</time>
      </trkpt>
      <trkpt lat="46.01638" lon="1.34827">
        <ele>447.90914</ele>
        <time>2021-07-06T19:53:11.142Z</time>
      </trkpt>
      <trkpt lat="46.0162" lon="1.34933">
        <ele>446.144144</ele>
        <time>2021-07-06T19:53:31.788Z</time>
      </trkpt>
      <trkpt lat="46.01601" lon="1.3498">
        <ele>445.254649</ele>
        <time>2021-07-06T19:53:41.432Z</time>
      </trkpt>
      <trkpt lat="46.01588" lon="1.34992">
        <ele>444.907528</ele>
        <time>2021-07-06T19:53:45.493Z</time>
      </trkpt>
      <trkpt lat="46.01551" lon="1.35">
        <ele>444.017909</ele>
        <time>2021-07-06T19:53:55.263Z</time>
      </trkpt>
      <trkpt lat="46.01533" lon="1.3501">
        <ele>443.337376</ele>
        <time>2021-07-06T19:54:00.104Z</time>
      </trkpt>
      <trkpt lat="46.01519" lon="1.35024">
        <ele>442.762076</ele>
        <time>2021-07-06T19:54:04.468Z</time>
      </trkpt>
      <trkpt lat="46.01513" lon="1.35039">
        <ele>442.334457</ele>
        <time>2021-07-06T19:54:07.695Z</time>
      </trkpt>
      <trkpt lat="46.01511" lon="1.35041">
        <ele>442.250609</ele>
        <time>2021-07-06T19:54:08.159Z</time>
      </trkpt>
      <trkpt lat="46.01508" lon="1.3506">
        <ele>441.772341</ele>
        <time>2021-07-06T19:54:11.716Z</time>
      </trkpt>
      <trkpt lat="46.01519" lon="1.35151">
        <ele>439.514405</ele>
        <time>2021-07-06T19:54:27.810Z</time>
      </trkpt>
      <trkpt lat="46.01506" lon="1.35183">
        <ele>438.634831</ele>
        <time>2021-07-06T19:54:34.595Z</time>
      </trkpt>
      <trkpt lat="46.01499" lon="1.35187">
        <ele>438.360352</ele>
        <time>2021-07-06T19:54:36.369Z</time>
      </trkpt>
      <trkpt lat="46.01476" lon="1.35198">
        <ele>437.659895</ele>
        <time>2021-07-06T19:54:43.063Z</time>
      </trkpt>
      <trkpt lat="46.01459" lon="1.35204">
        <ele>437.460935</ele>
        <time>2021-07-06T19:54:47.384Z</time>
      </trkpt>
      <trkpt lat="46.0143" lon="1.35222">
        <ele>437.103073</ele>
        <time>2021-07-06T19:54:56.218Z</time>
      </trkpt>
      <trkpt lat="46.01411" lon="1.35316">
        <ele>436.323529</ele>
        <time>2021-07-06T19:55:15.873Z</time>
      </trkpt>
      <trkpt lat="46.01393" lon="1.35456">
        <ele>436.777788</ele>
        <time>2021-07-06T19:55:48.391Z</time>
      </trkpt>
      <trkpt lat="46.01396" lon="1.35493">
        <ele>437.466005</ele>
        <time>2021-07-06T19:55:59.612Z</time>
      </trkpt>
      <trkpt lat="46.01397" lon="1.355">
        <ele>437.592115</ele>
        <time>2021-07-06T19:56:01.955Z</time>
      </trkpt>
      <trkpt lat="46.01396" lon="1.35577">
        <ele>438.98485</ele>
        <time>2021-07-06T19:56:25.481Z</time>
      </trkpt>
      <trkpt lat="46.01398" lon="1.35603">
        <ele>439.450191</ele>
        <time>2021-07-06T19:56:36.362Z</time>
      </trkpt>
      <trkpt lat="46.01386" lon="1.35603">
        <ele>439.754955</ele>
        <time>2021-07-06T19:56:40.469Z</time>
      </trkpt>
      <trkpt lat="46.01309" lon="1.35609">
        <ele>443.003024</ele>
        <time>2021-07-06T19:57:15.296Z</time>
      </trkpt>
      <trkpt lat="46.01273" lon="1.35619">
        <ele>444.784258</ele>
        <time>2021-07-06T19:57:32.055Z</time>
      </trkpt>
      <trkpt lat="46.01251" lon="1.35636">
        <ele>445.997986</ele>
        <time>2021-07-06T19:57:44.352Z</time>
      </trkpt>
      <trkpt lat="46.01213" lon="1.35672">
        <ele>448.227503</ele>
        <time>2021-07-06T19:58:03.703Z</time>
      </trkpt>
      <trkpt lat="46.01205" lon="1.35698">
        <ele>449.17886</ele>
        <time>2021-07-06T19:58:12.301Z</time>
      </trkpt>
      <trkpt lat="46.01214" lon="1.35746">
        <ele>449.989506</ele>
        <time>2021-07-06T19:58:25.969Z</time>
      </trkpt>
      <trkpt lat="46.01247" lon="1.35901">
        <ele>452.615599</ele>
        <time>2021-07-06T19:59:00.233Z</time>
      </trkpt>
      <trkpt lat="46.0125" lon="1.36047">
        <ele>453.538411</ele>
        <time>2021-07-06T19:59:21.319Z</time>
      </trkpt>
      <trkpt lat="46.01244" lon="1.36076">
        <ele>453.596563</ele>
        <time>2021-07-06T19:59:25.380Z</time>
      </trkpt>
      <trkpt lat="46.01219" lon="1.36135">
        <ele>453.728626</ele>
        <time>2021-07-06T19:59:34.686Z</time>
      </trkpt>
      <trkpt lat="46.01156" lon="1.36244">
        <ele>454.428327</ele>
        <time>2021-07-06T19:59:53.758Z</time>
      </trkpt>
      <trkpt lat="46.0102" lon="1.36397">
        <ele>457.472306</ele>
        <time>2021-07-06T20:00:39.205Z</time>
      </trkpt>
      <trkpt lat="46.00981" lon="1.36416">
        <ele>458.948565</ele>
        <time>2021-07-06T20:00:55.255Z</time>
      </trkpt>
      <trkpt lat="46.0095" lon="1.36414">
        <ele>460.026337</ele>
        <time>2021-07-06T20:01:06.979Z</time>
      </trkpt>
      <trkpt lat="46.0092" lon="1.36413">
        <ele>461.121933</ele>
        <time>2021-07-06T20:01:19.930Z</time>
      </trkpt>
      <trkpt lat="46.00904" lon="1.3642">
        <ele>461.703376</ele>
        <time>2021-07-06T20:01:27.629Z</time>
      </trkpt>
      <trkpt lat="46.00857" lon="1.36476">
        <ele>464.933969</ele>
        <time>2021-07-06T20:01:55.319Z</time>
      </trkpt>
      <trkpt lat="46.00821" lon="1.36493">
        <ele>467.107488</ele>
        <time>2021-07-06T20:02:14.480Z</time>
      </trkpt>
      <trkpt lat="46.00806" lon="1.36507">
        <ele>468.108003</ele>
        <time>2021-07-06T20:02:23.736Z</time>
      </trkpt>
      <trkpt lat="46.00742" lon="1.36589">
        <ele>473.071265</ele>
        <time>2021-07-06T20:03:03.517Z</time>
      </trkpt>
      <trkpt lat="46.0068" lon="1.36626">
        <ele>477.678819</ele>
        <time>2021-07-06T20:03:37.074Z</time>
      </trkpt>
      <trkpt lat="46.00637" lon="1.36664">
        <ele>481.160609</ele>
        <time>2021-07-06T20:04:04.387Z</time>
      </trkpt>
      <trkpt lat="46.00541" lon="1.36704">
        <ele>488.727674</ele>
        <time>2021-07-06T20:05:03.948Z</time>
      </trkpt>
      <trkpt lat="46.00513" lon="1.36746">
        <ele>492.081939</ele>
        <time>2021-07-06T20:05:28.976Z</time>
      </trkpt>
      <trkpt lat="46.00513" lon="1.36746">
        <ele>492.081939</ele>
        <time>2021-07-06T20:05:29.226Z</time>
      </trkpt>
      <trkpt lat="46.00466" lon="1.36794">
        <ele>496.888215</ele>
        <time>2021-07-06T20:06:04.875Z</time>
      </trkpt>
      <trkpt lat="46.00449" lon="1.36825">
        <ele>499.194076</ele>
        <time>2021-07-06T20:06:21.730Z</time>
      </trkpt>
      <trkpt lat="46.00427" lon="1.3689">
        <ele>502.416545</ele>
        <time>2021-07-06T20:06:50.135Z</time>
      </trkpt>
      <trkpt lat="46.004" lon="1.36941">
        <ele>505.182757</ele>
        <time>2021-07-06T20:07:14.570Z</time>
      </trkpt>
      <trkpt lat="46.00385" lon="1.37089">
        <ele>511.394799</ele>
        <time>2021-07-06T20:08:01.296Z</time>
      </trkpt>
      <trkpt lat="46.00338" lon="1.372">
        <ele>515.053554</ele>
        <time>2021-07-06T20:08:37.299Z</time>
      </trkpt>
      <trkpt lat="46.00313" lon="1.37237">
        <ele>516.480426</ele>
        <time>2021-07-06T20:08:50.746Z</time>
      </trkpt>
      <trkpt lat="46.00264" lon="1.37296">
        <ele>518.738852</ele>
        <time>2021-07-06T20:09:14.155Z</time>
      </trkpt>
      <trkpt lat="46.0024" lon="1.37363">
        <ele>520.097791</ele>
        <time>2021-07-06T20:09:32.651Z</time>
      </trkpt>
      <trkpt lat="46.00146" lon="1.37547">
        <ele>523.104214</ele>
        <time>2021-07-06T20:10:19.946Z</time>
      </trkpt>
      <trkpt lat="46.00077" lon="1.37606">
        <ele>523.557825</ele>
        <time>2021-07-06T20:10:36.235Z</time>
      </trkpt>
      <trkpt lat="46.00031" lon="1.37629">
        <ele>523.783361</ele>
        <time>2021-07-06T20:10:44.657Z</time>
      </trkpt>
      <trkpt lat="45.99903" lon="1.37693">
        <ele>523.092469</ele>
        <time>2021-07-06T20:11:08.404Z</time>
      </trkpt>
      <trkpt lat="45.99889" lon="1.37697">
        <ele>523.022824</ele>
        <time>2021-07-06T20:11:10.770Z</time>
      </trkpt>
      <trkpt lat="45.99885" lon="1.37699">
        <ele>523.00119</ele>
        <time>2021-07-06T20:11:11.533Z</time>
      </trkpt>
      <trkpt lat="45.99876" lon="1.37693">
        <ele>522.951373</ele>
        <time>2021-07-06T20:11:13.996Z</time>
      </trkpt>
      <trkpt lat="45.9985" lon="1.37686">
        <ele>522.830662</ele>
        <time>2021-07-06T20:11:18.990Z</time>
      </trkpt>
      <trkpt lat="45.99793" lon="1.37692">
        <ele>522.610968</ele>
        <time>2021-07-06T20:11:29.844Z</time>
      </trkpt>
      <trkpt lat="45.99778" lon="1.37691">
        <ele>522.5519</ele>
        <time>2021-07-06T20:11:32.618Z</time>
      </trkpt>
      <trkpt lat="45.99739" lon="1.37675">
        <ele>522.394345</ele>
        <time>2021-07-06T20:11:40.077Z</time>
      </trkpt>
      <trkpt lat="45.99722" lon="1.37676">
        <ele>522.327997</ele>
        <time>2021-07-06T20:11:42.992Z</time>
      </trkpt>
      <trkpt lat="45.99706" lon="1.37683">
        <ele>522.26547</ele>
        <time>2021-07-06T20:11:46.218Z</time>
      </trkpt>
      <trkpt lat="45.99681" lon="1.3772">
        <ele>522.208726</ele>
        <time>2021-07-06T20:11:52.270Z</time>
      </trkpt>
      <trkpt lat="45.99672" lon="1.37725">
        <ele>522.219961</ele>
        <time>2021-07-06T20:11:53.809Z</time>
      </trkpt>
      <trkpt lat="45.99658" lon="1.37733">
        <ele>522.236912</ele>
        <time>2021-07-06T20:11:56.162Z</time>
      </trkpt>
      <trkpt lat="45.9963" lon="1.37755">
        <ele>522.272727</ele>
        <time>2021-07-06T20:12:01.463Z</time>
      </trkpt>
      <trkpt lat="45.99622" lon="1.37753">
        <ele>522.28211</ele>
        <time>2021-07-06T20:12:02.868Z</time>
      </trkpt>
      <trkpt lat="45.99578" lon="1.37735">
        <ele>522.334794</ele>
        <time>2021-07-06T20:12:11.460Z</time>
      </trkpt>
      <trkpt lat="45.99565" lon="1.37743">
        <ele>522.350316</ele>
        <time>2021-07-06T20:12:13.934Z</time>
      </trkpt>
      <trkpt lat="45.99555" lon="1.37755">
        <ele>522.365716</ele>
        <time>2021-07-06T20:12:16.591Z</time>
      </trkpt>
      <trkpt lat="45.99546" lon="1.37764">
        <ele>522.377413</ele>
        <time>2021-07-06T20:12:20.155Z</time>
      </trkpt>
      <trkpt lat="45.99538" lon="1.3777">
        <ele>522.38837</ele>
        <time>2021-07-06T20:12:22.615Z</time>
      </trkpt>
      <trkpt lat="45.99528" lon="1.3777">
        <ele>522.642939</ele>
        <time>2021-07-06T20:12:24.780Z</time>
      </trkpt>
      <trkpt lat="45.99527" lon="1.37789">
        <ele>523.440669</ele>
        <time>2021-07-06T20:12:29.887Z</time>
      </trkpt>
      <trkpt lat="45.9952" lon="1.37812">
        <ele>524.456958</ele>
        <time>2021-07-06T20:12:36.898Z</time>
      </trkpt>
      <trkpt lat="45.99489" lon="1.37849">
        <ele>526.88142</ele>
        <time>2021-07-06T20:12:55.131Z</time>
      </trkpt>
      <trkpt lat="45.99483" lon="1.37857">
        <ele>527.397849</ele>
        <time>2021-07-06T20:12:58.930Z</time>
      </trkpt>
      <trkpt lat="45.99481" lon="1.37863">
        <ele>527.65555</ele>
        <time>2021-07-06T20:13:01.843Z</time>
      </trkpt>
      <trkpt lat="45.99478" lon="1.37869">
        <ele>527.943858</ele>
        <time>2021-07-06T20:13:04.792Z</time>
      </trkpt>
      <trkpt lat="45.99455" lon="1.37903">
        <ele>529.955408</ele>
        <time>2021-07-06T20:13:23.038Z</time>
      </trkpt>
      <trkpt lat="45.99442" lon="1.37918">
        <ele>530.922573</ele>
        <time>2021-07-06T20:13:32.345Z</time>
      </trkpt>
      <trkpt lat="45.99427" lon="1.37929">
        <ele>531.972789</ele>
        <time>2021-07-06T20:13:43.437Z</time>
      </trkpt>
      <trkpt lat="45.99423" lon="1.37929">
        <ele>532.188937</ele>
        <time>2021-07-06T20:13:46.148Z</time>
      </trkpt>
      <trkpt lat="45.99356" lon="1.37954">
        <ele>537.135189</ele>
        <time>2021-07-06T20:14:32.041Z</time>
      </trkpt>
      <trkpt lat="45.99305" lon="1.37977">
        <ele>541.162765</ele>
        <time>2021-07-06T20:15:05.754Z</time>
      </trkpt>
      <trkpt lat="45.99266" lon="1.38009">
        <ele>544.518765</ele>
        <time>2021-07-06T20:15:30.713Z</time>
      </trkpt>
      <trkpt lat="45.99224" lon="1.38043">
        <ele>547.079585</ele>
        <time>2021-07-06T20:15:53.586Z</time>
      </trkpt>
      <trkpt lat="45.99182" lon="1.38093">
        <ele>548.104352</ele>
        <time>2021-07-06T20:16:13.927Z</time>
      </trkpt>
      <trkpt lat="45.99127" lon="1.38115">
        <ele>549.159787</ele>
        <time>2021-07-06T20:16:30.806Z</time>
      </trkpt>
      <trkpt lat="45.99095" lon="1.38113">
        <ele>549.766463</ele>
        <time>2021-07-06T20:16:36.932Z</time>
      </trkpt>
      <trkpt lat="45.99031" lon="1.38066">
        <ele>547.679429</ele>
        <time>2021-07-06T20:16:48.293Z</time>
      </trkpt>
      <trkpt lat="45.98994" lon="1.38048">
        <ele>545.991615</ele>
        <time>2021-07-06T20:16:53.947Z</time>
      </trkpt>
      <trkpt lat="45.98949" lon="1.38029">
        <ele>543.93993</ele>
        <time>2021-07-06T20:17:00.498Z</time>
      </trkpt>
      <trkpt lat="45.98916" lon="1.38013">
        <ele>542.394622</ele>
        <time>2021-07-06T20:17:08.654Z</time>
      </trkpt>
      <trkpt lat="45.9885" lon="1.38014">
        <ele>537.507213</ele>
        <time>2021-07-06T20:17:23.563Z</time>
      </trkpt>
      <trkpt lat="45.98635" lon="1.38061">
        <ele>521.709038</ele>
        <time>2021-07-06T20:18:11.977Z</time>
      </trkpt>
      <trkpt lat="45.98585" lon="1.38084">
        <ele>518.093703</ele>
        <time>2021-07-06T20:18:24.225Z</time>
      </trkpt>
      <trkpt lat="45.98554" lon="1.38107">
        <ele>515.98913</ele>
        <time>2021-07-06T20:18:32.313Z</time>
      </trkpt>
      <trkpt lat="45.98464" lon="1.38271">
        <ele>511.230866</ele>
        <time>2021-07-06T20:19:10.022Z</time>
      </trkpt>
      <trkpt lat="45.98409" lon="1.38387">
        <ele>508.427824</ele>
        <time>2021-07-06T20:19:37.138Z</time>
      </trkpt>
      <trkpt lat="45.98364" lon="1.38459">
        <ele>506.599305</ele>
        <time>2021-07-06T20:19:55.219Z</time>
      </trkpt>
      <trkpt lat="45.98354" lon="1.38512">
        <ele>505.569724</ele>
        <time>2021-07-06T20:20:05.037Z</time>
      </trkpt>
      <trkpt lat="45.98271" lon="1.38593">
        <ele>499.956421</ele>
        <time>2021-07-06T20:20:29.183Z</time>
      </trkpt>
      <trkpt lat="45.9823" lon="1.3864">
        <ele>496.897869</ele>
        <time>2021-07-06T20:20:41.341Z</time>
      </trkpt>
      <trkpt lat="45.98213" lon="1.38677">
        <ele>495.128062</ele>
        <time>2021-07-06T20:20:48.320Z</time>
      </trkpt>
      <trkpt lat="45.98204" lon="1.38706">
        <ele>493.390844</ele>
        <time>2021-07-06T20:20:53.262Z</time>
      </trkpt>
      <trkpt lat="45.98205" lon="1.38743">
        <ele>491.339337</ele>
        <time>2021-07-06T20:20:58.972Z</time>
      </trkpt>
      <trkpt lat="45.98212" lon="1.38801">
        <ele>488.015181</ele>
        <time>2021-07-06T20:21:08.157Z</time>
      </trkpt>
      <trkpt lat="45.98235" lon="1.3889">
        <ele>482.668955</ele>
        <time>2021-07-06T20:21:22.824Z</time>
      </trkpt>
      <trkpt lat="45.98226" lon="1.38933">
        <ele>480.091317</ele>
        <time>2021-07-06T20:21:29.684Z</time>
      </trkpt>
      <trkpt lat="45.98218" lon="1.38941">
        <ele>479.118196</ele>
        <time>2021-07-06T20:21:31.850Z</time>
      </trkpt>
      <trkpt lat="45.982" lon="1.38937">
        <ele>477.3263</ele>
        <time>2021-07-06T20:21:35.854Z</time>
      </trkpt>
      <trkpt lat="45.98133" lon="1.38907">
        <ele>470.396155</ele>
        <time>2021-07-06T20:21:50.964Z</time>
      </trkpt>
      <trkpt lat="45.98113" lon="1.38907">
        <ele>468.375283</ele>
        <time>2021-07-06T20:21:55.326Z</time>
      </trkpt>
      <trkpt lat="45.98092" lon="1.38916">
        <ele>466.208777</ele>
        <time>2021-07-06T20:21:59.961Z</time>
      </trkpt>
      <trkpt lat="45.98039" lon="1.38921">
        <ele>460.716644</ele>
        <time>2021-07-06T20:22:11.201Z</time>
      </trkpt>
      <trkpt lat="45.97998" lon="1.38975">
        <ele>454.344334</ele>
        <time>2021-07-06T20:22:18.186Z</time>
      </trkpt>
      <trkpt lat="45.97942" lon="1.3901">
        <ele>447.458836</ele>
        <time>2021-07-06T20:22:25.724Z</time>
      </trkpt>
      <trkpt lat="45.97877" lon="1.39023">
        <ele>441.022884</ele>
        <time>2021-07-06T20:22:33.872Z</time>
      </trkpt>
      <trkpt lat="45.97867" lon="1.39033">
        <ele>440.218</ele>
        <time>2021-07-06T20:22:35.396Z</time>
      </trkpt>
      <trkpt lat="45.97851" lon="1.39055">
        <ele>438.709081</ele>
        <time>2021-07-06T20:22:38.412Z</time>
      </trkpt>
      <trkpt lat="45.97818" lon="1.39124">
        <ele>434.856208</ele>
        <time>2021-07-06T20:22:46.309Z</time>
      </trkpt>
      <trkpt lat="45.97819" lon="1.39132">
        <ele>434.4976</ele>
        <time>2021-07-06T20:22:46.996Z</time>
      </trkpt>
      <trkpt lat="45.97844" lon="1.39125">
        <ele>432.764423</ele>
        <time>2021-07-06T20:22:53.324Z</time>
      </trkpt>
      <trkpt lat="45.97898" lon="1.39106">
        <ele>430.183188</ele>
        <time>2021-07-06T20:23:07.185Z</time>
      </trkpt>
      <trkpt lat="45.97932" lon="1.39103">
        <ele>429.814716</ele>
        <time>2021-07-06T20:23:17.676Z</time>
      </trkpt>
      <trkpt lat="45.97957" lon="1.39106">
        <ele>429.540398</ele>
        <time>2021-07-06T20:23:26.200Z</time>
      </trkpt>
      <trkpt lat="45.97993" lon="1.39125">
        <ele>429.121708</ele>
        <time>2021-07-06T20:23:38.866Z</time>
      </trkpt>
      <trkpt lat="45.9803" lon="1.39145">
        <ele>428.697911</ele>
        <time>2021-07-06T20:23:51.575Z</time>
      </trkpt>
      <trkpt lat="45.98037" lon="1.39148">
        <ele>428.613714</ele>
        <time>2021-07-06T20:23:54.344Z</time>
      </trkpt>
      <trkpt lat="45.98063" lon="1.3916">
        <ele>427.872738</ele>
        <time>2021-07-06T20:24:01.937Z</time>
      </trkpt>
      <trkpt lat="45.98089" lon="1.39163">
        <ele>426.625033</ele>
        <time>2021-07-06T20:24:08.966Z</time>
      </trkpt>
      <trkpt lat="45.9812" lon="1.39193">
        <ele>424.810731</ele>
        <time>2021-07-06T20:24:18.704Z</time>
      </trkpt>
      <trkpt lat="45.98147" lon="1.3927">
        <ele>421.913958</ele>
        <time>2021-07-06T20:24:33.073Z</time>
      </trkpt>
      <trkpt lat="45.98148" lon="1.39273">
        <ele>421.796842</ele>
        <time>2021-07-06T20:24:33.552Z</time>
      </trkpt>
      <trkpt lat="45.98152" lon="1.39315">
        <ele>420.376473</ele>
        <time>2021-07-06T20:24:40.105Z</time>
      </trkpt>
      <trkpt lat="45.9815" lon="1.39347">
        <ele>419.102132</ele>
        <time>2021-07-06T20:24:44.924Z</time>
      </trkpt>
      <trkpt lat="45.98138" lon="1.39393">
        <ele>416.630559</ele>
        <time>2021-07-06T20:24:52.559Z</time>
      </trkpt>
      <trkpt lat="45.98119" lon="1.39432">
        <ele>414.321905</ele>
        <time>2021-07-06T20:24:59.746Z</time>
      </trkpt>
      <trkpt lat="45.98085" lon="1.39472">
        <ele>411.165572</ele>
        <time>2021-07-06T20:25:09.572Z</time>
      </trkpt>
      <trkpt lat="45.98129" lon="1.39466">
        <ele>407.993785</ele>
        <time>2021-07-06T20:25:19.905Z</time>
      </trkpt>
      <trkpt lat="45.98169" lon="1.39471">
        <ele>406.489607</ele>
        <time>2021-07-06T20:25:29.323Z</time>
      </trkpt>
      <trkpt lat="45.98294" lon="1.39425">
        <ele>404.271744</ele>
        <time>2021-07-06T20:26:06.128Z</time>
      </trkpt>
      <trkpt lat="45.98394" lon="1.39409">
        <ele>405.475916</ele>
        <time>2021-07-06T20:26:44.154Z</time>
      </trkpt>
      <trkpt lat="45.98453" lon="1.39419">
        <ele>406.82596</ele>
        <time>2021-07-06T20:27:10.147Z</time>
      </trkpt>
      <trkpt lat="45.9848" lon="1.39437">
        <ele>407.501394</ele>
        <time>2021-07-06T20:27:24.776Z</time>
      </trkpt>
      <trkpt lat="45.98493" lon="1.39435">
        <ele>407.790751</ele>
        <time>2021-07-06T20:27:31.311Z</time>
      </trkpt>
      <trkpt lat="45.98498" lon="1.39429">
        <ele>408.047366</ele>
        <time>2021-07-06T20:27:34.729Z</time>
      </trkpt>
      <trkpt lat="45.98498" lon="1.39393">
        <ele>409.452321</ele>
        <time>2021-07-06T20:27:48.657Z</time>
      </trkpt>
      <trkpt lat="45.98505" lon="1.39363">
        <ele>410.66676</ele>
        <time>2021-07-06T20:28:01.474Z</time>
      </trkpt>
      <trkpt lat="45.98542" lon="1.39303">
        <ele>413.849587</ele>
        <time>2021-07-06T20:28:35.778Z</time>
      </trkpt>
      <trkpt lat="45.98585" lon="1.39249">
        <ele>417.060093</ele>
        <time>2021-07-06T20:29:12.267Z</time>
      </trkpt>
      <trkpt lat="45.98615" lon="1.39216">
        <ele>419.281233</ele>
        <time>2021-07-06T20:29:36.244Z</time>
      </trkpt>
      <trkpt lat="45.98653" lon="1.39182">
        <ele>422.14104</ele>
        <time>2021-07-06T20:30:05.857Z</time>
      </trkpt>
      <trkpt lat="45.9876" lon="1.39156">
        <ele>428.946397</ele>
        <time>2021-07-06T20:31:15.519Z</time>
      </trkpt>
      <trkpt lat="45.98811" lon="1.39184">
        <ele>431.738164</ele>
        <time>2021-07-06T20:31:46.269Z</time>
      </trkpt>
      <trkpt lat="45.98808" lon="1.39242">
        <ele>433.736621</ele>
        <time>2021-07-06T20:32:08.519Z</time>
      </trkpt>
      <trkpt lat="45.98812" lon="1.39256">
        <ele>434.239658</ele>
        <time>2021-07-06T20:32:15.154Z</time>
      </trkpt>
      <trkpt lat="45.98811" lon="1.39278">
        <ele>434.994509</ele>
        <time>2021-07-06T20:32:21.095Z</time>
      </trkpt>
      <trkpt lat="45.98814" lon="1.39426">
        <ele>440.284936</ele>
        <time>2021-07-06T20:33:06.191Z</time>
      </trkpt>
      <trkpt lat="45.98821" lon="1.39462">
        <ele>441.704429</ele>
        <time>2021-07-06T20:33:17.701Z</time>
      </trkpt>
      <trkpt lat="45.98839" lon="1.39499">
        <ele>443.417329</ele>
        <time>2021-07-06T20:33:31.565Z</time>
      </trkpt>
      <trkpt lat="45.98849" lon="1.39508">
        <ele>444.061648</ele>
        <time>2021-07-06T20:33:37.841Z</time>
      </trkpt>
      <trkpt lat="45.98916" lon="1.39532">
        <ele>447.851698</ele>
        <time>2021-07-06T20:34:12.731Z</time>
      </trkpt>
      <trkpt lat="45.98916" lon="1.39532">
        <ele>447.868535</ele>
        <time>2021-07-06T20:34:13.221Z</time>
      </trkpt>
      <trkpt lat="45.98963" lon="1.3952">
        <ele>451.37241</ele>
        <time>2021-07-06T20:34:36.379Z</time>
      </trkpt>
      <trkpt lat="45.98995" lon="1.39522">
        <ele>453.769572</ele>
        <time>2021-07-06T20:34:53.542Z</time>
      </trkpt>
      <trkpt lat="45.99" lon="1.39527">
        <ele>454.28316</ele>
        <time>2021-07-06T20:34:59.273Z</time>
      </trkpt>
      <trkpt lat="45.99001" lon="1.39515">
        <ele>454.961605</ele>
        <time>2021-07-06T20:35:05.315Z</time>
      </trkpt>
      <trkpt lat="45.98997" lon="1.39498">
        <ele>455.911416</ele>
        <time>2021-07-06T20:35:12.780Z</time>
      </trkpt>
      <trkpt lat="45.98971" lon="1.39474">
        <ele>458.23853</ele>
        <time>2021-07-06T20:35:35.655Z</time>
      </trkpt>
      <trkpt lat="45.98934" lon="1.39463">
        <ele>461.064155</ele>
        <time>2021-07-06T20:36:03.426Z</time>
      </trkpt>
      <trkpt lat="45.9892" lon="1.3945">
        <ele>462.509611</ele>
        <time>2021-07-06T20:36:15.650Z</time>
      </trkpt>
      <trkpt lat="45.98923" lon="1.39424">
        <ele>464.20182</ele>
        <time>2021-07-06T20:36:30.220Z</time>
      </trkpt>
      <trkpt lat="45.98936" lon="1.39385">
        <ele>467.11977</ele>
        <time>2021-07-06T20:36:53.982Z</time>
      </trkpt>
      <trkpt lat="45.98981" lon="1.39309">
        <ele>473.786147</ele>
        <time>2021-07-06T20:37:46.895Z</time>
      </trkpt>
      <trkpt lat="45.98995" lon="1.39276">
        <ele>476.33516</ele>
        <time>2021-07-06T20:38:09.044Z</time>
      </trkpt>
      <trkpt lat="45.99057" lon="1.3913">
        <ele>489.168924</ele>
        <time>2021-07-06T20:39:55.837Z</time>
      </trkpt>
      <trkpt lat="45.99099" lon="1.39042">
        <ele>497.461879</ele>
        <time>2021-07-06T20:41:01.392Z</time>
      </trkpt>
      <trkpt lat="45.99147" lon="1.38996">
        <ele>503.230527</ele>
        <time>2021-07-06T20:41:49.654Z</time>
      </trkpt>
      <trkpt lat="45.99304" lon="1.38906">
        <ele>519.549926</ele>
        <time>2021-07-06T20:44:03.910Z</time>
      </trkpt>
      <trkpt lat="45.99387" lon="1.38794">
        <ele>529.724446</ele>
        <time>2021-07-06T20:45:30.049Z</time>
      </trkpt>
      <trkpt lat="45.99443" lon="1.38742">
        <ele>535.49472</ele>
        <time>2021-07-06T20:46:21.721Z</time>
      </trkpt>
      <trkpt lat="45.99491" lon="1.38717">
        <ele>539.732426</ele>
        <time>2021-07-06T20:46:59.473Z</time>
      </trkpt>
      <trkpt lat="45.99503" lon="1.38711">
        <ele>540.750832</ele>
        <time>2021-07-06T20:47:09.424Z</time>
      </trkpt>
      <trkpt lat="45.99515" lon="1.38712">
        <ele>541.758597</ele>
        <time>2021-07-06T20:47:17.565Z</time>
      </trkpt>
      <trkpt lat="45.99534" lon="1.38714">
        <ele>543.31645</ele>
        <time>2021-07-06T20:47:31.431Z</time>
      </trkpt>
      <trkpt lat="45.99569" lon="1.38809">
        <ele>548.529966</ele>
        <time>2021-07-06T20:48:24.883Z</time>
      </trkpt>
      <trkpt lat="45.99573" lon="1.38829">
        <ele>549.111371</ele>
        <time>2021-07-06T20:48:33.539Z</time>
      </trkpt>
      <trkpt lat="45.99563" lon="1.38864">
        <ele>550.23071</ele>
        <time>2021-07-06T20:48:50.775Z</time>
      </trkpt>
      <trkpt lat="45.99515" lon="1.38929">
        <ele>552.976192</ele>
        <time>2021-07-06T20:49:25.260Z</time>
      </trkpt>
      <trkpt lat="45.99517" lon="1.38945">
        <ele>553.433837</ele>
        <time>2021-07-06T20:49:29.775Z</time>
      </trkpt>
      <trkpt lat="45.99531" lon="1.38967">
        <ele>554.325664</ele>
        <time>2021-07-06T20:49:38.846Z</time>
      </trkpt>
      <trkpt lat="45.99555" lon="1.3896">
        <ele>554.899584</ele>
        <time>2021-07-06T20:49:46.535Z</time>
      </trkpt>
      <trkpt lat="45.99562" lon="1.38963">
        <ele>554.771767</ele>
        <time>2021-07-06T20:49:49.058Z</time>
      </trkpt>
      <trkpt lat="45.99567" lon="1.38999">
        <ele>554.356778</ele>
        <time>2021-07-06T20:49:56.491Z</time>
      </trkpt>
      <trkpt lat="45.99577" lon="1.39071">
        <ele>553.523761</ele>
        <time>2021-07-06T20:50:10.774Z</time>
      </trkpt>
      <trkpt lat="45.99658" lon="1.39049">
        <ele>552.175719</ele>
        <time>2021-07-06T20:50:22.678Z</time>
      </trkpt>
      <trkpt lat="45.99691" lon="1.39041">
        <ele>552.186087</ele>
        <time>2021-07-06T20:50:27.963Z</time>
      </trkpt>
      <trkpt lat="45.99712" lon="1.39019">
        <ele>552.28119</ele>
        <time>2021-07-06T20:50:32.166Z</time>
      </trkpt>
      <trkpt lat="45.99741" lon="1.38954">
        <ele>552.478526</ele>
        <time>2021-07-06T20:50:40.525Z</time>
      </trkpt>
      <trkpt lat="45.9977" lon="1.38912">
        <ele>552.631942</ele>
        <time>2021-07-06T20:50:52.878Z</time>
      </trkpt>
      <trkpt lat="45.99775" lon="1.3891">
        <ele>552.650604</ele>
        <time>2021-07-06T20:50:56.047Z</time>
      </trkpt>
      <trkpt lat="45.99829" lon="1.38879">
        <ele>554.738522</ele>
        <time>2021-07-06T20:51:19.956Z</time>
      </trkpt>
      <trkpt lat="45.99856" lon="1.38878">
        <ele>556.419676</ele>
        <time>2021-07-06T20:51:34.043Z</time>
      </trkpt>
      <trkpt lat="45.99886" lon="1.38881">
        <ele>558.229119</ele>
        <time>2021-07-06T20:51:48.834Z</time>
      </trkpt>
      <trkpt lat="45.99883" lon="1.38873">
        <ele>558.610952</ele>
        <time>2021-07-06T20:51:53.242Z</time>
      </trkpt>
      <trkpt lat="45.9986" lon="1.38864">
        <ele>560.081026</ele>
        <time>2021-07-06T20:52:06.463Z</time>
      </trkpt>
      <trkpt lat="45.99855" lon="1.38854">
        <ele>560.629101</ele>
        <time>2021-07-06T20:52:11.411Z</time>
      </trkpt>
      <trkpt lat="45.99857" lon="1.3884">
        <ele>561.219796</ele>
        <time>2021-07-06T20:52:16.930Z</time>
      </trkpt>
      <trkpt lat="45.99869" lon="1.38815">
        <ele>562.560359</ele>
        <time>2021-07-06T20:52:27.712Z</time>
      </trkpt>
      <trkpt lat="45.99893" lon="1.38803">
        <ele>564.092877</ele>
        <time>2021-07-06T20:52:41.878Z</time>
      </trkpt>
      <trkpt lat="45.99938" lon="1.38802">
        <ele>566.761304</ele>
        <time>2021-07-06T20:53:06.532Z</time>
      </trkpt>
      <trkpt lat="46.00001" lon="1.38818">
        <ele>570.578565</ele>
        <time>2021-07-06T20:53:38.864Z</time>
      </trkpt>
      <trkpt lat="46.00052" lon="1.38844">
        <ele>573.796636</ele>
        <time>2021-07-06T20:54:05.265Z</time>
      </trkpt>
      <trkpt lat="46.00061" lon="1.38845">
        <ele>574.373109</ele>
        <time>2021-07-06T20:54:09.347Z</time>
      </trkpt>
      <trkpt lat="46.00111" lon="1.38818">
        <ele>576.089193</ele>
        <time>2021-07-06T20:54:32.009Z</time>
      </trkpt>
      <trkpt lat="46.00137" lon="1.38817">
        <ele>576.886656</ele>
        <time>2021-07-06T20:54:41.686Z</time>
      </trkpt>
      <trkpt lat="46.00139" lon="1.38838">
        <ele>577.337932</ele>
        <time>2021-07-06T20:54:49.738Z</time>
      </trkpt>
      <trkpt lat="46.00185" lon="1.38852">
        <ele>578.768275</ele>
        <time>2021-07-06T20:55:10.973Z</time>
      </trkpt>
      <trkpt lat="46.00186" lon="1.38854">
        <ele>578.825088</ele>
        <time>2021-07-06T20:55:11.834Z</time>
      </trkpt>
      <trkpt lat="46.00199" lon="1.38873">
        <ele>579.395078</ele>
        <time>2021-07-06T20:55:19.907Z</time>
      </trkpt>
      <trkpt lat="46.00212" lon="1.38906">
        <ele>580.034227</ele>
        <time>2021-07-06T20:55:29.418Z</time>
      </trkpt>
      <trkpt lat="46.00214" lon="1.3893">
        <ele>579.715787</ele>
        <time>2021-07-06T20:55:35.163Z</time>
      </trkpt>
      <trkpt lat="46.00207" lon="1.38966">
        <ele>579.211054</ele>
        <time>2021-07-06T20:55:42.997Z</time>
      </trkpt>
      <trkpt lat="46.00182" lon="1.39047">
        <ele>578.010587</ele>
        <time>2021-07-06T20:56:00.750Z</time>
      </trkpt>
      <trkpt lat="46.00168" lon="1.39093">
        <ele>577.335742</ele>
        <time>2021-07-06T20:56:09.907Z</time>
      </trkpt>
      <trkpt lat="46.00156" lon="1.391">
        <ele>577.090083</ele>
        <time>2021-07-06T20:56:11.696Z</time>
      </trkpt>
      <trkpt lat="46.00078" lon="1.3916">
        <ele>572.923029</ele>
        <time>2021-07-06T20:56:24.248Z</time>
      </trkpt>
      <trkpt lat="46.00002" lon="1.39188">
        <ele>568.3388</ele>
        <time>2021-07-06T20:56:34.902Z</time>
      </trkpt>
      <trkpt lat="45.99986" lon="1.39194">
        <ele>567.375885</ele>
        <time>2021-07-06T20:56:37.157Z</time>
      </trkpt>
      <trkpt lat="45.99986" lon="1.39197">
        <ele>567.27672</ele>
        <time>2021-07-06T20:56:37.403Z</time>
      </trkpt>
      <trkpt lat="45.99958" lon="1.39212">
        <ele>566.182676</ele>
        <time>2021-07-06T20:56:41.529Z</time>
      </trkpt>
      <trkpt lat="45.99939" lon="1.39242">
        <ele>566.112817</ele>
        <time>2021-07-06T20:56:45.481Z</time>
      </trkpt>
      <trkpt lat="45.99902" lon="1.39285">
        <ele>565.993994</ele>
        <time>2021-07-06T20:56:52.734Z</time>
      </trkpt>
      <trkpt lat="45.99893" lon="1.39304">
        <ele>565.953299</ele>
        <time>2021-07-06T20:56:56.743Z</time>
      </trkpt>
      <trkpt lat="45.99883" lon="1.39365">
        <ele>565.844515</ele>
        <time>2021-07-06T20:57:12.010Z</time>
      </trkpt>
      <trkpt lat="45.9988" lon="1.39392">
        <ele>565.795591</ele>
        <time>2021-07-06T20:57:18.523Z</time>
      </trkpt>
      <trkpt lat="45.99876" lon="1.39425">
        <ele>566.524824</ele>
        <time>2021-07-06T20:57:32.071Z</time>
      </trkpt>
      <trkpt lat="45.99875" lon="1.39438">
        <ele>567.250954</ele>
        <time>2021-07-06T20:57:34.574Z</time>
      </trkpt>
      <trkpt lat="45.99867" lon="1.39463">
        <ele>568.81324</ele>
        <time>2021-07-06T20:57:45.845Z</time>
      </trkpt>
      <trkpt lat="45.99855" lon="1.39491">
        <ele>570.710385</ele>
        <time>2021-07-06T20:57:57.337Z</time>
      </trkpt>
      <trkpt lat="45.99848" lon="1.39505">
        <ele>571.706309</ele>
        <time>2021-07-06T20:58:06.009Z</time>
      </trkpt>
      <trkpt lat="45.99849" lon="1.39517">
        <ele>572.406361</ele>
        <time>2021-07-06T20:58:13.411Z</time>
      </trkpt>
      <trkpt lat="45.99845" lon="1.39561">
        <ele>574.928564</ele>
        <time>2021-07-06T20:58:33.205Z</time>
      </trkpt>
      <trkpt lat="45.99846" lon="1.39597">
        <ele>577.027851</ele>
        <time>2021-07-06T20:58:50.507Z</time>
      </trkpt>
      <trkpt lat="45.99861" lon="1.39619">
        <ele>578.844236</ele>
        <time>2021-07-06T20:59:08.063Z</time>
      </trkpt>
      <trkpt lat="45.99909" lon="1.39664">
        <ele>582.3924</ele>
        <time>2021-07-06T20:59:45.930Z</time>
      </trkpt>
      <trkpt lat="45.99926" lon="1.39699">
        <ele>583.837169</ele>
        <time>2021-07-06T21:00:02.990Z</time>
      </trkpt>
      <trkpt lat="45.99933" lon="1.39742">
        <ele>585.374248</ele>
        <time>2021-07-06T21:00:14.825Z</time>
      </trkpt>
      <trkpt lat="45.99932" lon="1.39752">
        <ele>585.702389</ele>
        <time>2021-07-06T21:00:18.002Z</time>
      </trkpt>
      <trkpt lat="45.9995" lon="1.39793">
        <ele>587.408288</ele>
        <time>2021-07-06T21:00:33.928Z</time>
      </trkpt>
      <trkpt lat="45.99961" lon="1.39849">
        <ele>589.387051</ele>
        <time>2021-07-06T21:00:50.979Z</time>
      </trkpt>
      <trkpt lat="45.99979" lon="1.39889">
        <ele>589.476998</ele>
        <time>2021-07-06T21:01:04.170Z</time>
      </trkpt>
      <trkpt lat="45.99999" lon="1.39913">
        <ele>589.414139</ele>
        <time>2021-07-06T21:01:12.231Z</time>
      </trkpt>
      <trkpt lat="46.00028" lon="1.39946">
        <ele>589.325061</ele>
        <time>2021-07-06T21:01:23.433Z</time>
      </trkpt>
      <trkpt lat="46.00093" lon="1.39967">
        <ele>589.165455</ele>
        <time>2021-07-06T21:01:42.645Z</time>
      </trkpt>
      <trkpt lat="46.00123" lon="1.39968">
        <ele>589.067624</ele>
        <time>2021-07-06T21:01:51.320Z</time>
      </trkpt>
      <trkpt lat="46.00157" lon="1.39955">
        <ele>588.87761</ele>
        <time>2021-07-06T21:02:01.699Z</time>
      </trkpt>
      <trkpt lat="46.00158" lon="1.39968">
        <ele>588.82919</ele>
        <time>2021-07-06T21:02:04.322Z</time>
      </trkpt>
      <trkpt lat="46.00154" lon="1.4001">
        <ele>588.674069</ele>
        <time>2021-07-06T21:02:13.156Z</time>
      </trkpt>
      <trkpt lat="46.00159" lon="1.40034">
        <ele>588.578877</ele>
        <time>2021-07-06T21:02:18.673Z</time>
      </trkpt>
      <trkpt lat="46.00175" lon="1.40034">
        <ele>588.493917</ele>
        <time>2021-07-06T21:02:23.486Z</time>
      </trkpt>
      <trkpt lat="46.00214" lon="1.40008">
        <ele>588.263305</ele>
        <time>2021-07-06T21:02:36.789Z</time>
      </trkpt>
      <trkpt lat="46.00225" lon="1.40004">
        <ele>588.206465</ele>
        <time>2021-07-06T21:02:40.478Z</time>
      </trkpt>
      <trkpt lat="46.00233" lon="1.4001">
        <ele>588.178542</ele>
        <time>2021-07-06T21:02:43.260Z</time>
      </trkpt>
      <trkpt lat="46.00241" lon="1.40023">
        <ele>588.38831</ele>
        <time>2021-07-06T21:02:47.158Z</time>
      </trkpt>
      <trkpt lat="46.00244" lon="1.40049">
        <ele>588.719577</ele>
        <time>2021-07-06T21:02:53.292Z</time>
      </trkpt>
      <trkpt lat="46.00208" lon="1.4015">
        <ele>590.109844</ele>
        <time>2021-07-06T21:03:22.459Z</time>
      </trkpt>
      <trkpt lat="46.00209" lon="1.40193">
        <ele>590.635151</ele>
        <time>2021-07-06T21:03:36.273Z</time>
      </trkpt>
      <trkpt lat="46.00226" lon="1.40247">
        <ele>591.441576</ele>
        <time>2021-07-06T21:03:57.049Z</time>
      </trkpt>
      <trkpt lat="46.00233" lon="1.40309">
        <ele>593.722106</ele>
        <time>2021-07-06T21:04:20.015Z</time>
      </trkpt>
      <trkpt lat="46.00241" lon="1.40364">
        <ele>595.766514</ele>
        <time>2021-07-06T21:04:41.469Z</time>
      </trkpt>
      <trkpt lat="46.00243" lon="1.40431">
        <ele>598.19669</ele>
        <time>2021-07-06T21:05:09.439Z</time>
      </trkpt>
      <trkpt lat="46.00157" lon="1.40523">
        <ele>604.362569</ele>
        <time>2021-07-06T21:06:19.264Z</time>
      </trkpt>
      <trkpt lat="46.00137" lon="1.40554">
        <ele>606.142028</ele>
        <time>2021-07-06T21:06:37.592Z</time>
      </trkpt>
      <trkpt lat="46.0015" lon="1.40641">
        <ele>609.961865</ele>
        <time>2021-07-06T21:07:15.642Z</time>
      </trkpt>
      <trkpt lat="46.00093" lon="1.40711">
        <ele>614.004573</ele>
        <time>2021-07-06T21:08:01.537Z</time>
      </trkpt>
      <trkpt lat="46.00053" lon="1.40777">
        <ele>616.994384</ele>
        <time>2021-07-06T21:08:35.868Z</time>
      </trkpt>
      <trkpt lat="46.00048" lon="1.40813">
        <ele>618.262255</ele>
        <time>2021-07-06T21:08:49.060Z</time>
      </trkpt>
      <trkpt lat="46.00047" lon="1.4086">
        <ele>619.850331</ele>
        <time>2021-07-06T21:09:06.826Z</time>
      </trkpt>
      <trkpt lat="46.00036" lon="1.40881">
        <ele>620.753944</ele>
        <time>2021-07-06T21:09:15.324Z</time>
      </trkpt>
      <trkpt lat="46.00025" lon="1.40922">
        <ele>622.345734</ele>
        <time>2021-07-06T21:09:32.550Z</time>
      </trkpt>
      <trkpt lat="46.00021" lon="1.4098">
        <ele>624.416806</ele>
        <time>2021-07-06T21:09:54.727Z</time>
      </trkpt>
      <trkpt lat="46.00008" lon="1.4099">
        <ele>625.179283</ele>
        <time>2021-07-06T21:10:04.858Z</time>
      </trkpt>
      <trkpt lat="45.99991" lon="1.40995">
        <ele>626.100671</ele>
        <time>2021-07-06T21:10:14.174Z</time>
      </trkpt>
      <trkpt lat="45.99987" lon="1.40991">
        <ele>626.344646</ele>
        <time>2021-07-06T21:10:16.504Z</time>
      </trkpt>
      <trkpt lat="45.9998" lon="1.41003">
        <ele>626.912569</ele>
        <time>2021-07-06T21:10:24.916Z</time>
      </trkpt>
      <trkpt lat="45.99963" lon="1.41073">
        <ele>629.560912</ele>
        <time>2021-07-06T21:10:54.908Z</time>
      </trkpt>
      <trkpt lat="45.9993" lon="1.41192">
        <ele>632.522345</ele>
        <time>2021-07-06T21:11:46.904Z</time>
      </trkpt>
      <trkpt lat="45.9992" lon="1.41228">
        <ele>633.37747</ele>
        <time>2021-07-06T21:12:01.431Z</time>
      </trkpt>
      <trkpt lat="45.99911" lon="1.41282">
        <ele>634.55829</ele>
        <time>2021-07-06T21:12:17.255Z</time>
      </trkpt>
      <trkpt lat="45.99905" lon="1.41325">
        <ele>635.50123</ele>
        <time>2021-07-06T21:12:28.050Z</time>
      </trkpt>
      <trkpt lat="45.999" lon="1.4135">
        <ele>635.054075</ele>
        <time>2021-07-06T21:12:33.225Z</time>
      </trkpt>
      <trkpt lat="45.9992" lon="1.41413">
        <ele>633.116946</ele>
        <time>2021-07-06T21:12:46.250Z</time>
      </trkpt>
      <trkpt lat="45.99924" lon="1.41483">
        <ele>631.144003</ele>
        <time>2021-07-06T21:12:58.249Z</time>
      </trkpt>
      <trkpt lat="45.9992" lon="1.41569">
        <ele>628.718871</ele>
        <time>2021-07-06T21:13:12.174Z</time>
      </trkpt>
      <trkpt lat="45.9992" lon="1.41615">
        <ele>626.803392</ele>
        <time>2021-07-06T21:13:19.432Z</time>
      </trkpt>
      <trkpt lat="45.99905" lon="1.41686">
        <ele>623.290869</ele>
        <time>2021-07-06T21:13:31.183Z</time>
      </trkpt>
      <trkpt lat="45.99892" lon="1.41719">
        <ele>621.518094</ele>
        <time>2021-07-06T21:13:37.248Z</time>
      </trkpt>
      <trkpt lat="45.99866" lon="1.41755">
        <ele>619.061425</ele>
        <time>2021-07-06T21:13:45.589Z</time>
      </trkpt>
      <trkpt lat="45.99848" lon="1.41775">
        <ele>617.529452</ele>
        <time>2021-07-06T21:13:50.888Z</time>
      </trkpt>
      <trkpt lat="45.99822" lon="1.41785">
        <ele>615.571577</ele>
        <time>2021-07-06T21:13:57.053Z</time>
      </trkpt>
      <trkpt lat="45.99813" lon="1.41794">
        <ele>614.585192</ele>
        <time>2021-07-06T21:13:59.665Z</time>
      </trkpt>
      <trkpt lat="45.99808" lon="1.41815">
        <ele>613.258974</ele>
        <time>2021-07-06T21:14:03.010Z</time>
      </trkpt>
      <trkpt lat="45.99801" lon="1.41819">
        <ele>612.588716</ele>
        <time>2021-07-06T21:14:04.889Z</time>
      </trkpt>
      <trkpt lat="45.99782" lon="1.41849">
        <ele>610.145062</ele>
        <time>2021-07-06T21:14:11.133Z</time>
      </trkpt>
      <trkpt lat="45.99776" lon="1.41868">
        <ele>608.830764</ele>
        <time>2021-07-06T21:14:14.746Z</time>
      </trkpt>
      <trkpt lat="45.99757" lon="1.41881">
        <ele>607.037257</ele>
        <time>2021-07-06T21:14:19.107Z</time>
      </trkpt>
      <trkpt lat="45.99721" lon="1.41896">
        <ele>603.713865</ele>
        <time>2021-07-06T21:14:27.328Z</time>
      </trkpt>
      <trkpt lat="45.99636" lon="1.41915">
        <ele>595.535822</ele>
        <time>2021-07-06T21:14:45.612Z</time>
      </trkpt>
      <trkpt lat="45.996" lon="1.41914">
        <ele>591.903251</ele>
        <time>2021-07-06T21:14:53.106Z</time>
      </trkpt>
      <trkpt lat="45.99595" lon="1.41919">
        <ele>591.273927</ele>
        <time>2021-07-06T21:14:54.328Z</time>
      </trkpt>
      <trkpt lat="45.9958" lon="1.4194">
        <ele>589.121986</ele>
        <time>2021-07-06T21:14:59.011Z</time>
      </trkpt>
      <trkpt lat="45.99572" lon="1.41974">
        <ele>586.597868</ele>
        <time>2021-07-06T21:15:04.273Z</time>
      </trkpt>
      <trkpt lat="45.99572" lon="1.41975">
        <ele>586.500778</ele>
        <time>2021-07-06T21:15:04.477Z</time>
      </trkpt>
      <trkpt lat="45.99579" lon="1.42027">
        <ele>582.744696</ele>
        <time>2021-07-06T21:15:12.464Z</time>
      </trkpt>
      <trkpt lat="45.99547" lon="1.42175">
        <ele>574.402717</ele>
        <time>2021-07-06T21:15:36.330Z</time>
      </trkpt>
      <trkpt lat="45.99499" lon="1.4226">
        <ele>568.646682</ele>
        <time>2021-07-06T21:15:54.105Z</time>
      </trkpt>
      <trkpt lat="45.99465" lon="1.4234">
        <ele>562.58497</ele>
        <time>2021-07-06T21:16:09.031Z</time>
      </trkpt>
      <trkpt lat="45.99447" lon="1.42358">
        <ele>560.574716</ele>
        <time>2021-07-06T21:16:13.861Z</time>
      </trkpt>
      <trkpt lat="45.99369" lon="1.42405">
        <ele>552.683032</ele>
        <time>2021-07-06T21:16:31.827Z</time>
      </trkpt>
      <trkpt lat="45.99349" lon="1.42412">
        <ele>550.340893</ele>
        <time>2021-07-06T21:16:36.246Z</time>
      </trkpt>
      <trkpt lat="45.99326" lon="1.42398">
        <ele>547.165651</ele>
        <time>2021-07-06T21:16:41.286Z</time>
      </trkpt>
      <trkpt lat="45.99321" lon="1.42422">
        <ele>544.897256</ele>
        <time>2021-07-06T21:16:44.974Z</time>
      </trkpt>
      <trkpt lat="45.99323" lon="1.42428">
        <ele>544.249085</ele>
        <time>2021-07-06T21:16:46.007Z</time>
      </trkpt>
      <trkpt lat="45.99293" lon="1.42489">
        <ele>537.490475</ele>
        <time>2021-07-06T21:16:56.694Z</time>
      </trkpt>
      <trkpt lat="45.9928" lon="1.42491">
        <ele>535.794295</ele>
        <time>2021-07-06T21:16:59.409Z</time>
      </trkpt>
      <trkpt lat="45.99263" lon="1.42521">
        <ele>532.316317</ele>
        <time>2021-07-06T21:17:04.859Z</time>
      </trkpt>
      <trkpt lat="45.9926" lon="1.42536">
        <ele>530.924445</ele>
        <time>2021-07-06T21:17:07.070Z</time>
      </trkpt>
      <trkpt lat="45.99242" lon="1.42575">
        <ele>527.290635</ele>
        <time>2021-07-06T21:17:13.767Z</time>
      </trkpt>
      <trkpt lat="45.99229" lon="1.42588">
        <ele>526.000044</ele>
        <time>2021-07-06T21:17:17.026Z</time>
      </trkpt>
      <trkpt lat="45.99226" lon="1.42622">
        <ele>524.089838</ele>
        <time>2021-07-06T21:17:21.881Z</time>
      </trkpt>
      <trkpt lat="45.99238" lon="1.42646">
        <ele>522.419356</ele>
        <time>2021-07-06T21:17:26.348Z</time>
      </trkpt>
      <trkpt lat="45.99239" lon="1.42667">
        <ele>521.256252</ele>
        <time>2021-07-06T21:17:29.444Z</time>
      </trkpt>
      <trkpt lat="45.9922" lon="1.42689">
        <ele>519.227256</ele>
        <time>2021-07-06T21:17:35.162Z</time>
      </trkpt>
      <trkpt lat="45.99203" lon="1.42686">
        <ele>517.83703</ele>
        <time>2021-07-06T21:17:38.972Z</time>
      </trkpt>
      <trkpt lat="45.99195" lon="1.42736">
        <ele>514.915757</ele>
        <time>2021-07-06T21:17:47.990Z</time>
      </trkpt>
      <trkpt lat="45.99157" lon="1.42733">
        <ele>513.96542</ele>
        <time>2021-07-06T21:17:58.230Z</time>
      </trkpt>
      <trkpt lat="45.99161" lon="1.42748">
        <ele>514.094281</ele>
        <time>2021-07-06T21:18:02.496Z</time>
      </trkpt>
      <trkpt lat="45.99151" lon="1.42838">
        <ele>514.794253</ele>
        <time>2021-07-06T21:18:15.095Z</time>
      </trkpt>
      <trkpt lat="45.99151" lon="1.42857">
        <ele>514.941404</ele>
        <time>2021-07-06T21:18:21.935Z</time>
      </trkpt>
      <trkpt lat="45.9915" lon="1.42956">
        <ele>515.710631</ele>
        <time>2021-07-06T21:18:47.274Z</time>
      </trkpt>
      <trkpt lat="45.99145" lon="1.42959">
        <ele>515.857989</ele>
        <time>2021-07-06T21:18:50.560Z</time>
      </trkpt>
      <trkpt lat="45.99131" lon="1.43003">
        <ele>516.818203</ele>
        <time>2021-07-06T21:19:07.011Z</time>
      </trkpt>
      <trkpt lat="45.99022" lon="1.43236">
        <ele>521.641181</ele>
        <time>2021-07-06T21:20:34.560Z</time>
      </trkpt>
      <trkpt lat="45.98989" lon="1.4325">
        <ele>522.148982</ele>
        <time>2021-07-06T21:20:48.712Z</time>
      </trkpt>
      <trkpt lat="45.98903" lon="1.43263">
        <ele>523.407066</ele>
        <time>2021-07-06T21:21:19.562Z</time>
      </trkpt>
      <trkpt lat="45.98888" lon="1.43276">
        <ele>523.255399</ele>
        <time>2021-07-06T21:21:26.226Z</time>
      </trkpt>
      <trkpt lat="45.9888" lon="1.43272">
        <ele>523.127972</ele>
        <time>2021-07-06T21:21:28.701Z</time>
      </trkpt>
      <trkpt lat="45.98861" lon="1.4328">
        <ele>522.821114</ele>
        <time>2021-07-06T21:21:34.887Z</time>
      </trkpt>
      <trkpt lat="45.98819" lon="1.43289">
        <ele>522.155039</ele>
        <time>2021-07-06T21:21:48.001Z</time>
      </trkpt>
      <trkpt lat="45.98813" lon="1.43291">
        <ele>522.059252</ele>
        <time>2021-07-06T21:21:49.518Z</time>
      </trkpt>
      <trkpt lat="45.98811" lon="1.43318">
        <ele>521.762571</ele>
        <time>2021-07-06T21:21:55.012Z</time>
      </trkpt>
      <trkpt lat="45.98829" lon="1.43321">
        <ele>521.473892</ele>
        <time>2021-07-06T21:22:00.110Z</time>
      </trkpt>
      <trkpt lat="45.98911" lon="1.43429">
        <ele>516.816211</ele>
        <time>2021-07-06T21:22:28.113Z</time>
      </trkpt>
      <trkpt lat="45.98925" lon="1.43483">
        <ele>514.235844</ele>
        <time>2021-07-06T21:22:37.190Z</time>
      </trkpt>
      <trkpt lat="45.98912" lon="1.43534">
        <ele>511.758822</ele>
        <time>2021-07-06T21:22:45.658Z</time>
      </trkpt>
      <trkpt lat="45.98897" lon="1.43572">
        <ele>509.769193</ele>
        <time>2021-07-06T21:22:52.361Z</time>
      </trkpt>
      <trkpt lat="45.98899" lon="1.43603">
        <ele>508.151517</ele>
        <time>2021-07-06T21:22:57.058Z</time>
      </trkpt>
      <trkpt lat="45.98893" lon="1.43635">
        <ele>506.01067</ele>
        <time>2021-07-06T21:23:02.012Z</time>
      </trkpt>
      <trkpt lat="45.98885" lon="1.43678">
        <ele>503.122146</ele>
        <time>2021-07-06T21:23:08.754Z</time>
      </trkpt>
      <trkpt lat="45.98902" lon="1.43711">
        <ele>500.547943</ele>
        <time>2021-07-06T21:23:14.803Z</time>
      </trkpt>
      <trkpt lat="45.98935" lon="1.43774">
        <ele>495.422413</ele>
        <time>2021-07-06T21:23:26.807Z</time>
      </trkpt>
      <trkpt lat="45.98941" lon="1.43785">
        <ele>494.512618</ele>
        <time>2021-07-06T21:23:28.916Z</time>
      </trkpt>
      <trkpt lat="45.98977" lon="1.43834">
        <ele>490.421551</ele>
        <time>2021-07-06T21:23:39.750Z</time>
      </trkpt>
      <trkpt lat="45.9901" lon="1.43851">
        <ele>487.855497</ele>
        <time>2021-07-06T21:23:47.754Z</time>
      </trkpt>
      <trkpt lat="45.99137" lon="1.4385">
        <ele>478.693055</ele>
        <time>2021-07-06T21:24:16.759Z</time>
      </trkpt>
      <trkpt lat="45.99154" lon="1.43862">
        <ele>477.447314</ele>
        <time>2021-07-06T21:24:21.170Z</time>
      </trkpt>
      <trkpt lat="45.99164" lon="1.43924">
        <ele>474.582949</ele>
        <time>2021-07-06T21:24:31.104Z</time>
      </trkpt>
      <trkpt lat="45.99162" lon="1.43956">
        <ele>473.105395</ele>
        <time>2021-07-06T21:24:36.211Z</time>
      </trkpt>
      <trkpt lat="45.99159" lon="1.4399">
        <ele>471.55972</ele>
        <time>2021-07-06T21:24:41.740Z</time>
      </trkpt>
      <trkpt lat="45.9914" lon="1.44079">
        <ele>467.370738</ele>
        <time>2021-07-06T21:24:56.978Z</time>
      </trkpt>
      <trkpt lat="45.99141" lon="1.44109">
        <ele>466.414598</ele>
        <time>2021-07-06T21:25:01.980Z</time>
      </trkpt>
      <trkpt lat="45.99144" lon="1.4419">
        <ele>463.862012</ele>
        <time>2021-07-06T21:25:10.174Z</time>
      </trkpt>
      <trkpt lat="45.99151" lon="1.44215">
        <ele>463.01767</ele>
        <time>2021-07-06T21:25:12.840Z</time>
      </trkpt>
      <trkpt lat="45.99174" lon="1.44299">
        <ele>460.207638</ele>
        <time>2021-07-06T21:25:21.766Z</time>
      </trkpt>
      <trkpt lat="45.99177" lon="1.44324">
        <ele>459.387888</ele>
        <time>2021-07-06T21:25:24.696Z</time>
      </trkpt>
      <trkpt lat="45.99137" lon="1.44366">
        <ele>458.661283</ele>
        <time>2021-07-06T21:25:37.440Z</time>
      </trkpt>
      <trkpt lat="45.99095" lon="1.44403">
        <ele>458.007696</ele>
        <time>2021-07-06T21:25:51.649Z</time>
      </trkpt>
      <trkpt lat="45.99102" lon="1.44419">
        <ele>457.83069</ele>
        <time>2021-07-06T21:25:55.540Z</time>
      </trkpt>
      <trkpt lat="45.99096" lon="1.44426">
        <ele>457.73304</ele>
        <time>2021-07-06T21:25:57.456Z</time>
      </trkpt>
      <trkpt lat="45.99116" lon="1.44464">
        <ele>457.289274</ele>
        <time>2021-07-06T21:26:03.858Z</time>
      </trkpt>
      <trkpt lat="45.99096" lon="1.44426">
        <ele>457.007683</ele>
        <time>2021-07-06T21:26:10.404Z</time>
      </trkpt>
      <trkpt lat="45.99102" lon="1.44419">
        <ele>457.194278</ele>
        <time>2021-07-06T21:26:13.956Z</time>
      </trkpt>
      <trkpt lat="45.99095" lon="1.44403">
        <ele>457.532511</ele>
        <time>2021-07-06T21:26:19.021Z</time>
      </trkpt>
      <trkpt lat="45.99137" lon="1.44366">
        <ele>458.781418</ele>
        <time>2021-07-06T21:26:37.911Z</time>
      </trkpt>
      <trkpt lat="45.99177" lon="1.44324">
        <ele>460.022993</ele>
        <time>2021-07-06T21:27:01.094Z</time>
      </trkpt>
      <trkpt lat="45.99174" lon="1.44299">
        <ele>460.4823</ele>
        <time>2021-07-06T21:27:06.595Z</time>
      </trkpt>
      <trkpt lat="45.99151" lon="1.44215">
        <ele>462.880568</ele>
        <time>2021-07-06T21:27:33.988Z</time>
      </trkpt>
      <trkpt lat="45.99144" lon="1.4419">
        <ele>463.990803</ele>
        <time>2021-07-06T21:27:42.483Z</time>
      </trkpt>
      <trkpt lat="45.99141" lon="1.44109">
        <ele>467.347227</ele>
        <time>2021-07-06T21:28:08.483Z</time>
      </trkpt>
      <trkpt lat="45.99173" lon="1.44033">
        <ele>470.995945</ele>
        <time>2021-07-06T21:28:40.113Z</time>
      </trkpt>
      <trkpt lat="45.99191" lon="1.43901">
        <ele>479.062232</ele>
        <time>2021-07-06T21:29:40.065Z</time>
      </trkpt>
      <trkpt lat="45.99208" lon="1.43848">
        <ele>482.867121</ele>
        <time>2021-07-06T21:30:09.729Z</time>
      </trkpt>
      <trkpt lat="45.9921" lon="1.43825">
        <ele>484.323929</ele>
        <time>2021-07-06T21:30:20.876Z</time>
      </trkpt>
      <trkpt lat="45.99198" lon="1.43737">
        <ele>490.027325</ele>
        <time>2021-07-06T21:31:04.672Z</time>
      </trkpt>
      <trkpt lat="45.99208" lon="1.43713">
        <ele>491.621202</ele>
        <time>2021-07-06T21:31:18.036Z</time>
      </trkpt>
      <trkpt lat="45.99231" lon="1.43683">
        <ele>494.197191</ele>
        <time>2021-07-06T21:31:38.996Z</time>
      </trkpt>
      <trkpt lat="45.99237" lon="1.43664">
        <ele>495.417007</ele>
        <time>2021-07-06T21:31:48.639Z</time>
      </trkpt>
      <trkpt lat="45.99239" lon="1.43632">
        <ele>497.272621</ele>
        <time>2021-07-06T21:32:03.067Z</time>
      </trkpt>
      <trkpt lat="45.99232" lon="1.43579">
        <ele>500.338866</ele>
        <time>2021-07-06T21:32:25.751Z</time>
      </trkpt>
      <trkpt lat="45.99215" lon="1.43528">
        <ele>503.61768</ele>
        <time>2021-07-06T21:32:47.778Z</time>
      </trkpt>
      <trkpt lat="45.99143" lon="1.43412">
        <ele>507.9897</ele>
        <time>2021-07-06T21:33:34.851Z</time>
      </trkpt>
      <trkpt lat="45.99136" lon="1.43394">
        <ele>508.574793</ele>
        <time>2021-07-06T21:33:40.037Z</time>
      </trkpt>
      <trkpt lat="45.99125" lon="1.43373">
        <ele>509.270887</ele>
        <time>2021-07-06T21:33:45.877Z</time>
      </trkpt>
      <trkpt lat="45.99117" lon="1.43349">
        <ele>510.024174</ele>
        <time>2021-07-06T21:33:51.940Z</time>
      </trkpt>
      <trkpt lat="45.99113" lon="1.43314">
        <ele>510.943049</ele>
        <time>2021-07-06T21:33:59.174Z</time>
      </trkpt>
      <trkpt lat="45.99112" lon="1.43282">
        <ele>511.238484</ele>
        <time>2021-07-06T21:34:05.652Z</time>
      </trkpt>
      <trkpt lat="45.99128" lon="1.43152">
        <ele>512.429289</ele>
        <time>2021-07-06T21:34:30.757Z</time>
      </trkpt>
      <trkpt lat="45.99149" lon="1.43036">
        <ele>513.254814</ele>
        <time>2021-07-06T21:34:51.442Z</time>
      </trkpt>
      <trkpt lat="45.9915" lon="1.42956">
        <ele>513.216202</ele>
        <time>2021-07-06T21:35:02.770Z</time>
      </trkpt>
      <trkpt lat="45.99151" lon="1.42857">
        <ele>513.168562</ele>
        <time>2021-07-06T21:35:15.096Z</time>
      </trkpt>
      <trkpt lat="45.99157" lon="1.42866">
        <ele>513.16233</ele>
        <time>2021-07-06T21:35:17.609Z</time>
      </trkpt>
      <trkpt lat="45.99185" lon="1.42928">
        <ele>513.859854</ele>
        <time>2021-07-06T21:35:35.678Z</time>
      </trkpt>
      <trkpt lat="45.99194" lon="1.42932">
        <ele>514.137525</ele>
        <time>2021-07-06T21:35:38.278Z</time>
      </trkpt>
      <trkpt lat="45.99224" lon="1.42921">
        <ele>515.069715</ele>
        <time>2021-07-06T21:35:50.563Z</time>
      </trkpt>
      <trkpt lat="45.99229" lon="1.42921">
        <ele>515.245765</ele>
        <time>2021-07-06T21:35:52.068Z</time>
      </trkpt>
      <trkpt lat="45.99241" lon="1.42913">
        <ele>515.628875</ele>
        <time>2021-07-06T21:35:57.177Z</time>
      </trkpt>
      <trkpt lat="45.99265" lon="1.42872">
        <ele>516.774791</ele>
        <time>2021-07-06T21:36:14.206Z</time>
      </trkpt>
      <trkpt lat="45.9931" lon="1.4277">
        <ele>520.780447</ele>
        <time>2021-07-06T21:37:06.360Z</time>
      </trkpt>
      <trkpt lat="45.9932" lon="1.42758">
        <ele>521.968439</ele>
        <time>2021-07-06T21:37:14.814Z</time>
      </trkpt>
      <trkpt lat="45.99322" lon="1.42727">
        <ele>524.015673</ele>
        <time>2021-07-06T21:37:32.653Z</time>
      </trkpt>
      <trkpt lat="45.99333" lon="1.42712">
        <ele>525.366091</ele>
        <time>2021-07-06T21:37:44.610Z</time>
      </trkpt>
      <trkpt lat="45.99338" lon="1.42665">
        <ele>528.396371</ele>
        <time>2021-07-06T21:38:11.456Z</time>
      </trkpt>
      <trkpt lat="45.99389" lon="1.42587">
        <ele>535.245355</ele>
        <time>2021-07-06T21:39:14.472Z</time>
      </trkpt>
      <trkpt lat="45.9939" lon="1.4257">
        <ele>536.418342</ele>
        <time>2021-07-06T21:39:24.112Z</time>
      </trkpt>
      <trkpt lat="45.99351" lon="1.42512">
        <ele>542.007526</ele>
        <time>2021-07-06T21:40:12.752Z</time>
      </trkpt>
      <trkpt lat="45.99344" lon="1.42473">
        <ele>544.802066</ele>
        <time>2021-07-06T21:40:36.013Z</time>
      </trkpt>
      <trkpt lat="45.9934" lon="1.42462">
        <ele>545.686391</ele>
        <time>2021-07-06T21:40:43.259Z</time>
      </trkpt>
      <trkpt lat="45.99331" lon="1.42441">
        <ele>547.382274</ele>
        <time>2021-07-06T21:40:56.473Z</time>
      </trkpt>
      <trkpt lat="45.99323" lon="1.42428">
        <ele>548.583466</ele>
        <time>2021-07-06T21:41:06.356Z</time>
      </trkpt>
      <trkpt lat="45.99321" lon="1.42422">
        <ele>549.081946</ele>
        <time>2021-07-06T21:41:10.456Z</time>
      </trkpt>
      <trkpt lat="45.99326" lon="1.42398">
        <ele>550.826473</ele>
        <time>2021-07-06T21:41:23.638Z</time>
      </trkpt>
      <trkpt lat="45.99349" lon="1.42412">
        <ele>553.239907</ele>
        <time>2021-07-06T21:41:43.250Z</time>
      </trkpt>
      <trkpt lat="45.99369" lon="1.42405">
        <ele>554.937719</ele>
        <time>2021-07-06T21:41:59.241Z</time>
      </trkpt>
      <trkpt lat="45.99447" lon="1.42358">
        <ele>561.772797</ele>
        <time>2021-07-06T21:43:02.342Z</time>
      </trkpt>
      <trkpt lat="45.99465" lon="1.4234">
        <ele>563.513901</ele>
        <time>2021-07-06T21:43:17.777Z</time>
      </trkpt>
      <trkpt lat="45.99499" lon="1.4226">
        <ele>568.717506</ele>
        <time>2021-07-06T21:44:02.090Z</time>
      </trkpt>
      <trkpt lat="45.99547" lon="1.42175">
        <ele>574.368753</ele>
        <time>2021-07-06T21:44:48.583Z</time>
      </trkpt>
      <trkpt lat="45.99579" lon="1.42027">
        <ele>582.958731</ele>
        <time>2021-07-06T21:46:07.707Z</time>
      </trkpt>
      <trkpt lat="45.99572" lon="1.41975">
        <ele>586.845745</ele>
        <time>2021-07-06T21:46:37.244Z</time>
      </trkpt>
      <trkpt lat="45.99572" lon="1.41974">
        <ele>586.946219</ele>
        <time>2021-07-06T21:46:38.023Z</time>
      </trkpt>
      <trkpt lat="45.9958" lon="1.4194">
        <ele>589.558323</ele>
        <time>2021-07-06T21:46:59.387Z</time>
      </trkpt>
      <trkpt lat="45.99595" lon="1.41919">
        <ele>591.785278</ele>
        <time>2021-07-06T21:47:14.834Z</time>
      </trkpt>
      <trkpt lat="45.996" lon="1.41914">
        <ele>592.43654</ele>
        <time>2021-07-06T21:47:22.089Z</time>
      </trkpt>
      <trkpt lat="45.99636" lon="1.41915">
        <ele>596.195737</ele>
        <time>2021-07-06T21:47:53.947Z</time>
      </trkpt>
      <trkpt lat="45.99721" lon="1.41896">
        <ele>605.196415</ele>
        <time>2021-07-06T21:49:13.385Z</time>
      </trkpt>
      <trkpt lat="45.99757" lon="1.41881">
        <ele>609.195531</ele>
        <time>2021-07-06T21:49:48.262Z</time>
      </trkpt>
      <trkpt lat="45.99776" lon="1.41868">
        <ele>611.353701</ele>
        <time>2021-07-06T21:50:06.926Z</time>
      </trkpt>
      <trkpt lat="45.99788" lon="1.41868">
        <ele>612.590614</ele>
        <time>2021-07-06T21:50:16.212Z</time>
      </trkpt>
      <trkpt lat="45.99807" lon="1.4187">
        <ele>614.576597</ele>
        <time>2021-07-06T21:50:30.930Z</time>
      </trkpt>
      <trkpt lat="45.99825" lon="1.4186">
        <ele>616.637355</ele>
        <time>2021-07-06T21:50:45.505Z</time>
      </trkpt>
      <trkpt lat="45.99831" lon="1.4185">
        <ele>617.563808</ele>
        <time>2021-07-06T21:50:52.422Z</time>
      </trkpt>
      <trkpt lat="45.99828" lon="1.41896">
        <ele>619.671329</ele>
        <time>2021-07-06T21:51:15.083Z</time>
      </trkpt>
      <trkpt lat="45.9984" lon="1.41917">
        <ele>620.426165</ele>
        <time>2021-07-06T21:51:27.753Z</time>
      </trkpt>
      <trkpt lat="45.99842" lon="1.41953">
        <ele>621.448899</ele>
        <time>2021-07-06T21:51:44.243Z</time>
      </trkpt>
      <trkpt lat="45.99844" lon="1.41996">
        <ele>622.647895</ele>
        <time>2021-07-06T21:52:02.466Z</time>
      </trkpt>
      <trkpt lat="46.00042" lon="1.42104">
        <ele>624.928706</ele>
        <time>2021-07-06T21:53:17.368Z</time>
      </trkpt>
      <trkpt lat="46.00278" lon="1.42218">
        <ele>614.807955</ele>
        <time>2021-07-06T21:54:18.544Z</time>
      </trkpt>
      <trkpt lat="46.00404" lon="1.42287">
        <ele>604.504098</ele>
        <time>2021-07-06T21:54:48.029Z</time>
      </trkpt>
      <trkpt lat="46.00439" lon="1.4231">
        <ele>601.998242</ele>
        <time>2021-07-06T21:54:56.545Z</time>
      </trkpt>
      <trkpt lat="46.00526" lon="1.42351">
        <ele>599.750775</ele>
        <time>2021-07-06T21:55:19.008Z</time>
      </trkpt>
      <trkpt lat="46.00549" lon="1.42362">
        <ele>599.174147</ele>
        <time>2021-07-06T21:55:25.471Z</time>
      </trkpt>
      <trkpt lat="46.00662" lon="1.42419">
        <ele>599.639695</ele>
        <time>2021-07-06T21:56:18.748Z</time>
      </trkpt>
      <trkpt lat="46.00763" lon="1.42472">
        <ele>602.769824</ele>
        <time>2021-07-06T21:57:15.842Z</time>
      </trkpt>
      <trkpt lat="46.00802" lon="1.42485">
        <ele>602.61973</ele>
        <time>2021-07-06T21:57:29.571Z</time>
      </trkpt>
      <trkpt lat="46.00824" lon="1.42485">
        <ele>602.314266</ele>
        <time>2021-07-06T21:57:36.501Z</time>
      </trkpt>
      <trkpt lat="46.00828" lon="1.42487">
        <ele>602.249823</ele>
        <time>2021-07-06T21:57:37.954Z</time>
      </trkpt>
      <trkpt lat="46.00854" lon="1.42501">
        <ele>601.876632</ele>
        <time>2021-07-06T21:57:45.441Z</time>
      </trkpt>
      <trkpt lat="46.00861" lon="1.42498">
        <ele>601.767735</ele>
        <time>2021-07-06T21:57:47.809Z</time>
      </trkpt>
      <trkpt lat="46.00878" lon="1.42441">
        <ele>601.184831</ele>
        <time>2021-07-06T21:57:59.100Z</time>
      </trkpt>
      <trkpt lat="46.00891" lon="1.42429">
        <ele>600.967176</ele>
        <time>2021-07-06T21:58:03.179Z</time>
      </trkpt>
      <trkpt lat="46.00907" lon="1.42426">
        <ele>600.746535</ele>
        <time>2021-07-06T21:58:07.579Z</time>
      </trkpt>
      <trkpt lat="46.00916" lon="1.42426">
        <ele>600.631486</ele>
        <time>2021-07-06T21:58:09.462Z</time>
      </trkpt>
      <trkpt lat="46.00938" lon="1.42426">
        <ele>599.923285</ele>
        <time>2021-07-06T21:58:15.399Z</time>
      </trkpt>
      <trkpt lat="46.00955" lon="1.42434">
        <ele>599.290693</ele>
        <time>2021-07-06T21:58:19.593Z</time>
      </trkpt>
      <trkpt lat="46.00966" lon="1.42458">
        <ele>598.572162</ele>
        <time>2021-07-06T21:58:24.873Z</time>
      </trkpt>
      <trkpt lat="46.00964" lon="1.42483">
        <ele>597.956403</ele>
        <time>2021-07-06T21:58:28.952Z</time>
      </trkpt>
      <trkpt lat="46.00931" lon="1.42547">
        <ele>595.947858</ele>
        <time>2021-07-06T21:58:43.069Z</time>
      </trkpt>
      <trkpt lat="46.00912" lon="1.42612">
        <ele>594.182554</ele>
        <time>2021-07-06T21:58:55.530Z</time>
      </trkpt>
      <trkpt lat="46.00899" lon="1.42675">
        <ele>593.490107</ele>
        <time>2021-07-06T21:59:07.684Z</time>
      </trkpt>
      <trkpt lat="46.00894" lon="1.42803">
        <ele>592.216194</ele>
        <time>2021-07-06T21:59:32.255Z</time>
      </trkpt>
      <trkpt lat="46.00902" lon="1.42836">
        <ele>591.878596</ele>
        <time>2021-07-06T21:59:39.394Z</time>
      </trkpt>
      <trkpt lat="46.00928" lon="1.42881">
        <ele>592.005369</ele>
        <time>2021-07-06T21:59:54.945Z</time>
      </trkpt>
      <trkpt lat="46.01001" lon="1.42964">
        <ele>594.381171</ele>
        <time>2021-07-06T22:00:35.985Z</time>
      </trkpt>
      <trkpt lat="46.0105" lon="1.42984">
        <ele>595.680377</ele>
        <time>2021-07-06T22:01:01.747Z</time>
      </trkpt>
      <trkpt lat="46.01127" lon="1.42964">
        <ele>597.517443</ele>
        <time>2021-07-06T22:01:31.491Z</time>
      </trkpt>
      <trkpt lat="46.01161" lon="1.42971">
        <ele>598.305886</ele>
        <time>2021-07-06T22:01:44.657Z</time>
      </trkpt>
      <trkpt lat="46.0116" lon="1.43009">
        <ele>598.911551</ele>
        <time>2021-07-06T22:01:53.687Z</time>
      </trkpt>
      <trkpt lat="46.01161" lon="1.43038">
        <ele>599.369693</ele>
        <time>2021-07-06T22:01:59.236Z</time>
      </trkpt>
      <trkpt lat="46.01162" lon="1.43067">
        <ele>599.840166</ele>
        <time>2021-07-06T22:02:03.869Z</time>
      </trkpt>
      <trkpt lat="46.01159" lon="1.43108">
        <ele>600.281825</ele>
        <time>2021-07-06T22:02:09.861Z</time>
      </trkpt>
      <trkpt lat="46.01162" lon="1.43119">
        <ele>600.289785</ele>
        <time>2021-07-06T22:02:11.459Z</time>
      </trkpt>
      <trkpt lat="46.01162" lon="1.4312">
        <ele>600.290208</ele>
        <time>2021-07-06T22:02:11.717Z</time>
      </trkpt>
      <trkpt lat="46.01173" lon="1.43133">
        <ele>600.303263</ele>
        <time>2021-07-06T22:02:14.243Z</time>
      </trkpt>
      <trkpt lat="46.01152" lon="1.43123">
        <ele>600.323336</ele>
        <time>2021-07-06T22:02:17.731Z</time>
      </trkpt>
      <trkpt lat="46.01124" lon="1.43107">
        <ele>600.351142</ele>
        <time>2021-07-06T22:02:22.561Z</time>
      </trkpt>
      <trkpt lat="46.01053" lon="1.43068">
        <ele>600.421165</ele>
        <time>2021-07-06T22:02:38.535Z</time>
      </trkpt>
      <trkpt lat="46.01017" lon="1.43049">
        <ele>601.127314</ele>
        <time>2021-07-06T22:02:48.453Z</time>
      </trkpt>
      <trkpt lat="46.01002" lon="1.43074">
        <ele>601.966158</ele>
        <time>2021-07-06T22:02:57.698Z</time>
      </trkpt>
      <trkpt lat="46.01001" lon="1.43089">
        <ele>602.354805</ele>
        <time>2021-07-06T22:03:01.191Z</time>
      </trkpt>
      <trkpt lat="46.01001" lon="1.43102">
        <ele>602.674879</ele>
        <time>2021-07-06T22:03:06.572Z</time>
      </trkpt>
      <trkpt lat="46.01002" lon="1.43139">
        <ele>603.626779</ele>
        <time>2021-07-06T22:03:15.786Z</time>
      </trkpt>
      <trkpt lat="46.00994" lon="1.43174">
        <ele>604.556589</ele>
        <time>2021-07-06T22:03:28.392Z</time>
      </trkpt>
      <trkpt lat="46.00977" lon="1.43221">
        <ele>605.901688</ele>
        <time>2021-07-06T22:03:49.013Z</time>
      </trkpt>
      <trkpt lat="46.0095" lon="1.43272">
        <ele>608.263905</ele>
        <time>2021-07-06T22:04:20.311Z</time>
      </trkpt>
      <trkpt lat="46.00945" lon="1.43292">
        <ele>609.505181</ele>
        <time>2021-07-06T22:04:31.357Z</time>
      </trkpt>
      <trkpt lat="46.00943" lon="1.43321">
        <ele>611.24993</ele>
        <time>2021-07-06T22:04:46.696Z</time>
      </trkpt>
      <trkpt lat="46.0095" lon="1.43342">
        <ele>612.666907</ele>
        <time>2021-07-06T22:04:56.997Z</time>
      </trkpt>
      <trkpt lat="46.00978" lon="1.43384">
        <ele>616.178977</ele>
        <time>2021-07-06T22:05:26.383Z</time>
      </trkpt>
      <trkpt lat="46.0098" lon="1.43404">
        <ele>617.390649</ele>
        <time>2021-07-06T22:05:38.701Z</time>
      </trkpt>
      <trkpt lat="46.00975" lon="1.43444">
        <ele>619.834503</ele>
        <time>2021-07-06T22:05:59.286Z</time>
      </trkpt>
      <trkpt lat="46.00957" lon="1.435">
        <ele>623.923863</ele>
        <time>2021-07-06T22:06:36.629Z</time>
      </trkpt>
      <trkpt lat="46.00945" lon="1.43522">
        <ele>626.205413</ele>
        <time>2021-07-06T22:06:50.773Z</time>
      </trkpt>
      <trkpt lat="46.00913" lon="1.43561">
        <ele>631.073043</ele>
        <time>2021-07-06T22:07:30.213Z</time>
      </trkpt>
      <trkpt lat="46.00881" lon="1.436">
        <ele>636.040698</ele>
        <time>2021-07-06T22:08:10.884Z</time>
      </trkpt>
      <trkpt lat="46.00852" lon="1.43622">
        <ele>639.898146</ele>
        <time>2021-07-06T22:08:39.853Z</time>
      </trkpt>
      <trkpt lat="46.0085" lon="1.43633">
        <ele>640.83763</ele>
        <time>2021-07-06T22:08:49.387Z</time>
      </trkpt>
      <trkpt lat="46.00847" lon="1.43643">
        <ele>641.754895</ele>
        <time>2021-07-06T22:08:57.917Z</time>
      </trkpt>
      <trkpt lat="46.00853" lon="1.43663">
        <ele>643.503314</ele>
        <time>2021-07-06T22:09:08.321Z</time>
      </trkpt>
      <trkpt lat="46.00858" lon="1.43678">
        <ele>644.912422</ele>
        <time>2021-07-06T22:09:20.302Z</time>
      </trkpt>
      <trkpt lat="46.00861" lon="1.43686">
        <ele>645.640745</ele>
        <time>2021-07-06T22:09:28.347Z</time>
      </trkpt>
      <trkpt lat="46.00865" lon="1.43713">
        <ele>647.867914</ele>
        <time>2021-07-06T22:09:42.418Z</time>
      </trkpt>
      <trkpt lat="46.00857" lon="1.43759">
        <ele>651.782884</ele>
        <time>2021-07-06T22:10:13.841Z</time>
      </trkpt>
      <trkpt lat="46.00837" lon="1.43809">
        <ele>656.460047</ele>
        <time>2021-07-06T22:10:50.703Z</time>
      </trkpt>
      <trkpt lat="46.00824" lon="1.4386">
        <ele>660.849884</ele>
        <time>2021-07-06T22:11:26.219Z</time>
      </trkpt>
      <trkpt lat="46.00815" lon="1.43939">
        <ele>666.938688</ele>
        <time>2021-07-06T22:12:13.805Z</time>
      </trkpt>
      <trkpt lat="46.00824" lon="1.43991">
        <ele>670.593743</ele>
        <time>2021-07-06T22:12:44.432Z</time>
      </trkpt>
      <trkpt lat="46.00851" lon="1.44087">
        <ele>677.562289</ele>
        <time>2021-07-06T22:13:41.970Z</time>
      </trkpt>
      <trkpt lat="46.00886" lon="1.44166">
        <ele>683.419135</ele>
        <time>2021-07-06T22:14:32.595Z</time>
      </trkpt>
      <trkpt lat="46.00914" lon="1.44249">
        <ele>687.602253</ele>
        <time>2021-07-06T22:15:18.129Z</time>
      </trkpt>
      <trkpt lat="46.00926" lon="1.4432">
        <ele>690.965988</ele>
        <time>2021-07-06T22:15:50.489Z</time>
      </trkpt>
      <trkpt lat="46.00937" lon="1.44376">
        <ele>693.593949</ele>
        <time>2021-07-06T22:16:13.013Z</time>
      </trkpt>
      <trkpt lat="46.00952" lon="1.44372">
        <ele>694.332716</ele>
        <time>2021-07-06T22:16:19.220Z</time>
      </trkpt>
      <trkpt lat="46.0101" lon="1.44354">
        <ele>695.504605</ele>
        <time>2021-07-06T22:16:40.857Z</time>
      </trkpt>
      <trkpt lat="46.01039" lon="1.44347">
        <ele>696.078315</ele>
        <time>2021-07-06T22:16:50.007Z</time>
      </trkpt>
      <trkpt lat="46.01054" lon="1.44355">
        <ele>696.384852</ele>
        <time>2021-07-06T22:16:55.180Z</time>
      </trkpt>
      <trkpt lat="46.01079" lon="1.44366">
        <ele>696.910877</ele>
        <time>2021-07-06T22:17:03.504Z</time>
      </trkpt>
      <trkpt lat="46.01101" lon="1.44366">
        <ele>697.350391</ele>
        <time>2021-07-06T22:17:09.347Z</time>
      </trkpt>
      <trkpt lat="46.01079" lon="1.44366">
        <ele>697.721469</ele>
        <time>2021-07-06T22:17:14.863Z</time>
      </trkpt>
      <trkpt lat="46.01054" lon="1.44355">
        <ele>697.433911</ele>
        <time>2021-07-06T22:17:21.056Z</time>
      </trkpt>
      <trkpt lat="46.01039" lon="1.44347">
        <ele>697.266339</ele>
        <time>2021-07-06T22:17:24.817Z</time>
      </trkpt>
      <trkpt lat="46.0101" lon="1.44354">
        <ele>696.952713</ele>
        <time>2021-07-06T22:17:30.015Z</time>
      </trkpt>
      <trkpt lat="46.00952" lon="1.44372">
        <ele>696.312086</ele>
        <time>2021-07-06T22:17:40.285Z</time>
      </trkpt>
      <trkpt lat="46.00937" lon="1.44376">
        <ele>696.140557</ele>
        <time>2021-07-06T22:17:43.130Z</time>
      </trkpt>
      <trkpt lat="46.00947" lon="1.44396">
        <ele>695.9517</ele>
        <time>2021-07-06T22:17:47.969Z</time>
      </trkpt>
      <trkpt lat="46.00963" lon="1.44494">
        <ele>693.93178</ele>
        <time>2021-07-06T22:18:07.663Z</time>
      </trkpt>
      <trkpt lat="46.00985" lon="1.44519">
        <ele>693.024846</ele>
        <time>2021-07-06T22:18:14.989Z</time>
      </trkpt>
      <trkpt lat="46.00967" lon="1.44529">
        <ele>692.385237</ele>
        <time>2021-07-06T22:18:19.851Z</time>
      </trkpt>
      <trkpt lat="46.00953" lon="1.44543">
        <ele>691.815529</ele>
        <time>2021-07-06T22:18:24.232Z</time>
      </trkpt>
      <trkpt lat="46.00915" lon="1.44564">
        <ele>690.489233</ele>
        <time>2021-07-06T22:18:34.211Z</time>
      </trkpt>
      <trkpt lat="46.00882" lon="1.44574">
        <ele>688.768228</ele>
        <time>2021-07-06T22:18:42.264Z</time>
      </trkpt>
      <trkpt lat="46.00858" lon="1.44584">
        <ele>686.867276</ele>
        <time>2021-07-06T22:18:48.321Z</time>
      </trkpt>
      <trkpt lat="46.00851" lon="1.44627">
        <ele>684.621392</ele>
        <time>2021-07-06T22:18:52.468Z</time>
      </trkpt>
      <trkpt lat="46.00848" lon="1.44718">
        <ele>679.921032</ele>
        <time>2021-07-06T22:19:00.961Z</time>
      </trkpt>
      <trkpt lat="46.00851" lon="1.44782">
        <ele>676.622949</ele>
        <time>2021-07-06T22:19:06.607Z</time>
      </trkpt>
      <trkpt lat="46.00843" lon="1.44815">
        <ele>674.24814</ele>
        <time>2021-07-06T22:19:09.675Z</time>
      </trkpt>
      <trkpt lat="46.008" lon="1.44923">
        <ele>665.806696</ele>
        <time>2021-07-06T22:19:20.679Z</time>
      </trkpt>
      <trkpt lat="46.00796" lon="1.44966">
        <ele>662.855994</ele>
        <time>2021-07-06T22:19:24.512Z</time>
      </trkpt>
      <trkpt lat="46.00805" lon="1.44996">
        <ele>660.653325</ele>
        <time>2021-07-06T22:19:27.401Z</time>
      </trkpt>
      <trkpt lat="46.00821" lon="1.45029">
        <ele>658.082454</ele>
        <time>2021-07-06T22:19:31.076Z</time>
      </trkpt>
      <trkpt lat="46.00843" lon="1.45051">
        <ele>655.943116</ele>
        <time>2021-07-06T22:19:34.591Z</time>
      </trkpt>
      <trkpt lat="46.00913" lon="1.45076">
        <ele>650.252575</ele>
        <time>2021-07-06T22:19:43.888Z</time>
      </trkpt>
      <trkpt lat="46.00928" lon="1.4509">
        <ele>648.832851</ele>
        <time>2021-07-06T22:19:46.253Z</time>
      </trkpt>
      <trkpt lat="46.0097" lon="1.4516">
        <ele>643.966923</ele>
        <time>2021-07-06T22:19:55.070Z</time>
      </trkpt>
      <trkpt lat="46.00999" lon="1.45189">
        <ele>641.815907</ele>
        <time>2021-07-06T22:20:00.010Z</time>
      </trkpt>
      <trkpt lat="46.01029" lon="1.4522">
        <ele>639.566641</ele>
        <time>2021-07-06T22:20:05.087Z</time>
      </trkpt>
      <trkpt lat="46.01005" lon="1.45259">
        <ele>637.362214</ele>
        <time>2021-07-06T22:20:13.661Z</time>
      </trkpt>
      <trkpt lat="46.0095" lon="1.45347">
        <ele>631.949374</ele>
        <time>2021-07-06T22:20:33.098Z</time>
      </trkpt>
      <trkpt lat="46.00932" lon="1.4535">
        <ele>630.516799</ele>
        <time>2021-07-06T22:20:35.270Z</time>
      </trkpt>
      <trkpt lat="46.00907" lon="1.4536">
        <ele>628.462761</ele>
        <time>2021-07-06T22:20:38.661Z</time>
      </trkpt>
      <trkpt lat="46.00874" lon="1.45385">
        <ele>625.514091</ele>
        <time>2021-07-06T22:20:43.340Z</time>
      </trkpt>
      <trkpt lat="46.00832" lon="1.45417">
        <ele>621.731842</ele>
        <time>2021-07-06T22:20:49.123Z</time>
      </trkpt>
      <trkpt lat="46.0081" lon="1.45405">
        <ele>619.864201</ele>
        <time>2021-07-06T22:20:53.143Z</time>
      </trkpt>
      <trkpt lat="46.00812" lon="1.45388">
        <ele>618.561265</ele>
        <time>2021-07-06T22:20:55.565Z</time>
      </trkpt>
      <trkpt lat="46.0082" lon="1.45368">
        <ele>616.531619</ele>
        <time>2021-07-06T22:20:59.114Z</time>
      </trkpt>
      <trkpt lat="46.00816" lon="1.45355">
        <ele>615.278171</ele>
        <time>2021-07-06T22:21:01.256Z</time>
      </trkpt>
      <trkpt lat="46.00776" lon="1.45337">
        <ele>609.90563</ele>
        <time>2021-07-06T22:21:10.167Z</time>
      </trkpt>
      <trkpt lat="46.00719" lon="1.45299">
        <ele>602.069666</ele>
        <time>2021-07-06T22:21:22.939Z</time>
      </trkpt>
      <trkpt lat="46.00696" lon="1.45275">
        <ele>598.445265</ele>
        <time>2021-07-06T22:21:28.765Z</time>
      </trkpt>
      <trkpt lat="46.00687" lon="1.45248">
        <ele>595.729875</ele>
        <time>2021-07-06T22:21:32.914Z</time>
      </trkpt>
      <trkpt lat="46.00584" lon="1.45132">
        <ele>576.377394</ele>
        <time>2021-07-06T22:21:59.550Z</time>
      </trkpt>
      <trkpt lat="46.00535" lon="1.45116">
        <ele>568.925293</ele>
        <time>2021-07-06T22:22:09.781Z</time>
      </trkpt>
      <trkpt lat="46.00503" lon="1.45077">
        <ele>562.734128</ele>
        <time>2021-07-06T22:22:18.213Z</time>
      </trkpt>
      <trkpt lat="46.00462" lon="1.44996">
        <ele>552.409377</ele>
        <time>2021-07-06T22:22:32.212Z</time>
      </trkpt>
      <trkpt lat="46.00431" lon="1.44922">
        <ele>543.439019</ele>
        <time>2021-07-06T22:22:44.502Z</time>
      </trkpt>
      <trkpt lat="46.00397" lon="1.44902">
        <ele>538.437706</ele>
        <time>2021-07-06T22:22:52.075Z</time>
      </trkpt>
      <trkpt lat="46.00336" lon="1.44865">
        <ele>529.521525</ele>
        <time>2021-07-06T22:23:05.617Z</time>
      </trkpt>
      <trkpt lat="46.00301" lon="1.44836">
        <ele>524.072863</ele>
        <time>2021-07-06T22:23:13.960Z</time>
      </trkpt>
      <trkpt lat="46.00268" lon="1.44781">
        <ele>517.182308</ele>
        <time>2021-07-06T22:23:24.514Z</time>
      </trkpt>
      <trkpt lat="46.00224" lon="1.44741">
        <ele>509.851492</ele>
        <time>2021-07-06T22:23:35.204Z</time>
      </trkpt>
      <trkpt lat="46.00193" lon="1.44698">
        <ele>503.688105</ele>
        <time>2021-07-06T22:23:44.088Z</time>
      </trkpt>
      <trkpt lat="46.00176" lon="1.44659">
        <ele>499.163826</ele>
        <time>2021-07-06T22:23:50.584Z</time>
      </trkpt>
      <trkpt lat="46.00156" lon="1.44634">
        <ele>495.496525</ele>
        <time>2021-07-06T22:23:55.847Z</time>
      </trkpt>
      <trkpt lat="46.00127" lon="1.44644">
        <ele>490.805178</ele>
        <time>2021-07-06T22:24:01.826Z</time>
      </trkpt>
      <trkpt lat="46.0009" lon="1.44666">
        <ele>484.076773</ele>
        <time>2021-07-06T22:24:09.849Z</time>
      </trkpt>
      <trkpt lat="46.00067" lon="1.44664">
        <ele>480.100307</ele>
        <time>2021-07-06T22:24:14.545Z</time>
      </trkpt>
      <trkpt lat="46.00056" lon="1.44684">
        <ele>477.118471</ele>
        <time>2021-07-06T22:24:18.044Z</time>
      </trkpt>
      <trkpt lat="46.00021" lon="1.44711">
        <ele>470.48035</ele>
        <time>2021-07-06T22:24:25.879Z</time>
      </trkpt>
      <trkpt lat="46.00022" lon="1.44718">
        <ele>469.721012</ele>
        <time>2021-07-06T22:24:26.776Z</time>
      </trkpt>
      <trkpt lat="45.99996" lon="1.44723">
        <ele>465.276969</ele>
        <time>2021-07-06T22:24:32.069Z</time>
      </trkpt>
      <trkpt lat="45.99975" lon="1.44713">
        <ele>462.567506</ele>
        <time>2021-07-06T22:24:36.548Z</time>
      </trkpt>
      <trkpt lat="45.99968" lon="1.4469">
        <ele>460.906651</ele>
        <time>2021-07-06T22:24:40.023Z</time>
      </trkpt>
      <trkpt lat="45.99961" lon="1.44675">
        <ele>459.659396</ele>
        <time>2021-07-06T22:24:42.752Z</time>
      </trkpt>
      <trkpt lat="45.99938" lon="1.44631">
        <ele>455.983536</ele>
        <time>2021-07-06T22:24:50.832Z</time>
      </trkpt>
      <trkpt lat="45.99934" lon="1.44636">
        <ele>455.487936</ele>
        <time>2021-07-06T22:24:51.982Z</time>
      </trkpt>
      <trkpt lat="45.99937" lon="1.44668">
        <ele>453.305715</ele>
        <time>2021-07-06T22:24:56.844Z</time>
      </trkpt>
      <trkpt lat="45.99932" lon="1.44677">
        <ele>452.558772</ele>
        <time>2021-07-06T22:24:58.659Z</time>
      </trkpt>
      <trkpt lat="45.99922" lon="1.44673">
        <ele>451.546098</ele>
        <time>2021-07-06T22:25:01.025Z</time>
      </trkpt>
      <trkpt lat="45.99864" lon="1.44595">
        <ele>445.625507</ele>
        <time>2021-07-06T22:25:20.135Z</time>
      </trkpt>
      <trkpt lat="45.99869" lon="1.44585">
        <ele>445.361656</ele>
        <time>2021-07-06T22:25:22.492Z</time>
      </trkpt>
      <trkpt lat="45.99881" lon="1.44558">
        <ele>444.669885</ele>
        <time>2021-07-06T22:25:28.509Z</time>
      </trkpt>
      <trkpt lat="45.9986" lon="1.44478">
        <ele>442.810649</ele>
        <time>2021-07-06T22:25:44.131Z</time>
      </trkpt>
      <trkpt lat="45.99881" lon="1.44558">
        <ele>440.951414</ele>
        <time>2021-07-06T22:26:00.175Z</time>
      </trkpt>
      <trkpt lat="45.99869" lon="1.44585">
        <ele>440.370679</ele>
        <time>2021-07-06T22:26:06.307Z</time>
      </trkpt>
      <trkpt lat="45.99864" lon="1.44595">
        <ele>440.156269</ele>
        <time>2021-07-06T22:26:08.636Z</time>
      </trkpt>
      <trkpt lat="45.9985" lon="1.44639">
        <ele>439.298315</ele>
        <time>2021-07-06T22:26:17.522Z</time>
      </trkpt>
      <trkpt lat="45.99827" lon="1.44739">
        <ele>437.430806</ele>
        <time>2021-07-06T22:26:36.885Z</time>
      </trkpt>
      <trkpt lat="45.99838" lon="1.44763">
        <ele>436.938029</ele>
        <time>2021-07-06T22:26:41.879Z</time>
      </trkpt>
      <trkpt lat="45.99903" lon="1.44856">
        <ele>435.20366</ele>
        <time>2021-07-06T22:27:07.132Z</time>
      </trkpt>
      <trkpt lat="45.99912" lon="1.44878">
        <ele>434.902722</ele>
        <time>2021-07-06T22:27:12.222Z</time>
      </trkpt>
      <trkpt lat="45.99909" lon="1.44894">
        <ele>434.720728</ele>
        <time>2021-07-06T22:27:15.679Z</time>
      </trkpt>
      <trkpt lat="45.99879" lon="1.44955">
        <ele>433.869161</ele>
        <time>2021-07-06T22:27:30.343Z</time>
      </trkpt>
      <trkpt lat="45.99845" lon="1.45031">
        <ele>432.989795</ele>
        <time>2021-07-06T22:27:48.419Z</time>
      </trkpt>
      <trkpt lat="45.9983" lon="1.45051">
        <ele>432.760729</ele>
        <time>2021-07-06T22:27:54.162Z</time>
      </trkpt>
      <trkpt lat="45.99808" lon="1.45062">
        <ele>432.497885</ele>
        <time>2021-07-06T22:28:00.892Z</time>
      </trkpt>
      <trkpt lat="45.99695" lon="1.45032">
        <ele>431.33631</ele>
        <time>2021-07-06T22:28:34.128Z</time>
      </trkpt>
      <trkpt lat="45.99673" lon="1.45025">
        <ele>431.417053</ele>
        <time>2021-07-06T22:28:41.142Z</time>
      </trkpt>
      <trkpt lat="45.9968" lon="1.45056">
        <ele>431.496838</ele>
        <time>2021-07-06T22:28:48.119Z</time>
      </trkpt>
      <trkpt lat="45.99684" lon="1.45105">
        <ele>431.617156</ele>
        <time>2021-07-06T22:28:58.790Z</time>
      </trkpt>
      <trkpt lat="45.99683" lon="1.45156">
        <ele>431.740618</ele>
        <time>2021-07-06T22:29:11.110Z</time>
      </trkpt>
      <trkpt lat="45.99681" lon="1.45218">
        <ele>431.894643</ele>
        <time>2021-07-06T22:29:27.883Z</time>
      </trkpt>
      <trkpt lat="45.99685" lon="1.4528">
        <ele>432.677436</ele>
        <time>2021-07-06T22:29:44.849Z</time>
      </trkpt>
      <trkpt lat="45.99694" lon="1.45318">
        <ele>433.367566</ele>
        <time>2021-07-06T22:29:56.861Z</time>
      </trkpt>
      <trkpt lat="45.99692" lon="1.4534">
        <ele>433.736049</ele>
        <time>2021-07-06T22:30:03.612Z</time>
      </trkpt>
      <trkpt lat="45.99699" lon="1.45348">
        <ele>433.954351</ele>
        <time>2021-07-06T22:30:07.106Z</time>
      </trkpt>
      <trkpt lat="45.99704" lon="1.45343">
        <ele>434.097715</ele>
        <time>2021-07-06T22:30:10.942Z</time>
      </trkpt>
      <trkpt lat="45.99713" lon="1.45345">
        <ele>434.327388</ele>
        <time>2021-07-06T22:30:15.245Z</time>
      </trkpt>
      <trkpt lat="45.99725" lon="1.45382">
        <ele>435.022361</ele>
        <time>2021-07-06T22:30:29.126Z</time>
      </trkpt>
      <trkpt lat="45.99718" lon="1.45449">
        <ele>436.174763</ele>
        <time>2021-07-06T22:30:51.013Z</time>
      </trkpt>
      <trkpt lat="45.99726" lon="1.45489">
        <ele>436.449217</ele>
        <time>2021-07-06T22:31:03.387Z</time>
      </trkpt>
      <trkpt lat="45.99728" lon="1.45508">
        <ele>436.508112</ele>
        <time>2021-07-06T22:31:08.757Z</time>
      </trkpt>
      <trkpt lat="45.9973" lon="1.45533">
        <ele>436.587862</ele>
        <time>2021-07-06T22:31:16.286Z</time>
      </trkpt>
      <trkpt lat="45.9973" lon="1.45537">
        <ele>436.598749</ele>
        <time>2021-07-06T22:31:17.556Z</time>
      </trkpt>
      <trkpt lat="45.9974" lon="1.45562">
        <ele>436.688934</ele>
        <time>2021-07-06T22:31:24.767Z</time>
      </trkpt>
      <trkpt lat="45.99758" lon="1.45589">
        <ele>436.802475</ele>
        <time>2021-07-06T22:31:33.826Z</time>
      </trkpt>
      <trkpt lat="45.99777" lon="1.45647">
        <ele>437.001671</ele>
        <time>2021-07-06T22:31:47.580Z</time>
      </trkpt>
      <trkpt lat="45.99802" lon="1.45701">
        <ele>437.008186</ele>
        <time>2021-07-06T22:32:00.642Z</time>
      </trkpt>
      <trkpt lat="45.99813" lon="1.45755">
        <ele>436.500089</ele>
        <time>2021-07-06T22:32:10.802Z</time>
      </trkpt>
      <trkpt lat="45.99818" lon="1.45912">
        <ele>435.066525</ele>
        <time>2021-07-06T22:32:41.236Z</time>
      </trkpt>
      <trkpt lat="45.99818" lon="1.45978">
        <ele>435.297707</ele>
        <time>2021-07-06T22:32:56.142Z</time>
      </trkpt>
      <trkpt lat="45.99828" lon="1.46024">
        <ele>435.981065</ele>
        <time>2021-07-06T22:33:09.488Z</time>
      </trkpt>
      <trkpt lat="45.99846" lon="1.46049">
        <ele>436.491079</ele>
        <time>2021-07-06T22:33:21.092Z</time>
      </trkpt>
      <trkpt lat="45.99874" lon="1.46074">
        <ele>437.149316</ele>
        <time>2021-07-06T22:33:35.855Z</time>
      </trkpt>
      <trkpt lat="45.99931" lon="1.46154">
        <ele>438.494113</ele>
        <time>2021-07-06T22:34:14.406Z</time>
      </trkpt>
      <trkpt lat="45.99955" lon="1.46175">
        <ele>438.556345</ele>
        <time>2021-07-06T22:34:27.964Z</time>
      </trkpt>
      <trkpt lat="45.99961" lon="1.46195">
        <ele>438.590055</ele>
        <time>2021-07-06T22:34:32.973Z</time>
      </trkpt>
      <trkpt lat="46.00027" lon="1.46319">
        <ele>438.829574</ele>
        <time>2021-07-06T22:35:00.319Z</time>
      </trkpt>
      <trkpt lat="46.00043" lon="1.46395">
        <ele>436.828287</ele>
        <time>2021-07-06T22:35:10.515Z</time>
      </trkpt>
      <trkpt lat="46.00053" lon="1.46421">
        <ele>435.842437</ele>
        <time>2021-07-06T22:35:14.632Z</time>
      </trkpt>
      <trkpt lat="46.00039" lon="1.46436">
        <ele>435.023365</ele>
        <time>2021-07-06T22:35:18.526Z</time>
      </trkpt>
      <trkpt lat="46.00013" lon="1.46508">
        <ele>432.349576</ele>
        <time>2021-07-06T22:35:32.385Z</time>
      </trkpt>
      <trkpt lat="46.00007" lon="1.46537">
        <ele>431.370306</ele>
        <time>2021-07-06T22:35:37.024Z</time>
      </trkpt>
      <trkpt lat="46.00011" lon="1.46539">
        <ele>431.195293</ele>
        <time>2021-07-06T22:35:38.131Z</time>
      </trkpt>
      <trkpt lat="46.0001" lon="1.46551">
        <ele>430.798049</ele>
        <time>2021-07-06T22:35:39.321Z</time>
      </trkpt>
      <trkpt lat="46.00012" lon="1.46573">
        <ele>430.133102</ele>
        <time>2021-07-06T22:35:41.225Z</time>
      </trkpt>
      <trkpt lat="46.00044" lon="1.46631">
        <ele>428.313678</ele>
        <time>2021-07-06T22:35:48.009Z</time>
      </trkpt>
      <trkpt lat="46.00045" lon="1.46631">
        <ele>428.293204</ele>
        <time>2021-07-06T22:35:48.083Z</time>
      </trkpt>
      <trkpt lat="46.00046" lon="1.46669">
        <ele>427.36597</ele>
        <time>2021-07-06T22:35:51.650Z</time>
      </trkpt>
      <trkpt lat="46.00036" lon="1.46689">
        <ele>426.769463</ele>
        <time>2021-07-06T22:35:54.183Z</time>
      </trkpt>
      <trkpt lat="46.00034" lon="1.46692">
        <ele>426.661641</ele>
        <time>2021-07-06T22:35:54.562Z</time>
      </trkpt>
      <trkpt lat="46.0002" lon="1.46717">
        <ele>425.860418</ele>
        <time>2021-07-06T22:35:57.786Z</time>
      </trkpt>
      <trkpt lat="46" lon="1.46744">
        <ele>424.882691</ele>
        <time>2021-07-06T22:36:02.146Z</time>
      </trkpt>
      <trkpt lat="46.00011" lon="1.46745">
        <ele>424.499411</ele>
        <time>2021-07-06T22:36:04.156Z</time>
      </trkpt>
      <trkpt lat="46.00081" lon="1.46738">
        <ele>423.757111</ele>
        <time>2021-07-06T22:36:16.951Z</time>
      </trkpt>
      <trkpt lat="46.00115" lon="1.46763">
        <ele>423.612746</ele>
        <time>2021-07-06T22:36:24.465Z</time>
      </trkpt>
      <trkpt lat="46.00176" lon="1.46701">
        <ele>423.336331</ele>
        <time>2021-07-06T22:36:39.690Z</time>
      </trkpt>
      <trkpt lat="46.00212" lon="1.46666">
        <ele>423.196708</ele>
        <time>2021-07-06T22:36:47.702Z</time>
      </trkpt>
      <trkpt lat="46.00266" lon="1.46691">
        <ele>423.023721</ele>
        <time>2021-07-06T22:36:58.195Z</time>
      </trkpt>
      <trkpt lat="46.00269" lon="1.46692">
        <ele>423.013652</ele>
        <time>2021-07-06T22:36:59.279Z</time>
      </trkpt>
      <trkpt lat="46.00285" lon="1.46704">
        <ele>422.958056</ele>
        <time>2021-07-06T22:37:04.538Z</time>
      </trkpt>
      <trkpt lat="46.00301" lon="1.46719">
        <ele>422.899933</ele>
        <time>2021-07-06T22:37:10.779Z</time>
      </trkpt>
      <trkpt lat="46.00314" lon="1.46745">
        <ele>422.831199</ele>
        <time>2021-07-06T22:37:17.306Z</time>
      </trkpt>
      <trkpt lat="46.00334" lon="1.46803">
        <ele>422.898469</ele>
        <time>2021-07-06T22:37:30.789Z</time>
      </trkpt>
      <trkpt lat="46.00339" lon="1.46857">
        <ele>423.260849</ele>
        <time>2021-07-06T22:37:42.924Z</time>
      </trkpt>
      <trkpt lat="46.00349" lon="1.4688">
        <ele>423.441506</ele>
        <time>2021-07-06T22:37:48.833Z</time>
      </trkpt>
      <trkpt lat="46.00416" lon="1.46983">
        <ele>424.386302</ele>
        <time>2021-07-06T22:38:25.695Z</time>
      </trkpt>
      <trkpt lat="46.00428" lon="1.46982">
        <ele>424.680076</ele>
        <time>2021-07-06T22:38:33.184Z</time>
      </trkpt>
      <trkpt lat="46.00435" lon="1.46984">
        <ele>425.049385</ele>
        <time>2021-07-06T22:38:36.569Z</time>
      </trkpt>
      <trkpt lat="46.00457" lon="1.46994">
        <ele>426.435971</ele>
        <time>2021-07-06T22:38:47.114Z</time>
      </trkpt>
      <trkpt lat="46.00471" lon="1.47012">
        <ele>427.529707</ele>
        <time>2021-07-06T22:38:56.615Z</time>
      </trkpt>
      <trkpt lat="46.00475" lon="1.47045">
        <ele>428.877703</ele>
        <time>2021-07-06T22:39:08.213Z</time>
      </trkpt>
      <trkpt lat="46.00475" lon="1.47056">
        <ele>429.332041</ele>
        <time>2021-07-06T22:39:13.858Z</time>
      </trkpt>
      <trkpt lat="46.00477" lon="1.4708">
        <ele>430.285526</ele>
        <time>2021-07-06T22:39:21.691Z</time>
      </trkpt>
      <trkpt lat="46.00483" lon="1.47075">
        <ele>430.714653</ele>
        <time>2021-07-06T22:39:26.150Z</time>
      </trkpt>
      <trkpt lat="46.00506" lon="1.4708">
        <ele>432.034179</ele>
        <time>2021-07-06T22:39:37.277Z</time>
      </trkpt>
      <trkpt lat="46.00513" lon="1.47094">
        <ele>432.73336</ele>
        <time>2021-07-06T22:39:47.472Z</time>
      </trkpt>
      <trkpt lat="46.00516" lon="1.47116">
        <ele>433.638503</ele>
        <time>2021-07-06T22:39:57.803Z</time>
      </trkpt>
      <trkpt lat="46.00517" lon="1.47122">
        <ele>433.881636</ele>
        <time>2021-07-06T22:39:59.974Z</time>
      </trkpt>
      <trkpt lat="46.00525" lon="1.47164">
        <ele>436.180288</ele>
        <time>2021-07-06T22:40:20.510Z</time>
      </trkpt>
      <trkpt lat="46.00537" lon="1.47176">
        <ele>437.680958</ele>
        <time>2021-07-06T22:40:28.817Z</time>
      </trkpt>
      <trkpt lat="46.00552" lon="1.47178">
        <ele>439.136494</ele>
        <time>2021-07-06T22:40:39.584Z</time>
      </trkpt>
      <trkpt lat="46.00561" lon="1.47168">
        <ele>440.326557</ele>
        <time>2021-07-06T22:40:47.242Z</time>
      </trkpt>
      <trkpt lat="46.00568" lon="1.47156">
        <ele>441.362695</ele>
        <time>2021-07-06T22:40:53.806Z</time>
      </trkpt>
      <trkpt lat="46.00576" lon="1.47113">
        <ele>444.4498</ele>
        <time>2021-07-06T22:41:14.694Z</time>
      </trkpt>
      <trkpt lat="46.00577" lon="1.47107">
        <ele>444.900288</ele>
        <time>2021-07-06T22:41:19.291Z</time>
      </trkpt>
      <trkpt lat="46.00581" lon="1.47094">
        <ele>445.866772</ele>
        <time>2021-07-06T22:41:26.873Z</time>
      </trkpt>
      <trkpt lat="46.006" lon="1.47081">
        <ele>448.023404</ele>
        <time>2021-07-06T22:41:40.603Z</time>
      </trkpt>
      <trkpt lat="46.00667" lon="1.47109">
        <ele>454.871408</ele>
        <time>2021-07-06T22:42:31.640Z</time>
      </trkpt>
      <trkpt lat="46.00725" lon="1.47135">
        <ele>460.492514</ele>
        <time>2021-07-06T22:43:16.224Z</time>
      </trkpt>
      <trkpt lat="46.00747" lon="1.47147">
        <ele>462.702941</ele>
        <time>2021-07-06T22:43:30.963Z</time>
      </trkpt>
      <trkpt lat="46.00816" lon="1.47161">
        <ele>469.170416</ele>
        <time>2021-07-06T22:44:12.441Z</time>
      </trkpt>
      <trkpt lat="46.00852" lon="1.47146">
        <ele>472.118364</ele>
        <time>2021-07-06T22:44:34.337Z</time>
      </trkpt>
      <trkpt lat="46.0087" lon="1.47127">
        <ele>473.820276</ele>
        <time>2021-07-06T22:44:46.647Z</time>
      </trkpt>
      <trkpt lat="46.00874" lon="1.47124">
        <ele>474.209733</ele>
        <time>2021-07-06T22:44:49.729Z</time>
      </trkpt>
      <trkpt lat="46.00883" lon="1.47116">
        <ele>474.997978</ele>
        <time>2021-07-06T22:44:55.101Z</time>
      </trkpt>
      <trkpt lat="46.00898" lon="1.47115">
        <ele>476.155087</ele>
        <time>2021-07-06T22:45:04.440Z</time>
      </trkpt>
      <trkpt lat="46.00917" lon="1.47127">
        <ele>477.732449</ele>
        <time>2021-07-06T22:45:14.756Z</time>
      </trkpt>
      <trkpt lat="46.00925" lon="1.47128">
        <ele>478.349227</ele>
        <time>2021-07-06T22:45:20.088Z</time>
      </trkpt>
      <trkpt lat="46.00933" lon="1.47129">
        <ele>479.020102</ele>
        <time>2021-07-06T22:45:25.769Z</time>
      </trkpt>
      <trkpt lat="46.00945" lon="1.47119">
        <ele>480.04363</ele>
        <time>2021-07-06T22:45:32.688Z</time>
      </trkpt>
      <trkpt lat="46.00985" lon="1.47026">
        <ele>485.919666</ele>
        <time>2021-07-06T22:46:16.810Z</time>
      </trkpt>
      <trkpt lat="46.00991" lon="1.47019">
        <ele>486.514803</ele>
        <time>2021-07-06T22:46:21.965Z</time>
      </trkpt>
      <trkpt lat="46.01003" lon="1.47094">
        <ele>490.658222</ele>
        <time>2021-07-06T22:46:58.219Z</time>
      </trkpt>
      <trkpt lat="46.01023" lon="1.47212">
        <ele>497.248338</ele>
        <time>2021-07-06T22:47:57.383Z</time>
      </trkpt>
      <trkpt lat="46.0104" lon="1.4724">
        <ele>499.632932</ele>
        <time>2021-07-06T22:48:17.086Z</time>
      </trkpt>
      <trkpt lat="46.01046" lon="1.47375">
        <ele>508.481626</ele>
        <time>2021-07-06T22:49:29.845Z</time>
      </trkpt>
      <trkpt lat="46.0105" lon="1.47399">
        <ele>510.095365</ele>
        <time>2021-07-06T22:49:43.439Z</time>
      </trkpt>
      <trkpt lat="46.0105" lon="1.47399">
        <ele>510.095365</ele>
        <time>2021-07-06T22:49:43.782Z</time>
      </trkpt>
      <trkpt lat="46.01062" lon="1.47422">
        <ele>512.024448</ele>
        <time>2021-07-06T22:49:59.782Z</time>
      </trkpt>
      <trkpt lat="46.01098" lon="1.47494">
        <ele>518.650709</ele>
        <time>2021-07-06T22:50:50.118Z</time>
      </trkpt>
      <trkpt lat="46.01104" lon="1.47496">
        <ele>519.372872</ele>
        <time>2021-07-06T22:50:56.197Z</time>
      </trkpt>
      <trkpt lat="46.01109" lon="1.47477">
        <ele>521.085474</ele>
        <time>2021-07-06T22:51:10.627Z</time>
      </trkpt>
      <trkpt lat="46.01189" lon="1.47355">
        <ele>534.930273</ele>
        <time>2021-07-06T22:53:00.899Z</time>
      </trkpt>
      <trkpt lat="46.0121" lon="1.4732">
        <ele>538.295844</ele>
        <time>2021-07-06T22:53:31.639Z</time>
      </trkpt>
      <trkpt lat="46.01225" lon="1.4732">
        <ele>539.775371</ele>
        <time>2021-07-06T22:53:44.982Z</time>
      </trkpt>
      <trkpt lat="46.01272" lon="1.47298">
        <ele>544.681869</ele>
        <time>2021-07-06T22:54:25.072Z</time>
      </trkpt>
      <trkpt lat="46.01332" lon="1.47238">
        <ele>551.920552</ele>
        <time>2021-07-06T22:55:24.422Z</time>
      </trkpt>
      <trkpt lat="46.01441" lon="1.47149">
        <ele>560.450055</ele>
        <time>2021-07-06T22:56:45.662Z</time>
      </trkpt>
      <trkpt lat="46.01618" lon="1.46929">
        <ele>572.044337</ele>
        <time>2021-07-06T22:59:00.466Z</time>
      </trkpt>
      <trkpt lat="46.01716" lon="1.46793">
        <ele>572.147803</ele>
        <time>2021-07-06T22:59:49.535Z</time>
      </trkpt>
      <trkpt lat="46.01795" lon="1.46731">
        <ele>570.443564</ele>
        <time>2021-07-06T23:00:12.031Z</time>
      </trkpt>
      <trkpt lat="46.01859" lon="1.46737">
        <ele>567.226712</ele>
        <time>2021-07-06T23:00:27.341Z</time>
      </trkpt>
      <trkpt lat="46.01969" lon="1.46755">
        <ele>562.52859</ele>
        <time>2021-07-06T23:00:53.544Z</time>
      </trkpt>
      <trkpt lat="46.02029" lon="1.4675">
        <ele>561.708087</ele>
        <time>2021-07-06T23:01:09.753Z</time>
      </trkpt>
      <trkpt lat="46.02088" lon="1.46721">
        <ele>560.857961</ele>
        <time>2021-07-06T23:01:29.358Z</time>
      </trkpt>
      <trkpt lat="46.02104" lon="1.46709">
        <ele>560.600241</ele>
        <time>2021-07-06T23:01:36.396Z</time>
      </trkpt>
      <trkpt lat="46.0217" lon="1.4666">
        <ele>559.891086</ele>
        <time>2021-07-06T23:02:04.539Z</time>
      </trkpt>
      <trkpt lat="46.02232" lon="1.46599">
        <ele>559.273745</ele>
        <time>2021-07-06T23:02:29.076Z</time>
      </trkpt>
      <trkpt lat="46.02257" lon="1.46532">
        <ele>558.414893</ele>
        <time>2021-07-06T23:02:43.093Z</time>
      </trkpt>
      <trkpt lat="46.02285" lon="1.46491">
        <ele>554.63336</ele>
        <time>2021-07-06T23:02:52.362Z</time>
      </trkpt>
      <trkpt lat="46.02283" lon="1.46562">
        <ele>549.895892</ele>
        <time>2021-07-06T23:03:03.195Z</time>
      </trkpt>
      <trkpt lat="46.02321" lon="1.46629">
        <ele>544.062698</ele>
        <time>2021-07-06T23:03:15.889Z</time>
      </trkpt>
      <trkpt lat="46.0233" lon="1.46669">
        <ele>541.079145</ele>
        <time>2021-07-06T23:03:21.804Z</time>
      </trkpt>
      <trkpt lat="46.0233" lon="1.46705">
        <ele>537.078148</ele>
        <time>2021-07-06T23:03:26.855Z</time>
      </trkpt>
      <trkpt lat="46.02319" lon="1.46729">
        <ele>533.882937</ele>
        <time>2021-07-06T23:03:30.857Z</time>
      </trkpt>
      <trkpt lat="46.02316" lon="1.46745">
        <ele>532.001007</ele>
        <time>2021-07-06T23:03:33.215Z</time>
      </trkpt>
      <trkpt lat="46.02308" lon="1.46862">
        <ele>518.969593</ele>
        <time>2021-07-06T23:03:49.422Z</time>
      </trkpt>
      <trkpt lat="46.02296" lon="1.46932">
        <ele>511.216009</ele>
        <time>2021-07-06T23:03:59.462Z</time>
      </trkpt>
      <trkpt lat="46.02274" lon="1.46954">
        <ele>507.646025</ele>
        <time>2021-07-06T23:04:04.789Z</time>
      </trkpt>
      <trkpt lat="46.02262" lon="1.46979">
        <ele>504.755314</ele>
        <time>2021-07-06T23:04:09.119Z</time>
      </trkpt>
      <trkpt lat="46.02265" lon="1.47044">
        <ele>498.669069</ele>
        <time>2021-07-06T23:04:18.322Z</time>
      </trkpt>
      <trkpt lat="46.0219" lon="1.47238">
        <ele>481.189415</ele>
        <time>2021-07-06T23:04:50.964Z</time>
      </trkpt>
      <trkpt lat="46.0217" lon="1.47311">
        <ele>476.134181</ele>
        <time>2021-07-06T23:05:03.263Z</time>
      </trkpt>
      <trkpt lat="46.02169" lon="1.47328">
        <ele>475.018925</ele>
        <time>2021-07-06T23:05:05.977Z</time>
      </trkpt>
      <trkpt lat="46.02175" lon="1.47349">
        <ele>473.581287</ele>
        <time>2021-07-06T23:05:09.460Z</time>
      </trkpt>
      <trkpt lat="46.02192" lon="1.47371">
        <ele>471.522554</ele>
        <time>2021-07-06T23:05:14.472Z</time>
      </trkpt>
      <trkpt lat="46.02208" lon="1.47376">
        <ele>470.230705</ele>
        <time>2021-07-06T23:05:18.190Z</time>
      </trkpt>
      <trkpt lat="46.02239" lon="1.47365">
        <ele>467.709542</ele>
        <time>2021-07-06T23:05:25.444Z</time>
      </trkpt>
      <trkpt lat="46.02252" lon="1.47371">
        <ele>466.630263</ele>
        <time>2021-07-06T23:05:28.569Z</time>
      </trkpt>
      <trkpt lat="46.02261" lon="1.47394">
        <ele>465.167375</ele>
        <time>2021-07-06T23:05:32.795Z</time>
      </trkpt>
      <trkpt lat="46.02273" lon="1.47439">
        <ele>462.551153</ele>
        <time>2021-07-06T23:05:40.256Z</time>
      </trkpt>
      <trkpt lat="46.02282" lon="1.47478">
        <ele>460.32246</ele>
        <time>2021-07-06T23:05:46.549Z</time>
      </trkpt>
      <trkpt lat="46.02281" lon="1.47487">
        <ele>459.80401</ele>
        <time>2021-07-06T23:05:48.011Z</time>
      </trkpt>
      <trkpt lat="46.0228" lon="1.47493">
        <ele>459.473835</ele>
        <time>2021-07-06T23:05:48.926Z</time>
      </trkpt>
      <trkpt lat="46.02243" lon="1.47566">
        <ele>454.498481</ele>
        <time>2021-07-06T23:06:02.797Z</time>
      </trkpt>
      <trkpt lat="46.02234" lon="1.4759">
        <ele>452.928925</ele>
        <time>2021-07-06T23:06:07.104Z</time>
      </trkpt>
      <trkpt lat="46.02223" lon="1.47606">
        <ele>451.706799</ele>
        <time>2021-07-06T23:06:09.109Z</time>
      </trkpt>
      <trkpt lat="46.02199" lon="1.47626">
        <ele>449.507592</ele>
        <time>2021-07-06T23:06:12.726Z</time>
      </trkpt>
      <trkpt lat="46.02183" lon="1.47638">
        <ele>448.013637</ele>
        <time>2021-07-06T23:06:15.175Z</time>
      </trkpt>
      <trkpt lat="46.0215" lon="1.47739">
        <ele>442.464791</ele>
        <time>2021-07-06T23:06:25.407Z</time>
      </trkpt>
      <trkpt lat="46.02093" lon="1.47801">
        <ele>439.354679</ele>
        <time>2021-07-06T23:06:35.122Z</time>
      </trkpt>
      <trkpt lat="46.02083" lon="1.47809">
        <ele>438.835338</ele>
        <time>2021-07-06T23:06:36.778Z</time>
      </trkpt>
      <trkpt lat="46.02063" lon="1.47831">
        <ele>437.741102</ele>
        <time>2021-07-06T23:06:40.781Z</time>
      </trkpt>
      <trkpt lat="46.02065" lon="1.47836">
        <ele>437.570235</ele>
        <time>2021-07-06T23:06:41.311Z</time>
      </trkpt>
      <trkpt lat="46.02068" lon="1.47867">
        <ele>436.615095</ele>
        <time>2021-07-06T23:06:44.959Z</time>
      </trkpt>
      <trkpt lat="46.02076" lon="1.47887">
        <ele>435.910104</ele>
        <time>2021-07-06T23:06:47.713Z</time>
      </trkpt>
      <trkpt lat="46.02086" lon="1.47893">
        <ele>435.439563</ele>
        <time>2021-07-06T23:06:49.654Z</time>
      </trkpt>
      <trkpt lat="46.02098" lon="1.47906">
        <ele>435.464182</ele>
        <time>2021-07-06T23:06:52.584Z</time>
      </trkpt>
      <trkpt lat="46.02109" lon="1.47918">
        <ele>435.583477</ele>
        <time>2021-07-06T23:06:55.680Z</time>
      </trkpt>
      <trkpt lat="46.02145" lon="1.4797">
        <ele>436.03276</ele>
        <time>2021-07-06T23:07:08.462Z</time>
      </trkpt>
      <trkpt lat="46.02171" lon="1.4799">
        <ele>436.297811</ele>
        <time>2021-07-06T23:07:18.818Z</time>
      </trkpt>
      <trkpt lat="46.02194" lon="1.4801">
        <ele>436.532325</ele>
        <time>2021-07-06T23:07:30.737Z</time>
      </trkpt>
      <trkpt lat="46.02235" lon="1.48035">
        <ele>436.927939</ele>
        <time>2021-07-06T23:07:50.333Z</time>
      </trkpt>
      <trkpt lat="46.02243" lon="1.48055">
        <ele>437.026159</ele>
        <time>2021-07-06T23:07:57.156Z</time>
      </trkpt>
      <trkpt lat="46.02288" lon="1.48125">
        <ele>437.425747</ele>
        <time>2021-07-06T23:08:21.692Z</time>
      </trkpt>
      <trkpt lat="46.02308" lon="1.48166">
        <ele>437.634332</ele>
        <time>2021-07-06T23:08:32.194Z</time>
      </trkpt>
      <trkpt lat="46.02333" lon="1.48252">
        <ele>438.0433</ele>
        <time>2021-07-06T23:08:52.060Z</time>
      </trkpt>
      <trkpt lat="46.02336" lon="1.4826">
        <ele>438.197238</ele>
        <time>2021-07-06T23:08:53.869Z</time>
      </trkpt>
      <trkpt lat="46.02349" lon="1.48293">
        <ele>438.80586</ele>
        <time>2021-07-06T23:09:03.817Z</time>
      </trkpt>
      <trkpt lat="46.02392" lon="1.4839">
        <ele>440.666694</ele>
        <time>2021-07-06T23:09:35.710Z</time>
      </trkpt>
      <trkpt lat="46.02395" lon="1.48395">
        <ele>440.785522</ele>
        <time>2021-07-06T23:09:37.260Z</time>
      </trkpt>
      <trkpt lat="46.02407" lon="1.48412">
        <ele>441.178947</ele>
        <time>2021-07-06T23:09:46.585Z</time>
      </trkpt>
      <trkpt lat="46.02468" lon="1.48444">
        <ele>443.646652</ele>
        <time>2021-07-06T23:10:20.060Z</time>
      </trkpt>
      <trkpt lat="46.02504" lon="1.48486">
        <ele>447.052212</ele>
        <time>2021-07-06T23:10:51.502Z</time>
      </trkpt>
      <trkpt lat="46.02525" lon="1.48499">
        <ele>448.697255</ele>
        <time>2021-07-06T23:11:06.332Z</time>
      </trkpt>
      <trkpt lat="46.02548" lon="1.48535">
        <ele>451.16113</ele>
        <time>2021-07-06T23:11:31.553Z</time>
      </trkpt>
      <trkpt lat="46.02576" lon="1.48542">
        <ele>453.175035</ele>
        <time>2021-07-06T23:11:52.615Z</time>
      </trkpt>
      <trkpt lat="46.02617" lon="1.48588">
        <ele>457.274457</ele>
        <time>2021-07-06T23:12:32.401Z</time>
      </trkpt>
      <trkpt lat="46.02629" lon="1.48589">
        <ele>458.358365</ele>
        <time>2021-07-06T23:12:41.890Z</time>
      </trkpt>
      <trkpt lat="46.02666" lon="1.48598">
        <ele>461.548244</ele>
        <time>2021-07-06T23:13:10.233Z</time>
      </trkpt>
      <trkpt lat="46.02668" lon="1.48597">
        <ele>461.772554</ele>
        <time>2021-07-06T23:13:12.575Z</time>
      </trkpt>
      <trkpt lat="46.02701" lon="1.48584">
        <ele>464.715653</ele>
        <time>2021-07-06T23:13:38.708Z</time>
      </trkpt>
      <trkpt lat="46.02779" lon="1.48597">
        <ele>471.218649</ele>
        <time>2021-07-06T23:14:36.970Z</time>
      </trkpt>
      <trkpt lat="46.02846" lon="1.4862">
        <ele>474.832467</ele>
        <time>2021-07-06T23:15:23.305Z</time>
      </trkpt>
      <trkpt lat="46.02877" lon="1.4865">
        <ele>476.780761</ele>
        <time>2021-07-06T23:15:43.705Z</time>
      </trkpt>
      <trkpt lat="46.02952" lon="1.48651">
        <ele>480.400002</ele>
        <time>2021-07-06T23:16:19.406Z</time>
      </trkpt>
      <trkpt lat="46.03002" lon="1.48662">
        <ele>481.484781</ele>
        <time>2021-07-06T23:16:40.691Z</time>
      </trkpt>
      <trkpt lat="46.03045" lon="1.48699">
        <ele>482.539305</ele>
        <time>2021-07-06T23:17:00.455Z</time>
      </trkpt>
      <trkpt lat="46.03094" lon="1.48699">
        <ele>483.586563</ele>
        <time>2021-07-06T23:17:20.874Z</time>
      </trkpt>
      <trkpt lat="46.03126" lon="1.48709">
        <ele>484.306449</ele>
        <time>2021-07-06T23:17:34.906Z</time>
      </trkpt>
      <trkpt lat="46.03152" lon="1.48731">
        <ele>484.982139</ele>
        <time>2021-07-06T23:17:47.923Z</time>
      </trkpt>
      <trkpt lat="46.03195" lon="1.48735">
        <ele>485.963794</ele>
        <time>2021-07-06T23:18:07.527Z</time>
      </trkpt>
      <trkpt lat="46.03238" lon="1.48728">
        <ele>486.954579</ele>
        <time>2021-07-06T23:18:28.088Z</time>
      </trkpt>
      <trkpt lat="46.03283" lon="1.48706">
        <ele>488.034832</ele>
        <time>2021-07-06T23:18:48.124Z</time>
      </trkpt>
      <trkpt lat="46.03311" lon="1.48616">
        <ele>487.841637</ele>
        <time>2021-07-06T23:19:12.846Z</time>
      </trkpt>
      <trkpt lat="46.03336" lon="1.48602">
        <ele>487.728092</ele>
        <time>2021-07-06T23:19:20.937Z</time>
      </trkpt>
      <trkpt lat="46.0336" lon="1.48597">
        <ele>487.622493</ele>
        <time>2021-07-06T23:19:28.708Z</time>
      </trkpt>
      <trkpt lat="46.03368" lon="1.48606">
        <ele>487.579472</ele>
        <time>2021-07-06T23:19:30.693Z</time>
      </trkpt>
      <trkpt lat="46.03393" lon="1.48694">
        <ele>487.027596</ele>
        <time>2021-07-06T23:19:44.863Z</time>
      </trkpt>
      <trkpt lat="46.03398" lon="1.48726">
        <ele>486.424912</ele>
        <time>2021-07-06T23:19:49.642Z</time>
      </trkpt>
      <trkpt lat="46.03396" lon="1.48842">
        <ele>484.356968</ele>
        <time>2021-07-06T23:20:05.672Z</time>
      </trkpt>
      <trkpt lat="46.03365" lon="1.48984">
        <ele>480.879376</ele>
        <time>2021-07-06T23:20:27.531Z</time>
      </trkpt>
      <trkpt lat="46.03334" lon="1.49058">
        <ele>478.12967</ele>
        <time>2021-07-06T23:20:38.873Z</time>
      </trkpt>
      <trkpt lat="46.03329" lon="1.4907">
        <ele>477.677901</ele>
        <time>2021-07-06T23:20:40.781Z</time>
      </trkpt>
      <trkpt lat="46.03334" lon="1.49096">
        <ele>476.813788</ele>
        <time>2021-07-06T23:20:43.288Z</time>
      </trkpt>
      <trkpt lat="46.03339" lon="1.49114">
        <ele>476.220889</ele>
        <time>2021-07-06T23:20:44.961Z</time>
      </trkpt>
      <trkpt lat="46.03341" lon="1.49118">
        <ele>476.058216</ele>
        <time>2021-07-06T23:20:45.434Z</time>
      </trkpt>
      <trkpt lat="46.03344" lon="1.49122">
        <ele>475.881365</ele>
        <time>2021-07-06T23:20:45.944Z</time>
      </trkpt>
      <trkpt lat="46.03363" lon="1.49141">
        <ele>474.79677</ele>
        <time>2021-07-06T23:20:48.933Z</time>
      </trkpt>
      <trkpt lat="46.03374" lon="1.4915">
        <ele>474.014327</ele>
        <time>2021-07-06T23:20:50.533Z</time>
      </trkpt>
      <trkpt lat="46.03384" lon="1.49158">
        <ele>472.892089</ele>
        <time>2021-07-06T23:20:52.065Z</time>
      </trkpt>
      <trkpt lat="46.03387" lon="1.49168">
        <ele>472.158796</ele>
        <time>2021-07-06T23:20:53.661Z</time>
      </trkpt>
      <trkpt lat="46.03427" lon="1.49219">
        <ele>467.084226</ele>
        <time>2021-07-06T23:21:05.431Z</time>
      </trkpt>
      <trkpt lat="46.03468" lon="1.49262">
        <ele>462.241983</ele>
        <time>2021-07-06T23:21:16.239Z</time>
      </trkpt>
      <trkpt lat="46.03496" lon="1.4932">
        <ele>457.54574</ele>
        <time>2021-07-06T23:21:26.530Z</time>
      </trkpt>
      <trkpt lat="46.03497" lon="1.49374">
        <ele>453.852708</ele>
        <time>2021-07-06T23:21:34.657Z</time>
      </trkpt>
      <trkpt lat="46.03483" lon="1.49441">
        <ele>449.132713</ele>
        <time>2021-07-06T23:21:44.851Z</time>
      </trkpt>
      <trkpt lat="46.03481" lon="1.49488">
        <ele>446.014866</ele>
        <time>2021-07-06T23:21:51.741Z</time>
      </trkpt>
      <trkpt lat="46.035" lon="1.49542">
        <ele>441.896486</ele>
        <time>2021-07-06T23:22:01.077Z</time>
      </trkpt>
      <trkpt lat="46.03516" lon="1.49563">
        <ele>439.837409</ele>
        <time>2021-07-06T23:22:05.997Z</time>
      </trkpt>
      <trkpt lat="46.03518" lon="1.49567">
        <ele>439.638947</ele>
        <time>2021-07-06T23:22:06.762Z</time>
      </trkpt>
      <trkpt lat="46.03621" lon="1.49487">
        <ele>435.022405</ele>
        <time>2021-07-06T23:22:22.703Z</time>
      </trkpt>
      <trkpt lat="46.03647" lon="1.4948">
        <ele>434.017268</ele>
        <time>2021-07-06T23:22:26.462Z</time>
      </trkpt>
      <trkpt lat="46.03666" lon="1.49497">
        <ele>433.115117</ele>
        <time>2021-07-06T23:22:30.539Z</time>
      </trkpt>
      <trkpt lat="46.037" lon="1.49562">
        <ele>432.932817</ele>
        <time>2021-07-06T23:22:41.145Z</time>
      </trkpt>
      <trkpt lat="46.03695" lon="1.49566">
        <ele>432.962133</ele>
        <time>2021-07-06T23:22:42.456Z</time>
      </trkpt>
      <trkpt lat="46.03496" lon="1.49696">
        <ele>435.614059</ele>
        <time>2021-07-06T23:23:37.759Z</time>
      </trkpt>
      <trkpt lat="46.03484" lon="1.49702">
        <ele>435.88996</ele>
        <time>2021-07-06T23:23:41.103Z</time>
      </trkpt>
      <trkpt lat="46.03507" lon="1.49727">
        <ele>436.526202</ele>
        <time>2021-07-06T23:23:54.432Z</time>
      </trkpt>
      <trkpt lat="46.0354" lon="1.49748">
        <ele>437.342101</ele>
        <time>2021-07-06T23:24:11.455Z</time>
      </trkpt>
      <trkpt lat="46.03619" lon="1.49767">
        <ele>441.25692</ele>
        <time>2021-07-06T23:24:56.850Z</time>
      </trkpt>
      <trkpt lat="46.03634" lon="1.49796">
        <ele>442.594202</ele>
        <time>2021-07-06T23:25:14.050Z</time>
      </trkpt>
      <trkpt lat="46.0364" lon="1.49854">
        <ele>444.804696</ele>
        <time>2021-07-06T23:25:38.919Z</time>
      </trkpt>
      <trkpt lat="46.03651" lon="1.49911">
        <ele>446.983628</ele>
        <time>2021-07-06T23:26:02.839Z</time>
      </trkpt>
      <trkpt lat="46.03648" lon="1.49919">
        <ele>447.304664</ele>
        <time>2021-07-06T23:26:08.137Z</time>
      </trkpt>
      <trkpt lat="46.03636" lon="1.50006">
        <ele>449.0534</ele>
        <time>2021-07-06T23:26:33.511Z</time>
      </trkpt>
      <trkpt lat="46.03627" lon="1.50028">
        <ele>449.539555</ele>
        <time>2021-07-06T23:26:41.900Z</time>
      </trkpt>
      <trkpt lat="46.03601" lon="1.50055">
        <ele>450.443035</ele>
        <time>2021-07-06T23:26:54.153Z</time>
      </trkpt>
      <trkpt lat="46.03574" lon="1.50052">
        <ele>451.221043</ele>
        <time>2021-07-06T23:27:01.464Z</time>
      </trkpt>
      <trkpt lat="46.03549" lon="1.50038">
        <ele>451.965282</ele>
        <time>2021-07-06T23:27:08.198Z</time>
      </trkpt>
      <trkpt lat="46.03517" lon="1.50019">
        <ele>451.986648</ele>
        <time>2021-07-06T23:27:14.083Z</time>
      </trkpt>
      <trkpt lat="46.0347" lon="1.50004">
        <ele>451.105737</ele>
        <time>2021-07-06T23:27:21.939Z</time>
      </trkpt>
      <trkpt lat="46.03416" lon="1.5004">
        <ele>450.035189</ele>
        <time>2021-07-06T23:27:31.339Z</time>
      </trkpt>
      <trkpt lat="46.03398" lon="1.50067">
        <ele>449.550408</ele>
        <time>2021-07-06T23:27:35.627Z</time>
      </trkpt>
      <trkpt lat="46.03339" lon="1.50121">
        <ele>449.332493</ele>
        <time>2021-07-06T23:27:47.267Z</time>
      </trkpt>
      <trkpt lat="46.03315" lon="1.50155">
        <ele>449.505581</ele>
        <time>2021-07-06T23:27:53.572Z</time>
      </trkpt>
      <trkpt lat="46.03265" lon="1.50318">
        <ele>450.666069</ele>
        <time>2021-07-06T23:28:30.408Z</time>
      </trkpt>
      <trkpt lat="46.03252" lon="1.50333">
        <ele>451.145407</ele>
        <time>2021-07-06T23:28:36.370Z</time>
      </trkpt>
      <trkpt lat="46.03184" lon="1.50382">
        <ele>453.338004</ele>
        <time>2021-07-06T23:29:04.085Z</time>
      </trkpt>
      <trkpt lat="46.0316" lon="1.50406">
        <ele>454.188983</ele>
        <time>2021-07-06T23:29:14.179Z</time>
      </trkpt>
      <trkpt lat="46.03154" lon="1.50417">
        <ele>454.461676</ele>
        <time>2021-07-06T23:29:18.100Z</time>
      </trkpt>
      <trkpt lat="46.0318" lon="1.50453">
        <ele>455.608774</ele>
        <time>2021-07-06T23:29:34.892Z</time>
      </trkpt>
      <trkpt lat="46.03193" lon="1.50472">
        <ele>456.386689</ele>
        <time>2021-07-06T23:29:43.273Z</time>
      </trkpt>
      <trkpt lat="46.03226" lon="1.50488">
        <ele>457.78223</ele>
        <time>2021-07-06T23:29:58.846Z</time>
      </trkpt>
      <trkpt lat="46.03249" lon="1.50523">
        <ele>459.158466</ele>
        <time>2021-07-06T23:30:15.479Z</time>
      </trkpt>
      <trkpt lat="46.03287" lon="1.50542">
        <ele>460.778679</ele>
        <time>2021-07-06T23:30:36.430Z</time>
      </trkpt>
      <trkpt lat="46.033" lon="1.5056">
        <ele>461.50773</ele>
        <time>2021-07-06T23:30:47.459Z</time>
      </trkpt>
      <trkpt lat="46.03302" lon="1.50596">
        <ele>462.527111</ele>
        <time>2021-07-06T23:31:00.940Z</time>
      </trkpt>
      <trkpt lat="46.03321" lon="1.50631">
        <ele>465.115737</ele>
        <time>2021-07-06T23:31:21.109Z</time>
      </trkpt>
      <trkpt lat="46.03327" lon="1.50642">
        <ele>465.974401</ele>
        <time>2021-07-06T23:31:28.620Z</time>
      </trkpt>
      <trkpt lat="46.03337" lon="1.50658">
        <ele>467.220835</ele>
        <time>2021-07-06T23:31:39.009Z</time>
      </trkpt>
      <trkpt lat="46.03352" lon="1.50672">
        <ele>468.722617</ele>
        <time>2021-07-06T23:31:48.922Z</time>
      </trkpt>
      <trkpt lat="46.03358" lon="1.50682">
        <ele>469.455364</ele>
        <time>2021-07-06T23:31:56.333Z</time>
      </trkpt>
      <trkpt lat="46.0337" lon="1.50697">
        <ele>470.816529</ele>
        <time>2021-07-06T23:32:07.163Z</time>
      </trkpt>
      <trkpt lat="46.034" lon="1.50729">
        <ele>473.91231</ele>
        <time>2021-07-06T23:32:35.600Z</time>
      </trkpt>
      <trkpt lat="46.0343" lon="1.50757">
        <ele>476.970016</ele>
        <time>2021-07-06T23:33:05.689Z</time>
      </trkpt>
      <trkpt lat="46.03437" lon="1.50781">
        <ele>478.848244</ele>
        <time>2021-07-06T23:33:22.073Z</time>
      </trkpt>
      <trkpt lat="46.03432" lon="1.50845">
        <ele>484.364482</ele>
        <time>2021-07-06T23:34:02.081Z</time>
      </trkpt>
      <trkpt lat="46.03436" lon="1.50883">
        <ele>487.64462</ele>
        <time>2021-07-06T23:34:26.177Z</time>
      </trkpt>
      <trkpt lat="46.03453" lon="1.50942">
        <ele>493.20885</ele>
        <time>2021-07-06T23:35:08.849Z</time>
      </trkpt>
      <trkpt lat="46.03458" lon="1.5095">
        <ele>494.213272</ele>
        <time>2021-07-06T23:35:16.809Z</time>
      </trkpt>
      <trkpt lat="46.03634" lon="1.51008">
        <ele>518.56307</ele>
        <time>2021-07-06T23:38:19.081Z</time>
      </trkpt>
      <trkpt lat="46.03682" lon="1.51074">
        <ele>527.633386</ele>
        <time>2021-07-06T23:39:28.623Z</time>
      </trkpt>
      <trkpt lat="46.03782" lon="1.51159">
        <ele>542.950281</ele>
        <time>2021-07-06T23:41:21.888Z</time>
      </trkpt>
      <trkpt lat="46.03788" lon="1.51205">
        <ele>547.250033</ele>
        <time>2021-07-06T23:41:53.940Z</time>
      </trkpt>
      <trkpt lat="46.03829" lon="1.51245">
        <ele>552.703724</ele>
        <time>2021-07-06T23:42:38.898Z</time>
      </trkpt>
      <trkpt lat="46.03833" lon="1.51249">
        <ele>553.291717</ele>
        <time>2021-07-06T23:42:44.722Z</time>
      </trkpt>
      <trkpt lat="46.03869" lon="1.5132">
        <ele>559.752792</ele>
        <time>2021-07-06T23:43:37.476Z</time>
      </trkpt>
      <trkpt lat="46.03847" lon="1.51356">
        <ele>563.291557</ele>
        <time>2021-07-06T23:44:04.811Z</time>
      </trkpt>
      <trkpt lat="46.03871" lon="1.51521">
        <ele>571.915175</ele>
        <time>2021-07-06T23:45:32.450Z</time>
      </trkpt>
      <trkpt lat="46.0388" lon="1.5169">
        <ele>577.80206</ele>
        <time>2021-07-06T23:46:33.064Z</time>
      </trkpt>
      <trkpt lat="46.03927" lon="1.51828">
        <ele>577.952649</ele>
        <time>2021-07-06T23:47:08.437Z</time>
      </trkpt>
      <trkpt lat="46.03922" lon="1.51896">
        <ele>578.019288</ele>
        <time>2021-07-06T23:47:15.677Z</time>
      </trkpt>
      <trkpt lat="46.03911" lon="1.52">
        <ele>578.010338</ele>
        <time>2021-07-06T23:47:27.452Z</time>
      </trkpt>
      <trkpt lat="46.03905" lon="1.52035">
        <ele>577.999753</ele>
        <time>2021-07-06T23:47:31.661Z</time>
      </trkpt>
      <trkpt lat="46.03892" lon="1.5207">
        <ele>577.987829</ele>
        <time>2021-07-06T23:47:36.576Z</time>
      </trkpt>
      <trkpt lat="46.03882" lon="1.52061">
        <ele>577.982589</ele>
        <time>2021-07-06T23:47:42.495Z</time>
      </trkpt>
      <trkpt lat="46.03864" lon="1.52061">
        <ele>577.97483</ele>
        <time>2021-07-06T23:47:47.874Z</time>
      </trkpt>
      <trkpt lat="46.03829" lon="1.5204">
        <ele>577.996576</ele>
        <time>2021-07-06T23:48:02.312Z</time>
      </trkpt>
      <trkpt lat="46.03808" lon="1.52037">
        <ele>578.724961</ele>
        <time>2021-07-06T23:48:12.243Z</time>
      </trkpt>
      <trkpt lat="46.038" lon="1.52048">
        <ele>579.094676</ele>
        <time>2021-07-06T23:48:17.586Z</time>
      </trkpt>
      <trkpt lat="46.03784" lon="1.52045">
        <ele>579.65835</ele>
        <time>2021-07-06T23:48:26.349Z</time>
      </trkpt>
      <trkpt lat="46.03771" lon="1.52054">
        <ele>580.152045</ele>
        <time>2021-07-06T23:48:33.406Z</time>
      </trkpt>
      <trkpt lat="46.03744" lon="1.52055">
        <ele>581.0767</ele>
        <time>2021-07-06T23:48:49.659Z</time>
      </trkpt>
      <trkpt lat="46.03704" lon="1.52034">
        <ele>582.54906</ele>
        <time>2021-07-06T23:49:12.344Z</time>
      </trkpt>
      <trkpt lat="46.03701" lon="1.52033">
        <ele>582.644056</ele>
        <time>2021-07-06T23:49:14.618Z</time>
      </trkpt>
      <trkpt lat="46.03677" lon="1.52042">
        <ele>583.499441</ele>
        <time>2021-07-06T23:49:27.259Z</time>
      </trkpt>
      <trkpt lat="46.03671" lon="1.5205">
        <ele>583.782611</ele>
        <time>2021-07-06T23:49:30.456Z</time>
      </trkpt>
      <trkpt lat="46.0366" lon="1.52062">
        <ele>584.047094</ele>
        <time>2021-07-06T23:49:38.530Z</time>
      </trkpt>
      <trkpt lat="46.03662" lon="1.52066">
        <ele>583.98906</ele>
        <time>2021-07-06T23:49:39.835Z</time>
      </trkpt>
      <trkpt lat="46.03701" lon="1.52121">
        <ele>583.10704</ele>
        <time>2021-07-06T23:49:51.835Z</time>
      </trkpt>
      <trkpt lat="46.03703" lon="1.52133">
        <ele>582.973747</ele>
        <time>2021-07-06T23:49:54.421Z</time>
      </trkpt>
      <trkpt lat="46.03702" lon="1.52138">
        <ele>582.914946</ele>
        <time>2021-07-06T23:49:55.066Z</time>
      </trkpt>
      <trkpt lat="46.03695" lon="1.52172">
        <ele>582.523034</ele>
        <time>2021-07-06T23:49:58.847Z</time>
      </trkpt>
      <trkpt lat="46.03696" lon="1.522">
        <ele>582.211125</ele>
        <time>2021-07-06T23:50:02.093Z</time>
      </trkpt>
      <trkpt lat="46.0371" lon="1.52253">
        <ele>581.568438</ele>
        <time>2021-07-06T23:50:07.949Z</time>
      </trkpt>
      <trkpt lat="46.03712" lon="1.52278">
        <ele>581.291675</ele>
        <time>2021-07-06T23:50:10.386Z</time>
      </trkpt>
      <trkpt lat="46.03715" lon="1.52317">
        <ele>580.246879</ele>
        <time>2021-07-06T23:50:14.116Z</time>
      </trkpt>
      <trkpt lat="46.03777" lon="1.52287">
        <ele>577.473396</ele>
        <time>2021-07-06T23:50:22.640Z</time>
      </trkpt>
      <trkpt lat="46.03814" lon="1.52261">
        <ele>575.728461</ele>
        <time>2021-07-06T23:50:28.119Z</time>
      </trkpt>
      <trkpt lat="46.03879" lon="1.52229">
        <ele>573.690576</ele>
        <time>2021-07-06T23:50:38.217Z</time>
      </trkpt>
      <trkpt lat="46.03885" lon="1.52224">
        <ele>573.747253</ele>
        <time>2021-07-06T23:50:39.352Z</time>
      </trkpt>
      <trkpt lat="46.03879" lon="1.52229">
        <ele>573.803929</ele>
        <time>2021-07-06T23:50:40.562Z</time>
      </trkpt>
      <trkpt lat="46.03814" lon="1.52261">
        <ele>574.39961</ele>
        <time>2021-07-06T23:50:57.574Z</time>
      </trkpt>
      <trkpt lat="46.03777" lon="1.52287">
        <ele>574.748956</ele>
        <time>2021-07-06T23:51:10.183Z</time>
      </trkpt>
      <trkpt lat="46.03782" lon="1.52334">
        <ele>575.031418</ele>
        <time>2021-07-06T23:51:24.939Z</time>
      </trkpt>
      <trkpt lat="46.03801" lon="1.52353">
        <ele>575.632256</ele>
        <time>2021-07-06T23:51:35.064Z</time>
      </trkpt>
      <trkpt lat="46.03806" lon="1.52376">
        <ele>576.172466</ele>
        <time>2021-07-06T23:51:43.206Z</time>
      </trkpt>
      <trkpt lat="46.03807" lon="1.52406">
        <ele>576.825884</ele>
        <time>2021-07-06T23:51:52.739Z</time>
      </trkpt>
      <trkpt lat="46.038" lon="1.52438">
        <ele>577.543434</ele>
        <time>2021-07-06T23:52:03.456Z</time>
      </trkpt>
      <trkpt lat="46.03777" lon="1.52492">
        <ele>578.925496</ele>
        <time>2021-07-06T23:52:24.356Z</time>
      </trkpt>
      <trkpt lat="46.0377" lon="1.52554">
        <ele>580.299027</ele>
        <time>2021-07-06T23:52:45.923Z</time>
      </trkpt>
      <trkpt lat="46.03802" lon="1.52613">
        <ele>582.922</ele>
        <time>2021-07-06T23:53:12.447Z</time>
      </trkpt>
      <trkpt lat="46.03841" lon="1.52636">
        <ele>585.253975</ele>
        <time>2021-07-06T23:53:34.901Z</time>
      </trkpt>
      <trkpt lat="46.03898" lon="1.52741">
        <ele>590.439472</ele>
        <time>2021-07-06T23:54:33.946Z</time>
      </trkpt>
      <trkpt lat="46.03921" lon="1.52755">
        <ele>592.500815</ele>
        <time>2021-07-06T23:54:51.964Z</time>
      </trkpt>
      <trkpt lat="46.0393" lon="1.52813">
        <ele>596.269629</ele>
        <time>2021-07-06T23:55:23.123Z</time>
      </trkpt>
      <trkpt lat="46.039" lon="1.52876">
        <ele>601.089845</ele>
        <time>2021-07-06T23:56:05.113Z</time>
      </trkpt>
      <trkpt lat="46.03914" lon="1.52896">
        <ele>602.898401</ele>
        <time>2021-07-06T23:56:21.429Z</time>
      </trkpt>
      <trkpt lat="46.0399" lon="1.52877">
        <ele>609.915454</ele>
        <time>2021-07-06T23:57:24.965Z</time>
      </trkpt>
      <trkpt lat="46.0407" lon="1.52905">
        <ele>617.367236</ele>
        <time>2021-07-06T23:58:29.902Z</time>
      </trkpt>
      <trkpt lat="46.04106" lon="1.53038">
        <ele>625.220702</ele>
        <time>2021-07-06T23:59:42.984Z</time>
      </trkpt>
      <trkpt lat="46.04117" lon="1.5307">
        <ele>626.584387</ele>
        <time>2021-07-06T23:59:59.554Z</time>
      </trkpt>
      <trkpt lat="46.04106" lon="1.53139">
        <ele>629.321821</ele>
        <time>2021-07-07T00:00:30.255Z</time>
      </trkpt>
      <trkpt lat="46.04072" lon="1.53194">
        <ele>632.155114</ele>
        <time>2021-07-07T00:00:56.830Z</time>
      </trkpt>
      <trkpt lat="46.04053" lon="1.53219">
        <ele>633.438575</ele>
        <time>2021-07-07T00:01:09.763Z</time>
      </trkpt>
      <trkpt lat="46.04027" lon="1.53249">
        <ele>633.613009</ele>
        <time>2021-07-07T00:01:24.354Z</time>
      </trkpt>
      <trkpt lat="46.03951" lon="1.53373">
        <ele>634.203982</ele>
        <time>2021-07-07T00:02:03.269Z</time>
      </trkpt>
      <trkpt lat="46.0395" lon="1.53377">
        <ele>634.218003</ele>
        <time>2021-07-07T00:02:03.904Z</time>
      </trkpt>
      <trkpt lat="46.03947" lon="1.53392">
        <ele>634.27196</ele>
        <time>2021-07-07T00:02:06.869Z</time>
      </trkpt>
      <trkpt lat="46.03958" lon="1.53439">
        <ele>633.922884</ele>
        <time>2021-07-07T00:02:16.276Z</time>
      </trkpt>
      <trkpt lat="46.03968" lon="1.5351">
        <ele>632.805639</ele>
        <time>2021-07-07T00:02:29.945Z</time>
      </trkpt>
      <trkpt lat="46.03964" lon="1.53538">
        <ele>632.363433</ele>
        <time>2021-07-07T00:02:35.248Z</time>
      </trkpt>
      <trkpt lat="46.03954" lon="1.53554">
        <ele>632.025031</ele>
        <time>2021-07-07T00:02:39.360Z</time>
      </trkpt>
      <trkpt lat="46.03909" lon="1.53593">
        <ele>630.856322</ele>
        <time>2021-07-07T00:02:53.340Z</time>
      </trkpt>
      <trkpt lat="46.03907" lon="1.53607">
        <ele>630.636219</ele>
        <time>2021-07-07T00:02:55.981Z</time>
      </trkpt>
      <trkpt lat="46.03941" lon="1.53706">
        <ele>629.033702</ele>
        <time>2021-07-07T00:03:16.690Z</time>
      </trkpt>
      <trkpt lat="46.0389" lon="1.53788">
        <ele>627.461601</ele>
        <time>2021-07-07T00:03:37.682Z</time>
      </trkpt>
      <trkpt lat="46.03622" lon="1.53736">
        <ele>621.262708</ele>
        <time>2021-07-07T00:04:53.343Z</time>
      </trkpt>
      <trkpt lat="46.03437" lon="1.53653">
        <ele>611.197444</ele>
        <time>2021-07-07T00:05:39.372Z</time>
      </trkpt>
      <trkpt lat="46.03245" lon="1.53628">
        <ele>597.044715</ele>
        <time>2021-07-07T00:06:22.044Z</time>
      </trkpt>
      <trkpt lat="46.03223" lon="1.53633">
        <ele>595.338007</ele>
        <time>2021-07-07T00:06:25.077Z</time>
      </trkpt>
      <trkpt lat="46.032" lon="1.53638">
        <ele>593.601559</ele>
        <time>2021-07-07T00:06:28.162Z</time>
      </trkpt>
      <trkpt lat="46.03156" lon="1.53645">
        <ele>590.285032</ele>
        <time>2021-07-07T00:06:34.088Z</time>
      </trkpt>
      <trkpt lat="46.03144" lon="1.53653">
        <ele>589.277719</ele>
        <time>2021-07-07T00:06:35.856Z</time>
      </trkpt>
      <trkpt lat="46.03132" lon="1.53686">
        <ele>587.759199</ele>
        <time>2021-07-07T00:06:39.438Z</time>
      </trkpt>
      <trkpt lat="46.03123" lon="1.53691">
        <ele>587.153953</ele>
        <time>2021-07-07T00:06:40.777Z</time>
      </trkpt>
      <trkpt lat="46.03102" lon="1.53685">
        <ele>585.924164</ele>
        <time>2021-07-07T00:06:43.706Z</time>
      </trkpt>
      <trkpt lat="46.03059" lon="1.53659">
        <ele>583.167393</ele>
        <time>2021-07-07T00:06:50.192Z</time>
      </trkpt>
      <trkpt lat="46.03053" lon="1.5364">
        <ele>582.312132</ele>
        <time>2021-07-07T00:06:52.174Z</time>
      </trkpt>
      <trkpt lat="46.03047" lon="1.53585">
        <ele>580.045093</ele>
        <time>2021-07-07T00:06:57.568Z</time>
      </trkpt>
      <trkpt lat="46.03036" lon="1.53565">
        <ele>578.977677</ele>
        <time>2021-07-07T00:07:00.265Z</time>
      </trkpt>
      <trkpt lat="46.02964" lon="1.53506">
        <ele>573.876359</ele>
        <time>2021-07-07T00:07:11.661Z</time>
      </trkpt>
      <trkpt lat="46.02926" lon="1.53487">
        <ele>571.362608</ele>
        <time>2021-07-07T00:07:17.241Z</time>
      </trkpt>
      <trkpt lat="46.02889" lon="1.53481">
        <ele>569.019464</ele>
        <time>2021-07-07T00:07:22.384Z</time>
      </trkpt>
      <trkpt lat="46.02779" lon="1.53481">
        <ele>560.849796</ele>
        <time>2021-07-07T00:07:36.988Z</time>
      </trkpt>
      <trkpt lat="46.02734" lon="1.53468">
        <ele>557.257929</ele>
        <time>2021-07-07T00:07:43.085Z</time>
      </trkpt>
      <trkpt lat="46.02681" lon="1.53462">
        <ele>553.111017</ele>
        <time>2021-07-07T00:07:49.875Z</time>
      </trkpt>
      <trkpt lat="46.02663" lon="1.53437">
        <ele>551.151658</ele>
        <time>2021-07-07T00:07:53.083Z</time>
      </trkpt>
      <trkpt lat="46.02657" lon="1.53409">
        <ele>549.509531</ele>
        <time>2021-07-07T00:07:55.892Z</time>
      </trkpt>
      <trkpt lat="46.02633" lon="1.53348">
        <ele>545.706225</ele>
        <time>2021-07-07T00:08:02.276Z</time>
      </trkpt>
      <trkpt lat="46.02633" lon="1.53342">
        <ele>545.365983</ele>
        <time>2021-07-07T00:08:02.784Z</time>
      </trkpt>
      <trkpt lat="46.02645" lon="1.53346">
        <ele>544.418141</ele>
        <time>2021-07-07T00:08:04.447Z</time>
      </trkpt>
      <trkpt lat="46.02684" lon="1.53393">
        <ele>540.392301</ele>
        <time>2021-07-07T00:08:10.945Z</time>
      </trkpt>
      <trkpt lat="46.02704" lon="1.53398">
        <ele>538.922313</ele>
        <time>2021-07-07T00:08:13.332Z</time>
      </trkpt>
      <trkpt lat="46.02813" lon="1.53317">
        <ele>530.560188</ele>
        <time>2021-07-07T00:08:28.695Z</time>
      </trkpt>
      <trkpt lat="46.02871" lon="1.53282">
        <ele>526.893442</ele>
        <time>2021-07-07T00:08:36.967Z</time>
      </trkpt>
      <trkpt lat="46.02877" lon="1.53275">
        <ele>526.752231</ele>
        <time>2021-07-07T00:08:37.886Z</time>
      </trkpt>
      <trkpt lat="46.0288" lon="1.53269">
        <ele>526.650755</ele>
        <time>2021-07-07T00:08:38.527Z</time>
      </trkpt>
      <trkpt lat="46.0288" lon="1.53244">
        <ele>526.323527</ele>
        <time>2021-07-07T00:08:41.325Z</time>
      </trkpt>
      <trkpt lat="46.02871" lon="1.53223">
        <ele>526.004679</ele>
        <time>2021-07-07T00:08:43.520Z</time>
      </trkpt>
      <trkpt lat="46.02847" lon="1.53186">
        <ele>525.329291</ele>
        <time>2021-07-07T00:08:48.842Z</time>
      </trkpt>
      <trkpt lat="46.02851" lon="1.53175">
        <ele>525.166014</ele>
        <time>2021-07-07T00:08:50.581Z</time>
      </trkpt>
      <trkpt lat="46.02859" lon="1.53146">
        <ele>524.76375</ele>
        <time>2021-07-07T00:08:54.372Z</time>
      </trkpt>
      <trkpt lat="46.02858" lon="1.53118">
        <ele>524.395666</ele>
        <time>2021-07-07T00:08:57.613Z</time>
      </trkpt>
      <trkpt lat="46.02853" lon="1.53098">
        <ele>524.110524</ele>
        <time>2021-07-07T00:09:01.308Z</time>
      </trkpt>
      <trkpt lat="46.02839" lon="1.53079">
        <ele>523.756447</ele>
        <time>2021-07-07T00:09:04.645Z</time>
      </trkpt>
      <trkpt lat="46.02826" lon="1.53066">
        <ele>524.234238</ele>
        <time>2021-07-07T00:09:10.593Z</time>
      </trkpt>
      <trkpt lat="46.02772" lon="1.53013">
        <ele>526.52</ele>
        <time>2021-07-07T00:09:38.270Z</time>
      </trkpt>
      <trkpt lat="46.02647" lon="1.52929">
        <ele>529.46056</ele>
        <time>2021-07-07T00:10:32.714Z</time>
      </trkpt>
      <trkpt lat="46.02614" lon="1.52916">
        <ele>528.931399</ele>
        <time>2021-07-07T00:10:39.088Z</time>
      </trkpt>
      <trkpt lat="46.02608" lon="1.52902">
        <ele>528.758283</ele>
        <time>2021-07-07T00:10:41.088Z</time>
      </trkpt>
      <trkpt lat="46.02602" lon="1.5289">
        <ele>528.601855</ele>
        <time>2021-07-07T00:10:43.106Z</time>
      </trkpt>
      <trkpt lat="46.02536" lon="1.52893">
        <ele>527.579845</ele>
        <time>2021-07-07T00:10:59.832Z</time>
      </trkpt>
      <trkpt lat="46.02506" lon="1.52885">
        <ele>526.33471</ele>
        <time>2021-07-07T00:11:06.994Z</time>
      </trkpt>
      <trkpt lat="46.02415" lon="1.52879">
        <ele>518.154041</ele>
        <time>2021-07-07T00:11:26.903Z</time>
      </trkpt>
      <trkpt lat="46.0238" lon="1.52883">
        <ele>514.950416</ele>
        <time>2021-07-07T00:11:34.389Z</time>
      </trkpt>
      <trkpt lat="46.02332" lon="1.52908">
        <ele>510.302265</ele>
        <time>2021-07-07T00:11:45.163Z</time>
      </trkpt>
      <trkpt lat="46.0232" lon="1.52913">
        <ele>508.974331</ele>
        <time>2021-07-07T00:11:46.746Z</time>
      </trkpt>
      <trkpt lat="46.02311" lon="1.52918">
        <ele>507.909366</ele>
        <time>2021-07-07T00:11:48.015Z</time>
      </trkpt>
      <trkpt lat="46.0231" lon="1.52931">
        <ele>506.953113</ele>
        <time>2021-07-07T00:11:49.118Z</time>
      </trkpt>
      <trkpt lat="46.02301" lon="1.52963">
        <ele>504.427146</ele>
        <time>2021-07-07T00:11:52.156Z</time>
      </trkpt>
      <trkpt lat="46.02293" lon="1.52976">
        <ele>503.192881</ele>
        <time>2021-07-07T00:11:53.578Z</time>
      </trkpt>
      <trkpt lat="46.02276" lon="1.52996">
        <ele>500.875979</ele>
        <time>2021-07-07T00:11:56.368Z</time>
      </trkpt>
      <trkpt lat="46.02257" lon="1.53008">
        <ele>498.676241</ele>
        <time>2021-07-07T00:11:58.966Z</time>
      </trkpt>
      <trkpt lat="46.02242" lon="1.53014">
        <ele>496.993001</ele>
        <time>2021-07-07T00:12:01.050Z</time>
      </trkpt>
      <trkpt lat="46.02218" lon="1.53014">
        <ele>494.457321</ele>
        <time>2021-07-07T00:12:04.048Z</time>
      </trkpt>
      <trkpt lat="46.02213" lon="1.53016">
        <ele>493.884728</ele>
        <time>2021-07-07T00:12:04.736Z</time>
      </trkpt>
      <trkpt lat="46.02211" lon="1.53024">
        <ele>493.303392</ele>
        <time>2021-07-07T00:12:05.473Z</time>
      </trkpt>
      <trkpt lat="46.02214" lon="1.53049">
        <ele>491.635365</ele>
        <time>2021-07-07T00:12:07.624Z</time>
      </trkpt>
      <trkpt lat="46.02167" lon="1.53055">
        <ele>488.204824</ele>
        <time>2021-07-07T00:12:13.337Z</time>
      </trkpt>
      <trkpt lat="46.02111" lon="1.53035">
        <ele>484.001905</ele>
        <time>2021-07-07T00:12:20.657Z</time>
      </trkpt>
      <trkpt lat="46.02082" lon="1.53019">
        <ele>481.716262</ele>
        <time>2021-07-07T00:12:24.568Z</time>
      </trkpt>
      <trkpt lat="46.0199" lon="1.5296">
        <ele>476.369943</ele>
        <time>2021-07-07T00:12:37.861Z</time>
      </trkpt>
      <trkpt lat="46.0198" lon="1.52964">
        <ele>475.948952</ele>
        <time>2021-07-07T00:12:40.356Z</time>
      </trkpt>
      <trkpt lat="46.01962" lon="1.52962">
        <ele>475.248755</ele>
        <time>2021-07-07T00:12:44.697Z</time>
      </trkpt>
      <trkpt lat="46.01937" lon="1.52962">
        <ele>474.261726</ele>
        <time>2021-07-07T00:12:50.687Z</time>
      </trkpt>
      <trkpt lat="46.01886" lon="1.52953">
        <ele>472.203273</ele>
        <time>2021-07-07T00:13:04.734Z</time>
      </trkpt>
      <trkpt lat="46.01861" lon="1.52963">
        <ele>471.684058</ele>
        <time>2021-07-07T00:13:11.996Z</time>
      </trkpt>
      <trkpt lat="46.01835" lon="1.52981">
        <ele>471.742636</ele>
        <time>2021-07-07T00:13:20.075Z</time>
      </trkpt>
      <trkpt lat="46.01834" lon="1.53028">
        <ele>471.80725</ele>
        <time>2021-07-07T00:13:29.728Z</time>
      </trkpt>
      <trkpt lat="46.01825" lon="1.53038">
        <ele>471.831064</ele>
        <time>2021-07-07T00:13:33.855Z</time>
      </trkpt>
      <trkpt lat="46.01821" lon="1.53039">
        <ele>471.83898</ele>
        <time>2021-07-07T00:13:35.271Z</time>
      </trkpt>
      <trkpt lat="46.01808" lon="1.53041">
        <ele>471.865574</ele>
        <time>2021-07-07T00:13:40.063Z</time>
      </trkpt>
      <trkpt lat="46.0179" lon="1.53045">
        <ele>471.901716</ele>
        <time>2021-07-07T00:13:47.364Z</time>
      </trkpt>
      <trkpt lat="46.01751" lon="1.53047">
        <ele>471.980315</ele>
        <time>2021-07-07T00:14:02.921Z</time>
      </trkpt>
      <trkpt lat="46.01731" lon="1.53065">
        <ele>472.041905</ele>
        <time>2021-07-07T00:14:12.645Z</time>
      </trkpt>
      <trkpt lat="46.01689" lon="1.53085">
        <ele>472.301442</ele>
        <time>2021-07-07T00:14:31.219Z</time>
      </trkpt>
      <trkpt lat="46.01651" lon="1.53081">
        <ele>472.517003</ele>
        <time>2021-07-07T00:14:46.041Z</time>
      </trkpt>
      <trkpt lat="46.01616" lon="1.53059">
        <ele>472.740465</ele>
        <time>2021-07-07T00:14:58.341Z</time>
      </trkpt>
      <trkpt lat="46.01588" lon="1.53029">
        <ele>472.940385</ele>
        <time>2021-07-07T00:15:08.917Z</time>
      </trkpt>
      <trkpt lat="46.01563" lon="1.53006">
        <ele>472.89701</ele>
        <time>2021-07-07T00:15:17.645Z</time>
      </trkpt>
      <trkpt lat="46.01528" lon="1.52989">
        <ele>472.264123</ele>
        <time>2021-07-07T00:15:28.500Z</time>
      </trkpt>
      <trkpt lat="46.01475" lon="1.52969">
        <ele>471.342294</ele>
        <time>2021-07-07T00:15:43.850Z</time>
      </trkpt>
      <trkpt lat="46.01457" lon="1.5295">
        <ele>470.969439</ele>
        <time>2021-07-07T00:15:49.902Z</time>
      </trkpt>
      <trkpt lat="46.01442" lon="1.52909">
        <ele>470.420672</ele>
        <time>2021-07-07T00:15:58.612Z</time>
      </trkpt>
      <trkpt lat="46.0142" lon="1.52889">
        <ele>469.951158</ele>
        <time>2021-07-07T00:16:05.542Z</time>
      </trkpt>
      <trkpt lat="46.0135" lon="1.52872">
        <ele>466.961878</ele>
        <time>2021-07-07T00:16:24.121Z</time>
      </trkpt>
      <trkpt lat="46.01303" lon="1.52872">
        <ele>464.961945</ele>
        <time>2021-07-07T00:16:35.906Z</time>
      </trkpt>
      <trkpt lat="46.01249" lon="1.52856">
        <ele>462.625816</ele>
        <time>2021-07-07T00:16:49.118Z</time>
      </trkpt>
      <trkpt lat="46.01191" lon="1.52789">
        <ele>457.336283</ele>
        <time>2021-07-07T00:17:05.875Z</time>
      </trkpt>
      <trkpt lat="46.01129" lon="1.52696">
        <ele>450.724105</ele>
        <time>2021-07-07T00:17:25.752Z</time>
      </trkpt>
      <trkpt lat="46.01095" lon="1.52684">
        <ele>448.538382</ele>
        <time>2021-07-07T00:17:33.674Z</time>
      </trkpt>
      <trkpt lat="46.0106" lon="1.52678">
        <ele>446.950028</ele>
        <time>2021-07-07T00:17:41.880Z</time>
      </trkpt>
      <trkpt lat="46.01025" lon="1.52702">
        <ele>445.240926</ele>
        <time>2021-07-07T00:17:47.238Z</time>
      </trkpt>
      <trkpt lat="46.00982" lon="1.52719">
        <ele>443.249207</ele>
        <time>2021-07-07T00:17:53.774Z</time>
      </trkpt>
      <trkpt lat="46.0094" lon="1.52705">
        <ele>441.330368</ele>
        <time>2021-07-07T00:18:00.500Z</time>
      </trkpt>
      <trkpt lat="46.00887" lon="1.5263">
        <ele>441.889952</ele>
        <time>2021-07-07T00:18:15.635Z</time>
      </trkpt>
      <trkpt lat="46.00858" lon="1.5262">
        <ele>442.221568</ele>
        <time>2021-07-07T00:18:23.053Z</time>
      </trkpt>
      <trkpt lat="46.00809" lon="1.52659">
        <ele>442.85028</ele>
        <time>2021-07-07T00:18:40.529Z</time>
      </trkpt>
      <trkpt lat="46.00701" lon="1.52697">
        <ele>446.179393</ele>
        <time>2021-07-07T00:19:23.836Z</time>
      </trkpt>
      <trkpt lat="46.00687" lon="1.52707">
        <ele>446.72908</ele>
        <time>2021-07-07T00:19:30.556Z</time>
      </trkpt>
      <trkpt lat="46.00677" lon="1.52707">
        <ele>447.063791</ele>
        <time>2021-07-07T00:19:34.304Z</time>
      </trkpt>
      <trkpt lat="46.00672" lon="1.527">
        <ele>447.315059</ele>
        <time>2021-07-07T00:19:36.504Z</time>
      </trkpt>
      <trkpt lat="46.00652" lon="1.52706">
        <ele>448.002674</ele>
        <time>2021-07-07T00:19:44.628Z</time>
      </trkpt>
      <trkpt lat="46.00628" lon="1.52717">
        <ele>448.892654</ele>
        <time>2021-07-07T00:19:54.053Z</time>
      </trkpt>
      <trkpt lat="46.00608" lon="1.52718">
        <ele>449.527605</ele>
        <time>2021-07-07T00:20:02.061Z</time>
      </trkpt>
      <trkpt lat="46.00561" lon="1.52689">
        <ele>450.289795</ele>
        <time>2021-07-07T00:20:19.465Z</time>
      </trkpt>
      <trkpt lat="46.00466" lon="1.52649">
        <ele>451.779421</ele>
        <time>2021-07-07T00:20:45.424Z</time>
      </trkpt>
      <trkpt lat="46.00431" lon="1.52632">
        <ele>452.017213</ele>
        <time>2021-07-07T00:20:52.698Z</time>
      </trkpt>
      <trkpt lat="46.00418" lon="1.52544">
        <ele>451.213773</ele>
        <time>2021-07-07T00:21:11.377Z</time>
      </trkpt>
      <trkpt lat="46.00415" lon="1.52432">
        <ele>450.215387</ele>
        <time>2021-07-07T00:21:33.416Z</time>
      </trkpt>
      <trkpt lat="46.00331" lon="1.52256">
        <ele>446.09437</ele>
        <time>2021-07-07T00:22:12.508Z</time>
      </trkpt>
      <trkpt lat="46.00295" lon="1.52201">
        <ele>444.458262</ele>
        <time>2021-07-07T00:22:25.658Z</time>
      </trkpt>
      <trkpt lat="46.00254" lon="1.52175">
        <ele>442.738584</ele>
        <time>2021-07-07T00:22:36.825Z</time>
      </trkpt>
      <trkpt lat="46.0023" lon="1.52137">
        <ele>441.313731</ele>
        <time>2021-07-07T00:22:45.697Z</time>
      </trkpt>
      <trkpt lat="46.00176" lon="1.52079">
        <ele>438.626993</ele>
        <time>2021-07-07T00:23:02.474Z</time>
      </trkpt>
      <trkpt lat="46.00123" lon="1.5201">
        <ele>435.868125</ele>
        <time>2021-07-07T00:23:20.526Z</time>
      </trkpt>
      <trkpt lat="46.00075" lon="1.5193">
        <ele>433.130186</ele>
        <time>2021-07-07T00:23:38.803Z</time>
      </trkpt>
      <trkpt lat="46.0005" lon="1.51868">
        <ele>431.283618</ele>
        <time>2021-07-07T00:23:51.268Z</time>
      </trkpt>
      <trkpt lat="46.00021" lon="1.5188">
        <ele>430.251152</ele>
        <time>2021-07-07T00:23:59.012Z</time>
      </trkpt>
      <trkpt lat="46.00021" lon="1.5187">
        <ele>430.092222</ele>
        <time>2021-07-07T00:23:59.914Z</time>
      </trkpt>
      <trkpt lat="46.00019" lon="1.51804">
        <ele>429.024704</ele>
        <time>2021-07-07T00:24:06.691Z</time>
      </trkpt>
      <trkpt lat="46.00001" lon="1.5162">
        <ele>426.232504</ele>
        <time>2021-07-07T00:24:26.173Z</time>
      </trkpt>
      <trkpt lat="45.99985" lon="1.51466">
        <ele>426.704901</ele>
        <time>2021-07-07T00:24:51.876Z</time>
      </trkpt>
      <trkpt lat="45.99951" lon="1.51482">
        <ele>426.860633</ele>
        <time>2021-07-07T00:25:05.042Z</time>
      </trkpt>
      <trkpt lat="45.99954" lon="1.51508">
        <ele>426.93948</ele>
        <time>2021-07-07T00:25:11.429Z</time>
      </trkpt>
      <trkpt lat="45.9993" lon="1.51496">
        <ele>427.01574</ele>
        <time>2021-07-07T00:25:21.210Z</time>
      </trkpt>
      <trkpt lat="45.99893" lon="1.51493">
        <ele>427.084623</ele>
        <time>2021-07-07T00:25:34.543Z</time>
      </trkpt>
      <trkpt lat="45.99775" lon="1.51487">
        <ele>427.306253</ele>
        <time>2021-07-07T00:26:13.467Z</time>
      </trkpt>
      <trkpt lat="45.99752" lon="1.51498">
        <ele>427.196833</ele>
        <time>2021-07-07T00:26:20.335Z</time>
      </trkpt>
      <trkpt lat="45.99716" lon="1.51516">
        <ele>426.823415</ele>
        <time>2021-07-07T00:26:31.071Z</time>
      </trkpt>
      <trkpt lat="45.99693" lon="1.51567">
        <ele>426.409964</ele>
        <time>2021-07-07T00:26:43.160Z</time>
      </trkpt>
      <trkpt lat="45.99665" lon="1.51606">
        <ele>426.029866</ele>
        <time>2021-07-07T00:26:54.498Z</time>
      </trkpt>
      <trkpt lat="45.99687" lon="1.51706">
        <ele>425.61586</ele>
        <time>2021-07-07T00:27:16.396Z</time>
      </trkpt>
      <trkpt lat="45.99646" lon="1.51809">
        <ele>425.748416</ele>
        <time>2021-07-07T00:27:42.668Z</time>
      </trkpt>
      <trkpt lat="45.99622" lon="1.51854">
        <ele>425.810546</ele>
        <time>2021-07-07T00:27:55.936Z</time>
      </trkpt>
      <trkpt lat="45.99613" lon="1.51861">
        <ele>425.8271</ele>
        <time>2021-07-07T00:27:59.659Z</time>
      </trkpt>
      <trkpt lat="45.99581" lon="1.51887">
        <ele>425.99695</ele>
        <time>2021-07-07T00:28:12.914Z</time>
      </trkpt>
      <trkpt lat="45.99535" lon="1.52016">
        <ele>426.87228</ele>
        <time>2021-07-07T00:28:51.016Z</time>
      </trkpt>
      <trkpt lat="45.995" lon="1.52063">
        <ele>427.283495</ele>
        <time>2021-07-07T00:29:07.561Z</time>
      </trkpt>
      <trkpt lat="45.99495" lon="1.52094">
        <ele>427.376141</ele>
        <time>2021-07-07T00:29:16.188Z</time>
      </trkpt>
      <trkpt lat="45.99483" lon="1.52096">
        <ele>427.265608</ele>
        <time>2021-07-07T00:29:19.822Z</time>
      </trkpt>
      <trkpt lat="45.99422" lon="1.52072">
        <ele>426.659679</ele>
        <time>2021-07-07T00:29:40.017Z</time>
      </trkpt>
      <trkpt lat="45.99375" lon="1.52025">
        <ele>426.118503</ele>
        <time>2021-07-07T00:29:56.265Z</time>
      </trkpt>
      <trkpt lat="45.99366" lon="1.5203">
        <ele>426.025694</ele>
        <time>2021-07-07T00:29:59.229Z</time>
      </trkpt>
      <trkpt lat="45.99353" lon="1.52067">
        <ele>425.751365</ele>
        <time>2021-07-07T00:30:06.839Z</time>
      </trkpt>
      <trkpt lat="45.99347" lon="1.52075">
        <ele>425.587643</ele>
        <time>2021-07-07T00:30:08.922Z</time>
      </trkpt>
      <trkpt lat="45.99323" lon="1.52074">
        <ele>424.861273</ele>
        <time>2021-07-07T00:30:15.124Z</time>
      </trkpt>
      <trkpt lat="45.99281" lon="1.52065">
        <ele>423.561712</ele>
        <time>2021-07-07T00:30:26.309Z</time>
      </trkpt>
      <trkpt lat="45.99253" lon="1.52074">
        <ele>422.706025</ele>
        <time>2021-07-07T00:30:33.488Z</time>
      </trkpt>
      <trkpt lat="45.9922" lon="1.521">
        <ele>421.584147</ele>
        <time>2021-07-07T00:30:42.865Z</time>
      </trkpt>
      <trkpt lat="45.99186" lon="1.52073">
        <ele>420.40064</ele>
        <time>2021-07-07T00:30:52.858Z</time>
      </trkpt>
      <trkpt lat="45.99112" lon="1.52089">
        <ele>419.056938</ele>
        <time>2021-07-07T00:31:13.326Z</time>
      </trkpt>
      <trkpt lat="45.99109" lon="1.52102">
        <ele>418.895246</ele>
        <time>2021-07-07T00:31:15.762Z</time>
      </trkpt>
      <trkpt lat="45.99115" lon="1.52137">
        <ele>418.46199</ele>
        <time>2021-07-07T00:31:23.145Z</time>
      </trkpt>
      <trkpt lat="45.99092" lon="1.52162">
        <ele>417.95458</ele>
        <time>2021-07-07T00:31:31.501Z</time>
      </trkpt>
      <trkpt lat="45.99065" lon="1.52191">
        <ele>417.381085</ele>
        <time>2021-07-07T00:31:41.145Z</time>
      </trkpt>
      <trkpt lat="45.99054" lon="1.5222">
        <ele>417.107987</ele>
        <time>2021-07-07T00:31:47.933Z</time>
      </trkpt>
      <trkpt lat="45.99037" lon="1.52305">
        <ele>416.753305</ele>
        <time>2021-07-07T00:32:06.548Z</time>
      </trkpt>
      <trkpt lat="45.9901" lon="1.52349">
        <ele>416.51694</ele>
        <time>2021-07-07T00:32:19.128Z</time>
      </trkpt>
      <trkpt lat="45.98985" lon="1.52357">
        <ele>416.368669</ele>
        <time>2021-07-07T00:32:26.895Z</time>
      </trkpt>
      <trkpt lat="45.9897" lon="1.52379">
        <ele>416.24435</ele>
        <time>2021-07-07T00:32:33.459Z</time>
      </trkpt>
      <trkpt lat="45.98946" lon="1.52399">
        <ele>416.147304</ele>
        <time>2021-07-07T00:32:41.654Z</time>
      </trkpt>
      <trkpt lat="45.9892" lon="1.52517">
        <ele>416.289318</ele>
        <time>2021-07-07T00:33:08.632Z</time>
      </trkpt>
      <trkpt lat="45.98885" lon="1.52549">
        <ele>416.357474</ele>
        <time>2021-07-07T00:33:22.501Z</time>
      </trkpt>
      <trkpt lat="45.98908" lon="1.52646">
        <ele>416.637711</ele>
        <time>2021-07-07T00:33:48.284Z</time>
      </trkpt>
      <trkpt lat="45.98906" lon="1.52689">
        <ele>416.859828</ele>
        <time>2021-07-07T00:33:59.236Z</time>
      </trkpt>
      <trkpt lat="45.98882" lon="1.52692">
        <ele>417.043891</ele>
        <time>2021-07-07T00:34:08.210Z</time>
      </trkpt>
      <trkpt lat="45.98756" lon="1.52679">
        <ele>417.986854</ele>
        <time>2021-07-07T00:34:52.251Z</time>
      </trkpt>
      <trkpt lat="45.9874" lon="1.52717">
        <ele>418.205799</ele>
        <time>2021-07-07T00:35:02.617Z</time>
      </trkpt>
      <trkpt lat="45.98725" lon="1.52804">
        <ele>418.643418</ele>
        <time>2021-07-07T00:35:23.732Z</time>
      </trkpt>
      <trkpt lat="45.98712" lon="1.52843">
        <ele>418.85186</ele>
        <time>2021-07-07T00:35:34.617Z</time>
      </trkpt>
      <trkpt lat="45.98678" lon="1.52881">
        <ele>419.347033</ele>
        <time>2021-07-07T00:35:51.106Z</time>
      </trkpt>
      <trkpt lat="45.9866" lon="1.52914">
        <ele>419.929226</ele>
        <time>2021-07-07T00:36:02.065Z</time>
      </trkpt>
      <trkpt lat="45.98653" lon="1.52968">
        <ele>420.718035</ele>
        <time>2021-07-07T00:36:17.910Z</time>
      </trkpt>
      <trkpt lat="45.98648" lon="1.52979">
        <ele>420.906856</ele>
        <time>2021-07-07T00:36:22.280Z</time>
      </trkpt>
      <trkpt lat="45.98632" lon="1.5301">
        <ele>421.44993</ele>
        <time>2021-07-07T00:36:33.509Z</time>
      </trkpt>
      <trkpt lat="45.98583" lon="1.53089">
        <ele>422.912001</ele>
        <time>2021-07-07T00:37:07.572Z</time>
      </trkpt>
      <trkpt lat="45.98487" lon="1.53252">
        <ele>425.335066</ele>
        <time>2021-07-07T00:38:08.982Z</time>
      </trkpt>
      <trkpt lat="45.98485" lon="1.5329">
        <ele>425.574734</ele>
        <time>2021-07-07T00:38:17.745Z</time>
      </trkpt>
      <trkpt lat="45.98445" lon="1.53295">
        <ele>425.011182</ele>
        <time>2021-07-07T00:38:30.166Z</time>
      </trkpt>
      <trkpt lat="45.98398" lon="1.53302">
        <ele>424.358086</ele>
        <time>2021-07-07T00:38:43.748Z</time>
      </trkpt>
      <trkpt lat="45.98343" lon="1.5331">
        <ele>423.592144</ele>
        <time>2021-07-07T00:38:58.901Z</time>
      </trkpt>
      <trkpt lat="45.983" lon="1.53324">
        <ele>422.790841</ele>
        <time>2021-07-07T00:39:10.417Z</time>
      </trkpt>
      <trkpt lat="45.98172" lon="1.53374">
        <ele>419.199125</ele>
        <time>2021-07-07T00:39:45.311Z</time>
      </trkpt>
      <trkpt lat="45.98114" lon="1.53395">
        <ele>417.566424</ele>
        <time>2021-07-07T00:40:01.106Z</time>
      </trkpt>
      <trkpt lat="45.97973" lon="1.5344">
        <ele>413.51948</ele>
        <time>2021-07-07T00:40:39.082Z</time>
      </trkpt>
      <trkpt lat="45.97921" lon="1.53458">
        <ele>411.836847</ele>
        <time>2021-07-07T00:40:52.905Z</time>
      </trkpt>
      <trkpt lat="45.97903" lon="1.53464">
        <ele>411.239564</ele>
        <time>2021-07-07T00:40:57.681Z</time>
      </trkpt>
      <trkpt lat="45.97764" lon="1.53215">
        <ele>404.116208</ele>
        <time>2021-07-07T00:41:54.629Z</time>
      </trkpt>
      <trkpt lat="45.97713" lon="1.53137">
        <ele>401.759601</ele>
        <time>2021-07-07T00:42:13.903Z</time>
      </trkpt>
      <trkpt lat="45.97609" lon="1.53028">
        <ele>399.001563</ele>
        <time>2021-07-07T00:42:48.456Z</time>
      </trkpt>
      <trkpt lat="45.97602" lon="1.5302">
        <ele>398.803061</ele>
        <time>2021-07-07T00:42:50.989Z</time>
      </trkpt>
      <trkpt lat="45.97558" lon="1.52668">
        <ele>395.236127</ele>
        <time>2021-07-07T00:43:35.108Z</time>
      </trkpt>
      <trkpt lat="45.97557" lon="1.52632">
        <ele>394.735149</ele>
        <time>2021-07-07T00:43:39.433Z</time>
      </trkpt>
      <trkpt lat="45.97569" lon="1.52584">
        <ele>394.0217</ele>
        <time>2021-07-07T00:43:45.478Z</time>
      </trkpt>
      <trkpt lat="45.97573" lon="1.5258">
        <ele>393.920679</ele>
        <time>2021-07-07T00:43:46.261Z</time>
      </trkpt>
      <trkpt lat="45.9757" lon="1.52575">
        <ele>393.820104</ele>
        <time>2021-07-07T00:43:47.791Z</time>
      </trkpt>
      <trkpt lat="45.97545" lon="1.52563">
        <ele>393.29823</ele>
        <time>2021-07-07T00:43:54.796Z</time>
      </trkpt>
      <trkpt lat="45.97525" lon="1.52562">
        <ele>392.893086</ele>
        <time>2021-07-07T00:44:00.339Z</time>
      </trkpt>
      <trkpt lat="45.97509" lon="1.52392">
        <ele>387.895461</ele>
        <time>2021-07-07T00:44:30.917Z</time>
      </trkpt>
      <trkpt lat="45.97471" lon="1.52374">
        <ele>385.822296</ele>
        <time>2021-07-07T00:44:40.187Z</time>
      </trkpt>
      <trkpt lat="45.97417" lon="1.52365">
        <ele>382.953581</ele>
        <time>2021-07-07T00:44:52.734Z</time>
      </trkpt>
      <trkpt lat="45.97372" lon="1.52351">
        <ele>379.112195</ele>
        <time>2021-07-07T00:45:03.152Z</time>
      </trkpt>
      <trkpt lat="45.97359" lon="1.52331">
        <ele>377.531719</ele>
        <time>2021-07-07T00:45:07.204Z</time>
      </trkpt>
      <trkpt lat="45.97245" lon="1.52331">
        <ele>367.752086</ele>
        <time>2021-07-07T00:45:32.167Z</time>
      </trkpt>
      <trkpt lat="45.97178" lon="1.52324">
        <ele>361.823241</ele>
        <time>2021-07-07T00:45:46.549Z</time>
      </trkpt>
      <trkpt lat="45.97031" lon="1.52286">
        <ele>348.833342</ele>
        <time>2021-07-07T00:46:19.542Z</time>
      </trkpt>
      <trkpt lat="45.96992" lon="1.52268">
        <ele>345.697919</ele>
        <time>2021-07-07T00:46:28.694Z</time>
      </trkpt>
      <trkpt lat="45.96972" lon="1.52276">
        <ele>344.151681</ele>
        <time>2021-07-07T00:46:33.210Z</time>
      </trkpt>
      <trkpt lat="45.96944" lon="1.52275">
        <ele>341.98495</ele>
        <time>2021-07-07T00:46:39.551Z</time>
      </trkpt>
      <trkpt lat="45.96915" lon="1.52252">
        <ele>339.406946</ele>
        <time>2021-07-07T00:46:47.195Z</time>
      </trkpt>
      <trkpt lat="45.96882" lon="1.52218">
        <ele>336.871623</ele>
        <time>2021-07-07T00:46:56.319Z</time>
      </trkpt>
      <trkpt lat="45.96812" lon="1.52147">
        <ele>333.172091</ele>
        <time>2021-07-07T00:47:16.757Z</time>
      </trkpt>
      <trkpt lat="45.96808" lon="1.52125">
        <ele>332.481408</ele>
        <time>2021-07-07T00:47:21.014Z</time>
      </trkpt>
      <trkpt lat="45.96796" lon="1.52107">
        <ele>331.74584</ele>
        <time>2021-07-07T00:47:25.189Z</time>
      </trkpt>
      <trkpt lat="45.96762" lon="1.52091">
        <ele>330.194325</ele>
        <time>2021-07-07T00:47:34.660Z</time>
      </trkpt>
      <trkpt lat="45.96748" lon="1.52106">
        <ele>329.787428</ele>
        <time>2021-07-07T00:47:37.722Z</time>
      </trkpt>
      <trkpt lat="45.96727" lon="1.52124">
        <ele>329.776883</ele>
        <time>2021-07-07T00:47:41.594Z</time>
      </trkpt>
      <trkpt lat="45.96707" lon="1.52133">
        <ele>329.768287</ele>
        <time>2021-07-07T00:47:45.362Z</time>
      </trkpt>
      <trkpt lat="45.96691" lon="1.52118">
        <ele>329.759984</ele>
        <time>2021-07-07T00:47:51.309Z</time>
      </trkpt>
      <trkpt lat="45.96644" lon="1.52115">
        <ele>329.739523</ele>
        <time>2021-07-07T00:48:08.055Z</time>
      </trkpt>
      <trkpt lat="45.96604" lon="1.52086">
        <ele>329.720295</ele>
        <time>2021-07-07T00:48:25.496Z</time>
      </trkpt>
      <trkpt lat="45.96551" lon="1.52023">
        <ele>329.50658</ele>
        <time>2021-07-07T00:48:50.032Z</time>
      </trkpt>
      <trkpt lat="45.96413" lon="1.51957">
        <ele>328.519644</ele>
        <time>2021-07-07T00:49:33.290Z</time>
      </trkpt>
      <trkpt lat="45.96327" lon="1.51939">
        <ele>326.278601</ele>
        <time>2021-07-07T00:49:55.700Z</time>
      </trkpt>
      <trkpt lat="45.96298" lon="1.5192">
        <ele>325.45401</ele>
        <time>2021-07-07T00:50:03.915Z</time>
      </trkpt>
      <trkpt lat="45.96257" lon="1.5191">
        <ele>324.380347</ele>
        <time>2021-07-07T00:50:14.863Z</time>
      </trkpt>
      <trkpt lat="45.96258" lon="1.51884">
        <ele>324.277677</ele>
        <time>2021-07-07T00:50:19.633Z</time>
      </trkpt>
      <trkpt lat="45.96266" lon="1.51876">
        <ele>324.228414</ele>
        <time>2021-07-07T00:50:22.193Z</time>
      </trkpt>
      <trkpt lat="45.96271" lon="1.51871">
        <ele>324.20177</ele>
        <time>2021-07-07T00:50:23.752Z</time>
      </trkpt>
      <trkpt lat="45.96275" lon="1.51865">
        <ele>324.17054</ele>
        <time>2021-07-07T00:50:25.478Z</time>
      </trkpt>
      <trkpt lat="45.96297" lon="1.51837">
        <ele>324.029014</ele>
        <time>2021-07-07T00:50:33.200Z</time>
      </trkpt>
      <trkpt lat="45.96326" lon="1.51801">
        <ele>323.838602</ele>
        <time>2021-07-07T00:50:43.774Z</time>
      </trkpt>
      <trkpt lat="45.96339" lon="1.51752">
        <ele>323.657562</ele>
        <time>2021-07-07T00:50:56.519Z</time>
      </trkpt>
      <trkpt lat="45.96339" lon="1.51701">
        <ele>323.484357</ele>
        <time>2021-07-07T00:51:11.541Z</time>
      </trkpt>
      <trkpt lat="45.96334" lon="1.51685">
        <ele>324.066985</ele>
        <time>2021-07-07T00:51:17.888Z</time>
      </trkpt>
      <trkpt lat="45.9633" lon="1.51673">
        <ele>324.576982</ele>
        <time>2021-07-07T00:51:23.008Z</time>
      </trkpt>
      <trkpt lat="45.96315" lon="1.5165">
        <ele>325.780715</ele>
        <time>2021-07-07T00:51:34.685Z</time>
      </trkpt>
      <trkpt lat="45.9628" lon="1.51635">
        <ele>327.729887</ele>
        <time>2021-07-07T00:51:54.771Z</time>
      </trkpt>
      <trkpt lat="45.96255" lon="1.51601">
        <ele>329.624012</ele>
        <time>2021-07-07T00:52:15.862Z</time>
      </trkpt>
      <trkpt lat="45.96246" lon="1.51543">
        <ele>331.84673</ele>
        <time>2021-07-07T00:52:42.734Z</time>
      </trkpt>
      <trkpt lat="45.9625" lon="1.51416">
        <ele>337.656746</ele>
        <time>2021-07-07T00:53:45.484Z</time>
      </trkpt>
      <trkpt lat="45.96237" lon="1.51344">
        <ele>341.296709</ele>
        <time>2021-07-07T00:54:20.561Z</time>
      </trkpt>
      <trkpt lat="45.96225" lon="1.51245">
        <ele>346.168874</ele>
        <time>2021-07-07T00:55:05.121Z</time>
      </trkpt>
      <trkpt lat="45.96216" lon="1.51198">
        <ele>348.198314</ele>
        <time>2021-07-07T00:55:26.716Z</time>
      </trkpt>
      <trkpt lat="45.962" lon="1.51158">
        <ele>350.179813</ele>
        <time>2021-07-07T00:55:47.440Z</time>
      </trkpt>
      <trkpt lat="45.96165" lon="1.51109">
        <ele>353.129095</ele>
        <time>2021-07-07T00:56:17.666Z</time>
      </trkpt>
      <trkpt lat="45.96142" lon="1.51075">
        <ele>355.18266</ele>
        <time>2021-07-07T00:56:38.090Z</time>
      </trkpt>
      <trkpt lat="45.96136" lon="1.51058">
        <ele>355.974891</ele>
        <time>2021-07-07T00:56:45.730Z</time>
      </trkpt>
      <trkpt lat="45.96139" lon="1.51005">
        <ele>358.205318</ele>
        <time>2021-07-07T00:57:07.868Z</time>
      </trkpt>
      <trkpt lat="45.96142" lon="1.50984">
        <ele>359.077512</ele>
        <time>2021-07-07T00:57:16.448Z</time>
      </trkpt>
      <trkpt lat="45.96145" lon="1.50981">
        <ele>359.277354</ele>
        <time>2021-07-07T00:57:18.759Z</time>
      </trkpt>
      <trkpt lat="45.9617" lon="1.50946">
        <ele>361.385596</ele>
        <time>2021-07-07T00:57:36.025Z</time>
      </trkpt>
      <trkpt lat="45.96181" lon="1.50903">
        <ele>363.285712</ele>
        <time>2021-07-07T00:57:51.473Z</time>
      </trkpt>
      <trkpt lat="45.96171" lon="1.50855">
        <ele>365.368802</ele>
        <time>2021-07-07T00:58:08.884Z</time>
      </trkpt>
      <trkpt lat="45.96188" lon="1.5076">
        <ele>369.612083</ele>
        <time>2021-07-07T00:58:45.036Z</time>
      </trkpt>
      <trkpt lat="45.96167" lon="1.50664">
        <ele>374.177392</ele>
        <time>2021-07-07T00:59:22.536Z</time>
      </trkpt>
      <trkpt lat="45.96167" lon="1.50642">
        <ele>375.177223</ele>
        <time>2021-07-07T00:59:30.682Z</time>
      </trkpt>
      <trkpt lat="45.96167" lon="1.50606">
        <ele>376.796859</ele>
        <time>2021-07-07T00:59:43.947Z</time>
      </trkpt>
      <trkpt lat="45.96176" lon="1.50581">
        <ele>378.096635</ele>
        <time>2021-07-07T00:59:53.245Z</time>
      </trkpt>
      <trkpt lat="45.96176" lon="1.50581">
        <ele>378.096635</ele>
        <time>2021-07-07T00:59:53.280Z</time>
      </trkpt>
      <trkpt lat="45.96169" lon="1.5058">
        <ele>378.545794</ele>
        <time>2021-07-07T00:59:59.862Z</time>
      </trkpt>
      <trkpt lat="45.96051" lon="1.5055">
        <ele>384.313253</ele>
        <time>2021-07-07T01:01:13.926Z</time>
      </trkpt>
      <trkpt lat="45.96034" lon="1.50538">
        <ele>385.190344</ele>
        <time>2021-07-07T01:01:22.412Z</time>
      </trkpt>
      <trkpt lat="45.96022" lon="1.50538">
        <ele>385.733673</ele>
        <time>2021-07-07T01:01:30.476Z</time>
      </trkpt>
      <trkpt lat="45.96009" lon="1.50554">
        <ele>386.514199</ele>
        <time>2021-07-07T01:01:36.893Z</time>
      </trkpt>
      <trkpt lat="45.95963" lon="1.50567">
        <ele>387.489147</ele>
        <time>2021-07-07T01:01:55.663Z</time>
      </trkpt>
      <trkpt lat="45.95924" lon="1.50578">
        <ele>387.282443</ele>
        <time>2021-07-07T01:02:10.562Z</time>
      </trkpt>
      <trkpt lat="45.95765" lon="1.50679">
        <ele>385.261178</ele>
        <time>2021-07-07T01:02:58.982Z</time>
      </trkpt>
      <trkpt lat="45.95738" lon="1.50688">
        <ele>384.578785</ele>
        <time>2021-07-07T01:03:06.107Z</time>
      </trkpt>
      <trkpt lat="45.95689" lon="1.50679">
        <ele>383.354136</ele>
        <time>2021-07-07T01:03:18.915Z</time>
      </trkpt>
      <trkpt lat="45.95667" lon="1.50664">
        <ele>382.729149</ele>
        <time>2021-07-07T01:03:25.424Z</time>
      </trkpt>
      <trkpt lat="45.95573" lon="1.50626">
        <ele>380.652652</ele>
        <time>2021-07-07T01:03:51.287Z</time>
      </trkpt>
      <trkpt lat="45.95559" lon="1.5062">
        <ele>380.354756</ele>
        <time>2021-07-07T01:03:55.303Z</time>
      </trkpt>
      <trkpt lat="45.95491" lon="1.50562">
        <ele>378.755826</ele>
        <time>2021-07-07T01:04:17.601Z</time>
      </trkpt>
      <trkpt lat="45.95485" lon="1.50592">
        <ele>378.146622</ele>
        <time>2021-07-07T01:04:21.885Z</time>
      </trkpt>
      <trkpt lat="45.95473" lon="1.50621">
        <ele>377.330924</ele>
        <time>2021-07-07T01:04:25.663Z</time>
      </trkpt>
      <trkpt lat="45.95416" lon="1.50679">
        <ele>374.909842</ele>
        <time>2021-07-07T01:04:36.844Z</time>
      </trkpt>
      <trkpt lat="45.95411" lon="1.50687">
        <ele>374.650638</ele>
        <time>2021-07-07T01:04:37.972Z</time>
      </trkpt>
      <trkpt lat="45.95406" lon="1.50693">
        <ele>374.444813</ele>
        <time>2021-07-07T01:04:38.960Z</time>
      </trkpt>
      <trkpt lat="45.95396" lon="1.50717">
        <ele>373.762785</ele>
        <time>2021-07-07T01:04:41.834Z</time>
      </trkpt>
      <trkpt lat="45.95392" lon="1.50723">
        <ele>373.549449</ele>
        <time>2021-07-07T01:04:42.671Z</time>
      </trkpt>
      <trkpt lat="45.95392" lon="1.50758">
        <ele>372.704249</ele>
        <time>2021-07-07T01:04:46.303Z</time>
      </trkpt>
      <trkpt lat="45.95382" lon="1.50759">
        <ele>372.371613</ele>
        <time>2021-07-07T01:04:48.360Z</time>
      </trkpt>
      <trkpt lat="45.95357" lon="1.50755">
        <ele>370.101176</ele>
        <time>2021-07-07T01:04:54.355Z</time>
      </trkpt>
      <trkpt lat="45.95311" lon="1.50762">
        <ele>365.691695</ele>
        <time>2021-07-07T01:05:04.513Z</time>
      </trkpt>
      <trkpt lat="45.95295" lon="1.50789">
        <ele>363.365521</ele>
        <time>2021-07-07T01:05:09.960Z</time>
      </trkpt>
      <trkpt lat="45.9527" lon="1.50801">
        <ele>360.909369</ele>
        <time>2021-07-07T01:05:15.394Z</time>
      </trkpt>
      <trkpt lat="45.95223" lon="1.50879">
        <ele>354.100531</ele>
        <time>2021-07-07T01:05:30.552Z</time>
      </trkpt>
      <trkpt lat="45.9516" lon="1.50964">
        <ele>346.240688</ele>
        <time>2021-07-07T01:05:48.824Z</time>
      </trkpt>
      <trkpt lat="45.95062" lon="1.51127">
        <ele>336.722706</ele>
        <time>2021-07-07T01:06:23.455Z</time>
      </trkpt>
      <trkpt lat="45.9507" lon="1.5116">
        <ele>335.96652</ele>
        <time>2021-07-07T01:06:30.058Z</time>
      </trkpt>
      <trkpt lat="45.95071" lon="1.51177">
        <ele>335.599807</ele>
        <time>2021-07-07T01:06:33.186Z</time>
      </trkpt>
      <trkpt lat="45.95063" lon="1.51172">
        <ele>335.309023</ele>
        <time>2021-07-07T01:06:34.945Z</time>
      </trkpt>
      <trkpt lat="45.95053" lon="1.51172">
        <ele>334.999005</ele>
        <time>2021-07-07T01:06:36.493Z</time>
      </trkpt>
      <trkpt lat="45.95007" lon="1.51196">
        <ele>333.471656</ele>
        <time>2021-07-07T01:06:44.844Z</time>
      </trkpt>
      <trkpt lat="45.94997" lon="1.51195">
        <ele>333.27693</ele>
        <time>2021-07-07T01:06:47.218Z</time>
      </trkpt>
      <trkpt lat="45.94976" lon="1.51175">
        <ele>333.38141</ele>
        <time>2021-07-07T01:06:52.147Z</time>
      </trkpt>
      <trkpt lat="45.9495" lon="1.51111">
        <ele>333.596037</ele>
        <time>2021-07-07T01:07:05.636Z</time>
      </trkpt>
      <trkpt lat="45.94936" lon="1.51079">
        <ele>333.705121</ele>
        <time>2021-07-07T01:07:11.895Z</time>
      </trkpt>
      <trkpt lat="45.94917" lon="1.51056">
        <ele>333.809761</ele>
        <time>2021-07-07T01:07:17.919Z</time>
      </trkpt>
      <trkpt lat="45.94837" lon="1.51025">
        <ele>333.518794</ele>
        <time>2021-07-07T01:07:33.541Z</time>
      </trkpt>
      <trkpt lat="45.94822" lon="1.51013">
        <ele>333.270861</ele>
        <time>2021-07-07T01:07:36.547Z</time>
      </trkpt>
      <trkpt lat="45.94817" lon="1.51009">
        <ele>333.197891</ele>
        <time>2021-07-07T01:07:37.919Z</time>
      </trkpt>
      <trkpt lat="45.94808" lon="1.51019">
        <ele>333.027161</ele>
        <time>2021-07-07T01:07:39.770Z</time>
      </trkpt>
      <trkpt lat="45.94748" lon="1.51034">
        <ele>332.156354</ele>
        <time>2021-07-07T01:07:49.766Z</time>
      </trkpt>
      <trkpt lat="45.94721" lon="1.51046">
        <ele>331.751638</ele>
        <time>2021-07-07T01:07:54.041Z</time>
      </trkpt>
      <trkpt lat="45.94703" lon="1.51068">
        <ele>331.37095</ele>
        <time>2021-07-07T01:07:57.653Z</time>
      </trkpt>
      <trkpt lat="45.94644" lon="1.51169">
        <ele>327.156383</ele>
        <time>2021-07-07T01:08:10.306Z</time>
      </trkpt>
      <trkpt lat="45.94625" lon="1.51181">
        <ele>326.22701</ele>
        <time>2021-07-07T01:08:12.956Z</time>
      </trkpt>
      <trkpt lat="45.94579" lon="1.51185">
        <ele>324.116445</ele>
        <time>2021-07-07T01:08:19.133Z</time>
      </trkpt>
      <trkpt lat="45.94571" lon="1.51191">
        <ele>323.699201</ele>
        <time>2021-07-07T01:08:20.327Z</time>
      </trkpt>
      <trkpt lat="45.94563" lon="1.512">
        <ele>323.223275</ele>
        <time>2021-07-07T01:08:21.608Z</time>
      </trkpt>
      <trkpt lat="45.94537" lon="1.51245">
        <ele>320.878373</ele>
        <time>2021-07-07T01:08:26.885Z</time>
      </trkpt>
      <trkpt lat="45.94512" lon="1.51274">
        <ele>319.014288</ele>
        <time>2021-07-07T01:08:31.007Z</time>
      </trkpt>
      <trkpt lat="45.94408" lon="1.51333">
        <ele>312.471421</ele>
        <time>2021-07-07T01:08:45.606Z</time>
      </trkpt>
      <trkpt lat="45.94338" lon="1.51404">
        <ele>307.79053</ele>
        <time>2021-07-07T01:08:56.812Z</time>
      </trkpt>
      <trkpt lat="45.94318" lon="1.51418">
        <ele>306.562497</ele>
        <time>2021-07-07T01:08:59.813Z</time>
      </trkpt>
      <trkpt lat="45.94306" lon="1.5142">
        <ele>305.90061</ele>
        <time>2021-07-07T01:09:01.293Z</time>
      </trkpt>
      <trkpt lat="45.94308" lon="1.51428">
        <ele>305.584547</ele>
        <time>2021-07-07T01:09:02.159Z</time>
      </trkpt>
      <trkpt lat="45.9431" lon="1.51442">
        <ele>305.012893</ele>
        <time>2021-07-07T01:09:03.708Z</time>
      </trkpt>
      <trkpt lat="45.94316" lon="1.51471">
        <ele>303.864654</ele>
        <time>2021-07-07T01:09:06.570Z</time>
      </trkpt>
      <trkpt lat="45.94255" lon="1.51403">
        <ele>300.227184</ele>
        <time>2021-07-07T01:09:25.633Z</time>
      </trkpt>
      <trkpt lat="45.94243" lon="1.5139">
        <ele>299.570973</ele>
        <time>2021-07-07T01:09:29.291Z</time>
      </trkpt>
      <trkpt lat="45.94239" lon="1.51382">
        <ele>299.258098</ele>
        <time>2021-07-07T01:09:30.829Z</time>
      </trkpt>
      <trkpt lat="45.94235" lon="1.51373">
        <ele>298.930243</ele>
        <time>2021-07-07T01:09:32.644Z</time>
      </trkpt>
      <trkpt lat="45.94233" lon="1.51343">
        <ele>297.994762</ele>
        <time>2021-07-07T01:09:38.011Z</time>
      </trkpt>
      <trkpt lat="45.94225" lon="1.51326">
        <ele>297.346264</ele>
        <time>2021-07-07T01:09:41.593Z</time>
      </trkpt>
      <trkpt lat="45.94187" lon="1.51308">
        <ele>295.573989</ele>
        <time>2021-07-07T01:09:51.484Z</time>
      </trkpt>
      <trkpt lat="45.94155" lon="1.51279">
        <ele>294.192081</ele>
        <time>2021-07-07T01:10:01.017Z</time>
      </trkpt>
      <trkpt lat="45.94145" lon="1.5126">
        <ele>293.673973</ele>
        <time>2021-07-07T01:10:05.098Z</time>
      </trkpt>
      <trkpt lat="45.94117" lon="1.51205">
        <ele>292.224345</ele>
        <time>2021-07-07T01:10:17.244Z</time>
      </trkpt>
      <trkpt lat="45.94107" lon="1.51114">
        <ele>290.241987</ele>
        <time>2021-07-07T01:10:34.012Z</time>
      </trkpt>
      <trkpt lat="45.94092" lon="1.51085">
        <ele>289.481202</ele>
        <time>2021-07-07T01:10:40.850Z</time>
      </trkpt>
      <trkpt lat="45.94093" lon="1.51082">
        <ele>289.423205</ele>
        <time>2021-07-07T01:10:41.247Z</time>
      </trkpt>
      <trkpt lat="45.94093" lon="1.51082">
        <ele>289.423205</ele>
        <time>2021-07-07T01:10:41.278Z</time>
      </trkpt>
      <trkpt lat="45.94093" lon="1.51082">
        <ele>289.423205</ele>
        <time>2021-07-07T01:10:41.284Z</time>
      </trkpt>
      <trkpt lat="45.94094" lon="1.51024">
        <ele>289.203916</ele>
        <time>2021-07-07T01:10:52.768Z</time>
      </trkpt>
      <trkpt lat="45.94112" lon="1.50978">
        <ele>289.094638</ele>
        <time>2021-07-07T01:11:03.230Z</time>
      </trkpt>
      <trkpt lat="45.94119" lon="1.50964">
        <ele>289.05895</ele>
        <time>2021-07-07T01:11:06.459Z</time>
      </trkpt>
      <trkpt lat="45.94123" lon="1.50955">
        <ele>289.035832</ele>
        <time>2021-07-07T01:11:08.802Z</time>
      </trkpt>
      <trkpt lat="45.94131" lon="1.50954">
        <ele>289.013395</ele>
        <time>2021-07-07T01:11:11.185Z</time>
      </trkpt>
      <trkpt lat="45.94131" lon="1.50954">
        <ele>289.013395</ele>
        <time>2021-07-07T01:11:11.277Z</time>
      </trkpt>
      <trkpt lat="45.94136" lon="1.50945">
        <ele>288.990426</ele>
        <time>2021-07-07T01:11:12.487Z</time>
      </trkpt>
      <trkpt lat="45.94169" lon="1.5092">
        <ele>288.879516</ele>
        <time>2021-07-07T01:11:19.329Z</time>
      </trkpt>
      <trkpt lat="45.94185" lon="1.50895">
        <ele>288.809348</ele>
        <time>2021-07-07T01:11:24.767Z</time>
      </trkpt>
      <trkpt lat="45.94188" lon="1.5088">
        <ele>288.826575</ele>
        <time>2021-07-07T01:11:28.942Z</time>
      </trkpt>
      <trkpt lat="45.9419" lon="1.5087">
        <ele>289.261492</ele>
        <time>2021-07-07T01:11:30.140Z</time>
      </trkpt>
      <trkpt lat="45.9419" lon="1.50776">
        <ele>293.226938</ele>
        <time>2021-07-07T01:12:01.429Z</time>
      </trkpt>
      <trkpt lat="45.94188" lon="1.50763">
        <ele>293.800611</ele>
        <time>2021-07-07T01:12:03.826Z</time>
      </trkpt>
      <trkpt lat="45.94228" lon="1.50705">
        <ele>297.256276</ele>
        <time>2021-07-07T01:12:37.608Z</time>
      </trkpt>
      <trkpt lat="45.94245" lon="1.50678">
        <ele>298.793291</ele>
        <time>2021-07-07T01:12:50.618Z</time>
      </trkpt>
      <trkpt lat="45.94245" lon="1.50667">
        <ele>299.249374</ele>
        <time>2021-07-07T01:12:58.171Z</time>
      </trkpt>
      <trkpt lat="45.94243" lon="1.50656">
        <ele>299.774144</ele>
        <time>2021-07-07T01:13:04.664Z</time>
      </trkpt>
      <trkpt lat="45.94228" lon="1.50639">
        <ele>301.633801</ele>
        <time>2021-07-07T01:13:16.761Z</time>
      </trkpt>
      <trkpt lat="45.94223" lon="1.50613">
        <ele>303.402338</ele>
        <time>2021-07-07T01:13:34.116Z</time>
      </trkpt>
      <trkpt lat="45.94233" lon="1.50602">
        <ele>304.602508</ele>
        <time>2021-07-07T01:13:41.077Z</time>
      </trkpt>
      <trkpt lat="45.94271" lon="1.50599">
        <ele>308.27518</ele>
        <time>2021-07-07T01:14:12.673Z</time>
      </trkpt>
      <trkpt lat="45.94277" lon="1.50596">
        <ele>308.902034</ele>
        <time>2021-07-07T01:14:20.712Z</time>
      </trkpt>
      <trkpt lat="45.94281" lon="1.50594">
        <ele>309.301763</ele>
        <time>2021-07-07T01:14:25.240Z</time>
      </trkpt>
      <trkpt lat="45.94294" lon="1.50591">
        <ele>310.608292</ele>
        <time>2021-07-07T01:14:35.700Z</time>
      </trkpt>
      <trkpt lat="45.94312" lon="1.50608">
        <ele>312.675501</ele>
        <time>2021-07-07T01:14:53.830Z</time>
      </trkpt>
      <trkpt lat="45.94317" lon="1.5063">
        <ele>314.264174</ele>
        <time>2021-07-07T01:15:06.588Z</time>
      </trkpt>
      <trkpt lat="45.94303" lon="1.50715">
        <ele>319.88032</ele>
        <time>2021-07-07T01:15:52.945Z</time>
      </trkpt>
      <trkpt lat="45.9431" lon="1.50748">
        <ele>321.982101</ele>
        <time>2021-07-07T01:16:10.204Z</time>
      </trkpt>
      <trkpt lat="45.94319" lon="1.50749">
        <ele>322.810555</ele>
        <time>2021-07-07T01:16:19.302Z</time>
      </trkpt>
      <trkpt lat="45.9433" lon="1.50738">
        <ele>323.962545</ele>
        <time>2021-07-07T01:16:28.463Z</time>
      </trkpt>
      <trkpt lat="45.94354" lon="1.50697">
        <ele>327.297748</ele>
        <time>2021-07-07T01:16:55.508Z</time>
      </trkpt>
      <trkpt lat="45.94374" lon="1.50632">
        <ele>331.687719</ele>
        <time>2021-07-07T01:17:32.900Z</time>
      </trkpt>
      <trkpt lat="45.94388" lon="1.50608">
        <ele>333.612078</ele>
        <time>2021-07-07T01:17:49.781Z</time>
      </trkpt>
      <trkpt lat="45.94415" lon="1.50586">
        <ele>336.513257</ele>
        <time>2021-07-07T01:18:14.660Z</time>
      </trkpt>
      <trkpt lat="45.94442" lon="1.50548">
        <ele>339.95698</ele>
        <time>2021-07-07T01:18:44.239Z</time>
      </trkpt>
      <trkpt lat="45.94472" lon="1.50448">
        <ele>346.953471</ele>
        <time>2021-07-07T01:19:44.590Z</time>
      </trkpt>
      <trkpt lat="45.94524" lon="1.50228">
        <ele>360.354829</ele>
        <time>2021-07-07T01:21:46.213Z</time>
      </trkpt>
      <trkpt lat="45.94529" lon="1.50219">
        <ele>360.955754</ele>
        <time>2021-07-07T01:21:52.370Z</time>
      </trkpt>
      <trkpt lat="45.94536" lon="1.50203">
        <ele>362.083457</ele>
        <time>2021-07-07T01:22:01.196Z</time>
      </trkpt>
      <trkpt lat="45.9454" lon="1.50196">
        <ele>362.540976</ele>
        <time>2021-07-07T01:22:04.877Z</time>
      </trkpt>
      <trkpt lat="45.94577" lon="1.50114">
        <ele>366.239911</ele>
        <time>2021-07-07T01:22:47.658Z</time>
      </trkpt>
      <trkpt lat="45.94584" lon="1.50084">
        <ele>367.183071</ele>
        <time>2021-07-07T01:23:00.905Z</time>
      </trkpt>
      <trkpt lat="45.94589" lon="1.50075">
        <ele>367.516706</ele>
        <time>2021-07-07T01:23:05.249Z</time>
      </trkpt>
      <trkpt lat="45.94586" lon="1.50054">
        <ele>368.152808</ele>
        <time>2021-07-07T01:23:10.434Z</time>
      </trkpt>
      <trkpt lat="45.94581" lon="1.50041">
        <ele>368.587551</ele>
        <time>2021-07-07T01:23:15.496Z</time>
      </trkpt>
      <trkpt lat="45.94576" lon="1.50024">
        <ele>369.141092</ele>
        <time>2021-07-07T01:23:20.328Z</time>
      </trkpt>
      <trkpt lat="45.94576" lon="1.49987">
        <ele>370.248371</ele>
        <time>2021-07-07T01:23:28.084Z</time>
      </trkpt>
      <trkpt lat="45.9458" lon="1.4997">
        <ele>370.797976</ele>
        <time>2021-07-07T01:23:32.108Z</time>
      </trkpt>
      <trkpt lat="45.94583" lon="1.49933">
        <ele>371.884291</ele>
        <time>2021-07-07T01:23:39.584Z</time>
      </trkpt>
      <trkpt lat="45.94584" lon="1.4987">
        <ele>372.768368</ele>
        <time>2021-07-07T01:23:52.856Z</time>
      </trkpt>
      <trkpt lat="45.94586" lon="1.4985">
        <ele>373.050572</ele>
        <time>2021-07-07T01:23:56.643Z</time>
      </trkpt>
      <trkpt lat="45.94589" lon="1.49831">
        <ele>373.32481</ele>
        <time>2021-07-07T01:24:00.797Z</time>
      </trkpt>
      <trkpt lat="45.94626" lon="1.49756">
        <ele>374.627293</ele>
        <time>2021-07-07T01:24:18.593Z</time>
      </trkpt>
      <trkpt lat="45.94726" lon="1.49601">
        <ele>377.734398</ele>
        <time>2021-07-07T01:25:02.999Z</time>
      </trkpt>
      <trkpt lat="45.94742" lon="1.49576">
        <ele>378.235225</ele>
        <time>2021-07-07T01:25:10.589Z</time>
      </trkpt>
      <trkpt lat="45.94743" lon="1.49552">
        <ele>378.591677</ele>
        <time>2021-07-07T01:25:16.151Z</time>
      </trkpt>
      <trkpt lat="45.94714" lon="1.49308">
        <ele>380.858761</ele>
        <time>2021-07-07T01:26:03.162Z</time>
      </trkpt>
      <trkpt lat="45.94715" lon="1.49136">
        <ele>380.895973</ele>
        <time>2021-07-07T01:26:25.058Z</time>
      </trkpt>
      <trkpt lat="45.94731" lon="1.49091">
        <ele>380.693519</ele>
        <time>2021-07-07T01:26:35.233Z</time>
      </trkpt>
      <trkpt lat="45.94732" lon="1.49009">
        <ele>380.358616</ele>
        <time>2021-07-07T01:26:51.982Z</time>
      </trkpt>
      <trkpt lat="45.94711" lon="1.48833">
        <ele>379.576609</ele>
        <time>2021-07-07T01:27:29.515Z</time>
      </trkpt>
      <trkpt lat="45.94701" lon="1.48638">
        <ele>378.63084</ele>
        <time>2021-07-07T01:28:10.664Z</time>
      </trkpt>
      <trkpt lat="45.94685" lon="1.48538">
        <ele>378.086263</ele>
        <time>2021-07-07T01:28:31.868Z</time>
      </trkpt>
      <trkpt lat="45.94667" lon="1.4846">
        <ele>377.633162</ele>
        <time>2021-07-07T01:28:48.700Z</time>
      </trkpt>
      <trkpt lat="45.94623" lon="1.48304">
        <ele>376.620495</ele>
        <time>2021-07-07T01:29:23.232Z</time>
      </trkpt>
      <trkpt lat="45.94516" lon="1.48028">
        <ele>374.713483</ele>
        <time>2021-07-07T01:30:29.355Z</time>
      </trkpt>
      <trkpt lat="45.94493" lon="1.48003">
        <ele>373.912999</ele>
        <time>2021-07-07T01:30:37.558Z</time>
      </trkpt>
      <trkpt lat="45.94372" lon="1.4798">
        <ele>369.827078</ele>
        <time>2021-07-07T01:31:09.399Z</time>
      </trkpt>
      <trkpt lat="45.94338" lon="1.47946">
        <ele>368.225299</ele>
        <time>2021-07-07T01:31:19.143Z</time>
      </trkpt>
      <trkpt lat="45.94333" lon="1.4793">
        <ele>367.313703</ele>
        <time>2021-07-07T01:31:20.833Z</time>
      </trkpt>
      <trkpt lat="45.94317" lon="1.4784">
        <ele>362.694008</ele>
        <time>2021-07-07T01:31:29.621Z</time>
      </trkpt>
      <trkpt lat="45.94313" lon="1.47831">
        <ele>362.142079</ele>
        <time>2021-07-07T01:31:30.594Z</time>
      </trkpt>
      <trkpt lat="45.9431" lon="1.47819">
        <ele>361.527764</ele>
        <time>2021-07-07T01:31:31.683Z</time>
      </trkpt>
      <trkpt lat="45.94261" lon="1.47668">
        <ele>353.088387</ele>
        <time>2021-07-07T01:31:46.979Z</time>
      </trkpt>
      <trkpt lat="45.94239" lon="1.47637">
        <ele>350.769518</ele>
        <time>2021-07-07T01:31:50.992Z</time>
      </trkpt>
      <trkpt lat="45.94206" lon="1.47616">
        <ele>348.061537</ele>
        <time>2021-07-07T01:31:55.868Z</time>
      </trkpt>
      <trkpt lat="45.94193" lon="1.47599">
        <ele>346.742256</ele>
        <time>2021-07-07T01:31:58.234Z</time>
      </trkpt>
      <trkpt lat="45.94182" lon="1.47572">
        <ele>345.093739</ele>
        <time>2021-07-07T01:32:01.202Z</time>
      </trkpt>
      <trkpt lat="45.9418" lon="1.4754">
        <ele>343.45756</ele>
        <time>2021-07-07T01:32:04.126Z</time>
      </trkpt>
      <trkpt lat="45.94186" lon="1.47521">
        <ele>342.396787</ele>
        <time>2021-07-07T01:32:06.016Z</time>
      </trkpt>
      <trkpt lat="45.94201" lon="1.47504">
        <ele>340.878299</ele>
        <time>2021-07-07T01:32:08.592Z</time>
      </trkpt>
      <trkpt lat="45.94301" lon="1.47475">
        <ele>332.834104</ele>
        <time>2021-07-07T01:32:22.064Z</time>
      </trkpt>
      <trkpt lat="45.94382" lon="1.47415">
        <ele>326.059534</ele>
        <time>2021-07-07T01:32:33.958Z</time>
      </trkpt>
      <trkpt lat="45.9441" lon="1.47329">
        <ele>321.776687</ele>
        <time>2021-07-07T01:32:42.577Z</time>
      </trkpt>
      <trkpt lat="45.94419" lon="1.47281">
        <ele>319.537473</ele>
        <time>2021-07-07T01:32:47.304Z</time>
      </trkpt>
      <trkpt lat="45.94449" lon="1.4721">
        <ele>316.571483</ele>
        <time>2021-07-07T01:32:55.910Z</time>
      </trkpt>
      <trkpt lat="45.94451" lon="1.47194">
        <ele>316.830657</ele>
        <time>2021-07-07T01:32:57.681Z</time>
      </trkpt>
      <trkpt lat="45.94448" lon="1.4717">
        <ele>317.204279</ele>
        <time>2021-07-07T01:33:00.652Z</time>
      </trkpt>
      <trkpt lat="45.94437" lon="1.47132">
        <ele>317.822226</ele>
        <time>2021-07-07T01:33:05.590Z</time>
      </trkpt>
      <trkpt lat="45.94426" lon="1.47121">
        <ele>318.120701</ele>
        <time>2021-07-07T01:33:10.085Z</time>
      </trkpt>
      <trkpt lat="45.94381" lon="1.47113">
        <ele>319.12007</ele>
        <time>2021-07-07T01:33:26.814Z</time>
      </trkpt>
      <trkpt lat="45.94369" lon="1.47102">
        <ele>319.422191</ele>
        <time>2021-07-07T01:33:31.804Z</time>
      </trkpt>
      <trkpt lat="45.94366" lon="1.47092">
        <ele>319.597319</ele>
        <time>2021-07-07T01:33:37.558Z</time>
      </trkpt>
      <trkpt lat="45.94369" lon="1.47074">
        <ele>319.869362</ele>
        <time>2021-07-07T01:33:44.003Z</time>
      </trkpt>
      <trkpt lat="45.94387" lon="1.47035">
        <ele>321.302819</ele>
        <time>2021-07-07T01:34:02.761Z</time>
      </trkpt>
      <trkpt lat="45.94416" lon="1.47003">
        <ele>324.192303</ele>
        <time>2021-07-07T01:34:25.481Z</time>
      </trkpt>
      <trkpt lat="45.9442" lon="1.4698">
        <ele>325.47929</ele>
        <time>2021-07-07T01:34:34.325Z</time>
      </trkpt>
      <trkpt lat="45.94417" lon="1.46961">
        <ele>326.543434</ele>
        <time>2021-07-07T01:34:43.999Z</time>
      </trkpt>
      <trkpt lat="45.94421" lon="1.46938">
        <ele>327.862712</ele>
        <time>2021-07-07T01:34:55.450Z</time>
      </trkpt>
      <trkpt lat="45.94418" lon="1.46843">
        <ele>333.090547</ele>
        <time>2021-07-07T01:35:43.158Z</time>
      </trkpt>
      <trkpt lat="45.944" lon="1.4673">
        <ele>338.970167</ele>
        <time>2021-07-07T01:36:43.641Z</time>
      </trkpt>
      <trkpt lat="45.94362" lon="1.46648">
        <ele>343.891975</ele>
        <time>2021-07-07T01:37:27.257Z</time>
      </trkpt>
      <trkpt lat="45.94351" lon="1.4661">
        <ele>345.892869</ele>
        <time>2021-07-07T01:37:45.443Z</time>
      </trkpt>
      <trkpt lat="45.94343" lon="1.46555">
        <ele>348.54961</ele>
        <time>2021-07-07T01:38:10.359Z</time>
      </trkpt>
      <trkpt lat="45.94341" lon="1.46448">
        <ele>353.323637</ele>
        <time>2021-07-07T01:38:58.306Z</time>
      </trkpt>
      <trkpt lat="45.94326" lon="1.46344">
        <ele>358.070295</ele>
        <time>2021-07-07T01:39:45.925Z</time>
      </trkpt>
      <trkpt lat="45.94313" lon="1.46286">
        <ele>360.67748</ele>
        <time>2021-07-07T01:40:11.584Z</time>
      </trkpt>
      <trkpt lat="45.94295" lon="1.46229">
        <ele>363.401156</ele>
        <time>2021-07-07T01:40:39.486Z</time>
      </trkpt>
      <trkpt lat="45.94272" lon="1.46178">
        <ele>366.062771</ele>
        <time>2021-07-07T01:41:07.074Z</time>
      </trkpt>
      <trkpt lat="45.94244" lon="1.46073">
        <ele>370.557999</ele>
        <time>2021-07-07T01:41:56.234Z</time>
      </trkpt>
      <trkpt lat="45.94228" lon="1.45973">
        <ele>373.119497</ele>
        <time>2021-07-07T01:42:37.554Z</time>
      </trkpt>
      <trkpt lat="45.9422" lon="1.4587">
        <ele>375.729356</ele>
        <time>2021-07-07T01:43:11.006Z</time>
      </trkpt>
      <trkpt lat="45.94203" lon="1.45823">
        <ele>376.288165</ele>
        <time>2021-07-07T01:43:23.988Z</time>
      </trkpt>
      <trkpt lat="45.94196" lon="1.4581">
        <ele>376.068581</ele>
        <time>2021-07-07T01:43:27.692Z</time>
      </trkpt>
      <trkpt lat="45.94191" lon="1.45794">
        <ele>375.829068</ele>
        <time>2021-07-07T01:43:31.368Z</time>
      </trkpt>
      <trkpt lat="45.94184" lon="1.45734">
        <ele>375.006883</ele>
        <time>2021-07-07T01:43:43.718Z</time>
      </trkpt>
      <trkpt lat="45.94184" lon="1.45727">
        <ele>374.92401</ele>
        <time>2021-07-07T01:43:44.852Z</time>
      </trkpt>
      <trkpt lat="45.94187" lon="1.45698">
        <ele>374.525045</ele>
        <time>2021-07-07T01:43:50.369Z</time>
      </trkpt>
      <trkpt lat="45.94188" lon="1.45558">
        <ele>372.194796</ele>
        <time>2021-07-07T01:44:14.973Z</time>
      </trkpt>
      <trkpt lat="45.94177" lon="1.45489">
        <ele>370.222934</ele>
        <time>2021-07-07T01:44:27.036Z</time>
      </trkpt>
      <trkpt lat="45.94141" lon="1.45337">
        <ele>365.834411</ele>
        <time>2021-07-07T01:44:54.916Z</time>
      </trkpt>
      <trkpt lat="45.94075" lon="1.45144">
        <ele>362.112768</ele>
        <time>2021-07-07T01:45:34.542Z</time>
      </trkpt>
      <trkpt lat="45.93997" lon="1.45039">
        <ele>361.440592</ele>
        <time>2021-07-07T01:46:05.998Z</time>
      </trkpt>
      <trkpt lat="45.93943" lon="1.44982">
        <ele>361.439195</ele>
        <time>2021-07-07T01:46:29.494Z</time>
      </trkpt>
      <trkpt lat="45.93906" lon="1.44975">
        <ele>361.541279</ele>
        <time>2021-07-07T01:46:43.688Z</time>
      </trkpt>
      <trkpt lat="45.9385" lon="1.44978">
        <ele>362.72818</ele>
        <time>2021-07-07T01:47:05.212Z</time>
      </trkpt>
      <trkpt lat="45.93803" lon="1.4493">
        <ele>363.97565</ele>
        <time>2021-07-07T01:47:29.468Z</time>
      </trkpt>
      <trkpt lat="45.93801" lon="1.44895">
        <ele>364.502433</ele>
        <time>2021-07-07T01:47:40.387Z</time>
      </trkpt>
      <trkpt lat="45.93791" lon="1.44853">
        <ele>365.167867</ele>
        <time>2021-07-07T01:47:55.140Z</time>
      </trkpt>
      <trkpt lat="45.93777" lon="1.44813">
        <ele>366.424181</ele>
        <time>2021-07-07T01:48:09.921Z</time>
      </trkpt>
      <trkpt lat="45.9375" lon="1.44762">
        <ele>368.47296</ele>
        <time>2021-07-07T01:48:33.727Z</time>
      </trkpt>
      <trkpt lat="45.93709" lon="1.44738">
        <ele>370.490916</ele>
        <time>2021-07-07T01:48:58.883Z</time>
      </trkpt>
      <trkpt lat="45.93719" lon="1.44696">
        <ele>371.888099</ele>
        <time>2021-07-07T01:49:12.956Z</time>
      </trkpt>
      <trkpt lat="45.93726" lon="1.44655">
        <ele>373.234754</ele>
        <time>2021-07-07T01:49:26.585Z</time>
      </trkpt>
      <trkpt lat="45.93733" lon="1.44624">
        <ele>374.254537</ele>
        <time>2021-07-07T01:49:37.610Z</time>
      </trkpt>
      <trkpt lat="45.93755" lon="1.44588">
        <ele>375.743742</ele>
        <time>2021-07-07T01:49:53.300Z</time>
      </trkpt>
      <trkpt lat="45.93817" lon="1.44524">
        <ele>379.208108</ele>
        <time>2021-07-07T01:50:27.816Z</time>
      </trkpt>
      <trkpt lat="45.93855" lon="1.44465">
        <ele>381.666998</ele>
        <time>2021-07-07T01:50:50.347Z</time>
      </trkpt>
      <trkpt lat="45.93872" lon="1.44433">
        <ele>381.873806</ele>
        <time>2021-07-07T01:50:59.386Z</time>
      </trkpt>
      <trkpt lat="45.93904" lon="1.44349">
        <ele>382.366485</ele>
        <time>2021-07-07T01:51:16.351Z</time>
      </trkpt>
      <trkpt lat="45.93929" lon="1.4427">
        <ele>382.814989</ele>
        <time>2021-07-07T01:51:28.335Z</time>
      </trkpt>
      <trkpt lat="45.93955" lon="1.44208">
        <ele>382.263562</ele>
        <time>2021-07-07T01:51:37.103Z</time>
      </trkpt>
      <trkpt lat="45.93969" lon="1.44169">
        <ele>381.483807</ele>
        <time>2021-07-07T01:51:42.146Z</time>
      </trkpt>
      <trkpt lat="45.93993" lon="1.43992">
        <ele>378.19186</ele>
        <time>2021-07-07T01:52:01.540Z</time>
      </trkpt>
      <trkpt lat="45.94023" lon="1.4387">
        <ele>374.903235</ele>
        <time>2021-07-07T01:52:14.768Z</time>
      </trkpt>
      <trkpt lat="45.94024" lon="1.43853">
        <ele>374.468066</ele>
        <time>2021-07-07T01:52:16.475Z</time>
      </trkpt>
      <trkpt lat="45.94023" lon="1.43835">
        <ele>373.996024</ele>
        <time>2021-07-07T01:52:18.335Z</time>
      </trkpt>
      <trkpt lat="45.94019" lon="1.43812">
        <ele>373.380963</ele>
        <time>2021-07-07T01:52:20.962Z</time>
      </trkpt>
      <trkpt lat="45.94005" lon="1.43774">
        <ele>372.292643</ele>
        <time>2021-07-07T01:52:25.483Z</time>
      </trkpt>
      <trkpt lat="45.93994" lon="1.43753">
        <ele>371.691283</ele>
        <time>2021-07-07T01:52:28.173Z</time>
      </trkpt>
      <trkpt lat="45.93987" lon="1.43741">
        <ele>371.538847</ele>
        <time>2021-07-07T01:52:29.877Z</time>
      </trkpt>
      <trkpt lat="45.93982" lon="1.43722">
        <ele>371.341023</ele>
        <time>2021-07-07T01:52:32.193Z</time>
      </trkpt>
      <trkpt lat="45.93982" lon="1.43699">
        <ele>371.122947</ele>
        <time>2021-07-07T01:52:34.561Z</time>
      </trkpt>
      <trkpt lat="45.94002" lon="1.43641">
        <ele>370.495837</ele>
        <time>2021-07-07T01:52:41.907Z</time>
      </trkpt>
      <trkpt lat="45.94012" lon="1.43628">
        <ele>370.318355</ele>
        <time>2021-07-07T01:52:44.167Z</time>
      </trkpt>
      <trkpt lat="45.94138" lon="1.43479">
        <ele>369.869332</ele>
        <time>2021-07-07T01:53:19.578Z</time>
      </trkpt>
      <trkpt lat="45.94114" lon="1.43418">
        <ele>370.226301</ele>
        <time>2021-07-07T01:53:32.867Z</time>
      </trkpt>
      <trkpt lat="45.94088" lon="1.43378">
        <ele>370.504657</ele>
        <time>2021-07-07T01:53:42.882Z</time>
      </trkpt>
      <trkpt lat="45.94036" lon="1.43325">
        <ele>370.412585</ele>
        <time>2021-07-07T01:53:58.221Z</time>
      </trkpt>
      <trkpt lat="45.93976" lon="1.43262">
        <ele>370.223925</ele>
        <time>2021-07-07T01:54:12.953Z</time>
      </trkpt>
      <trkpt lat="45.9391" lon="1.43162">
        <ele>368.968761</ele>
        <time>2021-07-07T01:54:29.267Z</time>
      </trkpt>
      <trkpt lat="45.93893" lon="1.43154">
        <ele>368.544083</ele>
        <time>2021-07-07T01:54:32.036Z</time>
      </trkpt>
      <trkpt lat="45.93872" lon="1.43154">
        <ele>368.023985</ele>
        <time>2021-07-07T01:54:35.397Z</time>
      </trkpt>
      <trkpt lat="45.93803" lon="1.4317">
        <ele>366.346822</ele>
        <time>2021-07-07T01:54:46.138Z</time>
      </trkpt>
      <trkpt lat="45.93793" lon="1.43167">
        <ele>366.094675</ele>
        <time>2021-07-07T01:54:47.750Z</time>
      </trkpt>
      <trkpt lat="45.9376" lon="1.43136">
        <ele>365.122776</ele>
        <time>2021-07-07T01:54:54.018Z</time>
      </trkpt>
      <trkpt lat="45.93736" lon="1.43084">
        <ele>364.06016</ele>
        <time>2021-07-07T01:55:00.908Z</time>
      </trkpt>
      <trkpt lat="45.93644" lon="1.43047">
        <ele>361.706668</ele>
        <time>2021-07-07T01:55:16.119Z</time>
      </trkpt>
      <trkpt lat="45.93613" lon="1.43041">
        <ele>360.997754</ele>
        <time>2021-07-07T01:55:21.337Z</time>
      </trkpt>
      <trkpt lat="45.93586" lon="1.43051">
        <ele>360.449756</ele>
        <time>2021-07-07T01:55:25.931Z</time>
      </trkpt>
      <trkpt lat="45.93551" lon="1.4305">
        <ele>359.770903</ele>
        <time>2021-07-07T01:55:31.702Z</time>
      </trkpt>
      <trkpt lat="45.93361" lon="1.43044">
        <ele>355.960331</ele>
        <time>2021-07-07T01:56:03.128Z</time>
      </trkpt>
      <trkpt lat="45.93346" lon="1.43039">
        <ele>355.629859</ele>
        <time>2021-07-07T01:56:05.805Z</time>
      </trkpt>
      <trkpt lat="45.9318" lon="1.42924">
        <ele>351.248799</ele>
        <time>2021-07-07T01:56:35.604Z</time>
      </trkpt>
      <trkpt lat="45.9319" lon="1.42908">
        <ele>350.852932</ele>
        <time>2021-07-07T01:56:37.898Z</time>
      </trkpt>
      <trkpt lat="45.93171" lon="1.42914">
        <ele>350.330544</ele>
        <time>2021-07-07T01:56:41.001Z</time>
      </trkpt>
      <trkpt lat="45.93133" lon="1.42909">
        <ele>349.312711</ele>
        <time>2021-07-07T01:56:46.891Z</time>
      </trkpt>
      <trkpt lat="45.93002" lon="1.42814">
        <ele>343.771182</ele>
        <time>2021-07-07T01:57:08.820Z</time>
      </trkpt>
      <trkpt lat="45.92938" lon="1.42821">
        <ele>341.054208</ele>
        <time>2021-07-07T01:57:18.042Z</time>
      </trkpt>
      <trkpt lat="45.92904" lon="1.42813">
        <ele>339.424325</ele>
        <time>2021-07-07T01:57:23.015Z</time>
      </trkpt>
      <trkpt lat="45.92848" lon="1.42745">
        <ele>336.008813</ele>
        <time>2021-07-07T01:57:33.411Z</time>
      </trkpt>
      <trkpt lat="45.92759" lon="1.42662">
        <ele>331.194994</ele>
        <time>2021-07-07T01:57:48.630Z</time>
      </trkpt>
      <trkpt lat="45.9273" lon="1.42642">
        <ele>329.750093</ele>
        <time>2021-07-07T01:57:53.277Z</time>
      </trkpt>
      <trkpt lat="45.92634" lon="1.42599">
        <ele>325.642591</ele>
        <time>2021-07-07T01:58:07.997Z</time>
      </trkpt>
      <trkpt lat="45.92619" lon="1.42581">
        <ele>325.121796</ele>
        <time>2021-07-07T01:58:10.909Z</time>
      </trkpt>
      <trkpt lat="45.9261" lon="1.42575">
        <ele>324.855588</ele>
        <time>2021-07-07T01:58:12.415Z</time>
      </trkpt>
      <trkpt lat="45.92535" lon="1.42587">
        <ele>322.824829</ele>
        <time>2021-07-07T01:58:24.368Z</time>
      </trkpt>
      <trkpt lat="45.92419" lon="1.4257">
        <ele>319.762824</ele>
        <time>2021-07-07T01:58:43.869Z</time>
      </trkpt>
      <trkpt lat="45.92411" lon="1.42565">
        <ele>319.540762</ele>
        <time>2021-07-07T01:58:45.336Z</time>
      </trkpt>
      <trkpt lat="45.92402" lon="1.42534">
        <ele>318.942088</ele>
        <time>2021-07-07T01:58:49.525Z</time>
      </trkpt>
      <trkpt lat="45.92384" lon="1.42519">
        <ele>318.413475</ele>
        <time>2021-07-07T01:58:52.917Z</time>
      </trkpt>
      <trkpt lat="45.92373" lon="1.42517">
        <ele>318.150482</ele>
        <time>2021-07-07T01:58:54.571Z</time>
      </trkpt>
      <trkpt lat="45.92359" lon="1.42516">
        <ele>317.795452</ele>
        <time>2021-07-07T01:58:56.700Z</time>
      </trkpt>
      <trkpt lat="45.92344" lon="1.42497">
        <ele>317.280126</ele>
        <time>2021-07-07T01:58:59.773Z</time>
      </trkpt>
      <trkpt lat="45.92329" lon="1.42492">
        <ele>316.893608</ele>
        <time>2021-07-07T01:59:01.990Z</time>
      </trkpt>
      <trkpt lat="45.92291" lon="1.42496">
        <ele>314.81487</ele>
        <time>2021-07-07T01:59:07.445Z</time>
      </trkpt>
      <trkpt lat="45.9225" lon="1.42483">
        <ele>312.296632</ele>
        <time>2021-07-07T01:59:13.420Z</time>
      </trkpt>
      <trkpt lat="45.92243" lon="1.42484">
        <ele>311.91119</ele>
        <time>2021-07-07T01:59:14.270Z</time>
      </trkpt>
      <trkpt lat="45.92207" lon="1.42583">
        <ele>307.298676</ele>
        <time>2021-07-07T01:59:32.271Z</time>
      </trkpt>
      <trkpt lat="45.92187" lon="1.42632">
        <ele>304.593216</ele>
        <time>2021-07-07T01:59:41.357Z</time>
      </trkpt>
      <trkpt lat="45.92075" lon="1.42803">
        <ele>292.095635</ele>
        <time>2021-07-07T02:00:18.151Z</time>
      </trkpt>
      <trkpt lat="45.9205" lon="1.42827">
        <ele>289.329404</ele>
        <time>2021-07-07T02:00:24.629Z</time>
      </trkpt>
      <trkpt lat="45.92021" lon="1.42853">
        <ele>286.100352</ele>
        <time>2021-07-07T02:00:32.163Z</time>
      </trkpt>
      <trkpt lat="45.91982" lon="1.42883">
        <ele>281.983893</ele>
        <time>2021-07-07T02:00:41.712Z</time>
      </trkpt>
      <trkpt lat="45.91946" lon="1.42901">
        <ele>278.466674</ele>
        <time>2021-07-07T02:00:49.904Z</time>
      </trkpt>
      <trkpt lat="45.91935" lon="1.42921">
        <ele>276.760365</ele>
        <time>2021-07-07T02:00:53.870Z</time>
      </trkpt>
      <trkpt lat="45.91926" lon="1.42939">
        <ele>275.372276</ele>
        <time>2021-07-07T02:00:55.777Z</time>
      </trkpt>
      <trkpt lat="45.91914" lon="1.42961">
        <ele>273.883221</ele>
        <time>2021-07-07T02:00:58.222Z</time>
      </trkpt>
      <trkpt lat="45.91811" lon="1.42972">
        <ele>265.843693</ele>
        <time>2021-07-07T02:01:11.543Z</time>
      </trkpt>
      <trkpt lat="45.91774" lon="1.42976">
        <ele>262.943981</ele>
        <time>2021-07-07T02:01:16.558Z</time>
      </trkpt>
      <trkpt lat="45.91739" lon="1.42934">
        <ele>261.435887</ele>
        <time>2021-07-07T02:01:28.203Z</time>
      </trkpt>
      <trkpt lat="45.91713" lon="1.42849">
        <ele>260.984509</ele>
        <time>2021-07-07T02:01:46.737Z</time>
      </trkpt>
      <trkpt lat="45.91691" lon="1.42736">
        <ele>260.418513</ele>
        <time>2021-07-07T02:02:18.437Z</time>
      </trkpt>
      <trkpt lat="45.91688" lon="1.42707">
        <ele>260.564663</ele>
        <time>2021-07-07T02:02:28.145Z</time>
      </trkpt>
      <trkpt lat="45.9166" lon="1.42461">
        <ele>262.399256</ele>
        <time>2021-07-07T02:03:34.524Z</time>
      </trkpt>
      <trkpt lat="45.91609" lon="1.42109">
        <ele>260.719392</ele>
        <time>2021-07-07T02:04:47.592Z</time>
      </trkpt>
      <trkpt lat="45.91609" lon="1.42092">
        <ele>260.642481</ele>
        <time>2021-07-07T02:04:51.339Z</time>
      </trkpt>
      <trkpt lat="45.91625" lon="1.42063">
        <ele>260.477891</ele>
        <time>2021-07-07T02:04:58.772Z</time>
      </trkpt>
      <trkpt lat="45.91682" lon="1.41997">
        <ele>260.135613</ele>
        <time>2021-07-07T02:05:21.440Z</time>
      </trkpt>
      <trkpt lat="45.91705" lon="1.41971">
        <ele>260.311747</ele>
        <time>2021-07-07T02:05:31.731Z</time>
      </trkpt>
      <trkpt lat="45.917" lon="1.41958">
        <ele>260.375223</ele>
        <time>2021-07-07T02:05:34.650Z</time>
      </trkpt>
      <trkpt lat="45.91697" lon="1.41947">
        <ele>260.427141</ele>
        <time>2021-07-07T02:05:38.147Z</time>
      </trkpt>
      <trkpt lat="45.91696" lon="1.41943">
        <ele>260.44389</ele>
        <time>2021-07-07T02:05:39.131Z</time>
      </trkpt>
      <trkpt lat="45.91695" lon="1.41942">
        <ele>260.451405</ele>
        <time>2021-07-07T02:05:39.639Z</time>
      </trkpt>
      <trkpt lat="45.91693" lon="1.41943">
        <ele>260.461434</ele>
        <time>2021-07-07T02:05:40.009Z</time>
      </trkpt>
      <trkpt lat="45.91675" lon="1.41964">
        <ele>260.605291</ele>
        <time>2021-07-07T02:05:48.269Z</time>
      </trkpt>
      <trkpt lat="45.91666" lon="1.41974">
        <ele>260.672944</ele>
        <time>2021-07-07T02:05:52.665Z</time>
      </trkpt>
      <trkpt lat="45.91657" lon="1.41986">
        <ele>260.751903</ele>
        <time>2021-07-07T02:05:57.595Z</time>
      </trkpt>
      <trkpt lat="45.91616" lon="1.42014">
        <ele>261.032145</ele>
        <time>2021-07-07T02:06:13.261Z</time>
      </trkpt>
      <trkpt lat="45.91617" lon="1.42004">
        <ele>261.077191</ele>
        <time>2021-07-07T02:06:16.243Z</time>
      </trkpt>
      <trkpt lat="45.91598" lon="1.42004">
        <ele>261.263576</ele>
        <time>2021-07-07T02:06:24.254Z</time>
      </trkpt>
      <trkpt lat="45.91585" lon="1.4197">
        <ele>262.107786</ele>
        <time>2021-07-07T02:06:32.820Z</time>
      </trkpt>
      <trkpt lat="45.91578" lon="1.4193">
        <ele>263.039713</ele>
        <time>2021-07-07T02:06:43.728Z</time>
      </trkpt>
      <trkpt lat="45.9158" lon="1.41884">
        <ele>264.068036</ele>
        <time>2021-07-07T02:06:56.424Z</time>
      </trkpt>
      <trkpt lat="45.91595" lon="1.41831">
        <ele>265.322827</ele>
        <time>2021-07-07T02:07:16.550Z</time>
      </trkpt>
      <trkpt lat="45.91619" lon="1.41745">
        <ele>268.321648</ele>
        <time>2021-07-07T02:07:56.005Z</time>
      </trkpt>
      <trkpt lat="45.91635" lon="1.41812">
        <ele>273.049422</ele>
        <time>2021-07-07T02:08:29.743Z</time>
      </trkpt>
      <trkpt lat="45.91644" lon="1.41819">
        <ele>274.022601</ele>
        <time>2021-07-07T02:08:36.362Z</time>
      </trkpt>
      <trkpt lat="45.91651" lon="1.41801">
        <ele>275.401819</ele>
        <time>2021-07-07T02:08:50.265Z</time>
      </trkpt>
      <trkpt lat="45.91657" lon="1.41776">
        <ele>277.17047</ele>
        <time>2021-07-07T02:09:02.814Z</time>
      </trkpt>
      <trkpt lat="45.91676" lon="1.41558">
        <ele>294.055568</ele>
        <time>2021-07-07T02:11:28.335Z</time>
      </trkpt>
      <trkpt lat="45.91669" lon="1.41511">
        <ele>298.22903</ele>
        <time>2021-07-07T02:12:00.406Z</time>
      </trkpt>
      <trkpt lat="45.91615" lon="1.41339">
        <ele>313.052366</ele>
        <time>2021-07-07T02:14:01.705Z</time>
      </trkpt>
      <trkpt lat="45.91587" lon="1.4129">
        <ele>317.622765</ele>
        <time>2021-07-07T02:14:40.673Z</time>
      </trkpt>
      <trkpt lat="45.915" lon="1.41167">
        <ele>326.297254</ele>
        <time>2021-07-07T02:16:09.754Z</time>
      </trkpt>
      <trkpt lat="45.91475" lon="1.41147">
        <ele>327.115252</ele>
        <time>2021-07-07T02:16:25.300Z</time>
      </trkpt>
      <trkpt lat="45.91425" lon="1.41145">
        <ele>328.534909</ele>
        <time>2021-07-07T02:16:44.081Z</time>
      </trkpt>
      <trkpt lat="45.91406" lon="1.41152">
        <ele>329.10231</ele>
        <time>2021-07-07T02:16:51.621Z</time>
      </trkpt>
      <trkpt lat="45.91392" lon="1.4116">
        <ele>329.533239</ele>
        <time>2021-07-07T02:16:55.483Z</time>
      </trkpt>
      <trkpt lat="45.9137" lon="1.41174">
        <ele>329.414653</ele>
        <time>2021-07-07T02:17:02.355Z</time>
      </trkpt>
      <trkpt lat="45.91307" lon="1.41174">
        <ele>325.658598</ele>
        <time>2021-07-07T02:17:17.681Z</time>
      </trkpt>
      <trkpt lat="45.9125" lon="1.41186">
        <ele>322.203008</ele>
        <time>2021-07-07T02:17:30.677Z</time>
      </trkpt>
      <trkpt lat="45.91197" lon="1.41173">
        <ele>318.813429</ele>
        <time>2021-07-07T02:17:42.767Z</time>
      </trkpt>
      <trkpt lat="45.91166" lon="1.41135">
        <ele>315.023061</ele>
        <time>2021-07-07T02:17:51.742Z</time>
      </trkpt>
      <trkpt lat="45.91086" lon="1.4107">
        <ele>306.461301</ele>
        <time>2021-07-07T02:18:11.726Z</time>
      </trkpt>
      <trkpt lat="45.9106" lon="1.41034">
        <ele>303.078701</ele>
        <time>2021-07-07T02:18:19.529Z</time>
      </trkpt>
      <trkpt lat="45.91031" lon="1.41044">
        <ele>299.665566</ele>
        <time>2021-07-07T02:18:25.771Z</time>
      </trkpt>
      <trkpt lat="45.91008" lon="1.41065">
        <ele>296.340163</ele>
        <time>2021-07-07T02:18:31.470Z</time>
      </trkpt>
      <trkpt lat="45.90913" lon="1.41095">
        <ele>284.286571</ele>
        <time>2021-07-07T02:18:51.712Z</time>
      </trkpt>
      <trkpt lat="45.90787" lon="1.41113">
        <ele>268.660279</ele>
        <time>2021-07-07T02:19:17.674Z</time>
      </trkpt>
      <trkpt lat="45.90737" lon="1.41189">
        <ele>259.719979</ele>
        <time>2021-07-07T02:19:32.804Z</time>
      </trkpt>
      <trkpt lat="45.90711" lon="1.41155">
        <ele>256.7153</ele>
        <time>2021-07-07T02:19:40.619Z</time>
      </trkpt>
      <trkpt lat="45.90692" lon="1.41154">
        <ele>255.579861</ele>
        <time>2021-07-07T02:19:44.790Z</time>
      </trkpt>
      <trkpt lat="45.9066" lon="1.41169">
        <ele>253.567044</ele>
        <time>2021-07-07T02:19:52.362Z</time>
      </trkpt>
      <trkpt lat="45.90646" lon="1.41155">
        <ele>252.512135</ele>
        <time>2021-07-07T02:19:54.799Z</time>
      </trkpt>
      <trkpt lat="45.90633" lon="1.41147">
        <ele>251.640346</ele>
        <time>2021-07-07T02:19:56.795Z</time>
      </trkpt>
      <trkpt lat="45.90599" lon="1.41079">
        <ele>248.139274</ele>
        <time>2021-07-07T02:20:05.291Z</time>
      </trkpt>
      <trkpt lat="45.90552" lon="1.40983">
        <ele>246.418088</ele>
        <time>2021-07-07T02:20:18.973Z</time>
      </trkpt>
      <trkpt lat="45.90521" lon="1.4092">
        <ele>245.780684</ele>
        <time>2021-07-07T02:20:29.242Z</time>
      </trkpt>
      <trkpt lat="45.90475" lon="1.40824">
        <ele>245.251532</ele>
        <time>2021-07-07T02:20:44.333Z</time>
      </trkpt>
      <trkpt lat="45.90438" lon="1.40782">
        <ele>245.679103</ele>
        <time>2021-07-07T02:20:53.292Z</time>
      </trkpt>
      <trkpt lat="45.90386" lon="1.4074">
        <ele>246.21983</ele>
        <time>2021-07-07T02:21:06.828Z</time>
      </trkpt>
      <trkpt lat="45.90301" lon="1.40708">
        <ele>250.036568</ele>
        <time>2021-07-07T02:21:35.436Z</time>
      </trkpt>
      <trkpt lat="45.90293" lon="1.40706">
        <ele>250.746645</ele>
        <time>2021-07-07T02:21:37.862Z</time>
      </trkpt>
      <trkpt lat="45.90287" lon="1.40704">
        <ele>251.315229</ele>
        <time>2021-07-07T02:21:41.161Z</time>
      </trkpt>
      <trkpt lat="45.90276" lon="1.40701">
        <ele>252.347242</ele>
        <time>2021-07-07T02:21:47.829Z</time>
      </trkpt>
      <trkpt lat="45.90257" lon="1.40681">
        <ele>254.58522</ele>
        <time>2021-07-07T02:22:08.158Z</time>
      </trkpt>
      <trkpt lat="45.90241" lon="1.40655">
        <ele>256.781827</ele>
        <time>2021-07-07T02:22:31.528Z</time>
      </trkpt>
      <trkpt lat="45.90232" lon="1.40586">
        <ele>261.365684</ele>
        <time>2021-07-07T02:23:14.997Z</time>
      </trkpt>
      <trkpt lat="45.90222" lon="1.40559">
        <ele>263.298028</ele>
        <time>2021-07-07T02:23:38.414Z</time>
      </trkpt>
      <trkpt lat="45.90222" lon="1.40543">
        <ele>265.073839</ele>
        <time>2021-07-07T02:23:47.536Z</time>
      </trkpt>
      <trkpt lat="45.90224" lon="1.40521">
        <ele>267.489385</ele>
        <time>2021-07-07T02:24:03.065Z</time>
      </trkpt>
      <trkpt lat="45.90217" lon="1.40511">
        <ele>269.031943</ele>
        <time>2021-07-07T02:24:17.032Z</time>
      </trkpt>
      <trkpt lat="45.90208" lon="1.40495">
        <ele>271.333995</ele>
        <time>2021-07-07T02:24:30.602Z</time>
      </trkpt>
      <trkpt lat="45.90203" lon="1.4045">
        <ele>276.309942</ele>
        <time>2021-07-07T02:25:03.850Z</time>
      </trkpt>
      <trkpt lat="45.90192" lon="1.4044">
        <ele>278.257215</ele>
        <time>2021-07-07T02:25:16.743Z</time>
      </trkpt>
      <trkpt lat="45.90203" lon="1.40214">
        <ele>303.089403</ele>
        <time>2021-07-07T02:28:25.951Z</time>
      </trkpt>
      <trkpt lat="45.90205" lon="1.40187">
        <ele>306.111121</ele>
        <time>2021-07-07T02:28:49.309Z</time>
      </trkpt>
      <trkpt lat="45.90218" lon="1.40169">
        <ele>308.93888</ele>
        <time>2021-07-07T02:29:04.983Z</time>
      </trkpt>
      <trkpt lat="45.9027" lon="1.40123">
        <ele>318.549278</ele>
        <time>2021-07-07T02:30:13.048Z</time>
      </trkpt>
      <trkpt lat="45.90332" lon="1.40075">
        <ele>324.206862</ele>
        <time>2021-07-07T02:31:21.424Z</time>
      </trkpt>
      <trkpt lat="45.90344" lon="1.40051">
        <ele>325.56332</ele>
        <time>2021-07-07T02:31:33.035Z</time>
      </trkpt>
      <trkpt lat="45.90347" lon="1.40038">
        <ele>326.232988</ele>
        <time>2021-07-07T02:31:41.769Z</time>
      </trkpt>
      <trkpt lat="45.90397" lon="1.39816">
        <ele>331.292133</ele>
        <time>2021-07-07T02:32:47.236Z</time>
      </trkpt>
      <trkpt lat="45.90393" lon="1.39801">
        <ele>331.158539</ele>
        <time>2021-07-07T02:32:50.087Z</time>
      </trkpt>
      <trkpt lat="45.90481" lon="1.39776">
        <ele>330.09114</ele>
        <time>2021-07-07T02:33:02.824Z</time>
      </trkpt>
      <trkpt lat="45.90752" lon="1.39776">
        <ele>323.312568</ele>
        <time>2021-07-07T02:33:42.234Z</time>
      </trkpt>
      <trkpt lat="45.90788" lon="1.39765">
        <ele>322.742011</ele>
        <time>2021-07-07T02:33:48.253Z</time>
      </trkpt>
      <trkpt lat="45.90839" lon="1.39719">
        <ele>321.955208</ele>
        <time>2021-07-07T02:33:58.949Z</time>
      </trkpt>
      <trkpt lat="45.9096" lon="1.39711">
        <ele>325.189116</ele>
        <time>2021-07-07T02:34:36.107Z</time>
      </trkpt>
      <trkpt lat="45.91009" lon="1.39701">
        <ele>326.506523</ele>
        <time>2021-07-07T02:34:55.612Z</time>
      </trkpt>
      <trkpt lat="45.91031" lon="1.39704">
        <ele>327.536583</ele>
        <time>2021-07-07T02:35:08.417Z</time>
      </trkpt>
      <trkpt lat="45.91074" lon="1.39698">
        <ele>329.874418</ele>
        <time>2021-07-07T02:35:33.679Z</time>
      </trkpt>
      <trkpt lat="45.91124" lon="1.39666">
        <ele>332.870438</ele>
        <time>2021-07-07T02:36:08.111Z</time>
      </trkpt>
      <trkpt lat="45.91147" lon="1.39658">
        <ele>334.162901</ele>
        <time>2021-07-07T02:36:22.864Z</time>
      </trkpt>
      <trkpt lat="45.91185" lon="1.39676">
        <ele>336.326424</ele>
        <time>2021-07-07T02:36:47.577Z</time>
      </trkpt>
      <trkpt lat="45.91203" lon="1.39693">
        <ele>337.15223</ele>
        <time>2021-07-07T02:36:59.906Z</time>
      </trkpt>
      <trkpt lat="45.91273" lon="1.39835">
        <ele>341.529035</ele>
        <time>2021-07-07T02:38:01.911Z</time>
      </trkpt>
      <trkpt lat="45.91285" lon="1.3985">
        <ele>342.104499</ele>
        <time>2021-07-07T02:38:08.974Z</time>
      </trkpt>
      <trkpt lat="45.91391" lon="1.39918">
        <ele>343.613379</ele>
        <time>2021-07-07T02:38:53.046Z</time>
      </trkpt>
      <trkpt lat="45.91468" lon="1.39996">
        <ele>344.239076</ele>
        <time>2021-07-07T02:39:22.532Z</time>
      </trkpt>
      <trkpt lat="45.91548" lon="1.40049">
        <ele>344.327537</ele>
        <time>2021-07-07T02:39:50.308Z</time>
      </trkpt>
      <trkpt lat="45.91603" lon="1.40118">
        <ele>344.400453</ele>
        <time>2021-07-07T02:40:14.277Z</time>
      </trkpt>
      <trkpt lat="45.91614" lon="1.40131">
        <ele>344.425889</ele>
        <time>2021-07-07T02:40:19.446Z</time>
      </trkpt>
      <trkpt lat="45.91652" lon="1.40159">
        <ele>344.655682</ele>
        <time>2021-07-07T02:40:34.031Z</time>
      </trkpt>
      <trkpt lat="45.91684" lon="1.4018">
        <ele>344.844986</ele>
        <time>2021-07-07T02:40:46.290Z</time>
      </trkpt>
      <trkpt lat="45.91731" lon="1.40159">
        <ele>345.114295</ele>
        <time>2021-07-07T02:41:03.693Z</time>
      </trkpt>
      <trkpt lat="45.91751" lon="1.40156">
        <ele>345.222731</ele>
        <time>2021-07-07T02:41:10.855Z</time>
      </trkpt>
      <trkpt lat="45.91807" lon="1.40173">
        <ele>345.072016</ele>
        <time>2021-07-07T02:41:30.372Z</time>
      </trkpt>
      <trkpt lat="45.91831" lon="1.40208">
        <ele>344.687241</ele>
        <time>2021-07-07T02:41:41.548Z</time>
      </trkpt>
      <trkpt lat="45.91847" lon="1.40294">
        <ele>343.975847</ele>
        <time>2021-07-07T02:42:00.656Z</time>
      </trkpt>
      <trkpt lat="45.91856" lon="1.40318">
        <ele>343.758482</ele>
        <time>2021-07-07T02:42:06.166Z</time>
      </trkpt>
      <trkpt lat="45.91866" lon="1.40329">
        <ele>343.607634</ele>
        <time>2021-07-07T02:42:09.858Z</time>
      </trkpt>
      <trkpt lat="45.91885" lon="1.40332">
        <ele>343.390521</ele>
        <time>2021-07-07T02:42:14.500Z</time>
      </trkpt>
      <trkpt lat="45.9193" lon="1.40324">
        <ele>340.514005</ele>
        <time>2021-07-07T02:42:25.622Z</time>
      </trkpt>
      <trkpt lat="45.91945" lon="1.4033">
        <ele>339.409389</ele>
        <time>2021-07-07T02:42:29.260Z</time>
      </trkpt>
      <trkpt lat="45.91948" lon="1.40334">
        <ele>339.120351</ele>
        <time>2021-07-07T02:42:30.185Z</time>
      </trkpt>
      <trkpt lat="45.91975" lon="1.40358">
        <ele>336.89139</ele>
        <time>2021-07-07T02:42:37.138Z</time>
      </trkpt>
      <trkpt lat="45.91995" lon="1.40381">
        <ele>335.018452</ele>
        <time>2021-07-07T02:42:43.069Z</time>
      </trkpt>
      <trkpt lat="45.91999" lon="1.40389">
        <ele>334.56615</ele>
        <time>2021-07-07T02:42:44.404Z</time>
      </trkpt>
      <trkpt lat="45.92009" lon="1.40416">
        <ele>333.049424</ele>
        <time>2021-07-07T02:42:49.113Z</time>
      </trkpt>
      <trkpt lat="45.92032" lon="1.40458">
        <ele>330.425046</ele>
        <time>2021-07-07T02:42:57.153Z</time>
      </trkpt>
      <trkpt lat="45.92059" lon="1.40494">
        <ele>327.405937</ele>
        <time>2021-07-07T02:43:05.268Z</time>
      </trkpt>
      <trkpt lat="45.92071" lon="1.40511">
        <ele>326.082162</ele>
        <time>2021-07-07T02:43:08.756Z</time>
      </trkpt>
      <trkpt lat="45.92085" lon="1.40592">
        <ele>321.341169</ele>
        <time>2021-07-07T02:43:21.786Z</time>
      </trkpt>
      <trkpt lat="45.92106" lon="1.40616">
        <ele>319.236742</ele>
        <time>2021-07-07T02:43:27.932Z</time>
      </trkpt>
      <trkpt lat="45.92126" lon="1.40626">
        <ele>317.522329</ele>
        <time>2021-07-07T02:43:32.475Z</time>
      </trkpt>
      <trkpt lat="45.92138" lon="1.40625">
        <ele>316.547657</ele>
        <time>2021-07-07T02:43:35.405Z</time>
      </trkpt>
      <trkpt lat="45.92165" lon="1.40606">
        <ele>314.69424</ele>
        <time>2021-07-07T02:43:42.268Z</time>
      </trkpt>
      <trkpt lat="45.92201" lon="1.4051">
        <ele>310.554777</ele>
        <time>2021-07-07T02:44:00.570Z</time>
      </trkpt>
      <trkpt lat="45.9221" lon="1.40503">
        <ele>310.011534</ele>
        <time>2021-07-07T02:44:03.683Z</time>
      </trkpt>
      <trkpt lat="45.92221" lon="1.40506">
        <ele>309.381311</ele>
        <time>2021-07-07T02:44:06.093Z</time>
      </trkpt>
      <trkpt lat="45.9224" lon="1.40529">
        <ele>307.999863</ele>
        <time>2021-07-07T02:44:12.816Z</time>
      </trkpt>
      <trkpt lat="45.92253" lon="1.40537">
        <ele>307.20643</ele>
        <time>2021-07-07T02:44:15.962Z</time>
      </trkpt>
      <trkpt lat="45.92321" lon="1.40523">
        <ele>303.68734</ele>
        <time>2021-07-07T02:44:32.522Z</time>
      </trkpt>
      <trkpt lat="45.92367" lon="1.40458">
        <ele>300.415872</ele>
        <time>2021-07-07T02:44:48.132Z</time>
      </trkpt>
      <trkpt lat="45.92368" lon="1.40444">
        <ele>299.913411</ele>
        <time>2021-07-07T02:44:50.788Z</time>
      </trkpt>
      <trkpt lat="45.9237" lon="1.40415">
        <ele>298.905483</ele>
        <time>2021-07-07T02:44:55.618Z</time>
      </trkpt>
      <trkpt lat="45.92354" lon="1.4038">
        <ele>297.422669</ele>
        <time>2021-07-07T02:45:02.570Z</time>
      </trkpt>
      <trkpt lat="45.9233" lon="1.40344">
        <ele>295.687281</ele>
        <time>2021-07-07T02:45:10.693Z</time>
      </trkpt>
      <trkpt lat="45.92338" lon="1.40347">
        <ele>295.267563</ele>
        <time>2021-07-07T02:45:12.522Z</time>
      </trkpt>
      <trkpt lat="45.9236" lon="1.40355">
        <ele>294.124273</ele>
        <time>2021-07-07T02:45:17.784Z</time>
      </trkpt>
      <trkpt lat="45.92381" lon="1.40371">
        <ele>292.947388</ele>
        <time>2021-07-07T02:45:23.380Z</time>
      </trkpt>
      <trkpt lat="45.92398" lon="1.40403">
        <ele>291.546345</ele>
        <time>2021-07-07T02:45:30.004Z</time>
      </trkpt>
      <trkpt lat="45.92405" lon="1.40408">
        <ele>291.131297</ele>
        <time>2021-07-07T02:45:32.030Z</time>
      </trkpt>
      <trkpt lat="45.92412" lon="1.4041">
        <ele>290.793192</ele>
        <time>2021-07-07T02:45:33.545Z</time>
      </trkpt>
      <trkpt lat="45.92422" lon="1.40412">
        <ele>290.278</ele>
        <time>2021-07-07T02:45:36.112Z</time>
      </trkpt>
      <trkpt lat="45.92448" lon="1.40403">
        <ele>288.920701</ele>
        <time>2021-07-07T02:45:42.627Z</time>
      </trkpt>
      <trkpt lat="45.92469" lon="1.40402">
        <ele>288.005654</ele>
        <time>2021-07-07T02:45:47.970Z</time>
      </trkpt>
      <trkpt lat="45.92475" lon="1.40403">
        <ele>288.099105</ele>
        <time>2021-07-07T02:45:49.392Z</time>
      </trkpt>
      <trkpt lat="45.92487" lon="1.40401">
        <ele>288.28409</ele>
        <time>2021-07-07T02:45:52.244Z</time>
      </trkpt>
      <trkpt lat="45.92487" lon="1.40414">
        <ele>288.419723</ele>
        <time>2021-07-07T02:45:54.594Z</time>
      </trkpt>
      <trkpt lat="45.92497" lon="1.40415">
        <ele>288.586805</ele>
        <time>2021-07-07T02:45:58.596Z</time>
      </trkpt>
      <trkpt lat="45.92508" lon="1.40417">
        <ele>288.754465</ele>
        <time>2021-07-07T02:46:01.220Z</time>
      </trkpt>
      <trkpt lat="45.92508" lon="1.4045">
        <ele>289.106015</ele>
        <time>2021-07-07T02:46:08.437Z</time>
      </trkpt>
      <trkpt lat="45.92492" lon="1.40536">
        <ele>290.059739</ele>
        <time>2021-07-07T02:46:34.875Z</time>
      </trkpt>
      <trkpt lat="45.92486" lon="1.40576">
        <ele>290.495301</ele>
        <time>2021-07-07T02:46:51.678Z</time>
      </trkpt>
      <trkpt lat="45.92479" lon="1.40648">
        <ele>293.949246</ele>
        <time>2021-07-07T02:47:27.826Z</time>
      </trkpt>
      <trkpt lat="45.92476" lon="1.40698">
        <ele>297.19167</ele>
        <time>2021-07-07T02:47:54.709Z</time>
      </trkpt>
      <trkpt lat="45.92485" lon="1.40747">
        <ele>300.48346</ele>
        <time>2021-07-07T02:48:22.496Z</time>
      </trkpt>
      <trkpt lat="45.92521" lon="1.40851">
        <ele>308.135373</ele>
        <time>2021-07-07T02:49:32.469Z</time>
      </trkpt>
      <trkpt lat="45.9254" lon="1.40864">
        <ele>310.487042</ele>
        <time>2021-07-07T02:49:51.852Z</time>
      </trkpt>
      <trkpt lat="45.92618" lon="1.4088">
        <ele>319.043253</ele>
        <time>2021-07-07T02:50:58.781Z</time>
      </trkpt>
      <trkpt lat="45.9263" lon="1.40882">
        <ele>320.326114</ele>
        <time>2021-07-07T02:51:10.466Z</time>
      </trkpt>
      <trkpt lat="45.92661" lon="1.40906">
        <ele>324.074694</ele>
        <time>2021-07-07T02:51:40.892Z</time>
      </trkpt>
      <trkpt lat="45.92756" lon="1.4101">
        <ele>334.909304</ele>
        <time>2021-07-07T02:53:20.357Z</time>
      </trkpt>
      <trkpt lat="45.92784" lon="1.41032">
        <ele>337.655672</ele>
        <time>2021-07-07T02:53:42.604Z</time>
      </trkpt>
      <trkpt lat="45.92809" lon="1.41053">
        <ele>340.099012</ele>
        <time>2021-07-07T02:53:57.642Z</time>
      </trkpt>
      <trkpt lat="45.92826" lon="1.41063">
        <ele>341.710127</ele>
        <time>2021-07-07T02:54:07.450Z</time>
      </trkpt>
      <trkpt lat="45.92833" lon="1.41071">
        <ele>342.421522</ele>
        <time>2021-07-07T02:54:11.732Z</time>
      </trkpt>
      <trkpt lat="45.92909" lon="1.41131">
        <ele>346.849421</ele>
        <time>2021-07-07T02:54:54.302Z</time>
      </trkpt>
      <trkpt lat="45.92928" lon="1.41148">
        <ele>347.99187</ele>
        <time>2021-07-07T02:55:03.368Z</time>
      </trkpt>
      <trkpt lat="45.9299" lon="1.41193">
        <ele>351.522788</ele>
        <time>2021-07-07T02:55:31.213Z</time>
      </trkpt>
      <trkpt lat="45.9315" lon="1.41299">
        <ele>359.809776</ele>
        <time>2021-07-07T02:56:51.535Z</time>
      </trkpt>
      <trkpt lat="45.93209" lon="1.41349">
        <ele>361.526314</ele>
        <time>2021-07-07T02:57:17.455Z</time>
      </trkpt>
      <trkpt lat="45.9321" lon="1.4135">
        <ele>361.570209</ele>
        <time>2021-07-07T02:57:17.962Z</time>
      </trkpt>
      <trkpt lat="45.93238" lon="1.41375">
        <ele>362.333002</ele>
        <time>2021-07-07T02:57:28.738Z</time>
      </trkpt>
      <trkpt lat="45.93353" lon="1.41474">
        <ele>364.409557</ele>
        <time>2021-07-07T02:58:02.416Z</time>
      </trkpt>
      <trkpt lat="45.93405" lon="1.41567">
        <ele>364.668671</ele>
        <time>2021-07-07T02:58:19.085Z</time>
      </trkpt>
      <trkpt lat="45.93535" lon="1.4167">
        <ele>365.346132</ele>
        <time>2021-07-07T02:58:50.504Z</time>
      </trkpt>
      <trkpt lat="45.93556" lon="1.4169">
        <ele>365.47698</ele>
        <time>2021-07-07T02:58:56.202Z</time>
      </trkpt>
      <trkpt lat="45.93594" lon="1.41711">
        <ele>365.686717</ele>
        <time>2021-07-07T02:59:05.963Z</time>
      </trkpt>
      <trkpt lat="45.93692" lon="1.41763">
        <ele>368.04194</ele>
        <time>2021-07-07T02:59:35.402Z</time>
      </trkpt>
      <trkpt lat="45.93707" lon="1.41776">
        <ele>368.465189</ele>
        <time>2021-07-07T02:59:42.031Z</time>
      </trkpt>
      <trkpt lat="45.93753" lon="1.4184">
        <ele>370.036828</ele>
        <time>2021-07-07T03:00:05.737Z</time>
      </trkpt>
      <trkpt lat="45.93756" lon="1.41843">
        <ele>370.113513</ele>
        <time>2021-07-07T03:00:07.798Z</time>
      </trkpt>
      <trkpt lat="45.93748" lon="1.41856">
        <ele>370.528268</ele>
        <time>2021-07-07T03:00:11.699Z</time>
      </trkpt>
      <trkpt lat="45.93794" lon="1.41882">
        <ele>372.328248</ele>
        <time>2021-07-07T03:00:30.570Z</time>
      </trkpt>
      <trkpt lat="45.93842" lon="1.41909">
        <ele>374.19604</ele>
        <time>2021-07-07T03:00:51.306Z</time>
      </trkpt>
      <trkpt lat="45.93861" lon="1.41915">
        <ele>374.911418</ele>
        <time>2021-07-07T03:00:58.388Z</time>
      </trkpt>
      <trkpt lat="45.93922" lon="1.41917">
        <ele>376.986438</ele>
        <time>2021-07-07T03:01:22.151Z</time>
      </trkpt>
      <trkpt lat="45.93952" lon="1.41923">
        <ele>377.742664</ele>
        <time>2021-07-07T03:01:33.023Z</time>
      </trkpt>
      <trkpt lat="45.93969" lon="1.41933">
        <ele>378.211403</ele>
        <time>2021-07-07T03:01:39.090Z</time>
      </trkpt>
      <trkpt lat="45.93971" lon="1.41934">
        <ele>378.25197</ele>
        <time>2021-07-07T03:01:39.709Z</time>
      </trkpt>
      <trkpt lat="45.93991" lon="1.41949">
        <ele>378.827845</ele>
        <time>2021-07-07T03:01:47.142Z</time>
      </trkpt>
      <trkpt lat="45.94044" lon="1.41991">
        <ele>380.331369</ele>
        <time>2021-07-07T03:02:12.378Z</time>
      </trkpt>
      <trkpt lat="45.94062" lon="1.42015">
        <ele>380.946537</ele>
        <time>2021-07-07T03:02:22.573Z</time>
      </trkpt>
      <trkpt lat="45.94078" lon="1.42049">
        <ele>381.625282</ele>
        <time>2021-07-07T03:02:34.748Z</time>
      </trkpt>
      <trkpt lat="45.94082" lon="1.42057">
        <ele>381.768024</ele>
        <time>2021-07-07T03:02:37.323Z</time>
      </trkpt>
      <trkpt lat="45.94117" lon="1.42097">
        <ele>382.78403</ele>
        <time>2021-07-07T03:02:56.260Z</time>
      </trkpt>
      <trkpt lat="45.94181" lon="1.42208">
        <ele>385.074398</ele>
        <time>2021-07-07T03:03:39.797Z</time>
      </trkpt>
      <trkpt lat="45.94211" lon="1.4224">
        <ele>386.070126</ele>
        <time>2021-07-07T03:03:56.860Z</time>
      </trkpt>
      <trkpt lat="45.94254" lon="1.42272">
        <ele>387.448972</ele>
        <time>2021-07-07T03:04:19.673Z</time>
      </trkpt>
      <trkpt lat="45.94321" lon="1.42351">
        <ele>389.887613</ele>
        <time>2021-07-07T03:04:59.577Z</time>
      </trkpt>
      <trkpt lat="45.9433" lon="1.42361">
        <ele>390.194385</ele>
        <time>2021-07-07T03:05:04.941Z</time>
      </trkpt>
      <trkpt lat="45.94431" lon="1.42498">
        <ele>393.524636</ele>
        <time>2021-07-07T03:06:07.145Z</time>
      </trkpt>
      <trkpt lat="45.94464" lon="1.42543">
        <ele>394.621151</ele>
        <time>2021-07-07T03:06:26.079Z</time>
      </trkpt>
      <trkpt lat="45.94522" lon="1.42563">
        <ele>395.281615</ele>
        <time>2021-07-07T03:06:50.003Z</time>
      </trkpt>
      <trkpt lat="45.94605" lon="1.42635">
        <ele>396.345167</ele>
        <time>2021-07-07T03:07:25.656Z</time>
      </trkpt>
      <trkpt lat="45.94655" lon="1.4267">
        <ele>396.462795</ele>
        <time>2021-07-07T03:07:43.804Z</time>
      </trkpt>
      <trkpt lat="45.94678" lon="1.42678">
        <ele>396.353716</ele>
        <time>2021-07-07T03:07:51.334Z</time>
      </trkpt>
      <trkpt lat="45.94697" lon="1.42655">
        <ele>396.243455</ele>
        <time>2021-07-07T03:07:55.991Z</time>
      </trkpt>
      <trkpt lat="45.94824" lon="1.42537">
        <ele>395.421164</ele>
        <time>2021-07-07T03:08:23.519Z</time>
      </trkpt>
      <trkpt lat="45.94907" lon="1.4277">
        <ele>394.942255</ele>
        <time>2021-07-07T03:08:57.272Z</time>
      </trkpt>
      <trkpt lat="45.94968" lon="1.42831">
        <ele>395.520434</ele>
        <time>2021-07-07T03:09:15.637Z</time>
      </trkpt>
      <trkpt lat="45.95003" lon="1.42856">
        <ele>395.829515</ele>
        <time>2021-07-07T03:09:26.695Z</time>
      </trkpt>
      <trkpt lat="45.9504" lon="1.42872">
        <ele>396.61321</ele>
        <time>2021-07-07T03:09:38.625Z</time>
      </trkpt>
      <trkpt lat="45.95044" lon="1.42873">
        <ele>396.745397</ele>
        <time>2021-07-07T03:09:40.702Z</time>
      </trkpt>
      <trkpt lat="45.9505" lon="1.42875">
        <ele>396.8887</ele>
        <time>2021-07-07T03:09:43.124Z</time>
      </trkpt>
      <trkpt lat="45.9514" lon="1.42905">
        <ele>399.333637</ele>
        <time>2021-07-07T03:10:14.630Z</time>
      </trkpt>
      <trkpt lat="45.95195" lon="1.42924">
        <ele>400.743456</ele>
        <time>2021-07-07T03:10:34.980Z</time>
      </trkpt>
      <trkpt lat="45.952" lon="1.42923">
        <ele>400.789404</ele>
        <time>2021-07-07T03:10:37.785Z</time>
      </trkpt>
      <trkpt lat="45.95276" lon="1.42941">
        <ele>401.44908</ele>
        <time>2021-07-07T03:11:08.857Z</time>
      </trkpt>
      <trkpt lat="45.95359" lon="1.42987">
        <ele>402.206043</ele>
        <time>2021-07-07T03:11:37.492Z</time>
      </trkpt>
      <trkpt lat="45.95446" lon="1.42981">
        <ele>400.13708</ele>
        <time>2021-07-07T03:12:01.410Z</time>
      </trkpt>
      <trkpt lat="45.95487" lon="1.42965">
        <ele>399.068228</ele>
        <time>2021-07-07T03:12:12.567Z</time>
      </trkpt>
      <trkpt lat="45.95538" lon="1.42983">
        <ele>397.742369</ele>
        <time>2021-07-07T03:12:25.908Z</time>
      </trkpt>
      <trkpt lat="45.95568" lon="1.43008">
        <ele>396.425066</ele>
        <time>2021-07-07T03:12:34.492Z</time>
      </trkpt>
      <trkpt lat="45.9557" lon="1.43048">
        <ele>395.348428</ele>
        <time>2021-07-07T03:12:41.428Z</time>
      </trkpt>
      <trkpt lat="45.95589" lon="1.43081">
        <ele>394.199242</ele>
        <time>2021-07-07T03:12:48.826Z</time>
      </trkpt>
      <trkpt lat="45.95601" lon="1.43091">
        <ele>393.668029</ele>
        <time>2021-07-07T03:12:52.267Z</time>
      </trkpt>
      <trkpt lat="45.95627" lon="1.43099">
        <ele>392.630393</ele>
        <time>2021-07-07T03:12:59.044Z</time>
      </trkpt>
      <trkpt lat="45.95672" lon="1.43075">
        <ele>390.787047</ele>
        <time>2021-07-07T03:13:11.111Z</time>
      </trkpt>
      <trkpt lat="45.95731" lon="1.43066">
        <ele>389.455843</ele>
        <time>2021-07-07T03:13:26.246Z</time>
      </trkpt>
      <trkpt lat="45.95778" lon="1.42999">
        <ele>387.951991</ele>
        <time>2021-07-07T03:13:44.071Z</time>
      </trkpt>
      <trkpt lat="45.95786" lon="1.42987">
        <ele>387.68788</ele>
        <time>2021-07-07T03:13:47.235Z</time>
      </trkpt>
      <trkpt lat="45.95791" lon="1.42993">
        <ele>387.545064</ele>
        <time>2021-07-07T03:13:48.244Z</time>
      </trkpt>
      <trkpt lat="45.95826" lon="1.43022">
        <ele>386.725545</ele>
        <time>2021-07-07T03:13:55.515Z</time>
      </trkpt>
      <trkpt lat="45.95841" lon="1.43048">
        <ele>386.846551</ele>
        <time>2021-07-07T03:14:00.019Z</time>
      </trkpt>
      <trkpt lat="45.95867" lon="1.43164">
        <ele>387.280981</ele>
        <time>2021-07-07T03:14:17.445Z</time>
      </trkpt>
      <trkpt lat="45.96018" lon="1.4308">
        <ele>389.781642</ele>
        <time>2021-07-07T03:15:05.353Z</time>
      </trkpt>
      <trkpt lat="45.96032" lon="1.43072">
        <ele>390.13202</ele>
        <time>2021-07-07T03:15:10.007Z</time>
      </trkpt>
      <trkpt lat="45.96041" lon="1.43063">
        <ele>390.393947</ele>
        <time>2021-07-07T03:15:14.106Z</time>
      </trkpt>
      <trkpt lat="45.96062" lon="1.42977">
        <ele>391.828762</ele>
        <time>2021-07-07T03:15:36.630Z</time>
      </trkpt>
      <trkpt lat="45.96103" lon="1.42894">
        <ele>393.077668</ele>
        <time>2021-07-07T03:15:59.271Z</time>
      </trkpt>
      <trkpt lat="45.96122" lon="1.42869">
        <ele>393.546428</ele>
        <time>2021-07-07T03:16:06.897Z</time>
      </trkpt>
      <trkpt lat="45.96124" lon="1.42867">
        <ele>393.582054</ele>
        <time>2021-07-07T03:16:08.620Z</time>
      </trkpt>
      <trkpt lat="45.96117" lon="1.42813">
        <ele>394.256272</ele>
        <time>2021-07-07T03:16:19.187Z</time>
      </trkpt>
      <trkpt lat="45.96115" lon="1.428">
        <ele>394.431624</ele>
        <time>2021-07-07T03:16:21.117Z</time>
      </trkpt>
      <trkpt lat="45.9611" lon="1.42728">
        <ele>394.736018</ele>
        <time>2021-07-07T03:16:33.183Z</time>
      </trkpt>
      <trkpt lat="45.961" lon="1.42696">
        <ele>394.473944</ele>
        <time>2021-07-07T03:16:37.657Z</time>
      </trkpt>
      <trkpt lat="45.96111" lon="1.42692">
        <ele>394.353156</ele>
        <time>2021-07-07T03:16:40.625Z</time>
      </trkpt>
      <trkpt lat="45.96142" lon="1.4269">
        <ele>394.01472</ele>
        <time>2021-07-07T03:16:46.187Z</time>
      </trkpt>
      <trkpt lat="45.96146" lon="1.42692">
        <ele>393.972411</ele>
        <time>2021-07-07T03:16:47.532Z</time>
      </trkpt>
      <trkpt lat="45.96155" lon="1.42669">
        <ele>393.775457</ele>
        <time>2021-07-07T03:16:52.260Z</time>
      </trkpt>
      <trkpt lat="45.96252" lon="1.4239">
        <ele>390.918203</ele>
        <time>2021-07-07T03:17:51.921Z</time>
      </trkpt>
      <trkpt lat="45.9633" lon="1.42282">
        <ele>391.139554</ele>
        <time>2021-07-07T03:18:28.055Z</time>
      </trkpt>
      <trkpt lat="45.96382" lon="1.42255">
        <ele>391.659088</ele>
        <time>2021-07-07T03:18:51.622Z</time>
      </trkpt>
      <trkpt lat="45.9641" lon="1.42252">
        <ele>391.915765</ele>
        <time>2021-07-07T03:19:02.253Z</time>
      </trkpt>
      <trkpt lat="45.96478" lon="1.42293">
        <ele>392.20267</ele>
        <time>2021-07-07T03:19:29.255Z</time>
      </trkpt>
      <trkpt lat="45.96502" lon="1.42316">
        <ele>392.252107</ele>
        <time>2021-07-07T03:19:39.973Z</time>
      </trkpt>
      <trkpt lat="45.96533" lon="1.42331">
        <ele>392.30732</ele>
        <time>2021-07-07T03:19:50.834Z</time>
      </trkpt>
      <trkpt lat="45.96542" lon="1.42329">
        <ele>392.323266</ele>
        <time>2021-07-07T03:19:53.215Z</time>
      </trkpt>
      <trkpt lat="45.96566" lon="1.42308">
        <ele>392.370763</ele>
        <time>2021-07-07T03:20:02.629Z</time>
      </trkpt>
      <trkpt lat="45.96582" lon="1.42302">
        <ele>392.398451</ele>
        <time>2021-07-07T03:20:07.073Z</time>
      </trkpt>
      <trkpt lat="45.96688" lon="1.42278">
        <ele>392.563259</ele>
        <time>2021-07-07T03:20:38.756Z</time>
      </trkpt>
      <trkpt lat="45.96731" lon="1.42247">
        <ele>392.637063</ele>
        <time>2021-07-07T03:20:55.085Z</time>
      </trkpt>
      <trkpt lat="45.96748" lon="1.4223">
        <ele>392.668344</ele>
        <time>2021-07-07T03:21:02.482Z</time>
      </trkpt>
      <trkpt lat="45.9676" lon="1.42219">
        <ele>392.689637</ele>
        <time>2021-07-07T03:21:06.053Z</time>
      </trkpt>
      <trkpt lat="45.96845" lon="1.42173">
        <ele>396.478928</ele>
        <time>2021-07-07T03:21:38.679Z</time>
      </trkpt>
      <trkpt lat="45.96873" lon="1.4214">
        <ele>398.00437</ele>
        <time>2021-07-07T03:21:54.916Z</time>
      </trkpt>
      <trkpt lat="45.96881" lon="1.42157">
        <ele>398.623876</ele>
        <time>2021-07-07T03:22:02.380Z</time>
      </trkpt>
      <trkpt lat="45.9689" lon="1.42176">
        <ele>399.286891</ele>
        <time>2021-07-07T03:22:09.244Z</time>
      </trkpt>
      <trkpt lat="45.96918" lon="1.42173">
        <ele>400.583049</ele>
        <time>2021-07-07T03:22:27.448Z</time>
      </trkpt>
      <trkpt lat="45.96943" lon="1.42163">
        <ele>402.329142</ele>
        <time>2021-07-07T03:22:44.634Z</time>
      </trkpt>
      <trkpt lat="45.96965" lon="1.42135">
        <ele>404.394159</ele>
        <time>2021-07-07T03:23:05.467Z</time>
      </trkpt>
      <trkpt lat="45.97025" lon="1.42104">
        <ele>408.756565</ele>
        <time>2021-07-07T03:23:49.697Z</time>
      </trkpt>
      <trkpt lat="45.97077" lon="1.42057">
        <ele>412.845203</ele>
        <time>2021-07-07T03:24:31.883Z</time>
      </trkpt>
      <trkpt lat="45.97162" lon="1.41984">
        <ele>415.930514</ele>
        <time>2021-07-07T03:25:25.639Z</time>
      </trkpt>
      <trkpt lat="45.9718" lon="1.41969">
        <ele>416.584501</ele>
        <time>2021-07-07T03:25:34.690Z</time>
      </trkpt>
      <trkpt lat="45.97231" lon="1.41966">
        <ele>418.177878</ele>
        <time>2021-07-07T03:25:52.295Z</time>
      </trkpt>
      <trkpt lat="45.97257" lon="1.4195">
        <ele>417.913354</ele>
        <time>2021-07-07T03:26:00.721Z</time>
      </trkpt>
      <trkpt lat="45.97269" lon="1.41951">
        <ele>417.723156</ele>
        <time>2021-07-07T03:26:04.017Z</time>
      </trkpt>
      <trkpt lat="45.97371" lon="1.42062">
        <ele>415.589508</ele>
        <time>2021-07-07T03:26:38.423Z</time>
      </trkpt>
      <trkpt lat="45.97445" lon="1.42121">
        <ele>414.388155</ele>
        <time>2021-07-07T03:27:02.423Z</time>
      </trkpt>
      <trkpt lat="45.97463" lon="1.42125">
        <ele>414.130465</ele>
        <time>2021-07-07T03:27:08.056Z</time>
      </trkpt>
      <trkpt lat="45.97479" lon="1.42121">
        <ele>413.906206</ele>
        <time>2021-07-07T03:27:12.560Z</time>
      </trkpt>
      <trkpt lat="45.97468" lon="1.42086">
        <ele>413.534718</ele>
        <time>2021-07-07T03:27:17.191Z</time>
      </trkpt>
      <trkpt lat="45.97451" lon="1.42045">
        <ele>413.083152</ele>
        <time>2021-07-07T03:27:22.668Z</time>
      </trkpt>
      <trkpt lat="45.97456" lon="1.42041">
        <ele>413.009349</ele>
        <time>2021-07-07T03:27:23.534Z</time>
      </trkpt>
      <trkpt lat="45.97475" lon="1.42031">
        <ele>412.730716</ele>
        <time>2021-07-07T03:27:27.101Z</time>
      </trkpt>
      <trkpt lat="45.97687" lon="1.41949">
        <ele>410.013373</ele>
        <time>2021-07-07T03:28:04.889Z</time>
      </trkpt>
      <trkpt lat="45.97692" lon="1.41868">
        <ele>409.621272</ele>
        <time>2021-07-07T03:28:15.502Z</time>
      </trkpt>
      <trkpt lat="45.97679" lon="1.41867">
        <ele>409.526912</ele>
        <time>2021-07-07T03:28:19.590Z</time>
      </trkpt>
      <trkpt lat="45.97553" lon="1.41777">
        <ele>408.382653</ele>
        <time>2021-07-07T03:29:04.354Z</time>
      </trkpt>
      <trkpt lat="45.97509" lon="1.4173">
        <ele>407.886262</ele>
        <time>2021-07-07T03:29:20.355Z</time>
      </trkpt>
      <trkpt lat="45.97452" lon="1.41713">
        <ele>407.003306</ele>
        <time>2021-07-07T03:29:36.454Z</time>
      </trkpt>
      <trkpt lat="45.9736" lon="1.41722">
        <ele>403.743853</ele>
        <time>2021-07-07T03:30:00.281Z</time>
      </trkpt>
      <trkpt lat="45.97323" lon="1.41708">
        <ele>402.36716</ele>
        <time>2021-07-07T03:30:09.898Z</time>
      </trkpt>
      <trkpt lat="45.973" lon="1.41678">
        <ele>401.274202</ele>
        <time>2021-07-07T03:30:17.387Z</time>
      </trkpt>
      <trkpt lat="45.97257" lon="1.41567">
        <ele>395.929309</ele>
        <time>2021-07-07T03:30:38.358Z</time>
      </trkpt>
      <trkpt lat="45.97227" lon="1.41518">
        <ele>393.148111</ele>
        <time>2021-07-07T03:30:48.517Z</time>
      </trkpt>
      <trkpt lat="45.97162" lon="1.41436">
        <ele>388.34322</ele>
        <time>2021-07-07T03:31:08.409Z</time>
      </trkpt>
      <trkpt lat="45.97152" lon="1.41415">
        <ele>387.520519</ele>
        <time>2021-07-07T03:31:12.504Z</time>
      </trkpt>
      <trkpt lat="45.97152" lon="1.41415">
        <ele>387.520519</ele>
        <time>2021-07-07T03:31:12.817Z</time>
      </trkpt>
      <trkpt lat="45.97152" lon="1.41415">
        <ele>387.520519</ele>
        <time>2021-07-07T03:31:12.859Z</time>
      </trkpt>
      <trkpt lat="45.97142" lon="1.41393">
        <ele>386.65526</ele>
        <time>2021-07-07T03:31:17.395Z</time>
      </trkpt>
      <trkpt lat="45.97121" lon="1.41334">
        <ele>384.523429</ele>
        <time>2021-07-07T03:31:28.531Z</time>
      </trkpt>
      <trkpt lat="45.97034" lon="1.41199">
        <ele>380.6067</ele>
        <time>2021-07-07T03:31:54.367Z</time>
      </trkpt>
      <trkpt lat="45.97016" lon="1.41148">
        <ele>379.993347</ele>
        <time>2021-07-07T03:32:03.451Z</time>
      </trkpt>
      <trkpt lat="45.9701" lon="1.41127">
        <ele>379.739006</ele>
        <time>2021-07-07T03:32:07.216Z</time>
      </trkpt>
      <trkpt lat="45.97033" lon="1.41045">
        <ele>378.865827</ele>
        <time>2021-07-07T03:32:18.444Z</time>
      </trkpt>
      <trkpt lat="45.97037" lon="1.41028">
        <ele>378.968958</ele>
        <time>2021-07-07T03:32:20.864Z</time>
      </trkpt>
      <trkpt lat="45.9704" lon="1.40975">
        <ele>379.263693</ele>
        <time>2021-07-07T03:32:28.217Z</time>
      </trkpt>
      <trkpt lat="45.97042" lon="1.40931">
        <ele>379.506941</ele>
        <time>2021-07-07T03:32:35.146Z</time>
      </trkpt>
      <trkpt lat="45.97039" lon="1.40911">
        <ele>379.623623</ele>
        <time>2021-07-07T03:32:38.894Z</time>
      </trkpt>
      <trkpt lat="45.97003" lon="1.40832">
        <ele>380.151185</ele>
        <time>2021-07-07T03:32:57.891Z</time>
      </trkpt>
      <trkpt lat="45.96952" lon="1.40697">
        <ele>381.571544</ele>
        <time>2021-07-07T03:33:28.532Z</time>
      </trkpt>
      <trkpt lat="45.96938" lon="1.40693">
        <ele>381.773203</ele>
        <time>2021-07-07T03:33:32.750Z</time>
      </trkpt>
      <trkpt lat="45.9693" lon="1.40704">
        <ele>381.941442</ele>
        <time>2021-07-07T03:33:36.327Z</time>
      </trkpt>
      <trkpt lat="45.96906" lon="1.40726">
        <ele>382.347744</ele>
        <time>2021-07-07T03:33:44.339Z</time>
      </trkpt>
      <trkpt lat="45.96877" lon="1.40756">
        <ele>382.850013</ele>
        <time>2021-07-07T03:33:53.775Z</time>
      </trkpt>
      <trkpt lat="45.96852" lon="1.40769">
        <ele>383.154355</ele>
        <time>2021-07-07T03:34:00.248Z</time>
      </trkpt>
      <trkpt lat="45.968" lon="1.4079">
        <ele>383.753427</ele>
        <time>2021-07-07T03:34:11.897Z</time>
      </trkpt>
      <trkpt lat="45.9676" lon="1.40801">
        <ele>384.210874</ele>
        <time>2021-07-07T03:34:21.226Z</time>
      </trkpt>
      <trkpt lat="45.96736" lon="1.40798">
        <ele>384.484961</ele>
        <time>2021-07-07T03:34:28.035Z</time>
      </trkpt>
      <trkpt lat="45.96716" lon="1.40785">
        <ele>384.72959</ele>
        <time>2021-07-07T03:34:34.721Z</time>
      </trkpt>
      <trkpt lat="45.96701" lon="1.40772">
        <ele>385.005023</ele>
        <time>2021-07-07T03:34:41.146Z</time>
      </trkpt>
      <trkpt lat="45.96684" lon="1.40742">
        <ele>385.84858</ele>
        <time>2021-07-07T03:34:50.940Z</time>
      </trkpt>
      <trkpt lat="45.96671" lon="1.4071">
        <ele>386.654748</ele>
        <time>2021-07-07T03:35:02.086Z</time>
      </trkpt>
      <trkpt lat="45.96651" lon="1.40653">
        <ele>388.05644</ele>
        <time>2021-07-07T03:35:22.259Z</time>
      </trkpt>
      <trkpt lat="45.96633" lon="1.40604">
        <ele>389.246928</ele>
        <time>2021-07-07T03:35:39.568Z</time>
      </trkpt>
      <trkpt lat="45.96625" lon="1.40594">
        <ele>389.593288</ele>
        <time>2021-07-07T03:35:45.359Z</time>
      </trkpt>
      <trkpt lat="45.96598" lon="1.4059">
        <ele>390.435358</ele>
        <time>2021-07-07T03:35:53.511Z</time>
      </trkpt>
      <trkpt lat="45.96588" lon="1.40585">
        <ele>390.342407</ele>
        <time>2021-07-07T03:35:57.432Z</time>
      </trkpt>
      <trkpt lat="45.96523" lon="1.40545">
        <ele>388.896925</ele>
        <time>2021-07-07T03:36:11.282Z</time>
      </trkpt>
      <trkpt lat="45.96502" lon="1.40536">
        <ele>388.448111</ele>
        <time>2021-07-07T03:36:14.401Z</time>
      </trkpt>
      <trkpt lat="45.96468" lon="1.40529">
        <ele>387.767356</ele>
        <time>2021-07-07T03:36:19.126Z</time>
      </trkpt>
      <trkpt lat="45.96438" lon="1.40524">
        <ele>387.155202</ele>
        <time>2021-07-07T03:36:23.078Z</time>
      </trkpt>
      <trkpt lat="45.96414" lon="1.40519">
        <ele>386.264938</ele>
        <time>2021-07-07T03:36:26.352Z</time>
      </trkpt>
      <trkpt lat="45.96399" lon="1.4051">
        <ele>385.31917</ele>
        <time>2021-07-07T03:36:28.442Z</time>
      </trkpt>
      <trkpt lat="45.96387" lon="1.40499">
        <ele>384.485402</ele>
        <time>2021-07-07T03:36:30.320Z</time>
      </trkpt>
      <trkpt lat="45.96357" lon="1.40457">
        <ele>382.069048</ele>
        <time>2021-07-07T03:36:35.776Z</time>
      </trkpt>
      <trkpt lat="45.96348" lon="1.40428">
        <ele>380.789732</ele>
        <time>2021-07-07T03:36:38.550Z</time>
      </trkpt>
      <trkpt lat="45.96347" lon="1.40408">
        <ele>379.986962</ele>
        <time>2021-07-07T03:36:40.364Z</time>
      </trkpt>
      <trkpt lat="45.96347" lon="1.40403">
        <ele>379.764041</ele>
        <time>2021-07-07T03:36:40.844Z</time>
      </trkpt>
      <trkpt lat="45.96338" lon="1.40405">
        <ele>379.203803</ele>
        <time>2021-07-07T03:36:42.059Z</time>
      </trkpt>
      <trkpt lat="45.96331" lon="1.40406">
        <ele>378.815511</ele>
        <time>2021-07-07T03:36:42.904Z</time>
      </trkpt>
      <trkpt lat="45.96326" lon="1.40407">
        <ele>378.509715</ele>
        <time>2021-07-07T03:36:43.556Z</time>
      </trkpt>
      <trkpt lat="45.96327" lon="1.4043">
        <ele>377.56521</ele>
        <time>2021-07-07T03:36:45.784Z</time>
      </trkpt>
      <trkpt lat="45.96339" lon="1.40439">
        <ele>376.745305</ele>
        <time>2021-07-07T03:36:47.525Z</time>
      </trkpt>
      <trkpt lat="45.96357" lon="1.40457">
        <ele>375.623617</ele>
        <time>2021-07-07T03:36:50.367Z</time>
      </trkpt>
      <trkpt lat="45.96357" lon="1.40457">
        <ele>375.623617</ele>
        <time>2021-07-07T03:36:50.528Z</time>
      </trkpt>
      <trkpt lat="45.96348" lon="1.40428">
        <ele>374.551844</ele>
        <time>2021-07-07T03:36:53.400Z</time>
      </trkpt>
      <trkpt lat="45.96347" lon="1.40408">
        <ele>373.879307</ele>
        <time>2021-07-07T03:36:55.253Z</time>
      </trkpt>
      <trkpt lat="45.96347" lon="1.40403">
        <ele>373.692551</ele>
        <time>2021-07-07T03:36:55.786Z</time>
      </trkpt>
      <trkpt lat="45.96338" lon="1.40405">
        <ele>373.2232</ele>
        <time>2021-07-07T03:36:57.018Z</time>
      </trkpt>
      <trkpt lat="45.96331" lon="1.40406">
        <ele>372.8979</ele>
        <time>2021-07-07T03:36:57.907Z</time>
      </trkpt>
      <trkpt lat="45.96326" lon="1.40407">
        <ele>372.641714</ele>
        <time>2021-07-07T03:36:58.661Z</time>
      </trkpt>
      <trkpt lat="45.96295" lon="1.40414">
        <ele>371.097422</ele>
        <time>2021-07-07T03:37:02.944Z</time>
      </trkpt>
      <trkpt lat="45.96239" lon="1.40425">
        <ele>368.349112</ele>
        <time>2021-07-07T03:37:10.708Z</time>
      </trkpt>
      <trkpt lat="45.96219" lon="1.40433">
        <ele>367.420352</ele>
        <time>2021-07-07T03:37:13.435Z</time>
      </trkpt>
      <trkpt lat="45.96199" lon="1.40445">
        <ele>366.710387</ele>
        <time>2021-07-07T03:37:16.255Z</time>
      </trkpt>
      <trkpt lat="45.96094" lon="1.40484">
        <ele>363.183272</ele>
        <time>2021-07-07T03:37:31.377Z</time>
      </trkpt>
      <trkpt lat="45.9605" lon="1.40501">
        <ele>361.746453</ele>
        <time>2021-07-07T03:37:38.750Z</time>
      </trkpt>
      <trkpt lat="45.96024" lon="1.4051">
        <ele>362.013074</ele>
        <time>2021-07-07T03:37:43.696Z</time>
      </trkpt>
      <trkpt lat="45.96007" lon="1.40506">
        <ele>362.187999</ele>
        <time>2021-07-07T03:37:47.325Z</time>
      </trkpt>
      <trkpt lat="45.96006" lon="1.40506">
        <ele>362.203328</ele>
        <time>2021-07-07T03:37:47.688Z</time>
      </trkpt>
      <trkpt lat="45.95992" lon="1.40474">
        <ele>362.467059</ele>
        <time>2021-07-07T03:37:53.679Z</time>
      </trkpt>
      <trkpt lat="45.95982" lon="1.40447">
        <ele>362.679089</ele>
        <time>2021-07-07T03:37:58.959Z</time>
      </trkpt>
      <trkpt lat="45.95976" lon="1.40431">
        <ele>362.809914</ele>
        <time>2021-07-07T03:38:02.498Z</time>
      </trkpt>
      <trkpt lat="45.95961" lon="1.40392">
        <ele>363.124527</ele>
        <time>2021-07-07T03:38:11.007Z</time>
      </trkpt>
      <trkpt lat="45.95928" lon="1.40305">
        <ele>364.271381</ele>
        <time>2021-07-07T03:38:32.646Z</time>
      </trkpt>
      <trkpt lat="45.95918" lon="1.40278">
        <ele>364.852857</ele>
        <time>2021-07-07T03:38:39.865Z</time>
      </trkpt>
      <trkpt lat="45.95908" lon="1.4025">
        <ele>365.458378</ele>
        <time>2021-07-07T03:38:47.242Z</time>
      </trkpt>
      <trkpt lat="45.95913" lon="1.40247">
        <ele>365.609869</ele>
        <time>2021-07-07T03:38:49.135Z</time>
      </trkpt>
      <trkpt lat="45.95972" lon="1.40206">
        <ele>367.406002</ele>
        <time>2021-07-07T03:39:11.565Z</time>
      </trkpt>
      <trkpt lat="45.9598" lon="1.402">
        <ele>367.638426</ele>
        <time>2021-07-07T03:39:14.855Z</time>
      </trkpt>
      <trkpt lat="45.95991" lon="1.40191">
        <ele>367.999866</ele>
        <time>2021-07-07T03:39:19.567Z</time>
      </trkpt>
      <trkpt lat="45.9602" lon="1.4015">
        <ele>368.996584</ele>
        <time>2021-07-07T03:39:32.122Z</time>
      </trkpt>
      <trkpt lat="45.96041" lon="1.40092">
        <ele>370.01468</ele>
        <time>2021-07-07T03:39:44.901Z</time>
      </trkpt>
      <trkpt lat="45.96047" lon="1.40076">
        <ele>370.296793</ele>
        <time>2021-07-07T03:39:49.225Z</time>
      </trkpt>
      <trkpt lat="45.96069" lon="1.40115">
        <ele>371.067607</ele>
        <time>2021-07-07T03:39:59.019Z</time>
      </trkpt>
      <trkpt lat="45.9608" lon="1.40136">
        <ele>371.480128</ele>
        <time>2021-07-07T03:40:04.659Z</time>
      </trkpt>
      <trkpt lat="45.96127" lon="1.40187">
        <ele>372.783392</ele>
        <time>2021-07-07T03:40:22.707Z</time>
      </trkpt>
      <trkpt lat="45.96142" lon="1.40197">
        <ele>373.150025</ele>
        <time>2021-07-07T03:40:27.794Z</time>
      </trkpt>
      <trkpt lat="45.96187" lon="1.40201">
        <ele>374.092801</ele>
        <time>2021-07-07T03:40:41.269Z</time>
      </trkpt>
      <trkpt lat="45.96201" lon="1.40201">
        <ele>374.388038</ele>
        <time>2021-07-07T03:40:44.941Z</time>
      </trkpt>
      <trkpt lat="45.9622" lon="1.4019">
        <ele>374.818779</ele>
        <time>2021-07-07T03:40:52.192Z</time>
      </trkpt>
      <trkpt lat="45.96228" lon="1.40185">
        <ele>375.007945</ele>
        <time>2021-07-07T03:40:55.025Z</time>
      </trkpt>
      <trkpt lat="45.96269" lon="1.40153">
        <ele>375.999227</ele>
        <time>2021-07-07T03:41:11.427Z</time>
      </trkpt>
      <trkpt lat="45.96309" lon="1.4013">
        <ele>377.204506</ele>
        <time>2021-07-07T03:41:30.560Z</time>
      </trkpt>
      <trkpt lat="45.96322" lon="1.40128">
        <ele>377.618042</ele>
        <time>2021-07-07T03:41:36.463Z</time>
      </trkpt>
      <trkpt lat="45.96335" lon="1.40126">
        <ele>378.047307</ele>
        <time>2021-07-07T03:41:42.547Z</time>
      </trkpt>
      <trkpt lat="45.96411" lon="1.40147">
        <ele>380.468029</ele>
        <time>2021-07-07T03:42:18.840Z</time>
      </trkpt>
      <trkpt lat="45.9647" lon="1.40093">
        <ele>383.116604</ele>
        <time>2021-07-07T03:42:54.051Z</time>
      </trkpt>
      <trkpt lat="45.96475" lon="1.40079">
        <ele>383.690805</ele>
        <time>2021-07-07T03:43:00.110Z</time>
      </trkpt>
      <trkpt lat="45.96459" lon="1.40017">
        <ele>386.084089</ele>
        <time>2021-07-07T03:43:26.624Z</time>
      </trkpt>
      <trkpt lat="45.9645" lon="1.39939">
        <ele>388.950047</ele>
        <time>2021-07-07T03:44:00.188Z</time>
      </trkpt>
      <trkpt lat="45.96442" lon="1.39928">
        <ele>389.549897</ele>
        <time>2021-07-07T03:44:07.092Z</time>
      </trkpt>
      <trkpt lat="45.96421" lon="1.39924">
        <ele>390.633171</ele>
        <time>2021-07-07T03:44:20.132Z</time>
      </trkpt>
      <trkpt lat="45.96408" lon="1.3988">
        <ele>392.191565</ele>
        <time>2021-07-07T03:44:39.908Z</time>
      </trkpt>
      <trkpt lat="45.96406" lon="1.39877">
        <ele>392.315759</ele>
        <time>2021-07-07T03:44:42.235Z</time>
      </trkpt>
      <trkpt lat="45.96378" lon="1.39843">
        <ele>393.931301</ele>
        <time>2021-07-07T03:45:04.331Z</time>
      </trkpt>
      <trkpt lat="45.96289" lon="1.39776">
        <ele>398.30942</ele>
        <time>2021-07-07T03:45:59.069Z</time>
      </trkpt>
      <trkpt lat="45.96205" lon="1.397">
        <ele>398.751554</ele>
        <time>2021-07-07T03:46:37.253Z</time>
      </trkpt>
      <trkpt lat="45.96161" lon="1.39636">
        <ele>398.359917</ele>
        <time>2021-07-07T03:46:54.613Z</time>
      </trkpt>
      <trkpt lat="45.96156" lon="1.39639">
        <ele>398.327439</ele>
        <time>2021-07-07T03:46:55.659Z</time>
      </trkpt>
      <trkpt lat="45.96146" lon="1.39654">
        <ele>398.238399</ele>
        <time>2021-07-07T03:46:57.717Z</time>
      </trkpt>
      <trkpt lat="45.96111" lon="1.39679">
        <ele>397.588948</ele>
        <time>2021-07-07T03:47:03.277Z</time>
      </trkpt>
      <trkpt lat="45.96084" lon="1.39707">
        <ele>396.682552</ele>
        <time>2021-07-07T03:47:08.059Z</time>
      </trkpt>
      <trkpt lat="45.96024" lon="1.3957">
        <ele>393.63858</ele>
        <time>2021-07-07T03:47:24.396Z</time>
      </trkpt>
      <trkpt lat="45.96009" lon="1.39536">
        <ele>393.081079</ele>
        <time>2021-07-07T03:47:29.298Z</time>
      </trkpt>
      <trkpt lat="45.9598" lon="1.39477">
        <ele>392.493341</ele>
        <time>2021-07-07T03:47:37.803Z</time>
      </trkpt>
      <trkpt lat="45.95958" lon="1.39454">
        <ele>392.179993</ele>
        <time>2021-07-07T03:47:43.077Z</time>
      </trkpt>
      <trkpt lat="45.95909" lon="1.39423">
        <ele>391.550387</ele>
        <time>2021-07-07T03:47:52.719Z</time>
      </trkpt>
      <trkpt lat="45.95906" lon="1.39421">
        <ele>391.511525</ele>
        <time>2021-07-07T03:47:54.556Z</time>
      </trkpt>
      <trkpt lat="45.95892" lon="1.39437">
        <ele>391.309471</ele>
        <time>2021-07-07T03:47:57.457Z</time>
      </trkpt>
      <trkpt lat="45.95891" lon="1.39439">
        <ele>391.291373</ele>
        <time>2021-07-07T03:47:57.643Z</time>
      </trkpt>
      <trkpt lat="45.95769" lon="1.39578">
        <ele>386.409744</ele>
        <time>2021-07-07T03:48:20.024Z</time>
      </trkpt>
      <trkpt lat="45.95764" lon="1.39581">
        <ele>386.235147</ele>
        <time>2021-07-07T03:48:20.679Z</time>
      </trkpt>
      <trkpt lat="45.95765" lon="1.3959">
        <ele>386.030837</ele>
        <time>2021-07-07T03:48:21.538Z</time>
      </trkpt>
      <trkpt lat="45.95754" lon="1.39606">
        <ele>385.515784</ele>
        <time>2021-07-07T03:48:23.640Z</time>
      </trkpt>
      <trkpt lat="45.95731" lon="1.39664">
        <ele>384.324929</ele>
        <time>2021-07-07T03:48:30.103Z</time>
      </trkpt>
      <trkpt lat="45.95711" lon="1.39716">
        <ele>383.344367</ele>
        <time>2021-07-07T03:48:35.870Z</time>
      </trkpt>
      <trkpt lat="45.95707" lon="1.39728">
        <ele>383.128601</ele>
        <time>2021-07-07T03:48:37.188Z</time>
      </trkpt>
      <trkpt lat="45.95698" lon="1.39721">
        <ele>382.904615</ele>
        <time>2021-07-07T03:48:38.505Z</time>
      </trkpt>
      <trkpt lat="45.95676" lon="1.39697">
        <ele>382.237572</ele>
        <time>2021-07-07T03:48:42.614Z</time>
      </trkpt>
      <trkpt lat="45.95627" lon="1.39602">
        <ele>382.374233</ele>
        <time>2021-07-07T03:48:57.620Z</time>
      </trkpt>
      <trkpt lat="45.95616" lon="1.39566">
        <ele>383.866205</ele>
        <time>2021-07-07T03:49:06.690Z</time>
      </trkpt>
      <trkpt lat="45.95609" lon="1.39485">
        <ele>386.915143</ele>
        <time>2021-07-07T03:49:34.377Z</time>
      </trkpt>
      <trkpt lat="45.95614" lon="1.39456">
        <ele>388.021325</ele>
        <time>2021-07-07T03:49:45.181Z</time>
      </trkpt>
      <trkpt lat="45.95612" lon="1.39405">
        <ele>389.960979</ele>
        <time>2021-07-07T03:50:08.269Z</time>
      </trkpt>
      <trkpt lat="45.95604" lon="1.3936">
        <ele>392.491778</ele>
        <time>2021-07-07T03:50:29.679Z</time>
      </trkpt>
      <trkpt lat="45.95604" lon="1.3936">
        <ele>392.491778</ele>
        <time>2021-07-07T03:50:30.131Z</time>
      </trkpt>
      <trkpt lat="45.95585" lon="1.39354">
        <ele>394.274271</ele>
        <time>2021-07-07T03:50:46.339Z</time>
      </trkpt>
      <trkpt lat="45.95552" lon="1.39343">
        <ele>397.469192</ele>
        <time>2021-07-07T03:51:16.404Z</time>
      </trkpt>
      <trkpt lat="45.9551" lon="1.39307">
        <ele>402.103678</ele>
        <time>2021-07-07T03:51:57.452Z</time>
      </trkpt>
      <trkpt lat="45.95502" lon="1.39305">
        <ele>402.844661</ele>
        <time>2021-07-07T03:52:07.589Z</time>
      </trkpt>
      <trkpt lat="45.95495" lon="1.39295">
        <ele>403.76161</ele>
        <time>2021-07-07T03:52:16.139Z</time>
      </trkpt>
      <trkpt lat="45.95452" lon="1.39189">
        <ele>407.801929</ele>
        <time>2021-07-07T03:53:08.124Z</time>
      </trkpt>
      <trkpt lat="45.95445" lon="1.39178">
        <ele>407.863807</ele>
        <time>2021-07-07T03:53:13.954Z</time>
      </trkpt>
      <trkpt lat="45.95424" lon="1.39176">
        <ele>407.987834</ele>
        <time>2021-07-07T03:53:22.837Z</time>
      </trkpt>
      <trkpt lat="45.95412" lon="1.39173">
        <ele>408.059294</ele>
        <time>2021-07-07T03:53:26.990Z</time>
      </trkpt>
      <trkpt lat="45.95406" lon="1.39178">
        <ele>408.101035</ele>
        <time>2021-07-07T03:53:30.364Z</time>
      </trkpt>
      <trkpt lat="45.95347" lon="1.39099">
        <ele>408.583178</ele>
        <time>2021-07-07T03:53:51.075Z</time>
      </trkpt>
      <trkpt lat="45.95324" lon="1.39069">
        <ele>408.603781</ele>
        <time>2021-07-07T03:53:55.411Z</time>
      </trkpt>
      <trkpt lat="45.95308" lon="1.39049">
        <ele>408.603781</ele>
        <time>2021-07-07T03:53:58.490Z</time>
      </trkpt>
      <trkpt lat="45.95298" lon="1.39035">
        <ele>408.603781</ele>
        <time>2021-07-07T03:54:00.352Z</time>
      </trkpt>
      <trkpt lat="45.95259" lon="1.3896">
        <ele>408.603781</ele>
        <time>2021-07-07T03:54:09.402Z</time>
      </trkpt>
      <trkpt lat="45.95247" lon="1.38926">
        <ele>408.603781</ele>
        <time>2021-07-07T03:54:13.361Z</time>
      </trkpt>
    </trkseg>
  </trk>
</gpx>